<?xml version='1.0' encoding='UTF-8'?><gpx version="1.1" creator="JPX - https://github.com/jenetics/jpx" xmlns="http://www.topografix.com/GPX/1/1"><trk><trkseg><trkpt lat="44.1507504" lon="10.4125448"><ele>546.0</ele><time>2026-03-25T08:40:26.172Z</time></trkpt><trkpt lat="44.1507579" lon="10.4124285"><ele>546.0</ele><time>2026-03-25T08:40:29.196Z</time></trkpt><trkpt lat="44.1507891" lon="10.4122772"><ele>546.0</ele><time>2026-03-25T08:40:31.178Z</time></trkpt><trkpt lat="44.1508128" lon="10.4121715"><ele>546.0</ele><time>2026-03-25T08:40:33.185Z</time></trkpt><trkpt lat="44.1508846" lon="10.4121085"><ele>546.0</ele><time>2026-03-25T08:40:36.166Z</time></trkpt><trkpt lat="44.150973" lon="10.4121181"><ele>543.8571428571429</ele><time>2026-03-25T08:40:40.181Z</time></trkpt><trkpt lat="44.1510424" lon="10.4120916"><ele>541.7142857142858</ele><time>2026-03-25T08:40:42.179Z</time></trkpt><trkpt lat="44.1510989" lon="10.4120048"><ele>539.5714285714286</ele><time>2026-03-25T08:40:45.097Z</time></trkpt><trkpt lat="44.1510443" lon="10.4119599"><ele>537.4285714285714</ele><time>2026-03-25T08:40:46.192Z</time></trkpt><trkpt lat="44.1509687" lon="10.4119243"><ele>535.2857142857143</ele><time>2026-03-25T08:40:48.186Z</time></trkpt><trkpt lat="44.150924" lon="10.4118441"><ele>533.1428571428571</ele><time>2026-03-25T08:40:51.183Z</time></trkpt><trkpt lat="44.1508586" lon="10.4118015"><ele>531.0</ele><time>2026-03-25T08:40:55.172Z</time></trkpt><trkpt lat="44.1507816" lon="10.411798"><ele>530.75</ele><time>2026-03-25T08:40:57.183Z</time></trkpt><trkpt lat="44.1506976" lon="10.411805"><ele>530.5</ele><time>2026-03-25T08:40:59.175Z</time></trkpt><trkpt lat="44.1505751" lon="10.411792"><ele>530.25</ele><time>2026-03-25T08:41:01.172Z</time></trkpt><trkpt lat="44.150458" lon="10.4117537"><ele>530.0</ele><time>2026-03-25T08:41:03.175Z</time></trkpt><trkpt lat="44.1503395" lon="10.4116859"><ele>529.9999999999999</ele><time>2026-03-25T08:41:05.187Z</time></trkpt><trkpt lat="44.1502732" lon="10.4116528"><ele>530.0</ele><time>2026-03-25T08:41:06.176Z</time></trkpt><trkpt lat="44.1502042" lon="10.4116222"><ele>530.0</ele><time>2026-03-25T08:41:07.181Z</time></trkpt><trkpt lat="44.1501397" lon="10.4115859"><ele>530.0</ele><time>2026-03-25T08:41:08.183Z</time></trkpt><trkpt lat="44.1500658" lon="10.4115426"><ele>530.0</ele><time>2026-03-25T08:41:09.181Z</time></trkpt><trkpt lat="44.1499977" lon="10.411508"><ele>529.9999999999999</ele><time>2026-03-25T08:41:10.181Z</time></trkpt><trkpt lat="44.1499235" lon="10.4114714"><ele>530.0</ele><time>2026-03-25T08:41:11.166Z</time></trkpt><trkpt lat="44.1498503" lon="10.4114342"><ele>529.0</ele><time>2026-03-25T08:41:12.175Z</time></trkpt><trkpt lat="44.149776" lon="10.4113964"><ele>528.0</ele><time>2026-03-25T08:41:13.173Z</time></trkpt><trkpt lat="44.1497003" lon="10.4113606"><ele>527.0</ele><time>2026-03-25T08:41:14.178Z</time></trkpt><trkpt lat="44.1496264" lon="10.4113267"><ele>526.0</ele><time>2026-03-25T08:41:15.18Z</time></trkpt><trkpt lat="44.1495553" lon="10.411287"><ele>525.0</ele><time>2026-03-25T08:41:16.175Z</time></trkpt><trkpt lat="44.1494859" lon="10.411256"><ele>524.0</ele><time>2026-03-25T08:41:17.178Z</time></trkpt><trkpt lat="44.1494164" lon="10.4112146"><ele>524.1666666666666</ele><time>2026-03-25T08:41:18.179Z</time></trkpt><trkpt lat="44.149349" lon="10.4111686"><ele>524.3333333333333</ele><time>2026-03-25T08:41:19.172Z</time></trkpt><trkpt lat="44.1492815" lon="10.4111349"><ele>524.5</ele><time>2026-03-25T08:41:20.18Z</time></trkpt><trkpt lat="44.1492117" lon="10.4111227"><ele>524.6666666666666</ele><time>2026-03-25T08:41:21.17Z</time></trkpt><trkpt lat="44.1491473" lon="10.4111303"><ele>524.8333333333334</ele><time>2026-03-25T08:41:22.179Z</time></trkpt><trkpt lat="44.1490892" lon="10.411167"><ele>525.0</ele><time>2026-03-25T08:41:23.18Z</time></trkpt><trkpt lat="44.1489853" lon="10.4112612"><ele>525.0</ele><time>2026-03-25T08:41:25.164Z</time></trkpt><trkpt lat="44.1488934" lon="10.4113488"><ele>525.0</ele><time>2026-03-25T08:41:27.179Z</time></trkpt><trkpt lat="44.1488003" lon="10.4113987"><ele>525.0</ele><time>2026-03-25T08:41:29.164Z</time></trkpt><trkpt lat="44.1487163" lon="10.4113709"><ele>525.0</ele><time>2026-03-25T08:41:31.174Z</time></trkpt><trkpt lat="44.148648" lon="10.4113142"><ele>525.0</ele><time>2026-03-25T08:41:33.168Z</time></trkpt><trkpt lat="44.1486016" lon="10.4112337"><ele>525.0</ele><time>2026-03-25T08:41:35.171Z</time></trkpt><trkpt lat="44.1485584" lon="10.4111505"><ele>525.0</ele><time>2026-03-25T08:41:37.175Z</time></trkpt><trkpt lat="44.1485234" lon="10.4110628"><ele>525.0</ele><time>2026-03-25T08:41:39.174Z</time></trkpt><trkpt lat="44.1484886" lon="10.4109698"><ele>525.0</ele><time>2026-03-25T08:41:41.175Z</time></trkpt><trkpt lat="44.1484533" lon="10.4108705"><ele>525.0</ele><time>2026-03-25T08:41:43.181Z</time></trkpt><trkpt lat="44.1484164" lon="10.4107633"><ele>525.0</ele><time>2026-03-25T08:41:45.171Z</time></trkpt><trkpt lat="44.1483807" lon="10.4106479"><ele>525.0</ele><time>2026-03-25T08:41:47.177Z</time></trkpt><trkpt lat="44.1483436" lon="10.4105302"><ele>525.0</ele><time>2026-03-25T08:41:49.171Z</time></trkpt><trkpt lat="44.1483174" lon="10.4104097"><ele>525.0</ele><time>2026-03-25T08:41:51.171Z</time></trkpt><trkpt lat="44.1482927" lon="10.4102791"><ele>525.0</ele><time>2026-03-25T08:41:53.18Z</time></trkpt><trkpt lat="44.1482602" lon="10.4101556"><ele>525.0</ele><time>2026-03-25T08:41:55.179Z</time></trkpt><trkpt lat="44.1482266" lon="10.4100348"><ele>521.8</ele><time>2026-03-25T08:41:57.181Z</time></trkpt><trkpt lat="44.1482021" lon="10.4099112"><ele>518.6</ele><time>2026-03-25T08:41:59.179Z</time></trkpt><trkpt lat="44.1481774" lon="10.4097712"><ele>515.4</ele><time>2026-03-25T08:42:01.171Z</time></trkpt><trkpt lat="44.1481641" lon="10.409623"><ele>512.2</ele><time>2026-03-25T08:42:03.181Z</time></trkpt><trkpt lat="44.1481436" lon="10.4094681"><ele>509.0</ele><time>2026-03-25T08:42:05.181Z</time></trkpt><trkpt lat="44.1481249" lon="10.4093075"><ele>509.0</ele><time>2026-03-25T08:42:07.177Z</time></trkpt><trkpt lat="44.1481187" lon="10.4091504"><ele>509.0</ele><time>2026-03-25T08:42:09.177Z</time></trkpt><trkpt lat="44.1481033" lon="10.4089907"><ele>509.0</ele><time>2026-03-25T08:42:11.181Z</time></trkpt><trkpt lat="44.1480896" lon="10.4088265"><ele>509.0</ele><time>2026-03-25T08:42:13.175Z</time></trkpt><trkpt lat="44.1480748" lon="10.4086685"><ele>510.16666666666663</ele><time>2026-03-25T08:42:15.18Z</time></trkpt><trkpt lat="44.1480656" lon="10.4085037"><ele>511.3333333333333</ele><time>2026-03-25T08:42:17.174Z</time></trkpt><trkpt lat="44.148056" lon="10.4084125"><ele>512.5</ele><time>2026-03-25T08:42:18.18Z</time></trkpt><trkpt lat="44.1480474" lon="10.4083245"><ele>513.6666666666666</ele><time>2026-03-25T08:42:19.17Z</time></trkpt><trkpt lat="44.1480422" lon="10.4082268"><ele>514.8333333333334</ele><time>2026-03-25T08:42:20.18Z</time></trkpt><trkpt lat="44.1480354" lon="10.4081321"><ele>516.0</ele><time>2026-03-25T08:42:21.177Z</time></trkpt><trkpt lat="44.1480197" lon="10.4080297"><ele>514.6666666666666</ele><time>2026-03-25T08:42:22.177Z</time></trkpt><trkpt lat="44.1479938" lon="10.407938"><ele>513.3333333333334</ele><time>2026-03-25T08:42:23.172Z</time></trkpt><trkpt lat="44.1479441" lon="10.4078611"><ele>512.0</ele><time>2026-03-25T08:42:24.19Z</time></trkpt><trkpt lat="44.1478714" lon="10.4078064"><ele>510.6666666666667</ele><time>2026-03-25T08:42:25.185Z</time></trkpt><trkpt lat="44.147791" lon="10.4077734"><ele>509.33333333333337</ele><time>2026-03-25T08:42:26.185Z</time></trkpt><trkpt lat="44.1477069" lon="10.407755"><ele>508.0</ele><time>2026-03-25T08:42:27.19Z</time></trkpt><trkpt lat="44.1476221" lon="10.4077286"><ele>508.00000000000006</ele><time>2026-03-25T08:42:28.178Z</time></trkpt><trkpt lat="44.1475332" lon="10.4077069"><ele>508.0</ele><time>2026-03-25T08:42:29.183Z</time></trkpt><trkpt lat="44.1474422" lon="10.4077115"><ele>508.0</ele><time>2026-03-25T08:42:30.179Z</time></trkpt><trkpt lat="44.1473494" lon="10.4077386"><ele>508.0</ele><time>2026-03-25T08:42:31.182Z</time></trkpt><trkpt lat="44.1472777" lon="10.4077941"><ele>508.00000000000006</ele><time>2026-03-25T08:42:32.176Z</time></trkpt><trkpt lat="44.1472218" lon="10.4078519"><ele>508.0</ele><time>2026-03-25T08:42:33.18Z</time></trkpt><trkpt lat="44.1471651" lon="10.4079824"><ele>506.6666666666667</ele><time>2026-03-25T08:42:35.178Z</time></trkpt><trkpt lat="44.1472204" lon="10.4081363"><ele>505.33333333333337</ele><time>2026-03-25T08:42:37.185Z</time></trkpt><trkpt lat="44.1472748" lon="10.4082055"><ele>504.0</ele><time>2026-03-25T08:42:38.18Z</time></trkpt><trkpt lat="44.1473237" lon="10.4082821"><ele>502.66666666666663</ele><time>2026-03-25T08:42:39.178Z</time></trkpt><trkpt lat="44.1473742" lon="10.4083722"><ele>501.3333333333333</ele><time>2026-03-25T08:42:40.178Z</time></trkpt><trkpt lat="44.1474127" lon="10.4084667"><ele>500.0</ele><time>2026-03-25T08:42:41.181Z</time></trkpt><trkpt lat="44.1474466" lon="10.4085727"><ele>501.49999999999994</ele><time>2026-03-25T08:42:42.179Z</time></trkpt><trkpt lat="44.1474723" lon="10.4086871"><ele>503.0</ele><time>2026-03-25T08:42:43.175Z</time></trkpt><trkpt lat="44.1474915" lon="10.4088031"><ele>504.5</ele><time>2026-03-25T08:42:44.177Z</time></trkpt><trkpt lat="44.1475115" lon="10.4089222"><ele>506.0</ele><time>2026-03-25T08:42:45.178Z</time></trkpt><trkpt lat="44.1475295" lon="10.4090419"><ele>507.49999999999994</ele><time>2026-03-25T08:42:46.175Z</time></trkpt><trkpt lat="44.1475466" lon="10.4091629"><ele>509.0</ele><time>2026-03-25T08:42:47.172Z</time></trkpt><trkpt lat="44.1475644" lon="10.4092877"><ele>509.0</ele><time>2026-03-25T08:42:48.174Z</time></trkpt><trkpt lat="44.1475812" lon="10.4094179"><ele>509.0</ele><time>2026-03-25T08:42:49.177Z</time></trkpt><trkpt lat="44.1475999" lon="10.409556"><ele>509.0</ele><time>2026-03-25T08:42:50.181Z</time></trkpt><trkpt lat="44.1476211" lon="10.4096925"><ele>509.0</ele><time>2026-03-25T08:42:51.184Z</time></trkpt><trkpt lat="44.147641" lon="10.4098249"><ele>509.0</ele><time>2026-03-25T08:42:52.177Z</time></trkpt><trkpt lat="44.1476604" lon="10.4099666"><ele>507.0</ele><time>2026-03-25T08:42:53.179Z</time></trkpt><trkpt lat="44.1476789" lon="10.4101046"><ele>505.0</ele><time>2026-03-25T08:42:54.176Z</time></trkpt><trkpt lat="44.1477011" lon="10.4102456"><ele>503.0</ele><time>2026-03-25T08:42:55.179Z</time></trkpt><trkpt lat="44.1477233" lon="10.4103839"><ele>501.0</ele><time>2026-03-25T08:42:56.181Z</time></trkpt><trkpt lat="44.1477445" lon="10.4105259"><ele>499.0</ele><time>2026-03-25T08:42:57.182Z</time></trkpt><trkpt lat="44.1477663" lon="10.410669"><ele>498.0</ele><time>2026-03-25T08:42:58.176Z</time></trkpt><trkpt lat="44.1477943" lon="10.410812"><ele>497.0</ele><time>2026-03-25T08:42:59.178Z</time></trkpt><trkpt lat="44.1478191" lon="10.4109561"><ele>496.0</ele><time>2026-03-25T08:43:00.182Z</time></trkpt><trkpt lat="44.1478485" lon="10.4111038"><ele>495.0</ele><time>2026-03-25T08:43:01.185Z</time></trkpt><trkpt lat="44.1478749" lon="10.4112538"><ele>494.0</ele><time>2026-03-25T08:43:02.181Z</time></trkpt><trkpt lat="44.1479013" lon="10.4114006"><ele>493.2</ele><time>2026-03-25T08:43:03.175Z</time></trkpt><trkpt lat="44.1479264" lon="10.4115505"><ele>492.4</ele><time>2026-03-25T08:43:04.178Z</time></trkpt><trkpt lat="44.147951" lon="10.4116981"><ele>491.6</ele><time>2026-03-25T08:43:05.178Z</time></trkpt><trkpt lat="44.1479753" lon="10.4118461"><ele>490.8</ele><time>2026-03-25T08:43:06.178Z</time></trkpt><trkpt lat="44.1480014" lon="10.4119947"><ele>490.0</ele><time>2026-03-25T08:43:07.178Z</time></trkpt><trkpt lat="44.1480282" lon="10.4121383"><ele>490.2</ele><time>2026-03-25T08:43:08.178Z</time></trkpt><trkpt lat="44.1480557" lon="10.4122832"><ele>490.4</ele><time>2026-03-25T08:43:09.184Z</time></trkpt><trkpt lat="44.148081" lon="10.4124303"><ele>490.6</ele><time>2026-03-25T08:43:10.177Z</time></trkpt><trkpt lat="44.1481042" lon="10.4125692"><ele>490.8</ele><time>2026-03-25T08:43:11.178Z</time></trkpt><trkpt lat="44.1481327" lon="10.4127067"><ele>491.0</ele><time>2026-03-25T08:43:12.175Z</time></trkpt><trkpt lat="44.1481572" lon="10.4128279"><ele>491.0</ele><time>2026-03-25T08:43:13.178Z</time></trkpt><trkpt lat="44.1481785" lon="10.4129262"><ele>491.0</ele><time>2026-03-25T08:43:14.179Z</time></trkpt><trkpt lat="44.1481829" lon="10.4130692"><ele>491.0</ele><time>2026-03-25T08:43:16.175Z</time></trkpt><trkpt lat="44.1481134" lon="10.4131248"><ele>491.0</ele><time>2026-03-25T08:43:18.178Z</time></trkpt><trkpt lat="44.1480336" lon="10.4130207"><ele>491.0</ele><time>2026-03-25T08:43:20.17Z</time></trkpt><trkpt lat="44.1479561" lon="10.4128963"><ele>491.0</ele><time>2026-03-25T08:43:22.181Z</time></trkpt><trkpt lat="44.1479087" lon="10.4128322"><ele>490.99999999999994</ele><time>2026-03-25T08:43:23.177Z</time></trkpt><trkpt lat="44.1478578" lon="10.4127651"><ele>491.0</ele><time>2026-03-25T08:43:24.175Z</time></trkpt><trkpt lat="44.1478122" lon="10.4127001"><ele>491.0</ele><time>2026-03-25T08:43:25.177Z</time></trkpt><trkpt lat="44.1477633" lon="10.4126231"><ele>490.99999999999994</ele><time>2026-03-25T08:43:26.18Z</time></trkpt><trkpt lat="44.1477165" lon="10.4125495"><ele>491.0</ele><time>2026-03-25T08:43:27.179Z</time></trkpt><trkpt lat="44.1476646" lon="10.4124705"><ele>491.0</ele><time>2026-03-25T08:43:28.181Z</time></trkpt><trkpt lat="44.1476071" lon="10.4123918"><ele>490.99999999999994</ele><time>2026-03-25T08:43:29.178Z</time></trkpt><trkpt lat="44.1475493" lon="10.4123053"><ele>491.0</ele><time>2026-03-25T08:43:30.177Z</time></trkpt><trkpt lat="44.147492" lon="10.4122194"><ele>491.0</ele><time>2026-03-25T08:43:31.181Z</time></trkpt><trkpt lat="44.1474312" lon="10.4121299"><ele>491.0</ele><time>2026-03-25T08:43:32.18Z</time></trkpt><trkpt lat="44.1473692" lon="10.4120443"><ele>490.99999999999994</ele><time>2026-03-25T08:43:33.18Z</time></trkpt><trkpt lat="44.1473048" lon="10.4119533"><ele>491.0</ele><time>2026-03-25T08:43:34.185Z</time></trkpt><trkpt lat="44.1472414" lon="10.4118596"><ele>490.3333333333333</ele><time>2026-03-25T08:43:35.175Z</time></trkpt><trkpt lat="44.1471772" lon="10.4117651"><ele>489.66666666666663</ele><time>2026-03-25T08:43:36.177Z</time></trkpt><trkpt lat="44.1471122" lon="10.411678"><ele>489.0</ele><time>2026-03-25T08:43:37.179Z</time></trkpt><trkpt lat="44.1470557" lon="10.4115953"><ele>488.33333333333337</ele><time>2026-03-25T08:43:38.18Z</time></trkpt><trkpt lat="44.1470047" lon="10.4115175"><ele>487.6666666666667</ele><time>2026-03-25T08:43:39.179Z</time></trkpt><trkpt lat="44.1469577" lon="10.4114449"><ele>487.0</ele><time>2026-03-25T08:43:40.179Z</time></trkpt><trkpt lat="44.1469091" lon="10.4113768"><ele>485.6</ele><time>2026-03-25T08:43:41.177Z</time></trkpt><trkpt lat="44.1468629" lon="10.4113116"><ele>484.20000000000005</ele><time>2026-03-25T08:43:42.179Z</time></trkpt><trkpt lat="44.1467807" lon="10.4111901"><ele>482.8</ele><time>2026-03-25T08:43:44.177Z</time></trkpt><trkpt lat="44.1466994" lon="10.4110801"><ele>481.4</ele><time>2026-03-25T08:43:46.178Z</time></trkpt><trkpt lat="44.1466306" lon="10.4109889"><ele>480.0</ele><time>2026-03-25T08:43:48.17Z</time></trkpt><trkpt lat="44.1465169" lon="10.4109156"><ele>479.1666666666667</ele><time>2026-03-25T08:43:50.172Z</time></trkpt><trkpt lat="44.1464484" lon="10.4108894"><ele>478.33333333333337</ele><time>2026-03-25T08:43:51.181Z</time></trkpt><trkpt lat="44.1463762" lon="10.4108701"><ele>477.5</ele><time>2026-03-25T08:43:52.176Z</time></trkpt><trkpt lat="44.1463056" lon="10.4108407"><ele>476.6666666666667</ele><time>2026-03-25T08:43:53.181Z</time></trkpt><trkpt lat="44.1462367" lon="10.4108051"><ele>475.83333333333337</ele><time>2026-03-25T08:43:54.188Z</time></trkpt><trkpt lat="44.1461612" lon="10.4107676"><ele>475.0</ele><time>2026-03-25T08:43:55.174Z</time></trkpt><trkpt lat="44.1460791" lon="10.4107382"><ele>475.00000000000006</ele><time>2026-03-25T08:43:56.18Z</time></trkpt><trkpt lat="44.1459989" lon="10.4107065"><ele>475.0</ele><time>2026-03-25T08:43:57.178Z</time></trkpt><trkpt lat="44.1459161" lon="10.4106764"><ele>475.0</ele><time>2026-03-25T08:43:58.176Z</time></trkpt><trkpt lat="44.1458344" lon="10.4106441"><ele>475.0</ele><time>2026-03-25T08:43:59.18Z</time></trkpt><trkpt lat="44.1457484" lon="10.410614"><ele>475.00000000000006</ele><time>2026-03-25T08:44:00.178Z</time></trkpt><trkpt lat="44.1456644" lon="10.4105817"><ele>475.0</ele><time>2026-03-25T08:44:01.176Z</time></trkpt><trkpt lat="44.1455789" lon="10.4105516"><ele>474.6</ele><time>2026-03-25T08:44:02.185Z</time></trkpt><trkpt lat="44.1454884" lon="10.4105235"><ele>474.2</ele><time>2026-03-25T08:44:03.171Z</time></trkpt><trkpt lat="44.1454011" lon="10.4104962"><ele>473.79999999999995</ele><time>2026-03-25T08:44:04.175Z</time></trkpt><trkpt lat="44.1453111" lon="10.4104679"><ele>473.4</ele><time>2026-03-25T08:44:05.189Z</time></trkpt><trkpt lat="44.1452195" lon="10.410438"><ele>473.0</ele><time>2026-03-25T08:44:06.177Z</time></trkpt><trkpt lat="44.145126" lon="10.4104103"><ele>472.59999999999997</ele><time>2026-03-25T08:44:07.17Z</time></trkpt><trkpt lat="44.1450326" lon="10.4103759"><ele>472.19999999999993</ele><time>2026-03-25T08:44:08.176Z</time></trkpt><trkpt lat="44.1449394" lon="10.4103416"><ele>471.8</ele><time>2026-03-25T08:44:09.177Z</time></trkpt><trkpt lat="44.144844" lon="10.4103064"><ele>471.4</ele><time>2026-03-25T08:44:10.174Z</time></trkpt><trkpt lat="44.1447492" lon="10.4102717"><ele>471.0</ele><time>2026-03-25T08:44:11.18Z</time></trkpt><trkpt lat="44.1446513" lon="10.4102382"><ele>469.6</ele><time>2026-03-25T08:44:12.169Z</time></trkpt><trkpt lat="44.1445517" lon="10.410201"><ele>468.20000000000005</ele><time>2026-03-25T08:44:13.178Z</time></trkpt><trkpt lat="44.1444517" lon="10.4101678"><ele>466.79999999999995</ele><time>2026-03-25T08:44:14.183Z</time></trkpt><trkpt lat="44.1443503" lon="10.4101311"><ele>465.4</ele><time>2026-03-25T08:44:15.186Z</time></trkpt><trkpt lat="44.1442472" lon="10.4100952"><ele>464.0</ele><time>2026-03-25T08:44:16.177Z</time></trkpt><trkpt lat="44.1441445" lon="10.4100597"><ele>461.2</ele><time>2026-03-25T08:44:17.179Z</time></trkpt><trkpt lat="44.144037" lon="10.4100406"><ele>458.4</ele><time>2026-03-25T08:44:18.182Z</time></trkpt><trkpt lat="44.1439298" lon="10.4100552"><ele>455.6</ele><time>2026-03-25T08:44:19.178Z</time></trkpt><trkpt lat="44.1438238" lon="10.4101006"><ele>452.8</ele><time>2026-03-25T08:44:20.176Z</time></trkpt><trkpt lat="44.1437191" lon="10.4101545"><ele>450.0</ele><time>2026-03-25T08:44:21.177Z</time></trkpt><trkpt lat="44.1436129" lon="10.4102134"><ele>450.0</ele><time>2026-03-25T08:44:22.181Z</time></trkpt><trkpt lat="44.1435162" lon="10.4102546"><ele>450.0</ele><time>2026-03-25T08:44:23.17Z</time></trkpt><trkpt lat="44.1434333" lon="10.4103057"><ele>450.0</ele><time>2026-03-25T08:44:24.191Z</time></trkpt><trkpt lat="44.1433761" lon="10.4103782"><ele>450.0</ele><time>2026-03-25T08:44:25.177Z</time></trkpt><trkpt lat="44.1433466" lon="10.4104715"><ele>450.0</ele><time>2026-03-25T08:44:26.182Z</time></trkpt><trkpt lat="44.1433571" lon="10.410571"><ele>450.0</ele><time>2026-03-25T08:44:27.166Z</time></trkpt><trkpt lat="44.1434281" lon="10.4107219"><ele>449.5</ele><time>2026-03-25T08:44:29.172Z</time></trkpt><trkpt lat="44.1435083" lon="10.4107853"><ele>449.0</ele><time>2026-03-25T08:44:30.184Z</time></trkpt><trkpt lat="44.1435776" lon="10.4108498"><ele>448.5</ele><time>2026-03-25T08:44:31.166Z</time></trkpt><trkpt lat="44.1436473" lon="10.4109221"><ele>448.0</ele><time>2026-03-25T08:44:32.164Z</time></trkpt><trkpt lat="44.1437191" lon="10.4109913"><ele>447.5</ele><time>2026-03-25T08:44:33.162Z</time></trkpt><trkpt lat="44.1437968" lon="10.4110628"><ele>447.0</ele><time>2026-03-25T08:44:34.166Z</time></trkpt><trkpt lat="44.1438703" lon="10.4111272"><ele>447.0</ele><time>2026-03-25T08:44:35.165Z</time></trkpt><trkpt lat="44.1439301" lon="10.4112176"><ele>447.00000000000006</ele><time>2026-03-25T08:44:36.164Z</time></trkpt><trkpt lat="44.1439678" lon="10.4113439"><ele>447.00000000000006</ele><time>2026-03-25T08:44:37.164Z</time></trkpt><trkpt lat="44.1439832" lon="10.4114824"><ele>447.0</ele><time>2026-03-25T08:44:38.166Z</time></trkpt><trkpt lat="44.1439551" lon="10.4116219"><ele>447.0</ele><time>2026-03-25T08:44:39.161Z</time></trkpt><trkpt lat="44.1438973" lon="10.4117472"><ele>445.6</ele><time>2026-03-25T08:44:40.164Z</time></trkpt><trkpt lat="44.143829" lon="10.4118575"><ele>444.20000000000005</ele><time>2026-03-25T08:44:41.17Z</time></trkpt><trkpt lat="44.1437474" lon="10.4119524"><ele>442.8</ele><time>2026-03-25T08:44:42.16Z</time></trkpt><trkpt lat="44.1436493" lon="10.4120175"><ele>441.4</ele><time>2026-03-25T08:44:43.171Z</time></trkpt><trkpt lat="44.1435543" lon="10.4120617"><ele>440.0</ele><time>2026-03-25T08:44:44.175Z</time></trkpt><trkpt lat="44.1434438" lon="10.4120721"><ele>440.0</ele><time>2026-03-25T08:44:45.163Z</time></trkpt><trkpt lat="44.1433365" lon="10.4120992"><ele>440.0</ele><time>2026-03-25T08:44:46.163Z</time></trkpt><trkpt lat="44.1432281" lon="10.4121403"><ele>440.0</ele><time>2026-03-25T08:44:47.164Z</time></trkpt><trkpt lat="44.1431265" lon="10.4121868"><ele>440.0</ele><time>2026-03-25T08:44:48.171Z</time></trkpt><trkpt lat="44.1430173" lon="10.4122389"><ele>440.0</ele><time>2026-03-25T08:44:49.167Z</time></trkpt><trkpt lat="44.1429093" lon="10.4122849"><ele>438.16666666666663</ele><time>2026-03-25T08:44:50.171Z</time></trkpt><trkpt lat="44.142812" lon="10.4123285"><ele>436.3333333333333</ele><time>2026-03-25T08:44:51.166Z</time></trkpt><trkpt lat="44.1427398" lon="10.412401"><ele>434.5</ele><time>2026-03-25T08:44:52.166Z</time></trkpt><trkpt lat="44.142695" lon="10.4124929"><ele>432.66666666666663</ele><time>2026-03-25T08:44:53.167Z</time></trkpt><trkpt lat="44.1426803" lon="10.4126007"><ele>430.8333333333333</ele><time>2026-03-25T08:44:54.164Z</time></trkpt><trkpt lat="44.1426981" lon="10.4127066"><ele>429.0</ele><time>2026-03-25T08:44:55.169Z</time></trkpt><trkpt lat="44.142744" lon="10.4127942"><ele>429.0</ele><time>2026-03-25T08:44:56.164Z</time></trkpt><trkpt lat="44.1428167" lon="10.4128509"><ele>429.0</ele><time>2026-03-25T08:44:57.165Z</time></trkpt><trkpt lat="44.1428955" lon="10.4128663"><ele>429.0</ele><time>2026-03-25T08:44:58.17Z</time></trkpt><trkpt lat="44.142989" lon="10.4128736"><ele>429.0</ele><time>2026-03-25T08:44:59.169Z</time></trkpt><trkpt lat="44.1430816" lon="10.4129083"><ele>429.0</ele><time>2026-03-25T08:45:00.172Z</time></trkpt><trkpt lat="44.1431662" lon="10.4129713"><ele>429.0</ele><time>2026-03-25T08:45:01.166Z</time></trkpt><trkpt lat="44.143216" lon="10.4130983"><ele>429.4</ele><time>2026-03-25T08:45:02.173Z</time></trkpt><trkpt lat="44.1432597" lon="10.4132253"><ele>429.79999999999995</ele><time>2026-03-25T08:45:03.164Z</time></trkpt><trkpt lat="44.1432884" lon="10.4133545"><ele>430.20000000000005</ele><time>2026-03-25T08:45:04.182Z</time></trkpt><trkpt lat="44.1433178" lon="10.41349"><ele>430.6</ele><time>2026-03-25T08:45:05.177Z</time></trkpt><trkpt lat="44.143346" lon="10.4136244"><ele>431.0</ele><time>2026-03-25T08:45:06.163Z</time></trkpt><trkpt lat="44.1433672" lon="10.4137588"><ele>429.8</ele><time>2026-03-25T08:45:07.17Z</time></trkpt><trkpt lat="44.1433803" lon="10.4138966"><ele>428.6</ele><time>2026-03-25T08:45:08.174Z</time></trkpt><trkpt lat="44.1433799" lon="10.4140346"><ele>427.4</ele><time>2026-03-25T08:45:09.174Z</time></trkpt><trkpt lat="44.1433723" lon="10.4141702"><ele>426.2</ele><time>2026-03-25T08:45:10.18Z</time></trkpt><trkpt lat="44.1433682" lon="10.4143113"><ele>425.0</ele><time>2026-03-25T08:45:11.179Z</time></trkpt><trkpt lat="44.1433838" lon="10.414449"><ele>425.0</ele><time>2026-03-25T08:45:12.181Z</time></trkpt><trkpt lat="44.1434311" lon="10.414574"><ele>425.0</ele><time>2026-03-25T08:45:13.172Z</time></trkpt><trkpt lat="44.1435026" lon="10.4146516"><ele>425.0</ele><time>2026-03-25T08:45:14.168Z</time></trkpt><trkpt lat="44.1435897" lon="10.4146929"><ele>425.0</ele><time>2026-03-25T08:45:15.177Z</time></trkpt><trkpt lat="44.1436834" lon="10.4147116"><ele>425.0</ele><time>2026-03-25T08:45:16.175Z</time></trkpt><trkpt lat="44.1437786" lon="10.4147374"><ele>423.99999999999994</ele><time>2026-03-25T08:45:17.184Z</time></trkpt><trkpt lat="44.1438778" lon="10.4147727"><ele>423.0</ele><time>2026-03-25T08:45:18.175Z</time></trkpt><trkpt lat="44.1439687" lon="10.4148086"><ele>422.0</ele><time>2026-03-25T08:45:19.177Z</time></trkpt><trkpt lat="44.1440389" lon="10.4148573"><ele>421.0</ele><time>2026-03-25T08:45:20.18Z</time></trkpt><trkpt lat="44.1440906" lon="10.4149278"><ele>419.99999999999994</ele><time>2026-03-25T08:45:21.179Z</time></trkpt><trkpt lat="44.1440715" lon="10.4150594"><ele>419.0</ele><time>2026-03-25T08:45:23.185Z</time></trkpt><trkpt lat="44.143967" lon="10.4150551"><ele>418.3333333333333</ele><time>2026-03-25T08:45:25.193Z</time></trkpt><trkpt lat="44.1438406" lon="10.4150152"><ele>417.66666666666663</ele><time>2026-03-25T08:45:27.168Z</time></trkpt><trkpt lat="44.1437718" lon="10.4149932"><ele>417.0</ele><time>2026-03-25T08:45:28.179Z</time></trkpt><trkpt lat="44.1436988" lon="10.4149671"><ele>416.33333333333337</ele><time>2026-03-25T08:45:29.171Z</time></trkpt><trkpt lat="44.1436232" lon="10.4149396"><ele>415.6666666666667</ele><time>2026-03-25T08:45:30.168Z</time></trkpt><trkpt lat="44.1435439" lon="10.4149155"><ele>415.0</ele><time>2026-03-25T08:45:31.177Z</time></trkpt><trkpt lat="44.1434658" lon="10.4148928"><ele>415.0</ele><time>2026-03-25T08:45:32.187Z</time></trkpt><trkpt lat="44.1433762" lon="10.4148654"><ele>415.0</ele><time>2026-03-25T08:45:33.189Z</time></trkpt><trkpt lat="44.1432872" lon="10.4148456"><ele>415.0</ele><time>2026-03-25T08:45:34.175Z</time></trkpt><trkpt lat="44.1431942" lon="10.4148358"><ele>415.0</ele><time>2026-03-25T08:45:35.183Z</time></trkpt><trkpt lat="44.1430969" lon="10.4148464"><ele>415.0</ele><time>2026-03-25T08:45:36.18Z</time></trkpt><trkpt lat="44.143001" lon="10.4148712"><ele>412.6</ele><time>2026-03-25T08:45:37.17Z</time></trkpt><trkpt lat="44.1429027" lon="10.4148983"><ele>410.2</ele><time>2026-03-25T08:45:38.18Z</time></trkpt><trkpt lat="44.1428025" lon="10.414915"><ele>407.79999999999995</ele><time>2026-03-25T08:45:39.18Z</time></trkpt><trkpt lat="44.1426967" lon="10.4149287"><ele>405.4</ele><time>2026-03-25T08:45:40.177Z</time></trkpt><trkpt lat="44.142588" lon="10.4149232"><ele>403.0</ele><time>2026-03-25T08:45:41.18Z</time></trkpt><trkpt lat="44.1424783" lon="10.4149007"><ele>401.5</ele><time>2026-03-25T08:45:42.178Z</time></trkpt><trkpt lat="44.1423628" lon="10.4148769"><ele>400.0</ele><time>2026-03-25T08:45:43.175Z</time></trkpt><trkpt lat="44.1422477" lon="10.4148543"><ele>398.5</ele><time>2026-03-25T08:45:44.171Z</time></trkpt><trkpt lat="44.1421267" lon="10.4148276"><ele>397.0</ele><time>2026-03-25T08:45:45.183Z</time></trkpt><trkpt lat="44.1420115" lon="10.4148134"><ele>397.0</ele><time>2026-03-25T08:45:46.181Z</time></trkpt><trkpt lat="44.1418971" lon="10.4148004"><ele>397.0</ele><time>2026-03-25T08:45:47.182Z</time></trkpt><trkpt lat="44.141781" lon="10.4148128"><ele>397.0</ele><time>2026-03-25T08:45:48.187Z</time></trkpt><trkpt lat="44.1416637" lon="10.4148402"><ele>397.0</ele><time>2026-03-25T08:45:49.177Z</time></trkpt><trkpt lat="44.1415471" lon="10.4148696"><ele>395.0</ele><time>2026-03-25T08:45:50.188Z</time></trkpt><trkpt lat="44.1414308" lon="10.414906"><ele>393.0</ele><time>2026-03-25T08:45:51.173Z</time></trkpt><trkpt lat="44.1413234" lon="10.414907"><ele>391.0</ele><time>2026-03-25T08:45:52.186Z</time></trkpt><trkpt lat="44.1412277" lon="10.4148664"><ele>389.0</ele><time>2026-03-25T08:45:53.181Z</time></trkpt><trkpt lat="44.1411521" lon="10.4147788"><ele>387.0</ele><time>2026-03-25T08:45:54.182Z</time></trkpt><trkpt lat="44.1411076" lon="10.414655"><ele>388.20000000000005</ele><time>2026-03-25T08:45:55.183Z</time></trkpt><trkpt lat="44.1410794" lon="10.4145208"><ele>389.4</ele><time>2026-03-25T08:45:56.176Z</time></trkpt><trkpt lat="44.1410734" lon="10.4143807"><ele>390.6</ele><time>2026-03-25T08:45:57.181Z</time></trkpt><trkpt lat="44.1410285" lon="10.4142581"><ele>391.79999999999995</ele><time>2026-03-25T08:45:58.18Z</time></trkpt><trkpt lat="44.1409551" lon="10.4141768"><ele>393.0</ele><time>2026-03-25T08:45:59.175Z</time></trkpt><trkpt lat="44.1408639" lon="10.4141448"><ele>393.0</ele><time>2026-03-25T08:46:00.178Z</time></trkpt><trkpt lat="44.1407768" lon="10.4141791"><ele>393.0</ele><time>2026-03-25T08:46:01.18Z</time></trkpt><trkpt lat="44.1407053" lon="10.4142632"><ele>393.0</ele><time>2026-03-25T08:46:02.187Z</time></trkpt><trkpt lat="44.1406607" lon="10.414379"><ele>393.0</ele><time>2026-03-25T08:46:03.183Z</time></trkpt><trkpt lat="44.1406495" lon="10.4145033"><ele>393.0</ele><time>2026-03-25T08:46:04.185Z</time></trkpt><trkpt lat="44.1406512" lon="10.4146318"><ele>390.0</ele><time>2026-03-25T08:46:05.18Z</time></trkpt><trkpt lat="44.1406572" lon="10.4147626"><ele>387.0</ele><time>2026-03-25T08:46:06.171Z</time></trkpt><trkpt lat="44.1406662" lon="10.4148947"><ele>384.0</ele><time>2026-03-25T08:46:07.171Z</time></trkpt><trkpt lat="44.1406729" lon="10.4150295"><ele>381.0</ele><time>2026-03-25T08:46:08.182Z</time></trkpt><trkpt lat="44.1406785" lon="10.4151643"><ele>378.0</ele><time>2026-03-25T08:46:09.176Z</time></trkpt><trkpt lat="44.1406854" lon="10.4152983"><ele>378.0</ele><time>2026-03-25T08:46:10.18Z</time></trkpt><trkpt lat="44.1406888" lon="10.4154322"><ele>378.0</ele><time>2026-03-25T08:46:11.176Z</time></trkpt><trkpt lat="44.1406848" lon="10.4155703"><ele>378.0</ele><time>2026-03-25T08:46:12.185Z</time></trkpt><trkpt lat="44.140672" lon="10.415703"><ele>378.0</ele><time>2026-03-25T08:46:13.175Z</time></trkpt><trkpt lat="44.1406539" lon="10.4158305"><ele>378.0</ele><time>2026-03-25T08:46:14.177Z</time></trkpt><trkpt lat="44.1406369" lon="10.4159495"><ele>378.0</ele><time>2026-03-25T08:46:15.171Z</time></trkpt><trkpt lat="44.1406203" lon="10.4160696"><ele>378.0</ele><time>2026-03-25T08:46:16.175Z</time></trkpt><trkpt lat="44.1406036" lon="10.4161881"><ele>378.0</ele><time>2026-03-25T08:46:17.177Z</time></trkpt><trkpt lat="44.1405886" lon="10.416305"><ele>378.0</ele><time>2026-03-25T08:46:18.182Z</time></trkpt><trkpt lat="44.1405747" lon="10.4164196"><ele>378.0</ele><time>2026-03-25T08:46:19.166Z</time></trkpt><trkpt lat="44.1405597" lon="10.4165259"><ele>378.0</ele><time>2026-03-25T08:46:20.173Z</time></trkpt><trkpt lat="44.1405429" lon="10.4166276"><ele>378.0</ele><time>2026-03-25T08:46:21.168Z</time></trkpt><trkpt lat="44.1405296" lon="10.4167298"><ele>378.0</ele><time>2026-03-25T08:46:22.179Z</time></trkpt><trkpt lat="44.1405124" lon="10.4168326"><ele>378.0</ele><time>2026-03-25T08:46:23.179Z</time></trkpt><trkpt lat="44.1404975" lon="10.41693"><ele>378.0</ele><time>2026-03-25T08:46:24.182Z</time></trkpt><trkpt lat="44.1404832" lon="10.4170206"><ele>378.0</ele><time>2026-03-25T08:46:25.178Z</time></trkpt><trkpt lat="44.1404724" lon="10.4171112"><ele>378.0</ele><time>2026-03-25T08:46:26.174Z</time></trkpt><trkpt lat="44.1404609" lon="10.4172016"><ele>378.0</ele><time>2026-03-25T08:46:27.183Z</time></trkpt><trkpt lat="44.1404365" lon="10.4173725"><ele>379.0</ele><time>2026-03-25T08:46:29.176Z</time></trkpt><trkpt lat="44.1404121" lon="10.4175333"><ele>380.0</ele><time>2026-03-25T08:46:31.177Z</time></trkpt><trkpt lat="44.1403893" lon="10.417691"><ele>381.0</ele><time>2026-03-25T08:46:33.184Z</time></trkpt><trkpt lat="44.1403519" lon="10.4178293"><ele>382.0</ele><time>2026-03-25T08:46:35.18Z</time></trkpt><trkpt lat="44.1403072" lon="10.4179473"><ele>383.0</ele><time>2026-03-25T08:46:37.176Z</time></trkpt><trkpt lat="44.1402458" lon="10.4180274"><ele>385.1666666666667</ele><time>2026-03-25T08:46:39.178Z</time></trkpt><trkpt lat="44.1401783" lon="10.4180781"><ele>387.33333333333337</ele><time>2026-03-25T08:46:41.171Z</time></trkpt><trkpt lat="44.1401093" lon="10.4181124"><ele>389.5</ele><time>2026-03-25T08:46:43.177Z</time></trkpt><trkpt lat="44.1400371" lon="10.4181345"><ele>391.6666666666667</ele><time>2026-03-25T08:46:45.172Z</time></trkpt><trkpt lat="44.139959" lon="10.4181499"><ele>393.8333333333333</ele><time>2026-03-25T08:46:47.167Z</time></trkpt><trkpt lat="44.1398837" lon="10.4181581"><ele>396.0</ele><time>2026-03-25T08:46:49.166Z</time></trkpt><trkpt lat="44.1398118" lon="10.4181676"><ele>396.0</ele><time>2026-03-25T08:46:51.181Z</time></trkpt><trkpt lat="44.1397383" lon="10.4181757"><ele>396.0</ele><time>2026-03-25T08:46:53.178Z</time></trkpt><trkpt lat="44.139664" lon="10.4181793"><ele>396.0</ele><time>2026-03-25T08:46:55.172Z</time></trkpt><trkpt lat="44.1395888" lon="10.4181859"><ele>396.0</ele><time>2026-03-25T08:46:57.174Z</time></trkpt><trkpt lat="44.1395157" lon="10.4181881"><ele>396.0</ele><time>2026-03-25T08:46:59.182Z</time></trkpt><trkpt lat="44.1394417" lon="10.4181919"><ele>396.0</ele><time>2026-03-25T08:47:01.182Z</time></trkpt><trkpt lat="44.1393671" lon="10.4181925"><ele>396.0</ele><time>2026-03-25T08:47:03.185Z</time></trkpt><trkpt lat="44.1392899" lon="10.4181872"><ele>396.0</ele><time>2026-03-25T08:47:05.177Z</time></trkpt><trkpt lat="44.1392148" lon="10.4181735"><ele>396.0</ele><time>2026-03-25T08:47:07.166Z</time></trkpt><trkpt lat="44.1391388" lon="10.4181612"><ele>396.0</ele><time>2026-03-25T08:47:09.18Z</time></trkpt><trkpt lat="44.1390637" lon="10.4181542"><ele>396.0</ele><time>2026-03-25T08:47:11.173Z</time></trkpt><trkpt lat="44.1389889" lon="10.418152"><ele>396.0</ele><time>2026-03-25T08:47:13.173Z</time></trkpt><trkpt lat="44.1389124" lon="10.4181535"><ele>396.0</ele><time>2026-03-25T08:47:15.174Z</time></trkpt><trkpt lat="44.1388362" lon="10.418161"><ele>397.0</ele><time>2026-03-25T08:47:17.175Z</time></trkpt><trkpt lat="44.138763" lon="10.418164"><ele>398.0</ele><time>2026-03-25T08:47:19.173Z</time></trkpt><trkpt lat="44.1386895" lon="10.4181693"><ele>399.0</ele><time>2026-03-25T08:47:21.172Z</time></trkpt><trkpt lat="44.1386132" lon="10.418169"><ele>400.0</ele><time>2026-03-25T08:47:23.191Z</time></trkpt><trkpt lat="44.1385391" lon="10.4181655"><ele>401.0</ele><time>2026-03-25T08:47:25.177Z</time></trkpt><trkpt lat="44.1384664" lon="10.4181577"><ele>402.0</ele><time>2026-03-25T08:47:27.176Z</time></trkpt><trkpt lat="44.1383956" lon="10.418141"><ele>403.0</ele><time>2026-03-25T08:47:29.175Z</time></trkpt><trkpt lat="44.1383272" lon="10.4181167"><ele>403.0</ele><time>2026-03-25T08:47:31.178Z</time></trkpt><trkpt lat="44.138262" lon="10.418083"><ele>403.0</ele><time>2026-03-25T08:47:33.169Z</time></trkpt><trkpt lat="44.1382021" lon="10.4180463"><ele>403.0</ele><time>2026-03-25T08:47:35.194Z</time></trkpt><trkpt lat="44.138135" lon="10.4180078"><ele>403.0</ele><time>2026-03-25T08:47:37.18Z</time></trkpt><trkpt lat="44.1380683" lon="10.4179667"><ele>403.0</ele><time>2026-03-25T08:47:39.178Z</time></trkpt><trkpt lat="44.1380072" lon="10.4179226"><ele>403.0</ele><time>2026-03-25T08:47:41.178Z</time></trkpt><trkpt lat="44.1379526" lon="10.4178658"><ele>403.0</ele><time>2026-03-25T08:47:43.168Z</time></trkpt><trkpt lat="44.1378976" lon="10.4178065"><ele>402.5714285714286</ele><time>2026-03-25T08:47:45.171Z</time></trkpt><trkpt lat="44.1378434" lon="10.4177498"><ele>402.1428571428571</ele><time>2026-03-25T08:47:47.174Z</time></trkpt><trkpt lat="44.1377868" lon="10.4176931"><ele>401.7142857142857</ele><time>2026-03-25T08:47:49.165Z</time></trkpt><trkpt lat="44.1377312" lon="10.4176357"><ele>401.28571428571433</ele><time>2026-03-25T08:47:51.168Z</time></trkpt><trkpt lat="44.1376723" lon="10.4175722"><ele>400.8571428571429</ele><time>2026-03-25T08:47:53.163Z</time></trkpt><trkpt lat="44.1376166" lon="10.4175134"><ele>400.42857142857144</ele><time>2026-03-25T08:47:55.177Z</time></trkpt><trkpt lat="44.1375597" lon="10.4174586"><ele>400.0</ele><time>2026-03-25T08:47:57.176Z</time></trkpt><trkpt lat="44.1375035" lon="10.4173999"><ele>400.00000000000006</ele><time>2026-03-25T08:47:59.16Z</time></trkpt><trkpt lat="44.1374507" lon="10.4173394"><ele>400.0</ele><time>2026-03-25T08:48:01.167Z</time></trkpt><trkpt lat="44.1373983" lon="10.417281"><ele>400.0</ele><time>2026-03-25T08:48:03.178Z</time></trkpt><trkpt lat="44.1373439" lon="10.4172236"><ele>400.0</ele><time>2026-03-25T08:48:05.174Z</time></trkpt><trkpt lat="44.1372799" lon="10.4171587"><ele>400.00000000000006</ele><time>2026-03-25T08:48:07.185Z</time></trkpt><trkpt lat="44.1372068" lon="10.4170808"><ele>400.0</ele><time>2026-03-25T08:48:09.178Z</time></trkpt><trkpt lat="44.1371277" lon="10.417"><ele>398.8</ele><time>2026-03-25T08:48:11.178Z</time></trkpt><trkpt lat="44.1370443" lon="10.4169064"><ele>397.6</ele><time>2026-03-25T08:48:13.189Z</time></trkpt><trkpt lat="44.1369528" lon="10.4168062"><ele>396.4</ele><time>2026-03-25T08:48:15.186Z</time></trkpt><trkpt lat="44.1368506" lon="10.4166956"><ele>395.2</ele><time>2026-03-25T08:48:17.179Z</time></trkpt><trkpt lat="44.1367982" lon="10.4166397"><ele>394.0</ele><time>2026-03-25T08:48:18.185Z</time></trkpt><trkpt lat="44.1367423" lon="10.4165818"><ele>394.0</ele><time>2026-03-25T08:48:19.182Z</time></trkpt><trkpt lat="44.1366897" lon="10.4165274"><ele>394.0</ele><time>2026-03-25T08:48:20.176Z</time></trkpt><trkpt lat="44.1366339" lon="10.4164695"><ele>394.0</ele><time>2026-03-25T08:48:21.173Z</time></trkpt><trkpt lat="44.1365756" lon="10.41641"><ele>394.0</ele><time>2026-03-25T08:48:22.17Z</time></trkpt><trkpt lat="44.1365155" lon="10.4163525"><ele>394.0</ele><time>2026-03-25T08:48:23.181Z</time></trkpt><trkpt lat="44.1364537" lon="10.4162927"><ele>394.0</ele><time>2026-03-25T08:48:24.172Z</time></trkpt><trkpt lat="44.1363936" lon="10.4162352"><ele>394.0</ele><time>2026-03-25T08:48:25.181Z</time></trkpt><trkpt lat="44.1363292" lon="10.4161794"><ele>393.00000000000006</ele><time>2026-03-25T08:48:26.168Z</time></trkpt><trkpt lat="44.1362616" lon="10.4161289"><ele>392.0</ele><time>2026-03-25T08:48:27.179Z</time></trkpt><trkpt lat="44.1361903" lon="10.4160816"><ele>391.0</ele><time>2026-03-25T08:48:28.182Z</time></trkpt><trkpt lat="44.136114" lon="10.4160418"><ele>390.0</ele><time>2026-03-25T08:48:29.168Z</time></trkpt><trkpt lat="44.1360378" lon="10.4160006"><ele>389.00000000000006</ele><time>2026-03-25T08:48:30.18Z</time></trkpt><trkpt lat="44.1359596" lon="10.4159606"><ele>388.0</ele><time>2026-03-25T08:48:31.183Z</time></trkpt><trkpt lat="44.1358807" lon="10.4159278"><ele>388.00000000000006</ele><time>2026-03-25T08:48:32.188Z</time></trkpt><trkpt lat="44.1357997" lon="10.415903"><ele>388.0</ele><time>2026-03-25T08:48:33.18Z</time></trkpt><trkpt lat="44.1357194" lon="10.4158659"><ele>388.0</ele><time>2026-03-25T08:48:34.186Z</time></trkpt><trkpt lat="44.1356387" lon="10.4158259"><ele>388.0</ele><time>2026-03-25T08:48:35.182Z</time></trkpt><trkpt lat="44.1355552" lon="10.4157895"><ele>388.00000000000006</ele><time>2026-03-25T08:48:36.179Z</time></trkpt><trkpt lat="44.1354716" lon="10.4157539"><ele>388.0</ele><time>2026-03-25T08:48:37.178Z</time></trkpt><trkpt lat="44.1353857" lon="10.4157188"><ele>387.2</ele><time>2026-03-25T08:48:38.183Z</time></trkpt><trkpt lat="44.1353005" lon="10.4156858"><ele>386.4</ele><time>2026-03-25T08:48:39.179Z</time></trkpt><trkpt lat="44.1352132" lon="10.4156432"><ele>385.59999999999997</ele><time>2026-03-25T08:48:40.177Z</time></trkpt><trkpt lat="44.1351288" lon="10.4155986"><ele>384.79999999999995</ele><time>2026-03-25T08:48:41.17Z</time></trkpt><trkpt lat="44.1350435" lon="10.4155525"><ele>384.0</ele><time>2026-03-25T08:48:42.183Z</time></trkpt><trkpt lat="44.134957" lon="10.4155085"><ele>383.6</ele><time>2026-03-25T08:48:43.174Z</time></trkpt><trkpt lat="44.1348748" lon="10.4154568"><ele>383.2</ele><time>2026-03-25T08:48:44.18Z</time></trkpt><trkpt lat="44.1347983" lon="10.4153852"><ele>382.8</ele><time>2026-03-25T08:48:45.177Z</time></trkpt><trkpt lat="44.1347215" lon="10.4153097"><ele>382.40000000000003</ele><time>2026-03-25T08:48:46.177Z</time></trkpt><trkpt lat="44.134648" lon="10.4152261"><ele>382.0</ele><time>2026-03-25T08:48:47.178Z</time></trkpt><trkpt lat="44.1345746" lon="10.4151495"><ele>382.0</ele><time>2026-03-25T08:48:48.171Z</time></trkpt><trkpt lat="44.1345027" lon="10.4150692"><ele>382.0</ele><time>2026-03-25T08:48:49.168Z</time></trkpt><trkpt lat="44.134431" lon="10.4149902"><ele>382.0</ele><time>2026-03-25T08:48:50.176Z</time></trkpt><trkpt lat="44.1343597" lon="10.4149115"><ele>382.0</ele><time>2026-03-25T08:48:51.177Z</time></trkpt><trkpt lat="44.1342887" lon="10.4148283"><ele>382.0</ele><time>2026-03-25T08:48:52.185Z</time></trkpt><trkpt lat="44.1342111" lon="10.4147488"><ele>382.0</ele><time>2026-03-25T08:48:53.174Z</time></trkpt><trkpt lat="44.1341393" lon="10.4146625"><ele>382.0</ele><time>2026-03-25T08:48:54.176Z</time></trkpt><trkpt lat="44.1340712" lon="10.4145773"><ele>382.0</ele><time>2026-03-25T08:48:55.176Z</time></trkpt><trkpt lat="44.134003" lon="10.4144944"><ele>382.0</ele><time>2026-03-25T08:48:56.175Z</time></trkpt><trkpt lat="44.1339331" lon="10.4144159"><ele>382.0</ele><time>2026-03-25T08:48:57.18Z</time></trkpt><trkpt lat="44.1338594" lon="10.4143394"><ele>381.3333333333333</ele><time>2026-03-25T08:48:58.18Z</time></trkpt><trkpt lat="44.1337891" lon="10.4142604"><ele>380.66666666666663</ele><time>2026-03-25T08:48:59.183Z</time></trkpt><trkpt lat="44.13372" lon="10.4141815"><ele>380.0</ele><time>2026-03-25T08:49:00.177Z</time></trkpt><trkpt lat="44.1336516" lon="10.4141028"><ele>379.3333333333333</ele><time>2026-03-25T08:49:01.168Z</time></trkpt><trkpt lat="44.1335852" lon="10.4140299"><ele>378.6666666666667</ele><time>2026-03-25T08:49:02.187Z</time></trkpt><trkpt lat="44.133523" lon="10.4139642"><ele>378.0</ele><time>2026-03-25T08:49:03.17Z</time></trkpt><trkpt lat="44.1334446" lon="10.4139206"><ele>378.0</ele><time>2026-03-25T08:49:04.168Z</time></trkpt><trkpt lat="44.1333645" lon="10.4138721"><ele>378.0</ele><time>2026-03-25T08:49:05.174Z</time></trkpt><trkpt lat="44.1332849" lon="10.4138328"><ele>378.0</ele><time>2026-03-25T08:49:06.18Z</time></trkpt><trkpt lat="44.1332098" lon="10.4137991"><ele>378.0</ele><time>2026-03-25T08:49:07.175Z</time></trkpt><trkpt lat="44.1331346" lon="10.4137603"><ele>378.0</ele><time>2026-03-25T08:49:08.181Z</time></trkpt><trkpt lat="44.1330564" lon="10.4137242"><ele>378.0</ele><time>2026-03-25T08:49:09.187Z</time></trkpt><trkpt lat="44.132971" lon="10.4136893"><ele>377.0</ele><time>2026-03-25T08:49:10.179Z</time></trkpt><trkpt lat="44.1328891" lon="10.4136517"><ele>376.0</ele><time>2026-03-25T08:49:11.187Z</time></trkpt><trkpt lat="44.1328" lon="10.4136158"><ele>375.0</ele><time>2026-03-25T08:49:12.179Z</time></trkpt><trkpt lat="44.1327097" lon="10.4135837"><ele>374.0</ele><time>2026-03-25T08:49:13.178Z</time></trkpt><trkpt lat="44.1326229" lon="10.4135481"><ele>373.0</ele><time>2026-03-25T08:49:14.175Z</time></trkpt><trkpt lat="44.132535" lon="10.4135139"><ele>373.0</ele><time>2026-03-25T08:49:15.168Z</time></trkpt><trkpt lat="44.1324435" lon="10.4134807"><ele>373.0</ele><time>2026-03-25T08:49:16.173Z</time></trkpt><trkpt lat="44.1323528" lon="10.4134429"><ele>373.0</ele><time>2026-03-25T08:49:17.177Z</time></trkpt><trkpt lat="44.1322588" lon="10.4134042"><ele>373.0</ele><time>2026-03-25T08:49:18.182Z</time></trkpt><trkpt lat="44.1321622" lon="10.4133622"><ele>373.0</ele><time>2026-03-25T08:49:19.177Z</time></trkpt><trkpt lat="44.1320672" lon="10.4133224"><ele>372.0</ele><time>2026-03-25T08:49:20.176Z</time></trkpt><trkpt lat="44.1319752" lon="10.4132836"><ele>371.0</ele><time>2026-03-25T08:49:21.172Z</time></trkpt><trkpt lat="44.1318799" lon="10.4132389"><ele>370.0</ele><time>2026-03-25T08:49:22.175Z</time></trkpt><trkpt lat="44.1317846" lon="10.4131944"><ele>369.0</ele><time>2026-03-25T08:49:23.181Z</time></trkpt><trkpt lat="44.1316931" lon="10.413145"><ele>368.0</ele><time>2026-03-25T08:49:24.19Z</time></trkpt><trkpt lat="44.1316025" lon="10.4130961"><ele>367.59999999999997</ele><time>2026-03-25T08:49:25.179Z</time></trkpt><trkpt lat="44.1315125" lon="10.4130452"><ele>367.2</ele><time>2026-03-25T08:49:26.171Z</time></trkpt><trkpt lat="44.1314203" lon="10.4129871"><ele>366.8</ele><time>2026-03-25T08:49:27.179Z</time></trkpt><trkpt lat="44.1313305" lon="10.4129289"><ele>366.4</ele><time>2026-03-25T08:49:28.172Z</time></trkpt><trkpt lat="44.1312439" lon="10.4128695"><ele>366.0</ele><time>2026-03-25T08:49:29.169Z</time></trkpt><trkpt lat="44.1311565" lon="10.4128095"><ele>365.6</ele><time>2026-03-25T08:49:30.181Z</time></trkpt><trkpt lat="44.1310716" lon="10.4127444"><ele>365.20000000000005</ele><time>2026-03-25T08:49:31.179Z</time></trkpt><trkpt lat="44.130983" lon="10.4126857"><ele>364.79999999999995</ele><time>2026-03-25T08:49:32.174Z</time></trkpt><trkpt lat="44.130898" lon="10.4126271"><ele>364.4</ele><time>2026-03-25T08:49:33.17Z</time></trkpt><trkpt lat="44.1308131" lon="10.4125674"><ele>364.0</ele><time>2026-03-25T08:49:34.178Z</time></trkpt><trkpt lat="44.1307312" lon="10.4125091"><ele>363.79999999999995</ele><time>2026-03-25T08:49:35.192Z</time></trkpt><trkpt lat="44.1306481" lon="10.4124559"><ele>363.59999999999997</ele><time>2026-03-25T08:49:36.179Z</time></trkpt><trkpt lat="44.1305631" lon="10.412398"><ele>363.4</ele><time>2026-03-25T08:49:37.18Z</time></trkpt><trkpt lat="44.1304813" lon="10.4123426"><ele>363.2</ele><time>2026-03-25T08:49:38.181Z</time></trkpt><trkpt lat="44.130402" lon="10.4122874"><ele>363.0</ele><time>2026-03-25T08:49:39.176Z</time></trkpt><trkpt lat="44.1303208" lon="10.4122298"><ele>363.0</ele><time>2026-03-25T08:49:40.187Z</time></trkpt><trkpt lat="44.1302401" lon="10.412168"><ele>363.0</ele><time>2026-03-25T08:49:41.183Z</time></trkpt><trkpt lat="44.1301592" lon="10.4121096"><ele>363.0</ele><time>2026-03-25T08:49:42.181Z</time></trkpt><trkpt lat="44.130081" lon="10.4120513"><ele>363.0</ele><time>2026-03-25T08:49:43.178Z</time></trkpt><trkpt lat="44.129996" lon="10.4119992"><ele>363.0</ele><time>2026-03-25T08:49:44.179Z</time></trkpt><trkpt lat="44.1299148" lon="10.4119501"><ele>361.6666666666667</ele><time>2026-03-25T08:49:45.176Z</time></trkpt><trkpt lat="44.1298318" lon="10.4119025"><ele>360.3333333333333</ele><time>2026-03-25T08:49:46.18Z</time></trkpt><trkpt lat="44.1297515" lon="10.4118577"><ele>359.0</ele><time>2026-03-25T08:49:47.17Z</time></trkpt><trkpt lat="44.1296684" lon="10.4118179"><ele>357.66666666666663</ele><time>2026-03-25T08:49:48.177Z</time></trkpt><trkpt lat="44.1295841" lon="10.4117832"><ele>356.3333333333333</ele><time>2026-03-25T08:49:49.173Z</time></trkpt><trkpt lat="44.1294968" lon="10.4117556"><ele>355.0</ele><time>2026-03-25T08:49:50.176Z</time></trkpt><trkpt lat="44.1294084" lon="10.4117286"><ele>355.0</ele><time>2026-03-25T08:49:51.165Z</time></trkpt><trkpt lat="44.1293188" lon="10.4116997"><ele>355.0</ele><time>2026-03-25T08:49:52.174Z</time></trkpt><trkpt lat="44.1292295" lon="10.4116698"><ele>355.0</ele><time>2026-03-25T08:49:53.177Z</time></trkpt><trkpt lat="44.1291482" lon="10.4116396"><ele>355.0</ele><time>2026-03-25T08:49:54.171Z</time></trkpt><trkpt lat="44.129073" lon="10.4115999"><ele>355.0</ele><time>2026-03-25T08:49:55.185Z</time></trkpt><trkpt lat="44.1290271" lon="10.4115223"><ele>355.0</ele><time>2026-03-25T08:49:56.19Z</time></trkpt><trkpt lat="44.128985" lon="10.4114323"><ele>354.66666666666663</ele><time>2026-03-25T08:49:57.179Z</time></trkpt><trkpt lat="44.1289338" lon="10.4113715"><ele>354.3333333333333</ele><time>2026-03-25T08:49:58.176Z</time></trkpt><trkpt lat="44.1288706" lon="10.4113598"><ele>354.0</ele><time>2026-03-25T08:49:59.181Z</time></trkpt><trkpt lat="44.128745" lon="10.4113713"><ele>353.6666666666667</ele><time>2026-03-25T08:50:01.179Z</time></trkpt><trkpt lat="44.1286811" lon="10.4113604"><ele>353.33333333333337</ele><time>2026-03-25T08:50:02.177Z</time></trkpt><trkpt lat="44.1286141" lon="10.4113624"><ele>353.0</ele><time>2026-03-25T08:50:03.175Z</time></trkpt><trkpt lat="44.1285435" lon="10.4113643"><ele>353.0</ele><time>2026-03-25T08:50:04.181Z</time></trkpt><trkpt lat="44.1284744" lon="10.4113662"><ele>353.0</ele><time>2026-03-25T08:50:05.182Z</time></trkpt><trkpt lat="44.1284044" lon="10.411363"><ele>353.0</ele><time>2026-03-25T08:50:06.178Z</time></trkpt><trkpt lat="44.1283334" lon="10.4113539"><ele>353.0</ele><time>2026-03-25T08:50:07.179Z</time></trkpt><trkpt lat="44.1282635" lon="10.4113324"><ele>353.0</ele><time>2026-03-25T08:50:08.175Z</time></trkpt><trkpt lat="44.1281938" lon="10.4113084"><ele>353.0</ele><time>2026-03-25T08:50:09.18Z</time></trkpt><trkpt lat="44.1281255" lon="10.4112899"><ele>353.0</ele><time>2026-03-25T08:50:10.18Z</time></trkpt><trkpt lat="44.1280589" lon="10.4112616"><ele>352.57142857142856</ele><time>2026-03-25T08:50:11.182Z</time></trkpt><trkpt lat="44.1279909" lon="10.4112321"><ele>352.14285714285717</ele><time>2026-03-25T08:50:12.186Z</time></trkpt><trkpt lat="44.1279237" lon="10.4112062"><ele>351.7142857142857</ele><time>2026-03-25T08:50:13.178Z</time></trkpt><trkpt lat="44.1278565" lon="10.4111799"><ele>351.2857142857143</ele><time>2026-03-25T08:50:14.187Z</time></trkpt><trkpt lat="44.1277951" lon="10.4111588"><ele>350.8571428571429</ele><time>2026-03-25T08:50:15.173Z</time></trkpt><trkpt lat="44.1277282" lon="10.4111382"><ele>350.42857142857144</ele><time>2026-03-25T08:50:16.174Z</time></trkpt><trkpt lat="44.1276626" lon="10.4111124"><ele>350.0</ele><time>2026-03-25T08:50:17.174Z</time></trkpt><trkpt lat="44.1275976" lon="10.4110945"><ele>350.0</ele><time>2026-03-25T08:50:18.179Z</time></trkpt><trkpt lat="44.1275295" lon="10.4110751"><ele>350.0</ele><time>2026-03-25T08:50:19.184Z</time></trkpt><trkpt lat="44.1274616" lon="10.4110587"><ele>350.0</ele><time>2026-03-25T08:50:20.165Z</time></trkpt><trkpt lat="44.1273946" lon="10.4110395"><ele>350.0</ele><time>2026-03-25T08:50:21.174Z</time></trkpt><trkpt lat="44.1273177" lon="10.4110143"><ele>350.0</ele><time>2026-03-25T08:50:22.178Z</time></trkpt><trkpt lat="44.1271845" lon="10.4109745"><ele>350.0</ele><time>2026-03-25T08:50:24.166Z</time></trkpt><trkpt lat="44.1271217" lon="10.4109606"><ele>349.85714285714283</ele><time>2026-03-25T08:50:25.172Z</time></trkpt><trkpt lat="44.1270607" lon="10.4109348"><ele>349.7142857142857</ele><time>2026-03-25T08:50:26.169Z</time></trkpt><trkpt lat="44.1269906" lon="10.4109093"><ele>349.57142857142856</ele><time>2026-03-25T08:50:27.178Z</time></trkpt><trkpt lat="44.1269259" lon="10.4108874"><ele>349.42857142857144</ele><time>2026-03-25T08:50:28.171Z</time></trkpt><trkpt lat="44.1268602" lon="10.4108671"><ele>349.2857142857143</ele><time>2026-03-25T08:50:29.181Z</time></trkpt><trkpt lat="44.1267912" lon="10.4108443"><ele>349.1428571428571</ele><time>2026-03-25T08:50:30.187Z</time></trkpt><trkpt lat="44.1267192" lon="10.4108292"><ele>349.0</ele><time>2026-03-25T08:50:31.175Z</time></trkpt><trkpt lat="44.1266493" lon="10.4108127"><ele>349.0</ele><time>2026-03-25T08:50:32.181Z</time></trkpt><trkpt lat="44.1265788" lon="10.410797"><ele>349.0</ele><time>2026-03-25T08:50:33.181Z</time></trkpt><trkpt lat="44.1265088" lon="10.4107801"><ele>349.0</ele><time>2026-03-25T08:50:34.175Z</time></trkpt><trkpt lat="44.1264363" lon="10.4107594"><ele>349.0</ele><time>2026-03-25T08:50:35.184Z</time></trkpt><trkpt lat="44.1263589" lon="10.4107309"><ele>349.0</ele><time>2026-03-25T08:50:36.174Z</time></trkpt><trkpt lat="44.1262866" lon="10.4107065"><ele>349.0</ele><time>2026-03-25T08:50:37.169Z</time></trkpt><trkpt lat="44.1262081" lon="10.4106873"><ele>348.8333333333333</ele><time>2026-03-25T08:50:38.181Z</time></trkpt><trkpt lat="44.1261301" lon="10.410665"><ele>348.66666666666663</ele><time>2026-03-25T08:50:39.183Z</time></trkpt><trkpt lat="44.1260519" lon="10.4106445"><ele>348.5</ele><time>2026-03-25T08:50:40.176Z</time></trkpt><trkpt lat="44.1259748" lon="10.4106212"><ele>348.3333333333333</ele><time>2026-03-25T08:50:41.171Z</time></trkpt><trkpt lat="44.1259" lon="10.410594"><ele>348.1666666666667</ele><time>2026-03-25T08:50:42.173Z</time></trkpt><trkpt lat="44.1258242" lon="10.4105738"><ele>348.0</ele><time>2026-03-25T08:50:43.18Z</time></trkpt><trkpt lat="44.1257473" lon="10.4105416"><ele>347.6666666666667</ele><time>2026-03-25T08:50:44.179Z</time></trkpt><trkpt lat="44.1256732" lon="10.4105084"><ele>347.3333333333333</ele><time>2026-03-25T08:50:45.201Z</time></trkpt><trkpt lat="44.1255934" lon="10.4104757"><ele>347.0</ele><time>2026-03-25T08:50:46.176Z</time></trkpt><trkpt lat="44.1255198" lon="10.4104418"><ele>346.66666666666663</ele><time>2026-03-25T08:50:47.169Z</time></trkpt><trkpt lat="44.125445" lon="10.4104049"><ele>346.3333333333333</ele><time>2026-03-25T08:50:48.174Z</time></trkpt><trkpt lat="44.1253676" lon="10.410372"><ele>346.0</ele><time>2026-03-25T08:50:49.18Z</time></trkpt><trkpt lat="44.1252921" lon="10.4103407"><ele>345.66666666666663</ele><time>2026-03-25T08:50:50.182Z</time></trkpt><trkpt lat="44.1252248" lon="10.4102852"><ele>345.3333333333333</ele><time>2026-03-25T08:50:51.181Z</time></trkpt><trkpt lat="44.1251724" lon="10.4101958"><ele>345.0</ele><time>2026-03-25T08:50:52.18Z</time></trkpt><trkpt lat="44.1251334" lon="10.4100962"><ele>344.6666666666667</ele><time>2026-03-25T08:50:53.179Z</time></trkpt><trkpt lat="44.1251143" lon="10.4099869"><ele>344.33333333333337</ele><time>2026-03-25T08:50:54.18Z</time></trkpt><trkpt lat="44.1251118" lon="10.409873"><ele>344.0</ele><time>2026-03-25T08:50:55.17Z</time></trkpt><trkpt lat="44.1251302" lon="10.409757"><ele>343.1666666666667</ele><time>2026-03-25T08:50:56.179Z</time></trkpt><trkpt lat="44.1251567" lon="10.4096499"><ele>342.33333333333337</ele><time>2026-03-25T08:50:57.184Z</time></trkpt><trkpt lat="44.1251941" lon="10.4095443"><ele>341.5</ele><time>2026-03-25T08:50:58.175Z</time></trkpt><trkpt lat="44.1252284" lon="10.4094421"><ele>340.6666666666667</ele><time>2026-03-25T08:50:59.181Z</time></trkpt><trkpt lat="44.1252629" lon="10.409343"><ele>339.8333333333333</ele><time>2026-03-25T08:51:00.176Z</time></trkpt><trkpt lat="44.125296" lon="10.4092459"><ele>339.0</ele><time>2026-03-25T08:51:01.184Z</time></trkpt><trkpt lat="44.1253278" lon="10.4091487"><ele>339.0</ele><time>2026-03-25T08:51:02.173Z</time></trkpt><trkpt lat="44.1253611" lon="10.4090522"><ele>339.0</ele><time>2026-03-25T08:51:03.168Z</time></trkpt><trkpt lat="44.1253936" lon="10.4089558"><ele>339.0</ele><time>2026-03-25T08:51:04.182Z</time></trkpt><trkpt lat="44.1254255" lon="10.4088668"><ele>339.0</ele><time>2026-03-25T08:51:05.184Z</time></trkpt><trkpt lat="44.1254571" lon="10.4087766"><ele>339.0</ele><time>2026-03-25T08:51:06.17Z</time></trkpt><trkpt lat="44.125487" lon="10.4086886"><ele>339.0</ele><time>2026-03-25T08:51:07.176Z</time></trkpt><trkpt lat="44.1255185" lon="10.4086054"><ele>339.0</ele><time>2026-03-25T08:51:08.176Z</time></trkpt><trkpt lat="44.1255493" lon="10.4085168"><ele>338.8333333333333</ele><time>2026-03-25T08:51:09.18Z</time></trkpt><trkpt lat="44.1255767" lon="10.4084271"><ele>338.6666666666667</ele><time>2026-03-25T08:51:10.184Z</time></trkpt><trkpt lat="44.1256068" lon="10.4083441"><ele>338.5</ele><time>2026-03-25T08:51:11.185Z</time></trkpt><trkpt lat="44.1256346" lon="10.4082561"><ele>338.33333333333337</ele><time>2026-03-25T08:51:12.175Z</time></trkpt><trkpt lat="44.1256637" lon="10.4081716"><ele>338.1666666666667</ele><time>2026-03-25T08:51:13.18Z</time></trkpt><trkpt lat="44.1256895" lon="10.4080906"><ele>338.0</ele><time>2026-03-25T08:51:14.18Z</time></trkpt><trkpt lat="44.1257403" lon="10.4079338"><ele>338.0</ele><time>2026-03-25T08:51:16.172Z</time></trkpt><trkpt lat="44.1257872" lon="10.407779"><ele>338.0</ele><time>2026-03-25T08:51:18.18Z</time></trkpt><trkpt lat="44.1258306" lon="10.4076285"><ele>338.0</ele><time>2026-03-25T08:51:20.176Z</time></trkpt><trkpt lat="44.1258732" lon="10.4074702"><ele>338.0</ele><time>2026-03-25T08:51:22.177Z</time></trkpt><trkpt lat="44.1259093" lon="10.4073057"><ele>337.0</ele><time>2026-03-25T08:51:24.18Z</time></trkpt><trkpt lat="44.125939" lon="10.4071524"><ele>336.0</ele><time>2026-03-25T08:51:26.188Z</time></trkpt><trkpt lat="44.1259564" lon="10.4069808"><ele>335.0</ele><time>2026-03-25T08:51:28.179Z</time></trkpt><trkpt lat="44.1259772" lon="10.4068099"><ele>334.0</ele><time>2026-03-25T08:51:30.18Z</time></trkpt><trkpt lat="44.1259943" lon="10.4066377"><ele>334.0</ele><time>2026-03-25T08:51:32.188Z</time></trkpt><trkpt lat="44.1260073" lon="10.4064614"><ele>334.0</ele><time>2026-03-25T08:51:34.178Z</time></trkpt><trkpt lat="44.1260151" lon="10.4063711"><ele>334.0</ele><time>2026-03-25T08:51:35.184Z</time></trkpt><trkpt lat="44.1260189" lon="10.4061947"><ele>334.0</ele><time>2026-03-25T08:51:37.184Z</time></trkpt><trkpt lat="44.1260263" lon="10.4061055"><ele>334.0</ele><time>2026-03-25T08:51:38.179Z</time></trkpt><trkpt lat="44.126032" lon="10.4060113"><ele>333.7142857142857</ele><time>2026-03-25T08:51:39.181Z</time></trkpt><trkpt lat="44.1260355" lon="10.4059185"><ele>333.42857142857144</ele><time>2026-03-25T08:51:40.178Z</time></trkpt><trkpt lat="44.1260366" lon="10.4058226"><ele>333.1428571428571</ele><time>2026-03-25T08:51:41.179Z</time></trkpt><trkpt lat="44.1260369" lon="10.4057306"><ele>332.8571428571429</ele><time>2026-03-25T08:51:42.183Z</time></trkpt><trkpt lat="44.1260397" lon="10.4056373"><ele>332.5714285714286</ele><time>2026-03-25T08:51:43.182Z</time></trkpt><trkpt lat="44.1260442" lon="10.405542"><ele>332.2857142857143</ele><time>2026-03-25T08:51:44.184Z</time></trkpt><trkpt lat="44.1260477" lon="10.405449"><ele>332.0</ele><time>2026-03-25T08:51:45.181Z</time></trkpt><trkpt lat="44.12605" lon="10.4053587"><ele>332.0</ele><time>2026-03-25T08:51:46.179Z</time></trkpt><trkpt lat="44.1260582" lon="10.4052582"><ele>332.0</ele><time>2026-03-25T08:51:47.178Z</time></trkpt><trkpt lat="44.126064" lon="10.4051621"><ele>332.0</ele><time>2026-03-25T08:51:48.171Z</time></trkpt><trkpt lat="44.1260701" lon="10.4050704"><ele>332.0</ele><time>2026-03-25T08:51:49.177Z</time></trkpt><trkpt lat="44.1260727" lon="10.4049768"><ele>332.0</ele><time>2026-03-25T08:51:50.183Z</time></trkpt><trkpt lat="44.1260765" lon="10.4048803"><ele>332.0</ele><time>2026-03-25T08:51:51.185Z</time></trkpt><trkpt lat="44.1260775" lon="10.4047797"><ele>332.0</ele><time>2026-03-25T08:51:52.166Z</time></trkpt><trkpt lat="44.1260786" lon="10.4046792"><ele>331.85714285714283</ele><time>2026-03-25T08:51:53.179Z</time></trkpt><trkpt lat="44.1260804" lon="10.4045814"><ele>331.7142857142857</ele><time>2026-03-25T08:51:54.17Z</time></trkpt><trkpt lat="44.1260829" lon="10.4044775"><ele>331.57142857142856</ele><time>2026-03-25T08:51:55.167Z</time></trkpt><trkpt lat="44.1260833" lon="10.4043792"><ele>331.42857142857144</ele><time>2026-03-25T08:51:56.18Z</time></trkpt><trkpt lat="44.1260842" lon="10.4042753"><ele>331.2857142857143</ele><time>2026-03-25T08:51:57.183Z</time></trkpt><trkpt lat="44.1260839" lon="10.4041715"><ele>331.14285714285717</ele><time>2026-03-25T08:51:58.18Z</time></trkpt><trkpt lat="44.1260842" lon="10.4040682"><ele>331.0</ele><time>2026-03-25T08:51:59.182Z</time></trkpt><trkpt lat="44.1260847" lon="10.4039613"><ele>331.0</ele><time>2026-03-25T08:52:00.185Z</time></trkpt><trkpt lat="44.1260881" lon="10.4038598"><ele>331.0</ele><time>2026-03-25T08:52:01.177Z</time></trkpt><trkpt lat="44.1260924" lon="10.4037558"><ele>331.0</ele><time>2026-03-25T08:52:02.181Z</time></trkpt><trkpt lat="44.1260969" lon="10.4036509"><ele>331.0</ele><time>2026-03-25T08:52:03.178Z</time></trkpt><trkpt lat="44.1261" lon="10.4035366"><ele>331.0</ele><time>2026-03-25T08:52:04.182Z</time></trkpt><trkpt lat="44.1261094" lon="10.4034272"><ele>331.0</ele><time>2026-03-25T08:52:05.179Z</time></trkpt><trkpt lat="44.1261146" lon="10.4033199"><ele>330.5</ele><time>2026-03-25T08:52:06.184Z</time></trkpt><trkpt lat="44.1261214" lon="10.4032086"><ele>330.0</ele><time>2026-03-25T08:52:07.181Z</time></trkpt><trkpt lat="44.126125" lon="10.4030936"><ele>329.5</ele><time>2026-03-25T08:52:08.17Z</time></trkpt><trkpt lat="44.1261249" lon="10.4029817"><ele>329.0</ele><time>2026-03-25T08:52:09.178Z</time></trkpt><trkpt lat="44.1261266" lon="10.4028656"><ele>328.5</ele><time>2026-03-25T08:52:10.181Z</time></trkpt><trkpt lat="44.1261256" lon="10.4027452"><ele>328.0</ele><time>2026-03-25T08:52:11.185Z</time></trkpt><trkpt lat="44.1261263" lon="10.4026243"><ele>327.8333333333333</ele><time>2026-03-25T08:52:12.181Z</time></trkpt><trkpt lat="44.1261252" lon="10.4025085"><ele>327.66666666666663</ele><time>2026-03-25T08:52:13.18Z</time></trkpt><trkpt lat="44.1261197" lon="10.4023835"><ele>327.5</ele><time>2026-03-25T08:52:14.183Z</time></trkpt><trkpt lat="44.126106" lon="10.4022561"><ele>327.3333333333333</ele><time>2026-03-25T08:52:15.18Z</time></trkpt><trkpt lat="44.1260981" lon="10.4021296"><ele>327.1666666666667</ele><time>2026-03-25T08:52:16.176Z</time></trkpt><trkpt lat="44.1260812" lon="10.4020086"><ele>327.0</ele><time>2026-03-25T08:52:17.168Z</time></trkpt><trkpt lat="44.1260603" lon="10.4018838"><ele>327.0</ele><time>2026-03-25T08:52:18.176Z</time></trkpt><trkpt lat="44.1260341" lon="10.4017552"><ele>327.0</ele><time>2026-03-25T08:52:19.181Z</time></trkpt><trkpt lat="44.1260045" lon="10.401627"><ele>327.0</ele><time>2026-03-25T08:52:20.179Z</time></trkpt><trkpt lat="44.125975" lon="10.4014999"><ele>327.0</ele><time>2026-03-25T08:52:21.178Z</time></trkpt><trkpt lat="44.1259452" lon="10.401373"><ele>327.0</ele><time>2026-03-25T08:52:22.176Z</time></trkpt><trkpt lat="44.125915" lon="10.4012449"><ele>326.20000000000005</ele><time>2026-03-25T08:52:23.18Z</time></trkpt><trkpt lat="44.1258846" lon="10.4011162"><ele>325.4</ele><time>2026-03-25T08:52:24.179Z</time></trkpt><trkpt lat="44.1258563" lon="10.4009869"><ele>324.6</ele><time>2026-03-25T08:52:25.176Z</time></trkpt><trkpt lat="44.1258254" lon="10.4008541"><ele>323.79999999999995</ele><time>2026-03-25T08:52:26.177Z</time></trkpt><trkpt lat="44.1257971" lon="10.4007219"><ele>323.0</ele><time>2026-03-25T08:52:27.177Z</time></trkpt><trkpt lat="44.1257717" lon="10.4005861"><ele>322.4</ele><time>2026-03-25T08:52:28.175Z</time></trkpt><trkpt lat="44.1257486" lon="10.4004458"><ele>321.79999999999995</ele><time>2026-03-25T08:52:29.178Z</time></trkpt><trkpt lat="44.1257265" lon="10.4003086"><ele>321.2</ele><time>2026-03-25T08:52:30.176Z</time></trkpt><trkpt lat="44.1257026" lon="10.4001667"><ele>320.6</ele><time>2026-03-25T08:52:31.18Z</time></trkpt><trkpt lat="44.1256801" lon="10.4000258"><ele>320.0</ele><time>2026-03-25T08:52:32.172Z</time></trkpt><trkpt lat="44.1256536" lon="10.3998806"><ele>319.6</ele><time>2026-03-25T08:52:33.179Z</time></trkpt><trkpt lat="44.1256329" lon="10.3997326"><ele>319.2</ele><time>2026-03-25T08:52:34.18Z</time></trkpt><trkpt lat="44.1256199" lon="10.3995813"><ele>318.8</ele><time>2026-03-25T08:52:35.176Z</time></trkpt><trkpt lat="44.1256326" lon="10.399431"><ele>318.4</ele><time>2026-03-25T08:52:36.178Z</time></trkpt><trkpt lat="44.1256748" lon="10.3992884"><ele>318.0</ele><time>2026-03-25T08:52:37.183Z</time></trkpt><trkpt lat="44.1257307" lon="10.3991582"><ele>317.6</ele><time>2026-03-25T08:52:38.18Z</time></trkpt><trkpt lat="44.1257784" lon="10.3990248"><ele>317.20000000000005</ele><time>2026-03-25T08:52:39.181Z</time></trkpt><trkpt lat="44.1258138" lon="10.3988904"><ele>316.8</ele><time>2026-03-25T08:52:40.183Z</time></trkpt><trkpt lat="44.1258512" lon="10.3987611"><ele>316.40000000000003</ele><time>2026-03-25T08:52:41.179Z</time></trkpt><trkpt lat="44.1259053" lon="10.3986433"><ele>316.0</ele><time>2026-03-25T08:52:42.18Z</time></trkpt><trkpt lat="44.1259605" lon="10.3985456"><ele>314.66666666666663</ele><time>2026-03-25T08:52:43.184Z</time></trkpt><trkpt lat="44.1260133" lon="10.3984557"><ele>313.3333333333333</ele><time>2026-03-25T08:52:44.18Z</time></trkpt><trkpt lat="44.1260614" lon="10.3983731"><ele>312.0</ele><time>2026-03-25T08:52:45.178Z</time></trkpt><trkpt lat="44.126113" lon="10.3983017"><ele>310.6666666666667</ele><time>2026-03-25T08:52:46.173Z</time></trkpt><trkpt lat="44.1261583" lon="10.398233"><ele>309.33333333333337</ele><time>2026-03-25T08:52:47.185Z</time></trkpt><trkpt lat="44.1262381" lon="10.3981164"><ele>308.0</ele><time>2026-03-25T08:52:49.178Z</time></trkpt><trkpt lat="44.1263017" lon="10.3980189"><ele>307.83333333333337</ele><time>2026-03-25T08:52:51.18Z</time></trkpt><trkpt lat="44.1263579" lon="10.3979302"><ele>307.6666666666667</ele><time>2026-03-25T08:52:53.173Z</time></trkpt><trkpt lat="44.1264109" lon="10.3978556"><ele>307.5</ele><time>2026-03-25T08:52:55.164Z</time></trkpt><trkpt lat="44.1264603" lon="10.3977886"><ele>307.3333333333333</ele><time>2026-03-25T08:52:57.17Z</time></trkpt><trkpt lat="44.1265237" lon="10.3976967"><ele>307.16666666666663</ele><time>2026-03-25T08:53:00.171Z</time></trkpt><trkpt lat="44.1265892" lon="10.3976074"><ele>307.0</ele><time>2026-03-25T08:53:03.178Z</time></trkpt><trkpt lat="44.126655" lon="10.3975184"><ele>308.57142857142856</ele><time>2026-03-25T08:53:06.185Z</time></trkpt><trkpt lat="44.1267218" lon="10.3974241"><ele>310.1428571428571</ele><time>2026-03-25T08:53:09.179Z</time></trkpt><trkpt lat="44.1267638" lon="10.3973479"><ele>311.71428571428567</ele><time>2026-03-25T08:53:11.17Z</time></trkpt><trkpt lat="44.1268014" lon="10.3972728"><ele>313.2857142857143</ele><time>2026-03-25T08:53:13.173Z</time></trkpt><trkpt lat="44.1268434" lon="10.3972016"><ele>314.8571428571429</ele><time>2026-03-25T08:53:15.181Z</time></trkpt><trkpt lat="44.1268795" lon="10.397125"><ele>316.4285714285714</ele><time>2026-03-25T08:53:17.181Z</time></trkpt><trkpt lat="44.1269107" lon="10.3970453"><ele>318.0</ele><time>2026-03-25T08:53:19.171Z</time></trkpt><trkpt lat="44.1269459" lon="10.3969683"><ele>318.0</ele><time>2026-03-25T08:53:21.165Z</time></trkpt><trkpt lat="44.126995" lon="10.3968553"><ele>318.0</ele><time>2026-03-25T08:53:24.177Z</time></trkpt><trkpt lat="44.127029" lon="10.3967771"><ele>318.0</ele><time>2026-03-25T08:53:26.178Z</time></trkpt><trkpt lat="44.1270666" lon="10.3967049"><ele>318.0</ele><time>2026-03-25T08:53:28.169Z</time></trkpt><trkpt lat="44.1271064" lon="10.3966332"><ele>318.0</ele><time>2026-03-25T08:53:30.176Z</time></trkpt><trkpt lat="44.1271462" lon="10.3965605"><ele>318.0</ele><time>2026-03-25T08:53:32.168Z</time></trkpt><trkpt lat="44.1272032" lon="10.3964556"><ele>318.0</ele><time>2026-03-25T08:53:35.167Z</time></trkpt><trkpt lat="44.1272435" lon="10.3963832"><ele>318.0</ele><time>2026-03-25T08:53:37.17Z</time></trkpt><trkpt lat="44.1272825" lon="10.3963113"><ele>318.0</ele><time>2026-03-25T08:53:39.179Z</time></trkpt><trkpt lat="44.1273212" lon="10.3962378"><ele>318.0</ele><time>2026-03-25T08:53:41.181Z</time></trkpt><trkpt lat="44.1273602" lon="10.396163"><ele>318.0</ele><time>2026-03-25T08:53:43.178Z</time></trkpt><trkpt lat="44.127399" lon="10.3960859"><ele>318.0</ele><time>2026-03-25T08:53:45.181Z</time></trkpt><trkpt lat="44.1274329" lon="10.396005"><ele>318.0</ele><time>2026-03-25T08:53:47.176Z</time></trkpt><trkpt lat="44.1274666" lon="10.3959225"><ele>319.0</ele><time>2026-03-25T08:53:49.184Z</time></trkpt><trkpt lat="44.1274962" lon="10.3958375"><ele>320.0</ele><time>2026-03-25T08:53:51.167Z</time></trkpt><trkpt lat="44.1275197" lon="10.3957506"><ele>321.0</ele><time>2026-03-25T08:53:53.18Z</time></trkpt><trkpt lat="44.1275382" lon="10.3956618"><ele>322.0</ele><time>2026-03-25T08:53:55.181Z</time></trkpt><trkpt lat="44.1275547" lon="10.3955706"><ele>323.0</ele><time>2026-03-25T08:53:57.181Z</time></trkpt><trkpt lat="44.1275675" lon="10.3954815"><ele>324.0</ele><time>2026-03-25T08:53:59.178Z</time></trkpt><trkpt lat="44.1275823" lon="10.3953548"><ele>325.0</ele><time>2026-03-25T08:54:02.174Z</time></trkpt><trkpt lat="44.1275991" lon="10.3952238"><ele>325.0</ele><time>2026-03-25T08:54:05.181Z</time></trkpt><trkpt lat="44.1276094" lon="10.3951343"><ele>325.0</ele><time>2026-03-25T08:54:07.183Z</time></trkpt><trkpt lat="44.1276183" lon="10.3950457"><ele>325.0</ele><time>2026-03-25T08:54:09.172Z</time></trkpt><trkpt lat="44.1276281" lon="10.3949578"><ele>325.0</ele><time>2026-03-25T08:54:11.172Z</time></trkpt><trkpt lat="44.1276452" lon="10.3948363"><ele>325.0</ele><time>2026-03-25T08:54:14.175Z</time></trkpt><trkpt lat="44.1276574" lon="10.3947126"><ele>325.0</ele><time>2026-03-25T08:54:17.193Z</time></trkpt><trkpt lat="44.1276716" lon="10.3945879"><ele>324.85714285714283</ele><time>2026-03-25T08:54:20.181Z</time></trkpt><trkpt lat="44.1276851" lon="10.3944609"><ele>324.7142857142857</ele><time>2026-03-25T08:54:23.18Z</time></trkpt><trkpt lat="44.1276968" lon="10.3943733"><ele>324.57142857142856</ele><time>2026-03-25T08:54:25.17Z</time></trkpt><trkpt lat="44.1277199" lon="10.3942477"><ele>324.42857142857144</ele><time>2026-03-25T08:54:28.174Z</time></trkpt><trkpt lat="44.1277412" lon="10.3941607"><ele>324.2857142857143</ele><time>2026-03-25T08:54:30.179Z</time></trkpt><trkpt lat="44.1277689" lon="10.394078"><ele>324.14285714285717</ele><time>2026-03-25T08:54:32.17Z</time></trkpt><trkpt lat="44.1278014" lon="10.3940014"><ele>324.0</ele><time>2026-03-25T08:54:34.179Z</time></trkpt><trkpt lat="44.1278652" lon="10.3939073"><ele>323.8333333333333</ele><time>2026-03-25T08:54:37.168Z</time></trkpt><trkpt lat="44.1279371" lon="10.3938303"><ele>323.6666666666667</ele><time>2026-03-25T08:54:40.178Z</time></trkpt><trkpt lat="44.1280184" lon="10.3937701"><ele>323.5</ele><time>2026-03-25T08:54:43.176Z</time></trkpt><trkpt lat="44.1281078" lon="10.3937288"><ele>323.33333333333337</ele><time>2026-03-25T08:54:46.173Z</time></trkpt><trkpt lat="44.1281689" lon="10.3937015"><ele>323.1666666666667</ele><time>2026-03-25T08:54:48.169Z</time></trkpt><trkpt lat="44.1282315" lon="10.3936822"><ele>323.0</ele><time>2026-03-25T08:54:50.167Z</time></trkpt><trkpt lat="44.1282921" lon="10.3936536"><ele>324.6666666666667</ele><time>2026-03-25T08:54:52.173Z</time></trkpt><trkpt lat="44.128382" lon="10.393619"><ele>326.33333333333337</ele><time>2026-03-25T08:54:55.18Z</time></trkpt><trkpt lat="44.1284426" lon="10.3935934"><ele>328.0</ele><time>2026-03-25T08:54:57.18Z</time></trkpt><trkpt lat="44.1285331" lon="10.3935593"><ele>329.6666666666667</ele><time>2026-03-25T08:55:00.179Z</time></trkpt><trkpt lat="44.1286227" lon="10.393524"><ele>331.3333333333333</ele><time>2026-03-25T08:55:03.189Z</time></trkpt><trkpt lat="44.12871" lon="10.3934791"><ele>333.0</ele><time>2026-03-25T08:55:06.177Z</time></trkpt><trkpt lat="44.128793" lon="10.393418"><ele>333.0</ele><time>2026-03-25T08:55:09.166Z</time></trkpt><trkpt lat="44.1288711" lon="10.3933566"><ele>333.0</ele><time>2026-03-25T08:55:12.172Z</time></trkpt><trkpt lat="44.1289507" lon="10.3932915"><ele>333.0</ele><time>2026-03-25T08:55:15.194Z</time></trkpt><trkpt lat="44.129006" lon="10.3932489"><ele>333.0</ele><time>2026-03-25T08:55:17.19Z</time></trkpt><trkpt lat="44.1290846" lon="10.3931792"><ele>333.0</ele><time>2026-03-25T08:55:20.17Z</time></trkpt><trkpt lat="44.1291339" lon="10.3931242"><ele>333.0</ele><time>2026-03-25T08:55:22.179Z</time></trkpt><trkpt lat="44.1292048" lon="10.3930421"><ele>333.3333333333333</ele><time>2026-03-25T08:55:25.16Z</time></trkpt><trkpt lat="44.1292667" lon="10.3929478"><ele>333.6666666666667</ele><time>2026-03-25T08:55:28.169Z</time></trkpt><trkpt lat="44.1293283" lon="10.3928487"><ele>334.0</ele><time>2026-03-25T08:55:31.166Z</time></trkpt><trkpt lat="44.1293745" lon="10.3927732"><ele>334.33333333333337</ele><time>2026-03-25T08:55:33.165Z</time></trkpt><trkpt lat="44.1294158" lon="10.392704"><ele>334.6666666666667</ele><time>2026-03-25T08:55:35.172Z</time></trkpt><trkpt lat="44.1294571" lon="10.3926331"><ele>335.0</ele><time>2026-03-25T08:55:37.171Z</time></trkpt><trkpt lat="44.1295" lon="10.3925598"><ele>335.0</ele><time>2026-03-25T08:55:39.164Z</time></trkpt><trkpt lat="44.1295495" lon="10.3924798"><ele>335.0</ele><time>2026-03-25T08:55:41.168Z</time></trkpt><trkpt lat="44.1295977" lon="10.3924027"><ele>335.0</ele><time>2026-03-25T08:55:43.172Z</time></trkpt><trkpt lat="44.1296492" lon="10.3923326"><ele>335.0</ele><time>2026-03-25T08:55:45.175Z</time></trkpt><trkpt lat="44.1297093" lon="10.392274"><ele>335.0</ele><time>2026-03-25T08:55:47.165Z</time></trkpt><trkpt lat="44.1297711" lon="10.3922323"><ele>335.0</ele><time>2026-03-25T08:55:49.18Z</time></trkpt><trkpt lat="44.1298541" lon="10.3921908"><ele>335.5</ele><time>2026-03-25T08:55:52.174Z</time></trkpt><trkpt lat="44.1299329" lon="10.3921618"><ele>336.0</ele><time>2026-03-25T08:55:55.178Z</time></trkpt><trkpt lat="44.1300205" lon="10.3921489"><ele>336.5</ele><time>2026-03-25T08:55:58.186Z</time></trkpt><trkpt lat="44.1301076" lon="10.3921313"><ele>337.0</ele><time>2026-03-25T08:56:01.173Z</time></trkpt><trkpt lat="44.1301945" lon="10.3921125"><ele>337.5</ele><time>2026-03-25T08:56:04.169Z</time></trkpt><trkpt lat="44.1302571" lon="10.3920986"><ele>338.0</ele><time>2026-03-25T08:56:06.181Z</time></trkpt><trkpt lat="44.1303203" lon="10.3920834"><ele>338.0</ele><time>2026-03-25T08:56:08.18Z</time></trkpt><trkpt lat="44.1304084" lon="10.3920645"><ele>338.0</ele><time>2026-03-25T08:56:11.172Z</time></trkpt><trkpt lat="44.1304713" lon="10.3920487"><ele>338.0</ele><time>2026-03-25T08:56:13.175Z</time></trkpt><trkpt lat="44.1305352" lon="10.3920303"><ele>338.0</ele><time>2026-03-25T08:56:15.167Z</time></trkpt><trkpt lat="44.1305986" lon="10.3920161"><ele>338.0</ele><time>2026-03-25T08:56:17.18Z</time></trkpt><trkpt lat="44.1306618" lon="10.3920089"><ele>338.0</ele><time>2026-03-25T08:56:19.176Z</time></trkpt><trkpt lat="44.130751" lon="10.3920204"><ele>338.0</ele><time>2026-03-25T08:56:22.184Z</time></trkpt><trkpt lat="44.130837" lon="10.3920396"><ele>338.6666666666667</ele><time>2026-03-25T08:56:25.18Z</time></trkpt><trkpt lat="44.1309284" lon="10.3920627"><ele>339.33333333333337</ele><time>2026-03-25T08:56:28.179Z</time></trkpt><trkpt lat="44.1309914" lon="10.3920788"><ele>340.0</ele><time>2026-03-25T08:56:30.179Z</time></trkpt><trkpt lat="44.1310551" lon="10.3920937"><ele>340.6666666666667</ele><time>2026-03-25T08:56:32.17Z</time></trkpt><trkpt lat="44.1311179" lon="10.3921066"><ele>341.3333333333333</ele><time>2026-03-25T08:56:34.171Z</time></trkpt><trkpt lat="44.1312103" lon="10.3921299"><ele>342.0</ele><time>2026-03-25T08:56:37.174Z</time></trkpt><trkpt lat="44.1313021" lon="10.3921518"><ele>344.1428571428571</ele><time>2026-03-25T08:56:40.184Z</time></trkpt><trkpt lat="44.1313914" lon="10.3921966"><ele>346.2857142857143</ele><time>2026-03-25T08:56:43.171Z</time></trkpt><trkpt lat="44.1314519" lon="10.392232"><ele>348.42857142857144</ele><time>2026-03-25T08:56:45.175Z</time></trkpt><trkpt lat="44.1315122" lon="10.3922734"><ele>350.57142857142856</ele><time>2026-03-25T08:56:47.183Z</time></trkpt><trkpt lat="44.1315701" lon="10.3923175"><ele>352.7142857142857</ele><time>2026-03-25T08:56:49.179Z</time></trkpt><trkpt lat="44.131627" lon="10.3923643"><ele>354.85714285714283</ele><time>2026-03-25T08:56:51.173Z</time></trkpt><trkpt lat="44.1316846" lon="10.3924109"><ele>357.0</ele><time>2026-03-25T08:56:53.178Z</time></trkpt><trkpt lat="44.1317423" lon="10.3924586"><ele>357.0</ele><time>2026-03-25T08:56:55.167Z</time></trkpt><trkpt lat="44.131801" lon="10.392501"><ele>357.0</ele><time>2026-03-25T08:56:57.17Z</time></trkpt><trkpt lat="44.13186" lon="10.3925449"><ele>357.0</ele><time>2026-03-25T08:56:59.181Z</time></trkpt><trkpt lat="44.1319178" lon="10.3925856"><ele>357.0</ele><time>2026-03-25T08:57:01.175Z</time></trkpt><trkpt lat="44.1319742" lon="10.3926296"><ele>357.0</ele><time>2026-03-25T08:57:03.173Z</time></trkpt><trkpt lat="44.1320553" lon="10.3926872"><ele>357.0</ele><time>2026-03-25T08:57:06.167Z</time></trkpt><trkpt lat="44.1321437" lon="10.3927256"><ele>357.0</ele><time>2026-03-25T08:57:09.202Z</time></trkpt><trkpt lat="44.1322346" lon="10.3927455"><ele>357.0</ele><time>2026-03-25T08:57:12.173Z</time></trkpt><trkpt lat="44.1322998" lon="10.3927434"><ele>357.0</ele><time>2026-03-25T08:57:14.179Z</time></trkpt><trkpt lat="44.1323703" lon="10.3927311"><ele>357.0</ele><time>2026-03-25T08:57:16.178Z</time></trkpt><trkpt lat="44.132444" lon="10.3927102"><ele>357.0</ele><time>2026-03-25T08:57:18.185Z</time></trkpt><trkpt lat="44.1325225" lon="10.3926882"><ele>357.0</ele><time>2026-03-25T08:57:20.179Z</time></trkpt><trkpt lat="44.1326022" lon="10.392671"><ele>357.0</ele><time>2026-03-25T08:57:22.168Z</time></trkpt><trkpt lat="44.1326836" lon="10.3926473"><ele>355.20000000000005</ele><time>2026-03-25T08:57:24.166Z</time></trkpt><trkpt lat="44.1327696" lon="10.3926345"><ele>353.4</ele><time>2026-03-25T08:57:26.174Z</time></trkpt><trkpt lat="44.1328613" lon="10.3926308"><ele>351.6</ele><time>2026-03-25T08:57:28.18Z</time></trkpt><trkpt lat="44.1329605" lon="10.3926543"><ele>349.79999999999995</ele><time>2026-03-25T08:57:30.178Z</time></trkpt><trkpt lat="44.1330624" lon="10.392711"><ele>348.0</ele><time>2026-03-25T08:57:32.171Z</time></trkpt><trkpt lat="44.1331756" lon="10.3927763"><ele>348.1666666666667</ele><time>2026-03-25T08:57:34.171Z</time></trkpt><trkpt lat="44.1332348" lon="10.3928076"><ele>348.3333333333333</ele><time>2026-03-25T08:57:35.183Z</time></trkpt><trkpt lat="44.1332944" lon="10.3928389"><ele>348.5</ele><time>2026-03-25T08:57:36.165Z</time></trkpt><trkpt lat="44.1334121" lon="10.3929078"><ele>348.66666666666663</ele><time>2026-03-25T08:57:38.173Z</time></trkpt><trkpt lat="44.1334698" lon="10.3929452"><ele>348.8333333333333</ele><time>2026-03-25T08:57:39.183Z</time></trkpt><trkpt lat="44.1335315" lon="10.392982"><ele>349.0</ele><time>2026-03-25T08:57:40.169Z</time></trkpt><trkpt lat="44.1335959" lon="10.3930179"><ele>348.99999999999994</ele><time>2026-03-25T08:57:41.184Z</time></trkpt><trkpt lat="44.1336576" lon="10.3930481"><ele>349.0</ele><time>2026-03-25T08:57:42.168Z</time></trkpt><trkpt lat="44.1337214" lon="10.3930719"><ele>349.0</ele><time>2026-03-25T08:57:43.167Z</time></trkpt><trkpt lat="44.1337944" lon="10.393082"><ele>349.0</ele><time>2026-03-25T08:57:44.166Z</time></trkpt><trkpt lat="44.1338644" lon="10.3930863"><ele>349.0</ele><time>2026-03-25T08:57:45.171Z</time></trkpt><trkpt lat="44.1339358" lon="10.3930968"><ele>348.99999999999994</ele><time>2026-03-25T08:57:46.178Z</time></trkpt><trkpt lat="44.1340143" lon="10.3931049"><ele>349.0</ele><time>2026-03-25T08:57:47.167Z</time></trkpt><trkpt lat="44.1340895" lon="10.3930981"><ele>349.0</ele><time>2026-03-25T08:57:48.18Z</time></trkpt><trkpt lat="44.134168" lon="10.3930839"><ele>349.0</ele><time>2026-03-25T08:57:49.181Z</time></trkpt><trkpt lat="44.134246" lon="10.393051"><ele>349.0</ele><time>2026-03-25T08:57:50.179Z</time></trkpt><trkpt lat="44.1343236" lon="10.3929967"><ele>349.0</ele><time>2026-03-25T08:57:51.178Z</time></trkpt><trkpt lat="44.1343923" lon="10.3929266"><ele>349.0</ele><time>2026-03-25T08:57:52.18Z</time></trkpt><trkpt lat="44.1344732" lon="10.3928691"><ele>349.0</ele><time>2026-03-25T08:57:53.175Z</time></trkpt><trkpt lat="44.1345631" lon="10.392829"><ele>346.6</ele><time>2026-03-25T08:57:54.166Z</time></trkpt><trkpt lat="44.1346564" lon="10.3928105"><ele>344.2</ele><time>2026-03-25T08:57:55.18Z</time></trkpt><trkpt lat="44.1347538" lon="10.39281"><ele>341.8</ele><time>2026-03-25T08:57:56.174Z</time></trkpt><trkpt lat="44.1348539" lon="10.3928149"><ele>339.40000000000003</ele><time>2026-03-25T08:57:57.179Z</time></trkpt><trkpt lat="44.1349565" lon="10.3928035"><ele>337.0</ele><time>2026-03-25T08:57:58.17Z</time></trkpt><trkpt lat="44.1350518" lon="10.3927586"><ele>336.40000000000003</ele><time>2026-03-25T08:57:59.182Z</time></trkpt><trkpt lat="44.1351375" lon="10.3926805"><ele>335.8</ele><time>2026-03-25T08:58:00.172Z</time></trkpt><trkpt lat="44.1352153" lon="10.3926009"><ele>335.2</ele><time>2026-03-25T08:58:01.175Z</time></trkpt><trkpt lat="44.1352895" lon="10.392525"><ele>334.6</ele><time>2026-03-25T08:58:02.165Z</time></trkpt><trkpt lat="44.135364" lon="10.3924539"><ele>334.0</ele><time>2026-03-25T08:58:03.175Z</time></trkpt><trkpt lat="44.1354248" lon="10.3923784"><ele>334.0</ele><time>2026-03-25T08:58:04.174Z</time></trkpt><trkpt lat="44.1354755" lon="10.3922986"><ele>334.0</ele><time>2026-03-25T08:58:05.167Z</time></trkpt><trkpt lat="44.1355047" lon="10.3922109"><ele>334.0</ele><time>2026-03-25T08:58:06.173Z</time></trkpt><trkpt lat="44.1355171" lon="10.3920582"><ele>334.0</ele><time>2026-03-25T08:58:08.17Z</time></trkpt><trkpt lat="44.1354963" lon="10.3919608"><ele>334.0</ele><time>2026-03-25T08:58:10.176Z</time></trkpt><trkpt lat="44.1354587" lon="10.3918749"><ele>334.0</ele><time>2026-03-25T08:58:13.184Z</time></trkpt><trkpt lat="44.135413" lon="10.3917871"><ele>333.85714285714283</ele><time>2026-03-25T08:58:17.181Z</time></trkpt><trkpt lat="44.1353741" lon="10.3917166"><ele>333.7142857142857</ele><time>2026-03-25T08:58:20.179Z</time></trkpt><trkpt lat="44.1353269" lon="10.3916513"><ele>333.57142857142856</ele><time>2026-03-25T08:58:23.178Z</time></trkpt><trkpt lat="44.1352783" lon="10.3915634"><ele>333.42857142857144</ele><time>2026-03-25T08:58:27.175Z</time></trkpt><trkpt lat="44.1352397" lon="10.3914862"><ele>333.2857142857143</ele><time>2026-03-25T08:58:30.177Z</time></trkpt><trkpt lat="44.1351984" lon="10.3914143"><ele>333.14285714285717</ele><time>2026-03-25T08:58:33.175Z</time></trkpt><trkpt lat="44.1351642" lon="10.3913371"><ele>333.0</ele><time>2026-03-25T08:58:36.176Z</time></trkpt><trkpt lat="44.1351267" lon="10.39126"><ele>331.5714285714286</ele><time>2026-03-25T08:58:39.167Z</time></trkpt><trkpt lat="44.1350879" lon="10.3911856"><ele>330.1428571428571</ele><time>2026-03-25T08:58:42.178Z</time></trkpt><trkpt lat="44.1350508" lon="10.3911082"><ele>328.7142857142857</ele><time>2026-03-25T08:58:45.182Z</time></trkpt><trkpt lat="44.1350082" lon="10.3910164"><ele>327.28571428571433</ele><time>2026-03-25T08:58:49.172Z</time></trkpt><trkpt lat="44.1349758" lon="10.3909386"><ele>325.8571428571429</ele><time>2026-03-25T08:58:52.168Z</time></trkpt><trkpt lat="44.1349439" lon="10.3908597"><ele>324.42857142857144</ele><time>2026-03-25T08:58:55.168Z</time></trkpt><trkpt lat="44.1349101" lon="10.3907793"><ele>323.0</ele><time>2026-03-25T08:58:58.174Z</time></trkpt><trkpt lat="44.1348766" lon="10.3906986"><ele>323.00000000000006</ele><time>2026-03-25T08:59:01.179Z</time></trkpt><trkpt lat="44.1348467" lon="10.3906172"><ele>323.0</ele><time>2026-03-25T08:59:04.178Z</time></trkpt><trkpt lat="44.134817" lon="10.3905352"><ele>323.0</ele><time>2026-03-25T08:59:07.171Z</time></trkpt><trkpt lat="44.1347801" lon="10.3904343"><ele>323.0</ele><time>2026-03-25T08:59:11.179Z</time></trkpt><trkpt lat="44.1347494" lon="10.3903507"><ele>323.0</ele><time>2026-03-25T08:59:14.178Z</time></trkpt><trkpt lat="44.1347157" lon="10.3902448"><ele>323.00000000000006</ele><time>2026-03-25T08:59:18.185Z</time></trkpt><trkpt lat="44.1346848" lon="10.3901642"><ele>323.0</ele><time>2026-03-25T08:59:21.181Z</time></trkpt><trkpt lat="44.1346532" lon="10.3900803"><ele>324.1666666666667</ele><time>2026-03-25T08:59:24.176Z</time></trkpt><trkpt lat="44.1346222" lon="10.3899833"><ele>325.33333333333337</ele><time>2026-03-25T08:59:27.179Z</time></trkpt><trkpt lat="44.1346026" lon="10.3898787"><ele>326.5</ele><time>2026-03-25T08:59:30.18Z</time></trkpt><trkpt lat="44.1346039" lon="10.3897691"><ele>327.6666666666667</ele><time>2026-03-25T08:59:33.171Z</time></trkpt><trkpt lat="44.1346323" lon="10.3896649"><ele>328.8333333333333</ele><time>2026-03-25T08:59:36.174Z</time></trkpt><trkpt lat="44.1346663" lon="10.3895584"><ele>330.0</ele><time>2026-03-25T08:59:39.184Z</time></trkpt><trkpt lat="44.1347059" lon="10.3894557"><ele>331.8333333333333</ele><time>2026-03-25T08:59:42.174Z</time></trkpt><trkpt lat="44.1347433" lon="10.389342"><ele>333.6666666666667</ele><time>2026-03-25T08:59:45.178Z</time></trkpt><trkpt lat="44.1347687" lon="10.3892587"><ele>335.5</ele><time>2026-03-25T08:59:47.172Z</time></trkpt><trkpt lat="44.134796" lon="10.3891361"><ele>337.33333333333337</ele><time>2026-03-25T08:59:50.171Z</time></trkpt><trkpt lat="44.1348143" lon="10.389011"><ele>339.1666666666667</ele><time>2026-03-25T08:59:53.176Z</time></trkpt><trkpt lat="44.1348247" lon="10.3888796"><ele>341.0</ele><time>2026-03-25T08:59:56.172Z</time></trkpt><trkpt lat="44.1348314" lon="10.388792"><ele>341.5</ele><time>2026-03-25T08:59:58.182Z</time></trkpt><trkpt lat="44.1348357" lon="10.3886637"><ele>342.0</ele><time>2026-03-25T09:00:01.167Z</time></trkpt><trkpt lat="44.1348545" lon="10.3885393"><ele>342.5</ele><time>2026-03-25T09:00:04.175Z</time></trkpt><trkpt lat="44.1348817" lon="10.3884168"><ele>343.0</ele><time>2026-03-25T09:00:07.162Z</time></trkpt><trkpt lat="44.1349065" lon="10.3883358"><ele>343.5</ele><time>2026-03-25T09:00:09.17Z</time></trkpt><trkpt lat="44.1349455" lon="10.3882191"><ele>344.0</ele><time>2026-03-25T09:00:12.175Z</time></trkpt><trkpt lat="44.1349877" lon="10.3881038"><ele>345.5714285714286</ele><time>2026-03-25T09:00:15.17Z</time></trkpt><trkpt lat="44.1350266" lon="10.3879868"><ele>347.14285714285717</ele><time>2026-03-25T09:00:18.172Z</time></trkpt><trkpt lat="44.1350525" lon="10.3879068"><ele>348.7142857142857</ele><time>2026-03-25T09:00:20.174Z</time></trkpt><trkpt lat="44.1350797" lon="10.3878268"><ele>350.28571428571433</ele><time>2026-03-25T09:00:22.163Z</time></trkpt><trkpt lat="44.1351066" lon="10.3877466"><ele>351.8571428571429</ele><time>2026-03-25T09:00:24.168Z</time></trkpt><trkpt lat="44.1351337" lon="10.3876664"><ele>353.42857142857144</ele><time>2026-03-25T09:00:26.168Z</time></trkpt><trkpt lat="44.1351662" lon="10.387574"><ele>355.0</ele><time>2026-03-25T09:00:28.165Z</time></trkpt><trkpt lat="44.1351975" lon="10.3874769"><ele>355.0</ele><time>2026-03-25T09:00:30.169Z</time></trkpt><trkpt lat="44.1352311" lon="10.3873847"><ele>355.0</ele><time>2026-03-25T09:00:32.186Z</time></trkpt><trkpt lat="44.1352649" lon="10.3872924"><ele>355.0</ele><time>2026-03-25T09:00:34.18Z</time></trkpt><trkpt lat="44.1352998" lon="10.3872024"><ele>355.0</ele><time>2026-03-25T09:00:36.182Z</time></trkpt><trkpt lat="44.135344" lon="10.3871163"><ele>355.0</ele><time>2026-03-25T09:00:38.174Z</time></trkpt><trkpt lat="44.1353921" lon="10.3870418"><ele>355.0</ele><time>2026-03-25T09:00:40.187Z</time></trkpt><trkpt lat="44.1354496" lon="10.3869898"><ele>355.0</ele><time>2026-03-25T09:00:42.179Z</time></trkpt><trkpt lat="44.1355137" lon="10.3869446"><ele>354.3333333333333</ele><time>2026-03-25T09:00:44.182Z</time></trkpt><trkpt lat="44.1355786" lon="10.3869102"><ele>353.66666666666663</ele><time>2026-03-25T09:00:46.173Z</time></trkpt><trkpt lat="44.1356516" lon="10.3868778"><ele>353.0</ele><time>2026-03-25T09:00:48.169Z</time></trkpt><trkpt lat="44.135725" lon="10.3868393"><ele>352.3333333333333</ele><time>2026-03-25T09:00:50.173Z</time></trkpt><trkpt lat="44.1358001" lon="10.386803"><ele>351.6666666666667</ele><time>2026-03-25T09:00:52.172Z</time></trkpt><trkpt lat="44.1358746" lon="10.3867702"><ele>351.0</ele><time>2026-03-25T09:00:54.177Z</time></trkpt><trkpt lat="44.1359479" lon="10.3867403"><ele>352.3333333333333</ele><time>2026-03-25T09:00:56.167Z</time></trkpt><trkpt lat="44.1360199" lon="10.3867094"><ele>353.6666666666667</ele><time>2026-03-25T09:00:58.17Z</time></trkpt><trkpt lat="44.1360932" lon="10.386678"><ele>355.0</ele><time>2026-03-25T09:01:00.168Z</time></trkpt><trkpt lat="44.1361654" lon="10.3866498"><ele>356.33333333333337</ele><time>2026-03-25T09:01:02.18Z</time></trkpt><trkpt lat="44.1362371" lon="10.3866182"><ele>357.6666666666667</ele><time>2026-03-25T09:01:04.183Z</time></trkpt><trkpt lat="44.1363106" lon="10.3865899"><ele>359.0</ele><time>2026-03-25T09:01:06.196Z</time></trkpt><trkpt lat="44.1363818" lon="10.3865581"><ele>359.0</ele><time>2026-03-25T09:01:08.169Z</time></trkpt><trkpt lat="44.1364525" lon="10.3865323"><ele>359.0</ele><time>2026-03-25T09:01:10.167Z</time></trkpt><trkpt lat="44.1365228" lon="10.3865034"><ele>359.0</ele><time>2026-03-25T09:01:12.189Z</time></trkpt><trkpt lat="44.1365949" lon="10.3864785"><ele>359.0</ele><time>2026-03-25T09:01:14.179Z</time></trkpt><trkpt lat="44.136668" lon="10.3864486"><ele>359.0</ele><time>2026-03-25T09:01:16.187Z</time></trkpt><trkpt lat="44.1367384" lon="10.3864148"><ele>359.0</ele><time>2026-03-25T09:01:18.18Z</time></trkpt><trkpt lat="44.1368014" lon="10.3863563"><ele>359.0</ele><time>2026-03-25T09:01:20.188Z</time></trkpt><trkpt lat="44.1368483" lon="10.3862761"><ele>359.7142857142857</ele><time>2026-03-25T09:01:22.184Z</time></trkpt><trkpt lat="44.1368752" lon="10.3861819"><ele>360.42857142857144</ele><time>2026-03-25T09:01:24.179Z</time></trkpt><trkpt lat="44.1368864" lon="10.3860812"><ele>361.1428571428571</ele><time>2026-03-25T09:01:26.166Z</time></trkpt><trkpt lat="44.1368834" lon="10.3859822"><ele>361.8571428571429</ele><time>2026-03-25T09:01:28.171Z</time></trkpt><trkpt lat="44.1368754" lon="10.3858747"><ele>362.57142857142856</ele><time>2026-03-25T09:01:30.173Z</time></trkpt><trkpt lat="44.1368635" lon="10.3857706"><ele>363.2857142857143</ele><time>2026-03-25T09:01:32.17Z</time></trkpt><trkpt lat="44.136847" lon="10.3856741"><ele>364.0</ele><time>2026-03-25T09:01:34.166Z</time></trkpt><trkpt lat="44.1368281" lon="10.3855721"><ele>364.57142857142856</ele><time>2026-03-25T09:01:36.169Z</time></trkpt><trkpt lat="44.1368141" lon="10.3854711"><ele>365.1428571428571</ele><time>2026-03-25T09:01:38.167Z</time></trkpt><trkpt lat="44.1368026" lon="10.3853753"><ele>365.7142857142857</ele><time>2026-03-25T09:01:40.17Z</time></trkpt><trkpt lat="44.1367912" lon="10.385279"><ele>366.2857142857143</ele><time>2026-03-25T09:01:42.168Z</time></trkpt><trkpt lat="44.1367792" lon="10.385181"><ele>366.85714285714283</ele><time>2026-03-25T09:01:44.181Z</time></trkpt><trkpt lat="44.1367676" lon="10.3850827"><ele>367.42857142857144</ele><time>2026-03-25T09:01:46.163Z</time></trkpt><trkpt lat="44.1367561" lon="10.384986"><ele>368.0</ele><time>2026-03-25T09:01:48.181Z</time></trkpt><trkpt lat="44.1367454" lon="10.384888"><ele>368.0</ele><time>2026-03-25T09:01:50.171Z</time></trkpt><trkpt lat="44.1367322" lon="10.3847897"><ele>368.0</ele><time>2026-03-25T09:01:52.174Z</time></trkpt><trkpt lat="44.1367173" lon="10.3846921"><ele>368.0</ele><time>2026-03-25T09:01:54.18Z</time></trkpt><trkpt lat="44.1367038" lon="10.3845957"><ele>368.0</ele><time>2026-03-25T09:01:56.183Z</time></trkpt><trkpt lat="44.136694" lon="10.3844969"><ele>368.0</ele><time>2026-03-25T09:01:58.181Z</time></trkpt><trkpt lat="44.1366825" lon="10.3843992"><ele>368.0</ele><time>2026-03-25T09:02:00.173Z</time></trkpt><trkpt lat="44.1366722" lon="10.3843047"><ele>368.0</ele><time>2026-03-25T09:02:02.173Z</time></trkpt><trkpt lat="44.1366589" lon="10.3842085"><ele>369.0</ele><time>2026-03-25T09:02:04.167Z</time></trkpt><trkpt lat="44.1366475" lon="10.3841108"><ele>370.0</ele><time>2026-03-25T09:02:06.186Z</time></trkpt><trkpt lat="44.1366366" lon="10.3840105"><ele>371.0</ele><time>2026-03-25T09:02:08.178Z</time></trkpt><trkpt lat="44.1366234" lon="10.3839136"><ele>372.0</ele><time>2026-03-25T09:02:10.174Z</time></trkpt><trkpt lat="44.1366138" lon="10.3838185"><ele>373.0</ele><time>2026-03-25T09:02:12.168Z</time></trkpt><trkpt lat="44.1366086" lon="10.3837208"><ele>374.0</ele><time>2026-03-25T09:02:14.181Z</time></trkpt><trkpt lat="44.1366083" lon="10.3835852"><ele>374.0</ele><time>2026-03-25T09:02:17.171Z</time></trkpt><trkpt lat="44.1366101" lon="10.3834764"><ele>374.0</ele><time>2026-03-25T09:02:19.171Z</time></trkpt><trkpt lat="44.1366279" lon="10.3833726"><ele>374.0</ele><time>2026-03-25T09:02:21.178Z</time></trkpt><trkpt lat="44.1366578" lon="10.3832762"><ele>374.0</ele><time>2026-03-25T09:02:23.169Z</time></trkpt><trkpt lat="44.1366927" lon="10.3831854"><ele>374.0</ele><time>2026-03-25T09:02:25.184Z</time></trkpt><trkpt lat="44.136736" lon="10.3830983"><ele>374.0</ele><time>2026-03-25T09:02:27.174Z</time></trkpt><trkpt lat="44.1367872" lon="10.3830228"><ele>373.0</ele><time>2026-03-25T09:02:29.168Z</time></trkpt><trkpt lat="44.136843" lon="10.3829598"><ele>372.0</ele><time>2026-03-25T09:02:31.164Z</time></trkpt><trkpt lat="44.1369049" lon="10.382908"><ele>371.0</ele><time>2026-03-25T09:02:33.165Z</time></trkpt><trkpt lat="44.1369662" lon="10.3828585"><ele>370.0</ele><time>2026-03-25T09:02:35.178Z</time></trkpt><trkpt lat="44.1370318" lon="10.3828193"><ele>369.0</ele><time>2026-03-25T09:02:37.171Z</time></trkpt><trkpt lat="44.1370971" lon="10.3827797"><ele>368.0</ele><time>2026-03-25T09:02:39.171Z</time></trkpt><trkpt lat="44.1371647" lon="10.3827377"><ele>367.0</ele><time>2026-03-25T09:02:41.171Z</time></trkpt><trkpt lat="44.1372326" lon="10.3826941"><ele>367.0</ele><time>2026-03-25T09:02:43.173Z</time></trkpt><trkpt lat="44.1372946" lon="10.3826546"><ele>367.0</ele><time>2026-03-25T09:02:45.18Z</time></trkpt><trkpt lat="44.1373792" lon="10.3825899"><ele>367.0</ele><time>2026-03-25T09:02:48.177Z</time></trkpt><trkpt lat="44.1374463" lon="10.382537"><ele>367.0</ele><time>2026-03-25T09:02:50.173Z</time></trkpt><trkpt lat="44.1375112" lon="10.3824765"><ele>367.0</ele><time>2026-03-25T09:02:52.169Z</time></trkpt><trkpt lat="44.1375745" lon="10.3824094"><ele>367.0</ele><time>2026-03-25T09:02:54.175Z</time></trkpt><trkpt lat="44.1376288" lon="10.382331"><ele>367.5</ele><time>2026-03-25T09:02:56.172Z</time></trkpt><trkpt lat="44.1376827" lon="10.3822493"><ele>368.0</ele><time>2026-03-25T09:02:58.171Z</time></trkpt><trkpt lat="44.1377288" lon="10.3821658"><ele>368.5</ele><time>2026-03-25T09:03:00.169Z</time></trkpt><trkpt lat="44.1377716" lon="10.3820819"><ele>369.0</ele><time>2026-03-25T09:03:02.179Z</time></trkpt><trkpt lat="44.1378106" lon="10.3819971"><ele>369.5</ele><time>2026-03-25T09:03:04.176Z</time></trkpt><trkpt lat="44.137849" lon="10.381908"><ele>370.0</ele><time>2026-03-25T09:03:06.17Z</time></trkpt><trkpt lat="44.1378902" lon="10.3818203"><ele>370.0</ele><time>2026-03-25T09:03:08.171Z</time></trkpt><trkpt lat="44.1379432" lon="10.3817451"><ele>370.0</ele><time>2026-03-25T09:03:10.174Z</time></trkpt><trkpt lat="44.1380066" lon="10.3816858"><ele>370.0</ele><time>2026-03-25T09:03:12.167Z</time></trkpt><trkpt lat="44.1380745" lon="10.3816396"><ele>370.0</ele><time>2026-03-25T09:03:14.169Z</time></trkpt><trkpt lat="44.1381397" lon="10.3815894"><ele>370.0</ele><time>2026-03-25T09:03:16.171Z</time></trkpt><trkpt lat="44.1381995" lon="10.3815224"><ele>370.0</ele><time>2026-03-25T09:03:18.187Z</time></trkpt><trkpt lat="44.1382529" lon="10.3814421"><ele>371.5</ele><time>2026-03-25T09:03:20.177Z</time></trkpt><trkpt lat="44.1383078" lon="10.38136"><ele>373.0</ele><time>2026-03-25T09:03:22.167Z</time></trkpt><trkpt lat="44.1383638" lon="10.3812781"><ele>374.5</ele><time>2026-03-25T09:03:24.181Z</time></trkpt><trkpt lat="44.1384168" lon="10.381198"><ele>376.0</ele><time>2026-03-25T09:03:26.185Z</time></trkpt><trkpt lat="44.1384758" lon="10.381126"><ele>377.5</ele><time>2026-03-25T09:03:28.168Z</time></trkpt><trkpt lat="44.1385369" lon="10.3810532"><ele>379.0</ele><time>2026-03-25T09:03:30.165Z</time></trkpt><trkpt lat="44.138597" lon="10.3809907"><ele>379.00000000000006</ele><time>2026-03-25T09:03:32.174Z</time></trkpt><trkpt lat="44.1386556" lon="10.3809305"><ele>379.0</ele><time>2026-03-25T09:03:34.179Z</time></trkpt><trkpt lat="44.1387086" lon="10.3808727"><ele>379.0</ele><time>2026-03-25T09:03:36.181Z</time></trkpt><trkpt lat="44.1387786" lon="10.3808072"><ele>379.0</ele><time>2026-03-25T09:03:39.187Z</time></trkpt><trkpt lat="44.1388556" lon="10.3807385"><ele>379.0</ele><time>2026-03-25T09:03:42.17Z</time></trkpt><trkpt lat="44.1389086" lon="10.3806903"><ele>379.00000000000006</ele><time>2026-03-25T09:03:44.176Z</time></trkpt><trkpt lat="44.138962" lon="10.3806373"><ele>379.0</ele><time>2026-03-25T09:03:46.167Z</time></trkpt><trkpt lat="44.1390125" lon="10.3805805"><ele>380.28571428571433</ele><time>2026-03-25T09:03:48.183Z</time></trkpt><trkpt lat="44.1390604" lon="10.3805204"><ele>381.57142857142856</ele><time>2026-03-25T09:03:50.175Z</time></trkpt><trkpt lat="44.1390993" lon="10.3804433"><ele>382.8571428571429</ele><time>2026-03-25T09:03:52.17Z</time></trkpt><trkpt lat="44.1391374" lon="10.380362"><ele>384.14285714285717</ele><time>2026-03-25T09:03:54.195Z</time></trkpt><trkpt lat="44.1391789" lon="10.3802822"><ele>385.42857142857144</ele><time>2026-03-25T09:03:56.168Z</time></trkpt><trkpt lat="44.1392183" lon="10.3802003"><ele>386.7142857142857</ele><time>2026-03-25T09:03:58.179Z</time></trkpt><trkpt lat="44.1392535" lon="10.3801159"><ele>388.0</ele><time>2026-03-25T09:04:00.168Z</time></trkpt><trkpt lat="44.1392888" lon="10.380034"><ele>388.0</ele><time>2026-03-25T09:04:02.18Z</time></trkpt><trkpt lat="44.1393274" lon="10.3799556"><ele>388.0</ele><time>2026-03-25T09:04:04.176Z</time></trkpt><trkpt lat="44.1393625" lon="10.3798758"><ele>388.0</ele><time>2026-03-25T09:04:06.175Z</time></trkpt><trkpt lat="44.1394126" lon="10.3797714"><ele>388.0</ele><time>2026-03-25T09:04:09.165Z</time></trkpt><trkpt lat="44.1394531" lon="10.3796892"><ele>388.0</ele><time>2026-03-25T09:04:11.167Z</time></trkpt><trkpt lat="44.1394993" lon="10.379615"><ele>388.0</ele><time>2026-03-25T09:04:13.173Z</time></trkpt><trkpt lat="44.1395504" lon="10.3795488"><ele>388.0</ele><time>2026-03-25T09:04:15.173Z</time></trkpt><trkpt lat="44.1396035" lon="10.3794845"><ele>387.2857142857143</ele><time>2026-03-25T09:04:17.173Z</time></trkpt><trkpt lat="44.1396562" lon="10.3794235"><ele>386.5714285714286</ele><time>2026-03-25T09:04:19.172Z</time></trkpt><trkpt lat="44.1397099" lon="10.379355"><ele>385.8571428571429</ele><time>2026-03-25T09:04:21.168Z</time></trkpt><trkpt lat="44.1397611" lon="10.379285"><ele>385.1428571428571</ele><time>2026-03-25T09:04:23.172Z</time></trkpt><trkpt lat="44.1398135" lon="10.3792183"><ele>384.42857142857144</ele><time>2026-03-25T09:04:25.166Z</time></trkpt><trkpt lat="44.1398615" lon="10.379149"><ele>383.7142857142857</ele><time>2026-03-25T09:04:27.18Z</time></trkpt><trkpt lat="44.1399096" lon="10.3790795"><ele>383.0</ele><time>2026-03-25T09:04:29.181Z</time></trkpt><trkpt lat="44.1399566" lon="10.3790035"><ele>385.0</ele><time>2026-03-25T09:04:31.165Z</time></trkpt><trkpt lat="44.1400023" lon="10.3789274"><ele>387.0</ele><time>2026-03-25T09:04:33.176Z</time></trkpt><trkpt lat="44.1400358" lon="10.3788485"><ele>389.0</ele><time>2026-03-25T09:04:35.174Z</time></trkpt><trkpt lat="44.1400611" lon="10.3787647"><ele>391.0</ele><time>2026-03-25T09:04:37.171Z</time></trkpt><trkpt lat="44.1400884" lon="10.378678"><ele>393.0</ele><time>2026-03-25T09:04:39.18Z</time></trkpt><trkpt lat="44.1401153" lon="10.3785905"><ele>395.0</ele><time>2026-03-25T09:04:41.171Z</time></trkpt><trkpt lat="44.1401448" lon="10.3785039"><ele>397.0</ele><time>2026-03-25T09:04:43.179Z</time></trkpt><trkpt lat="44.1401781" lon="10.3784216"><ele>397.0</ele><time>2026-03-25T09:04:45.174Z</time></trkpt><trkpt lat="44.1402146" lon="10.3783431"><ele>397.0</ele><time>2026-03-25T09:04:47.178Z</time></trkpt><trkpt lat="44.1402553" lon="10.3782675"><ele>397.0</ele><time>2026-03-25T09:04:49.172Z</time></trkpt><trkpt lat="44.1403006" lon="10.3781977"><ele>397.0</ele><time>2026-03-25T09:04:51.169Z</time></trkpt><trkpt lat="44.1403569" lon="10.3781423"><ele>397.0</ele><time>2026-03-25T09:04:53.169Z</time></trkpt><trkpt lat="44.1404186" lon="10.378097"><ele>397.0</ele><time>2026-03-25T09:04:55.167Z</time></trkpt><trkpt lat="44.1404805" lon="10.3780652"><ele>397.0</ele><time>2026-03-25T09:04:57.172Z</time></trkpt><trkpt lat="44.1405461" lon="10.378043"><ele>397.0</ele><time>2026-03-25T09:04:59.195Z</time></trkpt><trkpt lat="44.140617" lon="10.3780262"><ele>397.0</ele><time>2026-03-25T09:05:01.172Z</time></trkpt><trkpt lat="44.1406867" lon="10.3780265"><ele>397.0</ele><time>2026-03-25T09:05:03.172Z</time></trkpt><trkpt lat="44.1407551" lon="10.3780258"><ele>397.0</ele><time>2026-03-25T09:05:05.172Z</time></trkpt><trkpt lat="44.1408221" lon="10.3780223"><ele>397.0</ele><time>2026-03-25T09:05:07.184Z</time></trkpt><trkpt lat="44.140889" lon="10.3780203"><ele>397.0</ele><time>2026-03-25T09:05:09.174Z</time></trkpt><trkpt lat="44.1409583" lon="10.3780106"><ele>397.0</ele><time>2026-03-25T09:05:11.172Z</time></trkpt><trkpt lat="44.1410283" lon="10.3779895"><ele>397.2857142857143</ele><time>2026-03-25T09:05:13.17Z</time></trkpt><trkpt lat="44.1410922" lon="10.3779494"><ele>397.57142857142856</ele><time>2026-03-25T09:05:15.184Z</time></trkpt><trkpt lat="44.1411539" lon="10.3778988"><ele>397.8571428571429</ele><time>2026-03-25T09:05:17.17Z</time></trkpt><trkpt lat="44.1412156" lon="10.3778402"><ele>398.1428571428571</ele><time>2026-03-25T09:05:19.17Z</time></trkpt><trkpt lat="44.1412746" lon="10.3777812"><ele>398.42857142857144</ele><time>2026-03-25T09:05:21.171Z</time></trkpt><trkpt lat="44.1413293" lon="10.3777177"><ele>398.7142857142857</ele><time>2026-03-25T09:05:23.173Z</time></trkpt><trkpt lat="44.1413926" lon="10.3776582"><ele>399.0</ele><time>2026-03-25T09:05:25.173Z</time></trkpt><trkpt lat="44.1414572" lon="10.3776034"><ele>399.0</ele><time>2026-03-25T09:05:27.177Z</time></trkpt><trkpt lat="44.1415203" lon="10.3775472"><ele>399.0</ele><time>2026-03-25T09:05:29.172Z</time></trkpt><trkpt lat="44.1415797" lon="10.3774867"><ele>399.0</ele><time>2026-03-25T09:05:31.175Z</time></trkpt><trkpt lat="44.1416435" lon="10.3774345"><ele>399.0</ele><time>2026-03-25T09:05:33.165Z</time></trkpt><trkpt lat="44.1417083" lon="10.3773868"><ele>399.0</ele><time>2026-03-25T09:05:35.183Z</time></trkpt><trkpt lat="44.1417688" lon="10.3773318"><ele>399.0</ele><time>2026-03-25T09:05:37.18Z</time></trkpt><trkpt lat="44.1418189" lon="10.3772631"><ele>399.0</ele><time>2026-03-25T09:05:39.174Z</time></trkpt><trkpt lat="44.1418666" lon="10.3771908"><ele>399.0</ele><time>2026-03-25T09:05:41.171Z</time></trkpt><trkpt lat="44.1419105" lon="10.3771127"><ele>399.0</ele><time>2026-03-25T09:05:43.172Z</time></trkpt><trkpt lat="44.1419493" lon="10.377025"><ele>399.0</ele><time>2026-03-25T09:05:45.176Z</time></trkpt><trkpt lat="44.1419864" lon="10.3769358"><ele>399.0</ele><time>2026-03-25T09:05:47.186Z</time></trkpt><trkpt lat="44.1420214" lon="10.3768491"><ele>399.0</ele><time>2026-03-25T09:05:49.184Z</time></trkpt><trkpt lat="44.1420571" lon="10.3767605"><ele>399.0</ele><time>2026-03-25T09:05:51.182Z</time></trkpt><trkpt lat="44.1420917" lon="10.3766708"><ele>399.0</ele><time>2026-03-25T09:05:53.166Z</time></trkpt><trkpt lat="44.1421242" lon="10.3765774"><ele>399.0</ele><time>2026-03-25T09:05:55.168Z</time></trkpt><trkpt lat="44.1421554" lon="10.3764824"><ele>399.0</ele><time>2026-03-25T09:05:57.186Z</time></trkpt><trkpt lat="44.1421839" lon="10.376387"><ele>399.0</ele><time>2026-03-25T09:05:59.176Z</time></trkpt><trkpt lat="44.1422078" lon="10.3762862"><ele>399.0</ele><time>2026-03-25T09:06:01.174Z</time></trkpt><trkpt lat="44.1422273" lon="10.3761837"><ele>399.0</ele><time>2026-03-25T09:06:03.169Z</time></trkpt><trkpt lat="44.1422472" lon="10.3760847"><ele>399.0</ele><time>2026-03-25T09:06:05.168Z</time></trkpt><trkpt lat="44.1422636" lon="10.3759865"><ele>399.0</ele><time>2026-03-25T09:06:07.167Z</time></trkpt><trkpt lat="44.142274" lon="10.3758878"><ele>398.42857142857144</ele><time>2026-03-25T09:06:09.184Z</time></trkpt><trkpt lat="44.1422813" lon="10.375785"><ele>397.8571428571429</ele><time>2026-03-25T09:06:11.17Z</time></trkpt><trkpt lat="44.1422836" lon="10.3756812"><ele>397.2857142857143</ele><time>2026-03-25T09:06:13.17Z</time></trkpt><trkpt lat="44.1422834" lon="10.3755794"><ele>396.7142857142857</ele><time>2026-03-25T09:06:15.18Z</time></trkpt><trkpt lat="44.1422884" lon="10.375479"><ele>396.14285714285717</ele><time>2026-03-25T09:06:17.179Z</time></trkpt><trkpt lat="44.1422931" lon="10.3753742"><ele>395.57142857142856</ele><time>2026-03-25T09:06:19.182Z</time></trkpt><trkpt lat="44.142306" lon="10.3752703"><ele>395.0</ele><time>2026-03-25T09:06:21.185Z</time></trkpt><trkpt lat="44.1423246" lon="10.3751732"><ele>394.85714285714283</ele><time>2026-03-25T09:06:23.174Z</time></trkpt><trkpt lat="44.1423457" lon="10.3750835"><ele>394.7142857142857</ele><time>2026-03-25T09:06:25.177Z</time></trkpt><trkpt lat="44.1423701" lon="10.3749951"><ele>394.57142857142856</ele><time>2026-03-25T09:06:27.188Z</time></trkpt><trkpt lat="44.1423959" lon="10.3749064"><ele>394.42857142857144</ele><time>2026-03-25T09:06:29.169Z</time></trkpt><trkpt lat="44.142424" lon="10.3748161"><ele>394.28571428571433</ele><time>2026-03-25T09:06:31.176Z</time></trkpt><trkpt lat="44.1424528" lon="10.3747275"><ele>394.14285714285717</ele><time>2026-03-25T09:06:33.185Z</time></trkpt><trkpt lat="44.1424801" lon="10.3746385"><ele>394.0</ele><time>2026-03-25T09:06:35.183Z</time></trkpt><trkpt lat="44.1425091" lon="10.3745498"><ele>396.2857142857143</ele><time>2026-03-25T09:06:37.18Z</time></trkpt><trkpt lat="44.1425378" lon="10.3744607"><ele>398.57142857142856</ele><time>2026-03-25T09:06:39.181Z</time></trkpt><trkpt lat="44.1425649" lon="10.3743761"><ele>400.8571428571429</ele><time>2026-03-25T09:06:41.179Z</time></trkpt><trkpt lat="44.1425918" lon="10.3742851"><ele>403.1428571428571</ele><time>2026-03-25T09:06:43.182Z</time></trkpt><trkpt lat="44.1426215" lon="10.374196"><ele>405.4285714285714</ele><time>2026-03-25T09:06:45.178Z</time></trkpt><trkpt lat="44.1426487" lon="10.3741057"><ele>407.7142857142857</ele><time>2026-03-25T09:06:47.171Z</time></trkpt><trkpt lat="44.1426733" lon="10.3740137"><ele>410.0</ele><time>2026-03-25T09:06:49.18Z</time></trkpt><trkpt lat="44.1426975" lon="10.3739192"><ele>410.2857142857143</ele><time>2026-03-25T09:06:51.183Z</time></trkpt><trkpt lat="44.142731" lon="10.373836"><ele>410.57142857142856</ele><time>2026-03-25T09:06:53.173Z</time></trkpt><trkpt lat="44.1427703" lon="10.3737544"><ele>410.85714285714283</ele><time>2026-03-25T09:06:55.176Z</time></trkpt><trkpt lat="44.142822" lon="10.3736856"><ele>411.1428571428571</ele><time>2026-03-25T09:06:57.187Z</time></trkpt><trkpt lat="44.1428858" lon="10.3736392"><ele>411.42857142857144</ele><time>2026-03-25T09:06:59.181Z</time></trkpt><trkpt lat="44.1429556" lon="10.3736215"><ele>411.71428571428567</ele><time>2026-03-25T09:07:01.179Z</time></trkpt><trkpt lat="44.1430244" lon="10.3736349"><ele>412.0</ele><time>2026-03-25T09:07:03.163Z</time></trkpt><trkpt lat="44.1430906" lon="10.3736781"><ele>411.99999999999994</ele><time>2026-03-25T09:07:05.165Z</time></trkpt><trkpt lat="44.1431576" lon="10.3737252"><ele>412.0</ele><time>2026-03-25T09:07:07.171Z</time></trkpt><trkpt lat="44.1432253" lon="10.3737749"><ele>412.0</ele><time>2026-03-25T09:07:09.184Z</time></trkpt><trkpt lat="44.143296" lon="10.3738238"><ele>412.0</ele><time>2026-03-25T09:07:11.175Z</time></trkpt><trkpt lat="44.1433625" lon="10.373871"><ele>412.0</ele><time>2026-03-25T09:07:13.167Z</time></trkpt><trkpt lat="44.1434248" lon="10.3739128"><ele>411.99999999999994</ele><time>2026-03-25T09:07:15.192Z</time></trkpt><trkpt lat="44.143481" lon="10.3739598"><ele>412.0</ele><time>2026-03-25T09:07:17.184Z</time></trkpt><trkpt lat="44.1435617" lon="10.3740029"><ele>412.50000000000006</ele><time>2026-03-25T09:07:20.166Z</time></trkpt><trkpt lat="44.1436423" lon="10.3740423"><ele>413.0</ele><time>2026-03-25T09:07:23.166Z</time></trkpt><trkpt lat="44.143729" lon="10.3740677"><ele>413.5</ele><time>2026-03-25T09:07:26.167Z</time></trkpt><trkpt lat="44.1437949" lon="10.3740714"><ele>414.0</ele><time>2026-03-25T09:07:28.184Z</time></trkpt><trkpt lat="44.1438627" lon="10.3740801"><ele>414.50000000000006</ele><time>2026-03-25T09:07:30.179Z</time></trkpt><trkpt lat="44.1439334" lon="10.3740754"><ele>415.0</ele><time>2026-03-25T09:07:32.169Z</time></trkpt><trkpt lat="44.1440049" lon="10.3740633"><ele>415.57142857142856</ele><time>2026-03-25T09:07:34.17Z</time></trkpt><trkpt lat="44.144073" lon="10.3740381"><ele>416.14285714285717</ele><time>2026-03-25T09:07:36.175Z</time></trkpt><trkpt lat="44.1441415" lon="10.374013"><ele>416.71428571428567</ele><time>2026-03-25T09:07:38.17Z</time></trkpt><trkpt lat="44.1442095" lon="10.373985"><ele>417.2857142857143</ele><time>2026-03-25T09:07:40.172Z</time></trkpt><trkpt lat="44.1442735" lon="10.3739551"><ele>417.85714285714283</ele><time>2026-03-25T09:07:42.185Z</time></trkpt><trkpt lat="44.1443333" lon="10.3739163"><ele>418.4285714285714</ele><time>2026-03-25T09:07:44.174Z</time></trkpt><trkpt lat="44.1443892" lon="10.3738649"><ele>419.0</ele><time>2026-03-25T09:07:46.172Z</time></trkpt><trkpt lat="44.144448" lon="10.3738171"><ele>417.57142857142856</ele><time>2026-03-25T09:07:48.17Z</time></trkpt><trkpt lat="44.1445066" lon="10.3737714"><ele>416.1428571428571</ele><time>2026-03-25T09:07:50.173Z</time></trkpt><trkpt lat="44.1445675" lon="10.3737195"><ele>414.71428571428567</ele><time>2026-03-25T09:07:52.185Z</time></trkpt><trkpt lat="44.144629" lon="10.3736671"><ele>413.2857142857143</ele><time>2026-03-25T09:07:54.179Z</time></trkpt><trkpt lat="44.1446904" lon="10.3736172"><ele>411.8571428571429</ele><time>2026-03-25T09:07:56.183Z</time></trkpt><trkpt lat="44.1447526" lon="10.3735658"><ele>410.4285714285714</ele><time>2026-03-25T09:07:58.188Z</time></trkpt><trkpt lat="44.1448147" lon="10.3735161"><ele>409.0</ele><time>2026-03-25T09:08:00.181Z</time></trkpt><trkpt lat="44.144876" lon="10.3734572"><ele>409.85714285714283</ele><time>2026-03-25T09:08:02.185Z</time></trkpt><trkpt lat="44.1449379" lon="10.3734031"><ele>410.7142857142857</ele><time>2026-03-25T09:08:04.177Z</time></trkpt><trkpt lat="44.1450019" lon="10.3733484"><ele>411.57142857142856</ele><time>2026-03-25T09:08:06.177Z</time></trkpt><trkpt lat="44.1450644" lon="10.3732949"><ele>412.42857142857144</ele><time>2026-03-25T09:08:08.172Z</time></trkpt><trkpt lat="44.1451264" lon="10.3732394"><ele>413.28571428571433</ele><time>2026-03-25T09:08:10.177Z</time></trkpt><trkpt lat="44.14519" lon="10.373186"><ele>414.14285714285717</ele><time>2026-03-25T09:08:12.182Z</time></trkpt><trkpt lat="44.1452542" lon="10.3731306"><ele>415.0</ele><time>2026-03-25T09:08:14.171Z</time></trkpt><trkpt lat="44.1453146" lon="10.3730776"><ele>415.0</ele><time>2026-03-25T09:08:16.175Z</time></trkpt><trkpt lat="44.1453748" lon="10.373025"><ele>415.0</ele><time>2026-03-25T09:08:18.18Z</time></trkpt><trkpt lat="44.1454372" lon="10.3729736"><ele>415.0</ele><time>2026-03-25T09:08:20.177Z</time></trkpt><trkpt lat="44.145494" lon="10.3729236"><ele>415.0</ele><time>2026-03-25T09:08:22.171Z</time></trkpt><trkpt lat="44.145553" lon="10.3728657"><ele>415.0</ele><time>2026-03-25T09:08:24.182Z</time></trkpt><trkpt lat="44.145615" lon="10.3728074"><ele>415.0</ele><time>2026-03-25T09:08:26.178Z</time></trkpt><trkpt lat="44.1456746" lon="10.3727541"><ele>415.0</ele><time>2026-03-25T09:08:28.181Z</time></trkpt><trkpt lat="44.1457294" lon="10.3727092"><ele>414.6666666666667</ele><time>2026-03-25T09:08:30.171Z</time></trkpt><trkpt lat="44.1458233" lon="10.3727203"><ele>414.33333333333337</ele><time>2026-03-25T09:08:33.172Z</time></trkpt><trkpt lat="44.1458977" lon="10.3727494"><ele>414.0</ele><time>2026-03-25T09:08:35.175Z</time></trkpt><trkpt lat="44.145971" lon="10.3727778"><ele>413.66666666666663</ele><time>2026-03-25T09:08:37.181Z</time></trkpt><trkpt lat="44.1460413" lon="10.3728029"><ele>413.3333333333333</ele><time>2026-03-25T09:08:39.172Z</time></trkpt><trkpt lat="44.1461102" lon="10.3728295"><ele>413.0</ele><time>2026-03-25T09:08:41.181Z</time></trkpt><trkpt lat="44.1461812" lon="10.3728573"><ele>413.0</ele><time>2026-03-25T09:08:43.188Z</time></trkpt><trkpt lat="44.1462496" lon="10.3728869"><ele>413.0</ele><time>2026-03-25T09:08:45.172Z</time></trkpt><trkpt lat="44.1463187" lon="10.3729128"><ele>413.0</ele><time>2026-03-25T09:08:47.178Z</time></trkpt><trkpt lat="44.1463879" lon="10.3729301"><ele>413.0</ele><time>2026-03-25T09:08:49.183Z</time></trkpt><trkpt lat="44.146459" lon="10.3729402"><ele>413.0</ele><time>2026-03-25T09:08:51.179Z</time></trkpt><trkpt lat="44.1465342" lon="10.3729416"><ele>413.0</ele><time>2026-03-25T09:08:53.171Z</time></trkpt><trkpt lat="44.1466098" lon="10.3729379"><ele>413.0</ele><time>2026-03-25T09:08:55.182Z</time></trkpt><trkpt lat="44.146682" lon="10.3729113"><ele>413.8333333333333</ele><time>2026-03-25T09:08:57.179Z</time></trkpt><trkpt lat="44.1467505" lon="10.3728619"><ele>414.66666666666663</ele><time>2026-03-25T09:08:59.177Z</time></trkpt><trkpt lat="44.1468096" lon="10.3727885"><ele>415.5</ele><time>2026-03-25T09:09:01.168Z</time></trkpt><trkpt lat="44.146859" lon="10.3727019"><ele>416.33333333333337</ele><time>2026-03-25T09:09:03.203Z</time></trkpt><trkpt lat="44.1468824" lon="10.3726033"><ele>417.1666666666667</ele><time>2026-03-25T09:09:05.179Z</time></trkpt><trkpt lat="44.1468892" lon="10.3724976"><ele>418.0</ele><time>2026-03-25T09:09:07.174Z</time></trkpt><trkpt lat="44.1468855" lon="10.3723879"><ele>418.0</ele><time>2026-03-25T09:09:09.18Z</time></trkpt><trkpt lat="44.1468739" lon="10.3722793"><ele>418.0</ele><time>2026-03-25T09:09:11.179Z</time></trkpt><trkpt lat="44.1468637" lon="10.3721785"><ele>418.0</ele><time>2026-03-25T09:09:13.183Z</time></trkpt><trkpt lat="44.1468525" lon="10.372081"><ele>418.0</ele><time>2026-03-25T09:09:15.172Z</time></trkpt><trkpt lat="44.1468495" lon="10.3719834"><ele>418.0</ele><time>2026-03-25T09:09:17.182Z</time></trkpt><trkpt lat="44.1468517" lon="10.3718855"><ele>418.0</ele><time>2026-03-25T09:09:19.182Z</time></trkpt><trkpt lat="44.1468523" lon="10.3717835"><ele>418.0</ele><time>2026-03-25T09:09:21.179Z</time></trkpt><trkpt lat="44.1468577" lon="10.3716877"><ele>418.0</ele><time>2026-03-25T09:09:23.182Z</time></trkpt><trkpt lat="44.1468681" lon="10.3715904"><ele>418.0</ele><time>2026-03-25T09:09:25.176Z</time></trkpt><trkpt lat="44.1468828" lon="10.3715005"><ele>418.0</ele><time>2026-03-25T09:09:27.178Z</time></trkpt><trkpt lat="44.146899" lon="10.371403"><ele>418.0</ele><time>2026-03-25T09:09:29.193Z</time></trkpt><trkpt lat="44.1469181" lon="10.3713092"><ele>418.0</ele><time>2026-03-25T09:09:31.172Z</time></trkpt><trkpt lat="44.146943" lon="10.371216"><ele>418.0</ele><time>2026-03-25T09:09:33.177Z</time></trkpt><trkpt lat="44.1469765" lon="10.3711285"><ele>418.0</ele><time>2026-03-25T09:09:35.178Z</time></trkpt><trkpt lat="44.1470072" lon="10.3710398"><ele>417.42857142857144</ele><time>2026-03-25T09:09:37.184Z</time></trkpt><trkpt lat="44.1470398" lon="10.3709509"><ele>416.85714285714283</ele><time>2026-03-25T09:09:39.181Z</time></trkpt><trkpt lat="44.1470765" lon="10.3708654"><ele>416.28571428571433</ele><time>2026-03-25T09:09:41.179Z</time></trkpt><trkpt lat="44.1471165" lon="10.370789"><ele>415.7142857142857</ele><time>2026-03-25T09:09:43.184Z</time></trkpt><trkpt lat="44.1471585" lon="10.3707141"><ele>415.14285714285717</ele><time>2026-03-25T09:09:45.178Z</time></trkpt><trkpt lat="44.1472061" lon="10.3706424"><ele>414.5714285714286</ele><time>2026-03-25T09:09:47.181Z</time></trkpt><trkpt lat="44.147259" lon="10.3705787"><ele>414.0</ele><time>2026-03-25T09:09:49.184Z</time></trkpt><trkpt lat="44.1473137" lon="10.3705154"><ele>414.7142857142857</ele><time>2026-03-25T09:09:51.177Z</time></trkpt><trkpt lat="44.1473689" lon="10.3704558"><ele>415.42857142857144</ele><time>2026-03-25T09:09:53.176Z</time></trkpt><trkpt lat="44.1474264" lon="10.3703957"><ele>416.1428571428571</ele><time>2026-03-25T09:09:55.174Z</time></trkpt><trkpt lat="44.1474843" lon="10.3703355"><ele>416.8571428571429</ele><time>2026-03-25T09:09:57.184Z</time></trkpt><trkpt lat="44.1475439" lon="10.3702825"><ele>417.57142857142856</ele><time>2026-03-25T09:09:59.176Z</time></trkpt><trkpt lat="44.1476034" lon="10.3702331"><ele>418.2857142857143</ele><time>2026-03-25T09:10:01.177Z</time></trkpt><trkpt lat="44.1476683" lon="10.370192"><ele>419.0</ele><time>2026-03-25T09:10:03.169Z</time></trkpt><trkpt lat="44.147735" lon="10.3701544"><ele>418.99999999999994</ele><time>2026-03-25T09:10:05.182Z</time></trkpt><trkpt lat="44.1478047" lon="10.370118"><ele>419.0</ele><time>2026-03-25T09:10:07.182Z</time></trkpt><trkpt lat="44.1478767" lon="10.3700875"><ele>419.0</ele><time>2026-03-25T09:10:09.183Z</time></trkpt><trkpt lat="44.1479473" lon="10.3700685"><ele>419.0</ele><time>2026-03-25T09:10:11.182Z</time></trkpt><trkpt lat="44.148019" lon="10.3700453"><ele>419.0</ele><time>2026-03-25T09:10:13.181Z</time></trkpt><trkpt lat="44.1480915" lon="10.3700191"><ele>418.99999999999994</ele><time>2026-03-25T09:10:15.172Z</time></trkpt><trkpt lat="44.1481639" lon="10.3699962"><ele>419.0</ele><time>2026-03-25T09:10:17.173Z</time></trkpt><trkpt lat="44.1482343" lon="10.3699735"><ele>418.99999999999994</ele><time>2026-03-25T09:10:19.172Z</time></trkpt><trkpt lat="44.1483055" lon="10.369937"><ele>419.0</ele><time>2026-03-25T09:10:21.175Z</time></trkpt><trkpt lat="44.1483685" lon="10.3698938"><ele>419.0</ele><time>2026-03-25T09:10:23.182Z</time></trkpt><trkpt lat="44.1484306" lon="10.3698499"><ele>419.0</ele><time>2026-03-25T09:10:25.184Z</time></trkpt><trkpt lat="44.14849" lon="10.3697986"><ele>419.0</ele><time>2026-03-25T09:10:27.182Z</time></trkpt><trkpt lat="44.1485483" lon="10.369734"><ele>418.99999999999994</ele><time>2026-03-25T09:10:29.18Z</time></trkpt><trkpt lat="44.1485992" lon="10.3696593"><ele>419.0</ele><time>2026-03-25T09:10:31.172Z</time></trkpt><trkpt lat="44.1486435" lon="10.3695715"><ele>418.99999999999994</ele><time>2026-03-25T09:10:33.182Z</time></trkpt><trkpt lat="44.1486827" lon="10.369482"><ele>419.0</ele><time>2026-03-25T09:10:35.166Z</time></trkpt><trkpt lat="44.148719" lon="10.3693969"><ele>419.0</ele><time>2026-03-25T09:10:37.164Z</time></trkpt><trkpt lat="44.1487474" lon="10.3693089"><ele>419.0</ele><time>2026-03-25T09:10:39.179Z</time></trkpt><trkpt lat="44.148768" lon="10.3692158"><ele>419.0</ele><time>2026-03-25T09:10:41.169Z</time></trkpt><trkpt lat="44.1487809" lon="10.369118"><ele>418.99999999999994</ele><time>2026-03-25T09:10:43.173Z</time></trkpt><trkpt lat="44.1487892" lon="10.369016"><ele>419.0</ele><time>2026-03-25T09:10:45.185Z</time></trkpt><trkpt lat="44.1487951" lon="10.3689175"><ele>417.99999999999994</ele><time>2026-03-25T09:10:47.166Z</time></trkpt><trkpt lat="44.1487943" lon="10.3688177"><ele>417.0</ele><time>2026-03-25T09:10:49.169Z</time></trkpt><trkpt lat="44.1487919" lon="10.3687226"><ele>416.0</ele><time>2026-03-25T09:10:51.167Z</time></trkpt><trkpt lat="44.1487903" lon="10.3686226"><ele>415.0</ele><time>2026-03-25T09:10:53.175Z</time></trkpt><trkpt lat="44.1487818" lon="10.3685263"><ele>414.0</ele><time>2026-03-25T09:10:55.174Z</time></trkpt><trkpt lat="44.1487806" lon="10.3684349"><ele>412.99999999999994</ele><time>2026-03-25T09:10:57.18Z</time></trkpt><trkpt lat="44.1487829" lon="10.3683101"><ele>412.0</ele><time>2026-03-25T09:11:00.18Z</time></trkpt><trkpt lat="44.1487182" lon="10.3682869"><ele>412.0</ele><time>2026-03-25T09:11:04.182Z</time></trkpt><trkpt lat="44.1486961" lon="10.3684112"><ele>412.0</ele><time>2026-03-25T09:11:06.173Z</time></trkpt><trkpt lat="44.1487057" lon="10.368577"><ele>412.0</ele><time>2026-03-25T09:11:08.173Z</time></trkpt><trkpt lat="44.1487019" lon="10.3687443"><ele>412.0</ele><time>2026-03-25T09:11:10.184Z</time></trkpt><trkpt lat="44.1487058" lon="10.3689263"><ele>413.1666666666667</ele><time>2026-03-25T09:11:12.183Z</time></trkpt><trkpt lat="44.148676" lon="10.3690217"><ele>414.33333333333337</ele><time>2026-03-25T09:11:13.18Z</time></trkpt><trkpt lat="44.1486281" lon="10.3691046"><ele>415.5</ele><time>2026-03-25T09:11:14.192Z</time></trkpt><trkpt lat="44.1485533" lon="10.3691543"><ele>416.66666666666663</ele><time>2026-03-25T09:11:15.185Z</time></trkpt><trkpt lat="44.1484735" lon="10.3691831"><ele>417.8333333333333</ele><time>2026-03-25T09:11:16.175Z</time></trkpt><trkpt lat="44.1483881" lon="10.3692081"><ele>419.0</ele><time>2026-03-25T09:11:17.184Z</time></trkpt><trkpt lat="44.1483015" lon="10.3692277"><ele>419.0</ele><time>2026-03-25T09:11:18.187Z</time></trkpt><trkpt lat="44.1482123" lon="10.369245"><ele>419.0</ele><time>2026-03-25T09:11:19.179Z</time></trkpt><trkpt lat="44.1481211" lon="10.36926"><ele>419.0</ele><time>2026-03-25T09:11:20.172Z</time></trkpt><trkpt lat="44.1480256" lon="10.3692793"><ele>419.0</ele><time>2026-03-25T09:11:21.174Z</time></trkpt><trkpt lat="44.147929" lon="10.369295"><ele>419.0</ele><time>2026-03-25T09:11:22.168Z</time></trkpt><trkpt lat="44.1478314" lon="10.3693106"><ele>417.0</ele><time>2026-03-25T09:11:23.183Z</time></trkpt><trkpt lat="44.1477329" lon="10.3693179"><ele>415.0</ele><time>2026-03-25T09:11:24.178Z</time></trkpt><trkpt lat="44.1476324" lon="10.3693226"><ele>413.0</ele><time>2026-03-25T09:11:25.181Z</time></trkpt><trkpt lat="44.14753" lon="10.3693243"><ele>411.0</ele><time>2026-03-25T09:11:26.182Z</time></trkpt><trkpt lat="44.1474284" lon="10.3693282"><ele>409.0</ele><time>2026-03-25T09:11:27.193Z</time></trkpt><trkpt lat="44.1473264" lon="10.3693383"><ele>406.6</ele><time>2026-03-25T09:11:28.183Z</time></trkpt><trkpt lat="44.1472196" lon="10.3693627"><ele>404.2</ele><time>2026-03-25T09:11:29.175Z</time></trkpt><trkpt lat="44.1471133" lon="10.3693865"><ele>401.8</ele><time>2026-03-25T09:11:30.184Z</time></trkpt><trkpt lat="44.1470065" lon="10.3694234"><ele>399.40000000000003</ele><time>2026-03-25T09:11:31.176Z</time></trkpt><trkpt lat="44.1469049" lon="10.3694645"><ele>397.0</ele><time>2026-03-25T09:11:32.185Z</time></trkpt><trkpt lat="44.1468119" lon="10.3695"><ele>397.0</ele><time>2026-03-25T09:11:33.184Z</time></trkpt><trkpt lat="44.1467259" lon="10.3695677"><ele>397.0</ele><time>2026-03-25T09:11:34.182Z</time></trkpt><trkpt lat="44.1466552" lon="10.3696606"><ele>397.0</ele><time>2026-03-25T09:11:35.174Z</time></trkpt><trkpt lat="44.146605" lon="10.3697739"><ele>397.0</ele><time>2026-03-25T09:11:36.167Z</time></trkpt><trkpt lat="44.1465616" lon="10.3698954"><ele>397.0</ele><time>2026-03-25T09:11:37.182Z</time></trkpt><trkpt lat="44.1465138" lon="10.3700166"><ele>395.40000000000003</ele><time>2026-03-25T09:11:38.18Z</time></trkpt><trkpt lat="44.1464696" lon="10.3701373"><ele>393.8</ele><time>2026-03-25T09:11:39.172Z</time></trkpt><trkpt lat="44.1464193" lon="10.3702603"><ele>392.2</ele><time>2026-03-25T09:11:40.185Z</time></trkpt><trkpt lat="44.1463636" lon="10.3703747"><ele>390.6</ele><time>2026-03-25T09:11:41.177Z</time></trkpt><trkpt lat="44.1463066" lon="10.3704667"><ele>389.0</ele><time>2026-03-25T09:11:42.171Z</time></trkpt><trkpt lat="44.1462445" lon="10.3705253"><ele>388.99999999999994</ele><time>2026-03-25T09:11:43.172Z</time></trkpt><trkpt lat="44.1461795" lon="10.3705481"><ele>389.0</ele><time>2026-03-25T09:11:44.174Z</time></trkpt><trkpt lat="44.1460816" lon="10.3704708"><ele>389.0</ele><time>2026-03-25T09:11:46.18Z</time></trkpt><trkpt lat="44.1460786" lon="10.370301"><ele>389.0</ele><time>2026-03-25T09:11:48.176Z</time></trkpt><trkpt lat="44.1461145" lon="10.3702119"><ele>388.99999999999994</ele><time>2026-03-25T09:11:49.167Z</time></trkpt><trkpt lat="44.1461501" lon="10.3701215"><ele>389.0</ele><time>2026-03-25T09:11:50.181Z</time></trkpt><trkpt lat="44.1461742" lon="10.3700177"><ele>388.66666666666663</ele><time>2026-03-25T09:11:51.178Z</time></trkpt><trkpt lat="44.1461939" lon="10.3699093"><ele>388.3333333333333</ele><time>2026-03-25T09:11:52.18Z</time></trkpt><trkpt lat="44.1462124" lon="10.3697962"><ele>388.0</ele><time>2026-03-25T09:11:53.178Z</time></trkpt><trkpt lat="44.146231" lon="10.3696798"><ele>387.66666666666663</ele><time>2026-03-25T09:11:54.182Z</time></trkpt><trkpt lat="44.1462553" lon="10.3695631"><ele>387.3333333333333</ele><time>2026-03-25T09:11:55.178Z</time></trkpt><trkpt lat="44.1462703" lon="10.3694391"><ele>387.0</ele><time>2026-03-25T09:11:56.182Z</time></trkpt><trkpt lat="44.1462713" lon="10.3693111"><ele>386.3333333333333</ele><time>2026-03-25T09:11:57.174Z</time></trkpt><trkpt lat="44.1462699" lon="10.3691923"><ele>385.6666666666667</ele><time>2026-03-25T09:11:58.178Z</time></trkpt><trkpt lat="44.1462662" lon="10.3690718"><ele>385.0</ele><time>2026-03-25T09:11:59.182Z</time></trkpt><trkpt lat="44.146273" lon="10.3689583"><ele>384.33333333333337</ele><time>2026-03-25T09:12:00.182Z</time></trkpt><trkpt lat="44.1463044" lon="10.3688443"><ele>383.6666666666667</ele><time>2026-03-25T09:12:01.183Z</time></trkpt><trkpt lat="44.1463572" lon="10.3687568"><ele>383.0</ele><time>2026-03-25T09:12:02.183Z</time></trkpt><trkpt lat="44.1464092" lon="10.3686836"><ele>383.83333333333337</ele><time>2026-03-25T09:12:03.182Z</time></trkpt><trkpt lat="44.1464635" lon="10.3686223"><ele>384.6666666666667</ele><time>2026-03-25T09:12:04.189Z</time></trkpt><trkpt lat="44.1465579" lon="10.3685162"><ele>385.5</ele><time>2026-03-25T09:12:06.183Z</time></trkpt><trkpt lat="44.1466331" lon="10.3684242"><ele>386.33333333333337</ele><time>2026-03-25T09:12:08.184Z</time></trkpt><trkpt lat="44.1466936" lon="10.3683792"><ele>387.1666666666667</ele><time>2026-03-25T09:12:10.175Z</time></trkpt><trkpt lat="44.1467664" lon="10.3683482"><ele>388.0</ele><time>2026-03-25T09:12:13.174Z</time></trkpt><trkpt lat="44.1468503" lon="10.3683639"><ele>388.00000000000006</ele><time>2026-03-25T09:12:16.184Z</time></trkpt><trkpt lat="44.1469428" lon="10.3683808"><ele>388.0</ele><time>2026-03-25T09:12:19.177Z</time></trkpt><trkpt lat="44.1470101" lon="10.3683944"><ele>388.0</ele><time>2026-03-25T09:12:21.179Z</time></trkpt><trkpt lat="44.1470818" lon="10.3683987"><ele>388.0</ele><time>2026-03-25T09:12:23.182Z</time></trkpt><trkpt lat="44.147152" lon="10.3683833"><ele>388.00000000000006</ele><time>2026-03-25T09:12:25.177Z</time></trkpt><trkpt lat="44.1472128" lon="10.3683214"><ele>388.0</ele><time>2026-03-25T09:12:27.179Z</time></trkpt><trkpt lat="44.1472671" lon="10.3682336"><ele>388.00000000000006</ele><time>2026-03-25T09:12:29.177Z</time></trkpt><trkpt lat="44.1473145" lon="10.3681452"><ele>388.0</ele><time>2026-03-25T09:12:31.19Z</time></trkpt><trkpt lat="44.1473558" lon="10.3680435"><ele>388.0</ele><time>2026-03-25T09:12:33.177Z</time></trkpt><trkpt lat="44.1473621" lon="10.3679292"><ele>388.0</ele><time>2026-03-25T09:12:35.181Z</time></trkpt><trkpt lat="44.1473652" lon="10.3678223"><ele>388.00000000000006</ele><time>2026-03-25T09:12:37.179Z</time></trkpt><trkpt lat="44.1473826" lon="10.3677299"><ele>388.0</ele><time>2026-03-25T09:12:39.19Z</time></trkpt><trkpt lat="44.14742" lon="10.3676238"><ele>388.00000000000006</ele><time>2026-03-25T09:12:42.188Z</time></trkpt><trkpt lat="44.1474701" lon="10.3675513"><ele>388.0</ele><time>2026-03-25T09:12:45.179Z</time></trkpt><trkpt lat="44.1475275" lon="10.3674939"><ele>388.0</ele><time>2026-03-25T09:12:48.172Z</time></trkpt><trkpt lat="44.1475813" lon="10.3674183"><ele>388.0</ele><time>2026-03-25T09:12:51.179Z</time></trkpt><trkpt lat="44.1476304" lon="10.367344"><ele>388.00000000000006</ele><time>2026-03-25T09:12:54.169Z</time></trkpt><trkpt lat="44.1476783" lon="10.3672568"><ele>388.0</ele><time>2026-03-25T09:12:57.169Z</time></trkpt><trkpt lat="44.1477134" lon="10.3671562"><ele>388.0</ele><time>2026-03-25T09:13:00.192Z</time></trkpt><trkpt lat="44.14775" lon="10.3670637"><ele>388.0</ele><time>2026-03-25T09:13:03.185Z</time></trkpt><trkpt lat="44.1477854" lon="10.3669688"><ele>388.0</ele><time>2026-03-25T09:13:06.184Z</time></trkpt><trkpt lat="44.1478219" lon="10.3668708"><ele>388.0</ele><time>2026-03-25T09:13:09.176Z</time></trkpt><trkpt lat="44.1478567" lon="10.3667772"><ele>388.0</ele><time>2026-03-25T09:13:12.183Z</time></trkpt><trkpt lat="44.1478903" lon="10.3666929"><ele>388.0</ele><time>2026-03-25T09:13:15.18Z</time></trkpt><trkpt lat="44.1479248" lon="10.3666108"><ele>388.0</ele><time>2026-03-25T09:13:20.179Z</time></trkpt><trkpt lat="44.1479702" lon="10.3665075"><ele>388.00000000000006</ele><time>2026-03-25T09:13:23.18Z</time></trkpt><trkpt lat="44.148001" lon="10.3664209"><ele>388.0</ele><time>2026-03-25T09:13:25.171Z</time></trkpt><trkpt lat="44.1480454" lon="10.3663028"><ele>388.0</ele><time>2026-03-25T09:13:27.174Z</time></trkpt><trkpt lat="44.1481229" lon="10.3661792"><ele>388.0</ele><time>2026-03-25T09:13:29.187Z</time></trkpt><trkpt lat="44.1481758" lon="10.3661139"><ele>388.00000000000006</ele><time>2026-03-25T09:13:30.178Z</time></trkpt><trkpt lat="44.148237" lon="10.3660347"><ele>388.0</ele><time>2026-03-25T09:13:31.185Z</time></trkpt><trkpt lat="44.1483068" lon="10.3659479"><ele>388.0</ele><time>2026-03-25T09:13:32.175Z</time></trkpt><trkpt lat="44.1483817" lon="10.3658554"><ele>388.0</ele><time>2026-03-25T09:13:33.181Z</time></trkpt><trkpt lat="44.1484583" lon="10.3657651"><ele>388.0</ele><time>2026-03-25T09:13:34.18Z</time></trkpt><trkpt lat="44.148529" lon="10.3656552"><ele>388.0</ele><time>2026-03-25T09:13:35.182Z</time></trkpt><trkpt lat="44.1485765" lon="10.3655302"><ele>388.0</ele><time>2026-03-25T09:13:36.177Z</time></trkpt><trkpt lat="44.1486243" lon="10.3653939"><ele>386.4</ele><time>2026-03-25T09:13:37.174Z</time></trkpt><trkpt lat="44.1486718" lon="10.3652538"><ele>384.79999999999995</ele><time>2026-03-25T09:13:38.181Z</time></trkpt><trkpt lat="44.1487082" lon="10.3651126"><ele>383.2</ele><time>2026-03-25T09:13:39.18Z</time></trkpt><trkpt lat="44.148743" lon="10.3649659"><ele>381.6</ele><time>2026-03-25T09:13:40.18Z</time></trkpt><trkpt lat="44.1487768" lon="10.3648169"><ele>380.0</ele><time>2026-03-25T09:13:41.181Z</time></trkpt><trkpt lat="44.1488073" lon="10.3646702"><ele>380.0</ele><time>2026-03-25T09:13:42.177Z</time></trkpt><trkpt lat="44.148839" lon="10.3645375"><ele>380.0</ele><time>2026-03-25T09:13:43.185Z</time></trkpt><trkpt lat="44.1488798" lon="10.3644153"><ele>380.0</ele><time>2026-03-25T09:13:44.18Z</time></trkpt><trkpt lat="44.1489326" lon="10.3642987"><ele>380.0</ele><time>2026-03-25T09:13:45.173Z</time></trkpt><trkpt lat="44.1489952" lon="10.3641859"><ele>380.0</ele><time>2026-03-25T09:13:46.178Z</time></trkpt><trkpt lat="44.1490536" lon="10.3640871"><ele>380.0</ele><time>2026-03-25T09:13:47.172Z</time></trkpt><trkpt lat="44.1491015" lon="10.3640039"><ele>380.0</ele><time>2026-03-25T09:13:48.17Z</time></trkpt><trkpt lat="44.1491352" lon="10.3638534"><ele>380.0</ele><time>2026-03-25T09:13:50.177Z</time></trkpt><trkpt lat="44.1490856" lon="10.3637491"><ele>380.0</ele><time>2026-03-25T09:13:52.173Z</time></trkpt><trkpt lat="44.1489758" lon="10.3636879"><ele>380.0</ele><time>2026-03-25T09:13:54.165Z</time></trkpt><trkpt lat="44.1489149" lon="10.3636605"><ele>378.6</ele><time>2026-03-25T09:13:55.183Z</time></trkpt><trkpt lat="44.1487977" lon="10.3636958"><ele>377.2</ele><time>2026-03-25T09:13:57.18Z</time></trkpt><trkpt lat="44.1487471" lon="10.3637621"><ele>375.79999999999995</ele><time>2026-03-25T09:13:58.186Z</time></trkpt><trkpt lat="44.1487084" lon="10.3638333"><ele>374.4</ele><time>2026-03-25T09:13:59.186Z</time></trkpt><trkpt lat="44.148628" lon="10.3639621"><ele>373.0</ele><time>2026-03-25T09:14:01.194Z</time></trkpt><trkpt lat="44.1485531" lon="10.3640791"><ele>373.0</ele><time>2026-03-25T09:14:03.185Z</time></trkpt><trkpt lat="44.1485003" lon="10.3641757"><ele>373.0</ele><time>2026-03-25T09:14:05.183Z</time></trkpt><trkpt lat="44.1484506" lon="10.3642384"><ele>373.0</ele><time>2026-03-25T09:14:07.168Z</time></trkpt><trkpt lat="44.1483922" lon="10.3642944"><ele>373.0</ele><time>2026-03-25T09:14:10.183Z</time></trkpt><trkpt lat="44.1484567" lon="10.3643336"><ele>373.0</ele><time>2026-03-25T09:14:20.173Z</time></trkpt><trkpt lat="44.1485389" lon="10.3643021"><ele>373.0</ele><time>2026-03-25T09:14:28.177Z</time></trkpt><trkpt lat="44.1485913" lon="10.3642509"><ele>373.0</ele><time>2026-03-25T09:14:37.183Z</time></trkpt><trkpt lat="44.1486429" lon="10.3641975"><ele>373.0</ele><time>2026-03-25T09:14:45.176Z</time></trkpt><trkpt lat="44.1486928" lon="10.3641429"><ele>373.0</ele><time>2026-03-25T09:14:53.186Z</time></trkpt><trkpt lat="44.1487421" lon="10.3640711"><ele>373.0</ele><time>2026-03-25T09:15:01.173Z</time></trkpt><trkpt lat="44.148783" lon="10.3639947"><ele>373.0</ele><time>2026-03-25T09:15:09.177Z</time></trkpt><trkpt lat="44.1488432" lon="10.3639582"><ele>373.0</ele><time>2026-03-25T09:15:26.182Z</time></trkpt><trkpt lat="44.1488626" lon="10.3638634"><ele>373.0</ele><time>2026-03-25T09:16:13.182Z</time></trkpt><trkpt lat="44.1488878" lon="10.3637688"><ele>373.0</ele><time>2026-03-25T09:16:18.182Z</time></trkpt><trkpt lat="44.1489162" lon="10.3636747"><ele>372.66666666666663</ele><time>2026-03-25T09:16:22.19Z</time></trkpt><trkpt lat="44.1489452" lon="10.3635715"><ele>372.3333333333333</ele><time>2026-03-25T09:16:26.182Z</time></trkpt><trkpt lat="44.1489699" lon="10.363488"><ele>372.0</ele><time>2026-03-25T09:16:29.182Z</time></trkpt><trkpt lat="44.1489943" lon="10.3633804"><ele>371.6666666666667</ele><time>2026-03-25T09:16:33.184Z</time></trkpt><trkpt lat="44.1490174" lon="10.3632727"><ele>371.33333333333337</ele><time>2026-03-25T09:16:37.175Z</time></trkpt><trkpt lat="44.1490416" lon="10.3631609"><ele>371.0</ele><time>2026-03-25T09:16:41.178Z</time></trkpt><trkpt lat="44.1490584" lon="10.3630757"><ele>368.42857142857144</ele><time>2026-03-25T09:16:44.185Z</time></trkpt><trkpt lat="44.1490742" lon="10.3629897"><ele>365.8571428571429</ele><time>2026-03-25T09:16:47.186Z</time></trkpt><trkpt lat="44.1490878" lon="10.3629032"><ele>363.2857142857143</ele><time>2026-03-25T09:16:50.184Z</time></trkpt><trkpt lat="44.1491071" lon="10.3627933"><ele>360.7142857142857</ele><time>2026-03-25T09:16:54.181Z</time></trkpt><trkpt lat="44.1491205" lon="10.3626795"><ele>358.14285714285717</ele><time>2026-03-25T09:16:58.187Z</time></trkpt><trkpt lat="44.1491269" lon="10.3625906"><ele>355.57142857142856</ele><time>2026-03-25T09:17:01.187Z</time></trkpt><trkpt lat="44.1491331" lon="10.3625011"><ele>353.0</ele><time>2026-03-25T09:17:04.183Z</time></trkpt><trkpt lat="44.1491393" lon="10.3624085"><ele>353.0</ele><time>2026-03-25T09:17:07.185Z</time></trkpt><trkpt lat="44.1491437" lon="10.3623158"><ele>353.0</ele><time>2026-03-25T09:17:10.192Z</time></trkpt><trkpt lat="44.1491486" lon="10.362203"><ele>353.0</ele><time>2026-03-25T09:17:14.182Z</time></trkpt><trkpt lat="44.1491513" lon="10.3620905"><ele>353.0</ele><time>2026-03-25T09:17:18.178Z</time></trkpt><trkpt lat="44.1491602" lon="10.3619793"><ele>353.0</ele><time>2026-03-25T09:17:22.183Z</time></trkpt><trkpt lat="44.1491688" lon="10.3618856"><ele>353.0</ele><time>2026-03-25T09:17:25.185Z</time></trkpt><trkpt lat="44.1491763" lon="10.3617937"><ele>353.0</ele><time>2026-03-25T09:17:28.182Z</time></trkpt><trkpt lat="44.1491869" lon="10.3616798"><ele>353.1428571428571</ele><time>2026-03-25T09:17:32.195Z</time></trkpt><trkpt lat="44.1491938" lon="10.3615632"><ele>353.28571428571433</ele><time>2026-03-25T09:17:36.182Z</time></trkpt><trkpt lat="44.149202" lon="10.3614752"><ele>353.42857142857144</ele><time>2026-03-25T09:17:39.191Z</time></trkpt><trkpt lat="44.1492058" lon="10.3613823"><ele>353.57142857142856</ele><time>2026-03-25T09:17:42.173Z</time></trkpt><trkpt lat="44.1492105" lon="10.3612887"><ele>353.71428571428567</ele><time>2026-03-25T09:17:45.191Z</time></trkpt><trkpt lat="44.1492136" lon="10.3611986"><ele>353.8571428571429</ele><time>2026-03-25T09:17:48.185Z</time></trkpt><trkpt lat="44.1492148" lon="10.3610816"><ele>354.0</ele><time>2026-03-25T09:17:52.201Z</time></trkpt><trkpt lat="44.1492147" lon="10.3609871"><ele>354.0</ele><time>2026-03-25T09:17:55.183Z</time></trkpt><trkpt lat="44.1492141" lon="10.360896"><ele>354.0</ele><time>2026-03-25T09:17:58.193Z</time></trkpt><trkpt lat="44.1492177" lon="10.3608072"><ele>354.0</ele><time>2026-03-25T09:18:01.178Z</time></trkpt><trkpt lat="44.1492209" lon="10.3607179"><ele>354.0</ele><time>2026-03-25T09:18:04.184Z</time></trkpt><trkpt lat="44.1492225" lon="10.3606018"><ele>354.0</ele><time>2026-03-25T09:18:08.182Z</time></trkpt><trkpt lat="44.1492252" lon="10.3604863"><ele>354.0</ele><time>2026-03-25T09:18:12.176Z</time></trkpt><trkpt lat="44.149226" lon="10.360396"><ele>354.0</ele><time>2026-03-25T09:18:15.191Z</time></trkpt><trkpt lat="44.1492278" lon="10.3602815"><ele>356.5</ele><time>2026-03-25T09:18:19.185Z</time></trkpt><trkpt lat="44.149232" lon="10.3601676"><ele>359.0</ele><time>2026-03-25T09:18:23.187Z</time></trkpt><trkpt lat="44.1492358" lon="10.3600513"><ele>361.5</ele><time>2026-03-25T09:18:27.179Z</time></trkpt><trkpt lat="44.1492403" lon="10.3599374"><ele>364.0</ele><time>2026-03-25T09:18:31.19Z</time></trkpt><trkpt lat="44.1492467" lon="10.3598224"><ele>366.5</ele><time>2026-03-25T09:18:35.185Z</time></trkpt><trkpt lat="44.149251" lon="10.3597306"><ele>369.0</ele><time>2026-03-25T09:18:38.183Z</time></trkpt><trkpt lat="44.1492525" lon="10.3596395"><ele>372.5</ele><time>2026-03-25T09:18:41.187Z</time></trkpt><trkpt lat="44.1492556" lon="10.3595506"><ele>376.0</ele><time>2026-03-25T09:18:44.182Z</time></trkpt><trkpt lat="44.1492597" lon="10.3594349"><ele>379.5</ele><time>2026-03-25T09:18:48.185Z</time></trkpt><trkpt lat="44.1492646" lon="10.3593222"><ele>383.0</ele><time>2026-03-25T09:18:52.187Z</time></trkpt><trkpt lat="44.1492669" lon="10.3592038"><ele>386.5</ele><time>2026-03-25T09:18:56.186Z</time></trkpt><trkpt lat="44.1492697" lon="10.3590902"><ele>390.0</ele><time>2026-03-25T09:19:00.193Z</time></trkpt><trkpt lat="44.149273" lon="10.3590018"><ele>390.0</ele><time>2026-03-25T09:19:03.183Z</time></trkpt><trkpt lat="44.149279" lon="10.3588926"><ele>390.0</ele><time>2026-03-25T09:19:07.185Z</time></trkpt><trkpt lat="44.1492343" lon="10.3588217"><ele>390.0</ele><time>2026-03-25T09:19:13.184Z</time></trkpt><trkpt lat="44.149164" lon="10.3588149"><ele>390.0</ele><time>2026-03-25T09:19:17.193Z</time></trkpt><trkpt lat="44.1490888" lon="10.3587811"><ele>390.0</ele><time>2026-03-25T09:19:21.185Z</time></trkpt><trkpt lat="44.1490304" lon="10.358745"><ele>390.0</ele><time>2026-03-25T09:19:24.186Z</time></trkpt><trkpt lat="44.1489638" lon="10.3586993"><ele>390.0</ele><time>2026-03-25T09:19:28.186Z</time></trkpt><trkpt lat="44.1489164" lon="10.3586393"><ele>389.8333333333333</ele><time>2026-03-25T09:19:31.187Z</time></trkpt><trkpt lat="44.1488655" lon="10.3585789"><ele>389.66666666666663</ele><time>2026-03-25T09:19:33.173Z</time></trkpt><trkpt lat="44.1487771" lon="10.3585153"><ele>389.5</ele><time>2026-03-25T09:19:35.179Z</time></trkpt><trkpt lat="44.1486854" lon="10.3584441"><ele>389.3333333333333</ele><time>2026-03-25T09:19:37.183Z</time></trkpt><trkpt lat="44.1486235" lon="10.3583628"><ele>389.16666666666663</ele><time>2026-03-25T09:19:39.186Z</time></trkpt><trkpt lat="44.1485784" lon="10.3582795"><ele>389.0</ele><time>2026-03-25T09:19:41.19Z</time></trkpt><trkpt lat="44.1485442" lon="10.3582003"><ele>389.0</ele><time>2026-03-25T09:19:44.189Z</time></trkpt><trkpt lat="44.1485066" lon="10.3581068"><ele>389.0</ele><time>2026-03-25T09:19:49.183Z</time></trkpt><trkpt lat="44.1485081" lon="10.3580067"><ele>389.0</ele><time>2026-03-25T09:19:54.176Z</time></trkpt><trkpt lat="44.1485215" lon="10.3578992"><ele>389.0</ele><time>2026-03-25T09:19:59.188Z</time></trkpt><trkpt lat="44.1485397" lon="10.3577947"><ele>389.0</ele><time>2026-03-25T09:20:04.178Z</time></trkpt><trkpt lat="44.1485624" lon="10.3577094"><ele>389.0</ele><time>2026-03-25T09:20:08.182Z</time></trkpt><trkpt lat="44.1485709" lon="10.3576122"><ele>389.0</ele><time>2026-03-25T09:20:13.19Z</time></trkpt><trkpt lat="44.1485683" lon="10.357519"><ele>390.2857142857143</ele><time>2026-03-25T09:20:18.181Z</time></trkpt><trkpt lat="44.148559" lon="10.3574304"><ele>391.57142857142856</ele><time>2026-03-25T09:20:23.188Z</time></trkpt><trkpt lat="44.1485253" lon="10.3573339"><ele>392.85714285714283</ele><time>2026-03-25T09:20:29.181Z</time></trkpt><trkpt lat="44.1484666" lon="10.3572736"><ele>394.1428571428571</ele><time>2026-03-25T09:20:33.18Z</time></trkpt><trkpt lat="44.1483921" lon="10.3572464"><ele>395.42857142857144</ele><time>2026-03-25T09:20:35.187Z</time></trkpt><trkpt lat="44.148329" lon="10.3572284"><ele>396.71428571428567</ele><time>2026-03-25T09:20:36.211Z</time></trkpt><trkpt lat="44.1482605" lon="10.357224"><ele>398.0</ele><time>2026-03-25T09:20:37.179Z</time></trkpt><trkpt lat="44.1481916" lon="10.3572192"><ele>397.99999999999994</ele><time>2026-03-25T09:20:38.164Z</time></trkpt><trkpt lat="44.1481202" lon="10.357215"><ele>398.0</ele><time>2026-03-25T09:20:39.195Z</time></trkpt><trkpt lat="44.1480052" lon="10.3572087"><ele>398.0</ele><time>2026-03-25T09:20:41.181Z</time></trkpt><trkpt lat="44.1479379" lon="10.357195"><ele>398.0</ele><time>2026-03-25T09:20:43.169Z</time></trkpt><trkpt lat="44.1478729" lon="10.3571617"><ele>397.99999999999994</ele><time>2026-03-25T09:20:47.17Z</time></trkpt><trkpt lat="44.1478257" lon="10.3570864"><ele>398.0</ele><time>2026-03-25T09:20:52.174Z</time></trkpt><trkpt lat="44.1477666" lon="10.3570214"><ele>399.71428571428567</ele><time>2026-03-25T09:20:57.175Z</time></trkpt><trkpt lat="44.1477111" lon="10.3569541"><ele>401.42857142857144</ele><time>2026-03-25T09:21:02.187Z</time></trkpt><trkpt lat="44.1476592" lon="10.3568804"><ele>403.1428571428571</ele><time>2026-03-25T09:21:07.183Z</time></trkpt><trkpt lat="44.147606" lon="10.3568079"><ele>404.85714285714283</ele><time>2026-03-25T09:21:12.184Z</time></trkpt><trkpt lat="44.1475526" lon="10.3567406"><ele>406.57142857142856</ele><time>2026-03-25T09:21:17.191Z</time></trkpt><trkpt lat="44.1475142" lon="10.3566691"><ele>408.2857142857143</ele><time>2026-03-25T09:21:21.19Z</time></trkpt><trkpt lat="44.1474652" lon="10.3566094"><ele>410.0</ele><time>2026-03-25T09:21:25.174Z</time></trkpt><trkpt lat="44.1474064" lon="10.3565363"><ele>410.7142857142857</ele><time>2026-03-25T09:21:30.187Z</time></trkpt><trkpt lat="44.1473693" lon="10.3564598"><ele>411.4285714285714</ele><time>2026-03-25T09:21:34.191Z</time></trkpt><trkpt lat="44.1473365" lon="10.3563663"><ele>412.1428571428571</ele><time>2026-03-25T09:21:39.185Z</time></trkpt><trkpt lat="44.1473162" lon="10.3562828"><ele>412.8571428571429</ele><time>2026-03-25T09:21:43.184Z</time></trkpt><trkpt lat="44.1472841" lon="10.3562073"><ele>413.57142857142856</ele><time>2026-03-25T09:21:47.184Z</time></trkpt><trkpt lat="44.1472325" lon="10.3561323"><ele>414.2857142857143</ele><time>2026-03-25T09:21:52.183Z</time></trkpt><trkpt lat="44.14716" lon="10.3560877"><ele>415.0</ele><time>2026-03-25T09:21:57.173Z</time></trkpt><trkpt lat="44.1470862" lon="10.3560659"><ele>417.14285714285717</ele><time>2026-03-25T09:22:02.17Z</time></trkpt><trkpt lat="44.1470118" lon="10.3560419"><ele>419.28571428571433</ele><time>2026-03-25T09:22:07.172Z</time></trkpt><trkpt lat="44.1469423" lon="10.3559992"><ele>421.42857142857144</ele><time>2026-03-25T09:22:12.188Z</time></trkpt><trkpt lat="44.1469" lon="10.355932"><ele>423.57142857142856</ele><time>2026-03-25T09:22:16.18Z</time></trkpt><trkpt lat="44.146865" lon="10.3558585"><ele>425.7142857142857</ele><time>2026-03-25T09:22:20.174Z</time></trkpt><trkpt lat="44.1468493" lon="10.3557572"><ele>427.85714285714283</ele><time>2026-03-25T09:22:25.173Z</time></trkpt><trkpt lat="44.1468347" lon="10.3556656"><ele>430.0</ele><time>2026-03-25T09:22:30.179Z</time></trkpt><trkpt lat="44.1468137" lon="10.355567"><ele>431.57142857142856</ele><time>2026-03-25T09:22:36.18Z</time></trkpt><trkpt lat="44.1468144" lon="10.3554628"><ele>433.14285714285717</ele><time>2026-03-25T09:22:41.169Z</time></trkpt><trkpt lat="44.1467717" lon="10.355386"><ele>434.7142857142857</ele><time>2026-03-25T09:22:46.174Z</time></trkpt><trkpt lat="44.1467323" lon="10.3552959"><ele>436.2857142857143</ele><time>2026-03-25T09:22:51.186Z</time></trkpt><trkpt lat="44.1466958" lon="10.355222"><ele>437.8571428571429</ele><time>2026-03-25T09:22:56.173Z</time></trkpt><trkpt lat="44.1466403" lon="10.3551617"><ele>439.42857142857144</ele><time>2026-03-25T09:23:01.188Z</time></trkpt><trkpt lat="44.1465766" lon="10.3551344"><ele>441.0</ele><time>2026-03-25T09:23:06.173Z</time></trkpt><trkpt lat="44.1465103" lon="10.3551579"><ele>441.0</ele><time>2026-03-25T09:23:11.175Z</time></trkpt><trkpt lat="44.1464449" lon="10.3551791"><ele>441.0</ele><time>2026-03-25T09:23:15.173Z</time></trkpt><trkpt lat="44.1463945" lon="10.3551197"><ele>441.0</ele><time>2026-03-25T09:23:23.164Z</time></trkpt><trkpt lat="44.146434" lon="10.3550379"><ele>441.0</ele><time>2026-03-25T09:23:27.176Z</time></trkpt><trkpt lat="44.1464764" lon="10.3549548"><ele>441.0</ele><time>2026-03-25T09:23:31.203Z</time></trkpt><trkpt lat="44.1465135" lon="10.3548631"><ele>441.0</ele><time>2026-03-25T09:23:35.176Z</time></trkpt><trkpt lat="44.1465499" lon="10.3547638"><ele>441.0</ele><time>2026-03-25T09:23:39.177Z</time></trkpt><trkpt lat="44.1465899" lon="10.3546912"><ele>442.42857142857144</ele><time>2026-03-25T09:23:42.178Z</time></trkpt><trkpt lat="44.1466366" lon="10.354621"><ele>443.8571428571429</ele><time>2026-03-25T09:23:45.197Z</time></trkpt><trkpt lat="44.1466899" lon="10.3545731"><ele>445.2857142857143</ele><time>2026-03-25T09:23:48.177Z</time></trkpt><trkpt lat="44.1467441" lon="10.3545278"><ele>446.7142857142857</ele><time>2026-03-25T09:23:51.178Z</time></trkpt><trkpt lat="44.1468007" lon="10.3544774"><ele>448.14285714285717</ele><time>2026-03-25T09:23:54.173Z</time></trkpt><trkpt lat="44.146851" lon="10.3544205"><ele>449.57142857142856</ele><time>2026-03-25T09:23:57.166Z</time></trkpt><trkpt lat="44.1469084" lon="10.3543682"><ele>451.0</ele><time>2026-03-25T09:24:00.178Z</time></trkpt><trkpt lat="44.1469657" lon="10.3543217"><ele>451.0</ele><time>2026-03-25T09:24:03.18Z</time></trkpt><trkpt lat="44.1470222" lon="10.3542823"><ele>451.0</ele><time>2026-03-25T09:24:06.183Z</time></trkpt><trkpt lat="44.147078" lon="10.3542352"><ele>451.0</ele><time>2026-03-25T09:24:09.178Z</time></trkpt><trkpt lat="44.1471514" lon="10.3541832"><ele>451.0</ele><time>2026-03-25T09:24:13.165Z</time></trkpt><trkpt lat="44.1472265" lon="10.3541358"><ele>451.0</ele><time>2026-03-25T09:24:17.179Z</time></trkpt><trkpt lat="44.1472902" lon="10.3540948"><ele>451.0</ele><time>2026-03-25T09:24:20.177Z</time></trkpt><trkpt lat="44.1473499" lon="10.3540527"><ele>451.0</ele><time>2026-03-25T09:24:23.173Z</time></trkpt><trkpt lat="44.1474068" lon="10.3540074"><ele>450.85714285714283</ele><time>2026-03-25T09:24:26.172Z</time></trkpt><trkpt lat="44.1474668" lon="10.353975"><ele>450.7142857142858</ele><time>2026-03-25T09:24:29.186Z</time></trkpt><trkpt lat="44.1475317" lon="10.3539533"><ele>450.5714285714286</ele><time>2026-03-25T09:24:32.181Z</time></trkpt><trkpt lat="44.1475978" lon="10.3539595"><ele>450.42857142857144</ele><time>2026-03-25T09:24:35.171Z</time></trkpt><trkpt lat="44.1476611" lon="10.3539671"><ele>450.28571428571433</ele><time>2026-03-25T09:24:38.191Z</time></trkpt><trkpt lat="44.147743" lon="10.353971"><ele>450.1428571428572</ele><time>2026-03-25T09:24:42.175Z</time></trkpt><trkpt lat="44.1478103" lon="10.3539745"><ele>450.00000000000006</ele><time>2026-03-25T09:24:45.179Z</time></trkpt><trkpt lat="44.1478865" lon="10.3539653"><ele>450.00000000000006</ele><time>2026-03-25T09:24:49.191Z</time></trkpt><trkpt lat="44.1479567" lon="10.3539418"><ele>450.0</ele><time>2026-03-25T09:24:53.17Z</time></trkpt><trkpt lat="44.1480158" lon="10.3539057"><ele>450.00000000000006</ele><time>2026-03-25T09:24:56.17Z</time></trkpt><trkpt lat="44.1480615" lon="10.3538253"><ele>450.00000000000006</ele><time>2026-03-25T09:25:00.18Z</time></trkpt><trkpt lat="44.1480871" lon="10.3537412"><ele>450.0</ele><time>2026-03-25T09:25:05.181Z</time></trkpt><trkpt lat="44.1480524" lon="10.3536549"><ele>450.00000000000006</ele><time>2026-03-25T09:25:11.175Z</time></trkpt><trkpt lat="44.1479945" lon="10.353611"><ele>450.00000000000006</ele><time>2026-03-25T09:25:14.177Z</time></trkpt><trkpt lat="44.1479366" lon="10.3535705"><ele>450.7142857142858</ele><time>2026-03-25T09:25:17.18Z</time></trkpt><trkpt lat="44.1478784" lon="10.3535257"><ele>451.42857142857144</ele><time>2026-03-25T09:25:20.192Z</time></trkpt><trkpt lat="44.1478167" lon="10.3534991"><ele>452.14285714285717</ele><time>2026-03-25T09:25:23.183Z</time></trkpt><trkpt lat="44.1477544" lon="10.3534811"><ele>452.8571428571429</ele><time>2026-03-25T09:25:26.181Z</time></trkpt><trkpt lat="44.1476905" lon="10.3534626"><ele>453.57142857142856</ele><time>2026-03-25T09:25:29.178Z</time></trkpt><trkpt lat="44.1476144" lon="10.3534337"><ele>454.2857142857143</ele><time>2026-03-25T09:25:32.18Z</time></trkpt><trkpt lat="44.147528" lon="10.3534213"><ele>455.0</ele><time>2026-03-25T09:25:35.173Z</time></trkpt><trkpt lat="44.1474481" lon="10.353424"><ele>454.99999999999994</ele><time>2026-03-25T09:25:38.179Z</time></trkpt><trkpt lat="44.1473622" lon="10.353443"><ele>455.0</ele><time>2026-03-25T09:25:41.176Z</time></trkpt><trkpt lat="44.1472763" lon="10.3534761"><ele>455.0</ele><time>2026-03-25T09:25:44.179Z</time></trkpt><trkpt lat="44.1471964" lon="10.3535016"><ele>455.0</ele><time>2026-03-25T09:25:47.186Z</time></trkpt><trkpt lat="44.1471176" lon="10.3535249"><ele>454.99999999999994</ele><time>2026-03-25T09:25:49.188Z</time></trkpt><trkpt lat="44.1470399" lon="10.3535421"><ele>455.0</ele><time>2026-03-25T09:25:51.169Z</time></trkpt><trkpt lat="44.146965" lon="10.3535427"><ele>454.99999999999994</ele><time>2026-03-25T09:25:53.167Z</time></trkpt><trkpt lat="44.1469021" lon="10.3535298"><ele>455.0</ele><time>2026-03-25T09:25:55.166Z</time></trkpt><trkpt lat="44.14683" lon="10.3534718"><ele>455.0</ele><time>2026-03-25T09:25:58.174Z</time></trkpt><trkpt lat="44.1467863" lon="10.3533648"><ele>455.0</ele><time>2026-03-25T09:26:01.165Z</time></trkpt><trkpt lat="44.1467253" lon="10.353286"><ele>454.99999999999994</ele><time>2026-03-25T09:26:03.17Z</time></trkpt><trkpt lat="44.146653" lon="10.3532376"><ele>455.0</ele><time>2026-03-25T09:26:05.17Z</time></trkpt><trkpt lat="44.1465888" lon="10.3532147"><ele>456.3333333333333</ele><time>2026-03-25T09:26:07.167Z</time></trkpt><trkpt lat="44.1465076" lon="10.3531902"><ele>457.66666666666663</ele><time>2026-03-25T09:26:10.181Z</time></trkpt><trkpt lat="44.1464284" lon="10.3531833"><ele>459.0</ele><time>2026-03-25T09:26:13.185Z</time></trkpt><trkpt lat="44.146349" lon="10.3531781"><ele>460.33333333333337</ele><time>2026-03-25T09:26:16.185Z</time></trkpt><trkpt lat="44.1462664" lon="10.3531696"><ele>461.6666666666667</ele><time>2026-03-25T09:26:19.187Z</time></trkpt><trkpt lat="44.1461797" lon="10.3531549"><ele>463.0</ele><time>2026-03-25T09:26:22.187Z</time></trkpt><trkpt lat="44.1460905" lon="10.3531337"><ele>463.00000000000006</ele><time>2026-03-25T09:26:25.192Z</time></trkpt><trkpt lat="44.1460045" lon="10.3531098"><ele>463.0</ele><time>2026-03-25T09:26:28.171Z</time></trkpt><trkpt lat="44.1459212" lon="10.3530864"><ele>463.0</ele><time>2026-03-25T09:26:31.174Z</time></trkpt><trkpt lat="44.1458356" lon="10.353057"><ele>463.0</ele><time>2026-03-25T09:26:34.174Z</time></trkpt><trkpt lat="44.1457457" lon="10.3530226"><ele>463.00000000000006</ele><time>2026-03-25T09:26:37.175Z</time></trkpt><trkpt lat="44.1456575" lon="10.3529752"><ele>463.0</ele><time>2026-03-25T09:26:40.176Z</time></trkpt><trkpt lat="44.1455755" lon="10.3529146"><ele>462.71428571428567</ele><time>2026-03-25T09:26:43.176Z</time></trkpt><trkpt lat="44.1455216" lon="10.3528673"><ele>462.4285714285714</ele><time>2026-03-25T09:26:45.178Z</time></trkpt><trkpt lat="44.1454637" lon="10.352827"><ele>462.1428571428571</ele><time>2026-03-25T09:26:47.182Z</time></trkpt><trkpt lat="44.145408" lon="10.3527852"><ele>461.8571428571429</ele><time>2026-03-25T09:26:49.196Z</time></trkpt><trkpt lat="44.1453257" lon="10.352727"><ele>461.5714285714286</ele><time>2026-03-25T09:26:52.181Z</time></trkpt><trkpt lat="44.1452475" lon="10.3526657"><ele>461.28571428571433</ele><time>2026-03-25T09:26:55.18Z</time></trkpt><trkpt lat="44.1451889" lon="10.3526246"><ele>461.0</ele><time>2026-03-25T09:26:57.18Z</time></trkpt><trkpt lat="44.1451282" lon="10.3525841"><ele>461.0</ele><time>2026-03-25T09:26:59.177Z</time></trkpt><trkpt lat="44.1450684" lon="10.3525463"><ele>461.00000000000006</ele><time>2026-03-25T09:27:01.178Z</time></trkpt><trkpt lat="44.1450106" lon="10.3525072"><ele>461.0</ele><time>2026-03-25T09:27:03.171Z</time></trkpt><trkpt lat="44.1449569" lon="10.352459"><ele>461.0</ele><time>2026-03-25T09:27:05.181Z</time></trkpt><trkpt lat="44.1449072" lon="10.3524"><ele>461.00000000000006</ele><time>2026-03-25T09:27:07.182Z</time></trkpt><trkpt lat="44.1448646" lon="10.3523344"><ele>461.0</ele><time>2026-03-25T09:27:09.181Z</time></trkpt><trkpt lat="44.1448114" lon="10.3522271"><ele>461.0</ele><time>2026-03-25T09:27:12.176Z</time></trkpt><trkpt lat="44.1447641" lon="10.3521128"><ele>464.49999999999994</ele><time>2026-03-25T09:27:15.176Z</time></trkpt><trkpt lat="44.1447307" lon="10.3520316"><ele>468.0</ele><time>2026-03-25T09:27:17.172Z</time></trkpt><trkpt lat="44.1446991" lon="10.351953"><ele>471.5</ele><time>2026-03-25T09:27:19.178Z</time></trkpt><trkpt lat="44.1446646" lon="10.3518782"><ele>475.0</ele><time>2026-03-25T09:27:21.173Z</time></trkpt><trkpt lat="44.1445997" lon="10.351784"><ele>478.49999999999994</ele><time>2026-03-25T09:27:24.185Z</time></trkpt><trkpt lat="44.1445315" lon="10.3516952"><ele>482.0</ele><time>2026-03-25T09:27:27.184Z</time></trkpt><trkpt lat="44.1444638" lon="10.35161"><ele>481.99999999999994</ele><time>2026-03-25T09:27:30.179Z</time></trkpt><trkpt lat="44.1444148" lon="10.351554"><ele>482.0</ele><time>2026-03-25T09:27:32.174Z</time></trkpt><trkpt lat="44.1443412" lon="10.3514806"><ele>482.0</ele><time>2026-03-25T09:27:35.172Z</time></trkpt><trkpt lat="44.1442646" lon="10.3514001"><ele>482.0</ele><time>2026-03-25T09:27:38.179Z</time></trkpt><trkpt lat="44.1441926" lon="10.3513129"><ele>481.99999999999994</ele><time>2026-03-25T09:27:41.179Z</time></trkpt><trkpt lat="44.1441453" lon="10.3512434"><ele>482.0</ele><time>2026-03-25T09:27:43.177Z</time></trkpt><trkpt lat="44.1441073" lon="10.3511602"><ele>485.28571428571433</ele><time>2026-03-25T09:27:45.18Z</time></trkpt><trkpt lat="44.1440698" lon="10.351076"><ele>488.5714285714286</ele><time>2026-03-25T09:27:47.179Z</time></trkpt><trkpt lat="44.1440312" lon="10.3509913"><ele>491.8571428571429</ele><time>2026-03-25T09:27:49.172Z</time></trkpt><trkpt lat="44.1439943" lon="10.350908"><ele>495.1428571428571</ele><time>2026-03-25T09:27:51.185Z</time></trkpt><trkpt lat="44.1439547" lon="10.3508212"><ele>498.4285714285714</ele><time>2026-03-25T09:27:53.178Z</time></trkpt><trkpt lat="44.1439173" lon="10.3507395"><ele>501.71428571428567</ele><time>2026-03-25T09:27:55.179Z</time></trkpt><trkpt lat="44.1438822" lon="10.3506586"><ele>505.0</ele><time>2026-03-25T09:27:57.186Z</time></trkpt><trkpt lat="44.143845" lon="10.350585"><ele>500.1428571428571</ele><time>2026-03-25T09:27:59.177Z</time></trkpt><trkpt lat="44.1438066" lon="10.3505077"><ele>495.2857142857142</ele><time>2026-03-25T09:28:01.184Z</time></trkpt><trkpt lat="44.1437643" lon="10.3504277"><ele>490.42857142857144</ele><time>2026-03-25T09:28:03.18Z</time></trkpt><trkpt lat="44.1437241" lon="10.3503495"><ele>485.57142857142856</ele><time>2026-03-25T09:28:05.175Z</time></trkpt><trkpt lat="44.143679" lon="10.3502787"><ele>480.7142857142857</ele><time>2026-03-25T09:28:07.173Z</time></trkpt><trkpt lat="44.1436339" lon="10.3502095"><ele>475.8571428571429</ele><time>2026-03-25T09:28:09.182Z</time></trkpt><trkpt lat="44.1435788" lon="10.3501513"><ele>471.00000000000006</ele><time>2026-03-25T09:28:11.18Z</time></trkpt><trkpt lat="44.1435217" lon="10.3501036"><ele>471.0</ele><time>2026-03-25T09:28:13.176Z</time></trkpt><trkpt lat="44.1434584" lon="10.3500521"><ele>471.0</ele><time>2026-03-25T09:28:15.183Z</time></trkpt><trkpt lat="44.1433944" lon="10.3499995"><ele>471.0</ele><time>2026-03-25T09:28:17.179Z</time></trkpt><trkpt lat="44.143328" lon="10.3499402"><ele>471.0</ele><time>2026-03-25T09:28:19.178Z</time></trkpt><trkpt lat="44.1432646" lon="10.3498792"><ele>471.0</ele><time>2026-03-25T09:28:21.186Z</time></trkpt><trkpt lat="44.143201" lon="10.3498209"><ele>471.0</ele><time>2026-03-25T09:28:23.188Z</time></trkpt><trkpt lat="44.1431395" lon="10.3497645"><ele>471.1428571428572</ele><time>2026-03-25T09:28:25.185Z</time></trkpt><trkpt lat="44.143078" lon="10.3497076"><ele>471.28571428571433</ele><time>2026-03-25T09:28:27.177Z</time></trkpt><trkpt lat="44.1430163" lon="10.3496488"><ele>471.42857142857144</ele><time>2026-03-25T09:28:29.18Z</time></trkpt><trkpt lat="44.1429555" lon="10.3495928"><ele>471.5714285714286</ele><time>2026-03-25T09:28:31.181Z</time></trkpt><trkpt lat="44.1428914" lon="10.3495424"><ele>471.7142857142858</ele><time>2026-03-25T09:28:33.17Z</time></trkpt><trkpt lat="44.142828" lon="10.3494959"><ele>471.85714285714283</ele><time>2026-03-25T09:28:35.176Z</time></trkpt><trkpt lat="44.1427623" lon="10.3494611"><ele>472.0</ele><time>2026-03-25T09:28:37.181Z</time></trkpt><trkpt lat="44.1426932" lon="10.3494328"><ele>472.0</ele><time>2026-03-25T09:28:39.184Z</time></trkpt><trkpt lat="44.1426228" lon="10.349403"><ele>472.0</ele><time>2026-03-25T09:28:41.174Z</time></trkpt><trkpt lat="44.1425604" lon="10.3493781"><ele>472.0</ele><time>2026-03-25T09:28:43.183Z</time></trkpt><trkpt lat="44.142492" lon="10.349346"><ele>472.0</ele><time>2026-03-25T09:28:45.183Z</time></trkpt><trkpt lat="44.1424264" lon="10.3493096"><ele>472.0</ele><time>2026-03-25T09:28:47.184Z</time></trkpt><trkpt lat="44.1423616" lon="10.3492673"><ele>472.0</ele><time>2026-03-25T09:28:49.177Z</time></trkpt><trkpt lat="44.1422978" lon="10.3492037"><ele>472.0</ele><time>2026-03-25T09:28:51.19Z</time></trkpt><trkpt lat="44.1422363" lon="10.3491389"><ele>473.50000000000006</ele><time>2026-03-25T09:28:53.176Z</time></trkpt><trkpt lat="44.1421754" lon="10.3490657"><ele>475.0</ele><time>2026-03-25T09:28:55.174Z</time></trkpt><trkpt lat="44.1421202" lon="10.3489877"><ele>476.5</ele><time>2026-03-25T09:28:57.167Z</time></trkpt><trkpt lat="44.1420692" lon="10.34891"><ele>478.0</ele><time>2026-03-25T09:28:59.169Z</time></trkpt><trkpt lat="44.1420159" lon="10.348834"><ele>479.50000000000006</ele><time>2026-03-25T09:29:01.182Z</time></trkpt><trkpt lat="44.1419655" lon="10.3487555"><ele>481.0</ele><time>2026-03-25T09:29:03.185Z</time></trkpt><trkpt lat="44.1419189" lon="10.34867"><ele>481.00000000000006</ele><time>2026-03-25T09:29:05.182Z</time></trkpt><trkpt lat="44.1418679" lon="10.3485872"><ele>481.0</ele><time>2026-03-25T09:29:07.18Z</time></trkpt><trkpt lat="44.1418129" lon="10.3485142"><ele>481.0</ele><time>2026-03-25T09:29:09.181Z</time></trkpt><trkpt lat="44.1417576" lon="10.3484413"><ele>481.0</ele><time>2026-03-25T09:29:11.173Z</time></trkpt><trkpt lat="44.1417025" lon="10.3483663"><ele>481.00000000000006</ele><time>2026-03-25T09:29:13.177Z</time></trkpt><trkpt lat="44.1416471" lon="10.3482915"><ele>481.0</ele><time>2026-03-25T09:29:15.188Z</time></trkpt><trkpt lat="44.1415928" lon="10.3482187"><ele>482.71428571428567</ele><time>2026-03-25T09:29:17.18Z</time></trkpt><trkpt lat="44.1415388" lon="10.348146"><ele>484.42857142857144</ele><time>2026-03-25T09:29:19.185Z</time></trkpt><trkpt lat="44.1414863" lon="10.3480797"><ele>486.1428571428571</ele><time>2026-03-25T09:29:21.171Z</time></trkpt><trkpt lat="44.1414349" lon="10.3480119"><ele>487.85714285714283</ele><time>2026-03-25T09:29:23.181Z</time></trkpt><trkpt lat="44.1413826" lon="10.3479357"><ele>489.57142857142856</ele><time>2026-03-25T09:29:25.179Z</time></trkpt><trkpt lat="44.1413296" lon="10.3478588"><ele>491.2857142857143</ele><time>2026-03-25T09:29:27.177Z</time></trkpt><trkpt lat="44.1412813" lon="10.3477764"><ele>493.0</ele><time>2026-03-25T09:29:29.186Z</time></trkpt><trkpt lat="44.1412354" lon="10.3476887"><ele>493.0</ele><time>2026-03-25T09:29:31.177Z</time></trkpt><trkpt lat="44.1411964" lon="10.3475982"><ele>493.0</ele><time>2026-03-25T09:29:33.184Z</time></trkpt><trkpt lat="44.1411617" lon="10.3475061"><ele>493.0</ele><time>2026-03-25T09:29:35.181Z</time></trkpt><trkpt lat="44.1411274" lon="10.3474133"><ele>493.0</ele><time>2026-03-25T09:29:37.175Z</time></trkpt><trkpt lat="44.1410957" lon="10.3473232"><ele>493.0</ele><time>2026-03-25T09:29:39.17Z</time></trkpt><trkpt lat="44.1410605" lon="10.3472323"><ele>493.0</ele><time>2026-03-25T09:29:41.182Z</time></trkpt><trkpt lat="44.1410238" lon="10.3471379"><ele>493.0</ele><time>2026-03-25T09:29:43.17Z</time></trkpt><trkpt lat="44.140991" lon="10.3470481"><ele>490.1428571428571</ele><time>2026-03-25T09:29:45.179Z</time></trkpt><trkpt lat="44.1409583" lon="10.3469585"><ele>487.28571428571433</ele><time>2026-03-25T09:29:47.185Z</time></trkpt><trkpt lat="44.1409304" lon="10.346867"><ele>484.42857142857144</ele><time>2026-03-25T09:29:49.182Z</time></trkpt><trkpt lat="44.1408976" lon="10.346768"><ele>481.57142857142856</ele><time>2026-03-25T09:29:51.179Z</time></trkpt><trkpt lat="44.1408614" lon="10.3466812"><ele>478.71428571428567</ele><time>2026-03-25T09:29:53.151Z</time></trkpt><trkpt lat="44.1408205" lon="10.3465919"><ele>475.8571428571429</ele><time>2026-03-25T09:29:55.175Z</time></trkpt><trkpt lat="44.1407823" lon="10.3464973"><ele>473.0</ele><time>2026-03-25T09:29:57.173Z</time></trkpt><trkpt lat="44.1407461" lon="10.3464023"><ele>474.3333333333333</ele><time>2026-03-25T09:29:59.155Z</time></trkpt><trkpt lat="44.1407067" lon="10.3463106"><ele>475.66666666666663</ele><time>2026-03-25T09:30:01.181Z</time></trkpt><trkpt lat="44.140661" lon="10.3462336"><ele>477.0</ele><time>2026-03-25T09:30:03.141Z</time></trkpt><trkpt lat="44.1405877" lon="10.3461495"><ele>478.33333333333337</ele><time>2026-03-25T09:30:06.052Z</time></trkpt><trkpt lat="44.1405234" lon="10.3460968"><ele>479.6666666666667</ele><time>2026-03-25T09:30:08.122Z</time></trkpt><trkpt lat="44.1404537" lon="10.3460508"><ele>481.0</ele><time>2026-03-25T09:30:10.182Z</time></trkpt><trkpt lat="44.1403829" lon="10.3460024"><ele>480.99999999999994</ele><time>2026-03-25T09:30:12.178Z</time></trkpt><trkpt lat="44.1403159" lon="10.3459521"><ele>481.0</ele><time>2026-03-25T09:30:14.165Z</time></trkpt><trkpt lat="44.1402452" lon="10.345902"><ele>480.99999999999994</ele><time>2026-03-25T09:30:16.167Z</time></trkpt><trkpt lat="44.1401777" lon="10.3458712"><ele>480.99999999999994</ele><time>2026-03-25T09:30:18.18Z</time></trkpt><trkpt lat="44.1401101" lon="10.3458337"><ele>481.0</ele><time>2026-03-25T09:30:20.165Z</time></trkpt><trkpt lat="44.1400417" lon="10.3457976"><ele>480.99999999999994</ele><time>2026-03-25T09:30:22.175Z</time></trkpt><trkpt lat="44.1399757" lon="10.3457596"><ele>480.99999999999994</ele><time>2026-03-25T09:30:24.179Z</time></trkpt><trkpt lat="44.1399078" lon="10.3457212"><ele>480.42857142857133</ele><time>2026-03-25T09:30:26.173Z</time></trkpt><trkpt lat="44.1398359" lon="10.345679"><ele>479.85714285714283</ele><time>2026-03-25T09:30:28.164Z</time></trkpt><trkpt lat="44.1397691" lon="10.3456401"><ele>479.2857142857142</ele><time>2026-03-25T09:30:30.168Z</time></trkpt><trkpt lat="44.1397064" lon="10.3455876"><ele>478.71428571428567</ele><time>2026-03-25T09:30:32.174Z</time></trkpt><trkpt lat="44.1396529" lon="10.3455264"><ele>478.1428571428571</ele><time>2026-03-25T09:30:34.058Z</time></trkpt><trkpt lat="44.1395955" lon="10.3454463"><ele>477.57142857142856</ele><time>2026-03-25T09:30:36.181Z</time></trkpt><trkpt lat="44.13955" lon="10.3453668"><ele>477.0</ele><time>2026-03-25T09:30:38.169Z</time></trkpt><trkpt lat="44.1395104" lon="10.3452856"><ele>477.0</ele><time>2026-03-25T09:30:40.172Z</time></trkpt><trkpt lat="44.1394729" lon="10.3452078"><ele>476.99999999999994</ele><time>2026-03-25T09:30:42.179Z</time></trkpt><trkpt lat="44.1394335" lon="10.3451309"><ele>477.0</ele><time>2026-03-25T09:30:44.074Z</time></trkpt><trkpt lat="44.1393844" lon="10.3450541"><ele>477.0</ele><time>2026-03-25T09:30:46.177Z</time></trkpt><trkpt lat="44.1393403" lon="10.3449762"><ele>476.99999999999994</ele><time>2026-03-25T09:30:48.194Z</time></trkpt><trkpt lat="44.1392963" lon="10.3448981"><ele>477.0</ele><time>2026-03-25T09:30:50.17Z</time></trkpt><trkpt lat="44.1392465" lon="10.3448214"><ele>477.0</ele><time>2026-03-25T09:30:52.176Z</time></trkpt><trkpt lat="44.1392038" lon="10.3447399"><ele>476.4285714285714</ele><time>2026-03-25T09:30:54.168Z</time></trkpt><trkpt lat="44.1391607" lon="10.3446664"><ele>475.8571428571428</ele><time>2026-03-25T09:30:56.168Z</time></trkpt><trkpt lat="44.1391204" lon="10.3445947"><ele>475.2857142857143</ele><time>2026-03-25T09:30:58.174Z</time></trkpt><trkpt lat="44.1390816" lon="10.3445204"><ele>474.71428571428567</ele><time>2026-03-25T09:31:00.169Z</time></trkpt><trkpt lat="44.1390341" lon="10.3444333"><ele>474.1428571428571</ele><time>2026-03-25T09:31:02.172Z</time></trkpt><trkpt lat="44.1389934" lon="10.344343"><ele>473.57142857142856</ele><time>2026-03-25T09:31:04.175Z</time></trkpt><trkpt lat="44.1389672" lon="10.3442433"><ele>473.0</ele><time>2026-03-25T09:31:06.177Z</time></trkpt><trkpt lat="44.1389645" lon="10.3441414"><ele>472.99999999999994</ele><time>2026-03-25T09:31:08.178Z</time></trkpt><trkpt lat="44.1389736" lon="10.3440409"><ele>473.0</ele><time>2026-03-25T09:31:10.177Z</time></trkpt><trkpt lat="44.1390057" lon="10.3439157"><ele>473.0</ele><time>2026-03-25T09:31:13.172Z</time></trkpt><trkpt lat="44.1390315" lon="10.3438241"><ele>473.0</ele><time>2026-03-25T09:31:15.181Z</time></trkpt><trkpt lat="44.13906" lon="10.3437328"><ele>472.99999999999994</ele><time>2026-03-25T09:31:17.176Z</time></trkpt><trkpt lat="44.1390894" lon="10.3436411"><ele>473.0</ele><time>2026-03-25T09:31:19.177Z</time></trkpt><trkpt lat="44.1391192" lon="10.343545"><ele>472.99999999999994</ele><time>2026-03-25T09:31:21.177Z</time></trkpt><trkpt lat="44.139145" lon="10.3434419"><ele>473.0</ele><time>2026-03-25T09:31:23.174Z</time></trkpt><trkpt lat="44.1391717" lon="10.343343"><ele>473.0</ele><time>2026-03-25T09:31:25.185Z</time></trkpt><trkpt lat="44.1391985" lon="10.3432422"><ele>473.0</ele><time>2026-03-25T09:31:27.183Z</time></trkpt><trkpt lat="44.1392278" lon="10.3431379"><ele>472.99999999999994</ele><time>2026-03-25T09:31:29.176Z</time></trkpt><trkpt lat="44.139253" lon="10.3430285"><ele>473.0</ele><time>2026-03-25T09:31:31.195Z</time></trkpt><trkpt lat="44.1392754" lon="10.3429135"><ele>472.99999999999994</ele><time>2026-03-25T09:31:33.198Z</time></trkpt><trkpt lat="44.1392897" lon="10.342796"><ele>473.0</ele><time>2026-03-25T09:31:35.172Z</time></trkpt><trkpt lat="44.1392937" lon="10.3426852"><ele>473.0</ele><time>2026-03-25T09:31:37.178Z</time></trkpt><trkpt lat="44.1392924" lon="10.3425797"><ele>473.0</ele><time>2026-03-25T09:31:39.176Z</time></trkpt><trkpt lat="44.1392854" lon="10.342483"><ele>472.99999999999994</ele><time>2026-03-25T09:31:41.169Z</time></trkpt><trkpt lat="44.1392694" lon="10.3423857"><ele>473.0</ele><time>2026-03-25T09:31:43.178Z</time></trkpt><trkpt lat="44.1392475" lon="10.3422913"><ele>471.49999999999994</ele><time>2026-03-25T09:31:45.179Z</time></trkpt><trkpt lat="44.1392025" lon="10.3421958"><ele>470.0</ele><time>2026-03-25T09:31:48.177Z</time></trkpt><trkpt lat="44.1391672" lon="10.3421213"><ele>468.5</ele><time>2026-03-25T09:31:50.167Z</time></trkpt><trkpt lat="44.1391303" lon="10.3420438"><ele>467.0</ele><time>2026-03-25T09:31:52.168Z</time></trkpt><trkpt lat="44.139082" lon="10.3419546"><ele>465.49999999999994</ele><time>2026-03-25T09:31:54.173Z</time></trkpt><trkpt lat="44.1390263" lon="10.3418594"><ele>464.0</ele><time>2026-03-25T09:31:56.186Z</time></trkpt><trkpt lat="44.1389731" lon="10.3417724"><ele>467.8333333333333</ele><time>2026-03-25T09:31:58.172Z</time></trkpt><trkpt lat="44.1389231" lon="10.3416817"><ele>471.66666666666663</ele><time>2026-03-25T09:32:00.171Z</time></trkpt><trkpt lat="44.138882" lon="10.3415916"><ele>475.5</ele><time>2026-03-25T09:32:02.174Z</time></trkpt><trkpt lat="44.1388373" lon="10.341506"><ele>479.33333333333337</ele><time>2026-03-25T09:32:04.183Z</time></trkpt><trkpt lat="44.1387929" lon="10.3414268"><ele>483.1666666666667</ele><time>2026-03-25T09:32:06.169Z</time></trkpt><trkpt lat="44.1387463" lon="10.3413506"><ele>487.0</ele><time>2026-03-25T09:32:08.177Z</time></trkpt><trkpt lat="44.1387037" lon="10.3412692"><ele>487.8571428571429</ele><time>2026-03-25T09:32:10.179Z</time></trkpt><trkpt lat="44.138663" lon="10.3411872"><ele>488.71428571428567</ele><time>2026-03-25T09:32:12.18Z</time></trkpt><trkpt lat="44.1386222" lon="10.3411052"><ele>489.57142857142856</ele><time>2026-03-25T09:32:14.18Z</time></trkpt><trkpt lat="44.1385984" lon="10.3410096"><ele>490.42857142857144</ele><time>2026-03-25T09:32:16.178Z</time></trkpt><trkpt lat="44.1385886" lon="10.3409067"><ele>491.28571428571433</ele><time>2026-03-25T09:32:18.194Z</time></trkpt><trkpt lat="44.1385954" lon="10.3407976"><ele>492.1428571428571</ele><time>2026-03-25T09:32:20.177Z</time></trkpt><trkpt lat="44.1386206" lon="10.3406991"><ele>493.0</ele><time>2026-03-25T09:32:22.179Z</time></trkpt><trkpt lat="44.1386594" lon="10.3406114"><ele>496.33333333333337</ele><time>2026-03-25T09:32:24.182Z</time></trkpt><trkpt lat="44.1387098" lon="10.3405354"><ele>499.6666666666667</ele><time>2026-03-25T09:32:26.184Z</time></trkpt><trkpt lat="44.1387635" lon="10.3404628"><ele>503.0</ele><time>2026-03-25T09:32:28.171Z</time></trkpt><trkpt lat="44.1388158" lon="10.3403927"><ele>506.33333333333337</ele><time>2026-03-25T09:32:30.186Z</time></trkpt><trkpt lat="44.1388671" lon="10.3403132"><ele>509.6666666666667</ele><time>2026-03-25T09:32:32.187Z</time></trkpt><trkpt lat="44.1389155" lon="10.3402276"><ele>513.0</ele><time>2026-03-25T09:32:34.187Z</time></trkpt><trkpt lat="44.1389589" lon="10.3401446"><ele>513.0000000000001</ele><time>2026-03-25T09:32:36.184Z</time></trkpt><trkpt lat="44.1389935" lon="10.3400492"><ele>513.0</ele><time>2026-03-25T09:32:38.182Z</time></trkpt><trkpt lat="44.1390202" lon="10.3399529"><ele>513.0</ele><time>2026-03-25T09:32:40.191Z</time></trkpt><trkpt lat="44.139037" lon="10.3398617"><ele>513.0</ele><time>2026-03-25T09:32:42.189Z</time></trkpt><trkpt lat="44.1390449" lon="10.3397659"><ele>513.0</ele><time>2026-03-25T09:32:44.178Z</time></trkpt><trkpt lat="44.1390454" lon="10.339657"><ele>513.0000000000001</ele><time>2026-03-25T09:32:46.179Z</time></trkpt><trkpt lat="44.1390337" lon="10.339554"><ele>513.0</ele><time>2026-03-25T09:32:48.176Z</time></trkpt><trkpt lat="44.1390161" lon="10.3394495"><ele>513.1666666666666</ele><time>2026-03-25T09:32:50.181Z</time></trkpt><trkpt lat="44.138998" lon="10.3393427"><ele>513.3333333333334</ele><time>2026-03-25T09:32:52.178Z</time></trkpt><trkpt lat="44.1389781" lon="10.3392366"><ele>513.5</ele><time>2026-03-25T09:32:54.192Z</time></trkpt><trkpt lat="44.1389569" lon="10.3391272"><ele>513.6666666666667</ele><time>2026-03-25T09:32:56.186Z</time></trkpt><trkpt lat="44.1389322" lon="10.339016"><ele>513.8333333333334</ele><time>2026-03-25T09:32:58.173Z</time></trkpt><trkpt lat="44.1389085" lon="10.3389082"><ele>514.0</ele><time>2026-03-25T09:33:00.182Z</time></trkpt><trkpt lat="44.1388763" lon="10.3388076"><ele>511.50000000000006</ele><time>2026-03-25T09:33:02.175Z</time></trkpt><trkpt lat="44.1388325" lon="10.3387168"><ele>509.0</ele><time>2026-03-25T09:33:04.18Z</time></trkpt><trkpt lat="44.1387865" lon="10.3386287"><ele>506.5</ele><time>2026-03-25T09:33:06.191Z</time></trkpt><trkpt lat="44.1387419" lon="10.3385377"><ele>504.0</ele><time>2026-03-25T09:33:08.18Z</time></trkpt><trkpt lat="44.1387059" lon="10.3384388"><ele>501.50000000000006</ele><time>2026-03-25T09:33:10.186Z</time></trkpt><trkpt lat="44.1386878" lon="10.3383254"><ele>499.0</ele><time>2026-03-25T09:33:12.167Z</time></trkpt><trkpt lat="44.1386866" lon="10.3382063"><ele>499.00000000000006</ele><time>2026-03-25T09:33:14.183Z</time></trkpt><trkpt lat="44.1387006" lon="10.3380904"><ele>499.0</ele><time>2026-03-25T09:33:16.177Z</time></trkpt><trkpt lat="44.138726" lon="10.3379855"><ele>499.0</ele><time>2026-03-25T09:33:18.185Z</time></trkpt><trkpt lat="44.1387491" lon="10.3378858"><ele>499.0</ele><time>2026-03-25T09:33:20.18Z</time></trkpt><trkpt lat="44.1387698" lon="10.3377847"><ele>499.00000000000006</ele><time>2026-03-25T09:33:22.179Z</time></trkpt><trkpt lat="44.1387823" lon="10.3376845"><ele>499.0</ele><time>2026-03-25T09:33:24.207Z</time></trkpt><trkpt lat="44.138789" lon="10.3375815"><ele>500.1666666666667</ele><time>2026-03-25T09:33:26.187Z</time></trkpt><trkpt lat="44.1387934" lon="10.3374772"><ele>501.33333333333337</ele><time>2026-03-25T09:33:28.167Z</time></trkpt><trkpt lat="44.1387989" lon="10.3373675"><ele>502.5</ele><time>2026-03-25T09:33:30.186Z</time></trkpt><trkpt lat="44.1388048" lon="10.3372557"><ele>503.66666666666663</ele><time>2026-03-25T09:33:32.191Z</time></trkpt><trkpt lat="44.1388086" lon="10.3371467"><ele>504.8333333333333</ele><time>2026-03-25T09:33:34.174Z</time></trkpt><trkpt lat="44.1388121" lon="10.3370364"><ele>506.0</ele><time>2026-03-25T09:33:36.177Z</time></trkpt><trkpt lat="44.1388197" lon="10.3369244"><ele>506.99999999999994</ele><time>2026-03-25T09:33:38.169Z</time></trkpt><trkpt lat="44.1388265" lon="10.3368119"><ele>508.0</ele><time>2026-03-25T09:33:40.176Z</time></trkpt><trkpt lat="44.1388333" lon="10.3367042"><ele>509.0</ele><time>2026-03-25T09:33:42.184Z</time></trkpt><trkpt lat="44.1388364" lon="10.336596"><ele>510.0</ele><time>2026-03-25T09:33:44.17Z</time></trkpt><trkpt lat="44.1388348" lon="10.3364853"><ele>510.99999999999994</ele><time>2026-03-25T09:33:46.181Z</time></trkpt><trkpt lat="44.1388287" lon="10.3363799"><ele>512.0</ele><time>2026-03-25T09:33:48.193Z</time></trkpt><trkpt lat="44.1388175" lon="10.3362734"><ele>509.8333333333333</ele><time>2026-03-25T09:33:50.194Z</time></trkpt><trkpt lat="44.1388066" lon="10.3361681"><ele>507.66666666666663</ele><time>2026-03-25T09:33:52.189Z</time></trkpt><trkpt lat="44.1387942" lon="10.3360629"><ele>505.5</ele><time>2026-03-25T09:33:54.175Z</time></trkpt><trkpt lat="44.1387731" lon="10.3359525"><ele>503.33333333333337</ele><time>2026-03-25T09:33:56.197Z</time></trkpt><trkpt lat="44.1387498" lon="10.335843"><ele>501.1666666666667</ele><time>2026-03-25T09:33:58.174Z</time></trkpt><trkpt lat="44.1387226" lon="10.3357376"><ele>499.0</ele><time>2026-03-25T09:34:00.181Z</time></trkpt><trkpt lat="44.1386948" lon="10.3356321"><ele>495.1666666666667</ele><time>2026-03-25T09:34:02.184Z</time></trkpt><trkpt lat="44.1386642" lon="10.3355272"><ele>491.33333333333337</ele><time>2026-03-25T09:34:04.18Z</time></trkpt><trkpt lat="44.1386279" lon="10.3354256"><ele>487.5</ele><time>2026-03-25T09:34:06.185Z</time></trkpt><trkpt lat="44.1385924" lon="10.3353213"><ele>483.66666666666663</ele><time>2026-03-25T09:34:08.18Z</time></trkpt><trkpt lat="44.1385521" lon="10.3352238"><ele>479.8333333333333</ele><time>2026-03-25T09:34:10.179Z</time></trkpt><trkpt lat="44.1385089" lon="10.335124"><ele>476.0</ele><time>2026-03-25T09:34:12.184Z</time></trkpt><trkpt lat="44.1384611" lon="10.3350247"><ele>475.99999999999994</ele><time>2026-03-25T09:34:14.175Z</time></trkpt><trkpt lat="44.1384104" lon="10.3349321"><ele>476.0</ele><time>2026-03-25T09:34:16.181Z</time></trkpt><trkpt lat="44.1383537" lon="10.3348453"><ele>476.0</ele><time>2026-03-25T09:34:18.191Z</time></trkpt><trkpt lat="44.1382967" lon="10.3347637"><ele>476.0</ele><time>2026-03-25T09:34:20.18Z</time></trkpt><trkpt lat="44.1382403" lon="10.3346806"><ele>475.99999999999994</ele><time>2026-03-25T09:34:22.195Z</time></trkpt><trkpt lat="44.1381923" lon="10.3345911"><ele>476.0</ele><time>2026-03-25T09:34:24.178Z</time></trkpt><trkpt lat="44.1381522" lon="10.3344867"><ele>478.99999999999994</ele><time>2026-03-25T09:34:26.177Z</time></trkpt><trkpt lat="44.1381262" lon="10.3343733"><ele>482.0</ele><time>2026-03-25T09:34:28.177Z</time></trkpt><trkpt lat="44.1381135" lon="10.3342577"><ele>485.0</ele><time>2026-03-25T09:34:30.18Z</time></trkpt><trkpt lat="44.1380999" lon="10.3341432"><ele>488.0</ele><time>2026-03-25T09:34:32.183Z</time></trkpt><trkpt lat="44.1380863" lon="10.3340302"><ele>490.99999999999994</ele><time>2026-03-25T09:34:34.184Z</time></trkpt><trkpt lat="44.1380699" lon="10.3339211"><ele>494.0</ele><time>2026-03-25T09:34:36.182Z</time></trkpt><trkpt lat="44.1380466" lon="10.3338129"><ele>493.99999999999994</ele><time>2026-03-25T09:34:38.178Z</time></trkpt><trkpt lat="44.1380138" lon="10.3337108"><ele>494.0</ele><time>2026-03-25T09:34:40.176Z</time></trkpt><trkpt lat="44.1379735" lon="10.3336138"><ele>494.0</ele><time>2026-03-25T09:34:42.178Z</time></trkpt><trkpt lat="44.137933" lon="10.3335157"><ele>494.0</ele><time>2026-03-25T09:34:44.191Z</time></trkpt><trkpt lat="44.1378916" lon="10.3334186"><ele>493.99999999999994</ele><time>2026-03-25T09:34:46.184Z</time></trkpt><trkpt lat="44.1378487" lon="10.3333196"><ele>494.0</ele><time>2026-03-25T09:34:48.169Z</time></trkpt><trkpt lat="44.1378061" lon="10.3332207"><ele>493.99999999999994</ele><time>2026-03-25T09:34:50.179Z</time></trkpt><trkpt lat="44.1377631" lon="10.3331246"><ele>494.0</ele><time>2026-03-25T09:34:52.181Z</time></trkpt><trkpt lat="44.137717" lon="10.3330272"><ele>494.0</ele><time>2026-03-25T09:34:54.173Z</time></trkpt><trkpt lat="44.1376726" lon="10.3329254"><ele>494.0</ele><time>2026-03-25T09:34:56.179Z</time></trkpt><trkpt lat="44.1376266" lon="10.3328265"><ele>493.99999999999994</ele><time>2026-03-25T09:34:58.172Z</time></trkpt><trkpt lat="44.1375797" lon="10.3327313"><ele>494.0</ele><time>2026-03-25T09:35:00.175Z</time></trkpt><trkpt lat="44.1375328" lon="10.332637"><ele>495.66666666666663</ele><time>2026-03-25T09:35:02.172Z</time></trkpt><trkpt lat="44.1374873" lon="10.3325411"><ele>497.3333333333333</ele><time>2026-03-25T09:35:04.181Z</time></trkpt><trkpt lat="44.1374429" lon="10.3324438"><ele>499.0</ele><time>2026-03-25T09:35:06.197Z</time></trkpt><trkpt lat="44.1373984" lon="10.3323435"><ele>500.66666666666663</ele><time>2026-03-25T09:35:08.17Z</time></trkpt><trkpt lat="44.1373532" lon="10.3322418"><ele>502.3333333333333</ele><time>2026-03-25T09:35:10.18Z</time></trkpt><trkpt lat="44.1373076" lon="10.3321414"><ele>504.0</ele><time>2026-03-25T09:35:12.177Z</time></trkpt><trkpt lat="44.1372629" lon="10.3320431"><ele>504.0</ele><time>2026-03-25T09:35:14.17Z</time></trkpt><trkpt lat="44.1372199" lon="10.3319456"><ele>504.0</ele><time>2026-03-25T09:35:16.175Z</time></trkpt><trkpt lat="44.1371783" lon="10.3318424"><ele>504.0</ele><time>2026-03-25T09:35:18.173Z</time></trkpt><trkpt lat="44.1371376" lon="10.331736"><ele>504.0</ele><time>2026-03-25T09:35:20.183Z</time></trkpt><trkpt lat="44.1371063" lon="10.3316222"><ele>504.0</ele><time>2026-03-25T09:35:22.185Z</time></trkpt><trkpt lat="44.1370872" lon="10.3315091"><ele>504.0</ele><time>2026-03-25T09:35:24.192Z</time></trkpt><trkpt lat="44.1370797" lon="10.331386"><ele>501.3333333333333</ele><time>2026-03-25T09:35:26.171Z</time></trkpt><trkpt lat="44.1370797" lon="10.3312629"><ele>498.66666666666663</ele><time>2026-03-25T09:35:28.181Z</time></trkpt><trkpt lat="44.1370841" lon="10.3311423"><ele>496.0</ele><time>2026-03-25T09:35:30.175Z</time></trkpt><trkpt lat="44.1370906" lon="10.3310286"><ele>493.3333333333333</ele><time>2026-03-25T09:35:32.175Z</time></trkpt><trkpt lat="44.1370947" lon="10.3309122"><ele>490.66666666666663</ele><time>2026-03-25T09:35:34.178Z</time></trkpt><trkpt lat="44.1370936" lon="10.3307918"><ele>488.0</ele><time>2026-03-25T09:35:36.181Z</time></trkpt><trkpt lat="44.1370911" lon="10.3306722"><ele>485.8333333333333</ele><time>2026-03-25T09:35:38.179Z</time></trkpt><trkpt lat="44.1370792" lon="10.3305521"><ele>483.66666666666663</ele><time>2026-03-25T09:35:40.188Z</time></trkpt><trkpt lat="44.1370622" lon="10.3304387"><ele>481.5</ele><time>2026-03-25T09:35:42.177Z</time></trkpt><trkpt lat="44.1370472" lon="10.3303422"><ele>479.33333333333337</ele><time>2026-03-25T09:35:44.177Z</time></trkpt><trkpt lat="44.1370164" lon="10.3302499"><ele>477.1666666666667</ele><time>2026-03-25T09:35:46.173Z</time></trkpt><trkpt lat="44.1369972" lon="10.3301505"><ele>475.0</ele><time>2026-03-25T09:35:48.167Z</time></trkpt><trkpt lat="44.1369695" lon="10.3300592"><ele>475.0</ele><time>2026-03-25T09:35:50.171Z</time></trkpt><trkpt lat="44.1369389" lon="10.3299756"><ele>475.00000000000006</ele><time>2026-03-25T09:35:52.178Z</time></trkpt><trkpt lat="44.1369074" lon="10.3298909"><ele>475.0</ele><time>2026-03-25T09:35:54.175Z</time></trkpt><trkpt lat="44.1368723" lon="10.3297964"><ele>475.0</ele><time>2026-03-25T09:35:56.179Z</time></trkpt><trkpt lat="44.1368336" lon="10.3297067"><ele>475.00000000000006</ele><time>2026-03-25T09:35:58.175Z</time></trkpt><trkpt lat="44.1367931" lon="10.3296208"><ele>475.0</ele><time>2026-03-25T09:36:00.181Z</time></trkpt><trkpt lat="44.1367519" lon="10.3295453"><ele>475.0</ele><time>2026-03-25T09:36:02.168Z</time></trkpt><trkpt lat="44.1367062" lon="10.3294726"><ele>475.28571428571433</ele><time>2026-03-25T09:36:04.185Z</time></trkpt><trkpt lat="44.1366622" lon="10.3293974"><ele>475.5714285714286</ele><time>2026-03-25T09:36:06.17Z</time></trkpt><trkpt lat="44.13661" lon="10.3293381"><ele>475.8571428571429</ele><time>2026-03-25T09:36:08.177Z</time></trkpt><trkpt lat="44.1365572" lon="10.3292787"><ele>476.1428571428571</ele><time>2026-03-25T09:36:10.191Z</time></trkpt><trkpt lat="44.1365008" lon="10.329217"><ele>476.4285714285714</ele><time>2026-03-25T09:36:12.175Z</time></trkpt><trkpt lat="44.136448" lon="10.3291538"><ele>476.71428571428567</ele><time>2026-03-25T09:36:14.172Z</time></trkpt><trkpt lat="44.1363945" lon="10.3290894"><ele>477.0</ele><time>2026-03-25T09:36:16.172Z</time></trkpt><trkpt lat="44.1363438" lon="10.3290248"><ele>477.0</ele><time>2026-03-25T09:36:18.179Z</time></trkpt><trkpt lat="44.136285" lon="10.3289654"><ele>477.0</ele><time>2026-03-25T09:36:20.187Z</time></trkpt><trkpt lat="44.1362222" lon="10.3289058"><ele>477.0</ele><time>2026-03-25T09:36:22.185Z</time></trkpt><trkpt lat="44.1361674" lon="10.3288288"><ele>477.0</ele><time>2026-03-25T09:36:24.18Z</time></trkpt><trkpt lat="44.1361221" lon="10.3287338"><ele>477.0</ele><time>2026-03-25T09:36:26.173Z</time></trkpt><trkpt lat="44.1361023" lon="10.3286265"><ele>477.0</ele><time>2026-03-25T09:36:28.184Z</time></trkpt><trkpt lat="44.1361131" lon="10.328516"><ele>477.6666666666667</ele><time>2026-03-25T09:36:30.179Z</time></trkpt><trkpt lat="44.1361529" lon="10.3284215"><ele>478.33333333333337</ele><time>2026-03-25T09:36:32.174Z</time></trkpt><trkpt lat="44.1362013" lon="10.3283354"><ele>479.0</ele><time>2026-03-25T09:36:34.175Z</time></trkpt><trkpt lat="44.1362539" lon="10.3282487"><ele>479.6666666666667</ele><time>2026-03-25T09:36:36.188Z</time></trkpt><trkpt lat="44.1363018" lon="10.3281586"><ele>480.33333333333337</ele><time>2026-03-25T09:36:38.173Z</time></trkpt><trkpt lat="44.1363345" lon="10.328062"><ele>481.0</ele><time>2026-03-25T09:36:40.18Z</time></trkpt><trkpt lat="44.1363466" lon="10.3279656"><ele>481.00000000000006</ele><time>2026-03-25T09:36:42.169Z</time></trkpt><trkpt lat="44.1363477" lon="10.3278577"><ele>481.0</ele><time>2026-03-25T09:36:44.173Z</time></trkpt><trkpt lat="44.1363374" lon="10.3277415"><ele>481.0</ele><time>2026-03-25T09:36:46.18Z</time></trkpt><trkpt lat="44.1363135" lon="10.3276305"><ele>481.0</ele><time>2026-03-25T09:36:48.182Z</time></trkpt><trkpt lat="44.1362882" lon="10.3275182"><ele>481.00000000000006</ele><time>2026-03-25T09:36:50.172Z</time></trkpt><trkpt lat="44.1362638" lon="10.327411"><ele>481.0</ele><time>2026-03-25T09:36:52.185Z</time></trkpt><trkpt lat="44.1362387" lon="10.3273009"><ele>478.33333333333337</ele><time>2026-03-25T09:36:54.18Z</time></trkpt><trkpt lat="44.1362107" lon="10.327196"><ele>475.6666666666667</ele><time>2026-03-25T09:36:56.187Z</time></trkpt><trkpt lat="44.1361884" lon="10.3270843"><ele>473.0</ele><time>2026-03-25T09:36:58.184Z</time></trkpt><trkpt lat="44.1361631" lon="10.3269792"><ele>470.33333333333337</ele><time>2026-03-25T09:37:00.184Z</time></trkpt><trkpt lat="44.1361335" lon="10.3268753"><ele>467.6666666666667</ele><time>2026-03-25T09:37:02.178Z</time></trkpt><trkpt lat="44.1360901" lon="10.3267772"><ele>465.0</ele><time>2026-03-25T09:37:04.177Z</time></trkpt><trkpt lat="44.1360282" lon="10.3267043"><ele>465.0</ele><time>2026-03-25T09:37:06.183Z</time></trkpt><trkpt lat="44.1359555" lon="10.3266606"><ele>465.0</ele><time>2026-03-25T09:37:08.174Z</time></trkpt><trkpt lat="44.1358743" lon="10.3266524"><ele>465.0</ele><time>2026-03-25T09:37:10.192Z</time></trkpt><trkpt lat="44.135787" lon="10.3266674"><ele>465.0</ele><time>2026-03-25T09:37:12.182Z</time></trkpt><trkpt lat="44.1356997" lon="10.3266938"><ele>465.0</ele><time>2026-03-25T09:37:14.187Z</time></trkpt><trkpt lat="44.135615" lon="10.3267165"><ele>465.0</ele><time>2026-03-25T09:37:16.183Z</time></trkpt><trkpt lat="44.1355329" lon="10.3267272"><ele>471.0</ele><time>2026-03-25T09:37:18.185Z</time></trkpt><trkpt lat="44.1354504" lon="10.3267265"><ele>477.0</ele><time>2026-03-25T09:37:20.184Z</time></trkpt><trkpt lat="44.1353679" lon="10.3267125"><ele>483.0</ele><time>2026-03-25T09:37:22.187Z</time></trkpt><trkpt lat="44.1352962" lon="10.3266592"><ele>489.0</ele><time>2026-03-25T09:37:24.181Z</time></trkpt><trkpt lat="44.1352607" lon="10.3265647"><ele>495.0</ele><time>2026-03-25T09:37:26.19Z</time></trkpt><trkpt lat="44.1352636" lon="10.3264637"><ele>501.0</ele><time>2026-03-25T09:37:28.18Z</time></trkpt><trkpt lat="44.1352768" lon="10.3263627"><ele>501.1666666666667</ele><time>2026-03-25T09:37:30.182Z</time></trkpt><trkpt lat="44.1352928" lon="10.3262637"><ele>501.33333333333337</ele><time>2026-03-25T09:37:32.181Z</time></trkpt><trkpt lat="44.1353349" lon="10.3261654"><ele>501.5</ele><time>2026-03-25T09:37:34.183Z</time></trkpt><trkpt lat="44.1353942" lon="10.326097"><ele>501.6666666666667</ele><time>2026-03-25T09:37:36.181Z</time></trkpt><trkpt lat="44.1354614" lon="10.3260398"><ele>501.83333333333337</ele><time>2026-03-25T09:37:38.185Z</time></trkpt><trkpt lat="44.1355276" lon="10.3259772"><ele>502.0</ele><time>2026-03-25T09:37:40.187Z</time></trkpt><trkpt lat="44.1355873" lon="10.3259049"><ele>502.00000000000006</ele><time>2026-03-25T09:37:42.183Z</time></trkpt><trkpt lat="44.1356263" lon="10.325818"><ele>502.0</ele><time>2026-03-25T09:37:44.18Z</time></trkpt><trkpt lat="44.1356382" lon="10.3257187"><ele>502.0</ele><time>2026-03-25T09:37:46.188Z</time></trkpt><trkpt lat="44.1356235" lon="10.3256205"><ele>502.0</ele><time>2026-03-25T09:37:48.18Z</time></trkpt><trkpt lat="44.1355975" lon="10.3255114"><ele>502.00000000000006</ele><time>2026-03-25T09:37:50.176Z</time></trkpt><trkpt lat="44.1355677" lon="10.3254098"><ele>502.0</ele><time>2026-03-25T09:37:52.185Z</time></trkpt><trkpt lat="44.1355361" lon="10.3253028"><ele>500.6666666666667</ele><time>2026-03-25T09:37:54.184Z</time></trkpt><trkpt lat="44.1355082" lon="10.325193"><ele>499.33333333333337</ele><time>2026-03-25T09:37:56.194Z</time></trkpt><trkpt lat="44.135482" lon="10.3250786"><ele>498.0</ele><time>2026-03-25T09:37:58.182Z</time></trkpt><trkpt lat="44.1354622" lon="10.3249599"><ele>496.66666666666663</ele><time>2026-03-25T09:38:00.172Z</time></trkpt><trkpt lat="44.1354386" lon="10.3248499"><ele>495.3333333333333</ele><time>2026-03-25T09:38:02.182Z</time></trkpt><trkpt lat="44.1353956" lon="10.3247515"><ele>494.0</ele><time>2026-03-25T09:38:04.177Z</time></trkpt><trkpt lat="44.135353" lon="10.324653"><ele>492.3333333333333</ele><time>2026-03-25T09:38:06.19Z</time></trkpt><trkpt lat="44.135316" lon="10.3245644"><ele>490.66666666666663</ele><time>2026-03-25T09:38:08.195Z</time></trkpt><trkpt lat="44.1352778" lon="10.3244652"><ele>489.0</ele><time>2026-03-25T09:38:10.186Z</time></trkpt><trkpt lat="44.1352389" lon="10.3243628"><ele>487.33333333333337</ele><time>2026-03-25T09:38:12.178Z</time></trkpt><trkpt lat="44.135198" lon="10.3242572"><ele>485.6666666666667</ele><time>2026-03-25T09:38:14.168Z</time></trkpt><trkpt lat="44.1351587" lon="10.3241577"><ele>484.0</ele><time>2026-03-25T09:38:16.18Z</time></trkpt><trkpt lat="44.1351228" lon="10.3240435"><ele>484.00000000000006</ele><time>2026-03-25T09:38:18.166Z</time></trkpt><trkpt lat="44.1350984" lon="10.3239243"><ele>484.0</ele><time>2026-03-25T09:38:20.177Z</time></trkpt><trkpt lat="44.1350936" lon="10.3238066"><ele>484.0</ele><time>2026-03-25T09:38:22.189Z</time></trkpt><trkpt lat="44.1351047" lon="10.3236908"><ele>484.0</ele><time>2026-03-25T09:38:24.183Z</time></trkpt><trkpt lat="44.135126" lon="10.3235823"><ele>484.00000000000006</ele><time>2026-03-25T09:38:26.182Z</time></trkpt><trkpt lat="44.135158" lon="10.3234794"><ele>484.0</ele><time>2026-03-25T09:38:28.19Z</time></trkpt><trkpt lat="44.1351942" lon="10.3233839"><ele>483.50000000000006</ele><time>2026-03-25T09:38:30.183Z</time></trkpt><trkpt lat="44.1352364" lon="10.3232895"><ele>483.0</ele><time>2026-03-25T09:38:32.19Z</time></trkpt><trkpt lat="44.1352755" lon="10.323198"><ele>482.5</ele><time>2026-03-25T09:38:34.191Z</time></trkpt><trkpt lat="44.1353156" lon="10.3231"><ele>482.0</ele><time>2026-03-25T09:38:36.184Z</time></trkpt><trkpt lat="44.1353477" lon="10.3229975"><ele>481.50000000000006</ele><time>2026-03-25T09:38:38.173Z</time></trkpt><trkpt lat="44.1353636" lon="10.3228851"><ele>481.0</ele><time>2026-03-25T09:38:40.193Z</time></trkpt><trkpt lat="44.1353614" lon="10.3227751"><ele>480.99999999999994</ele><time>2026-03-25T09:38:42.18Z</time></trkpt><trkpt lat="44.1353525" lon="10.3226678"><ele>481.0</ele><time>2026-03-25T09:38:44.187Z</time></trkpt><trkpt lat="44.1353378" lon="10.3225704"><ele>480.99999999999994</ele><time>2026-03-25T09:38:46.186Z</time></trkpt><trkpt lat="44.1353273" lon="10.3224787"><ele>480.99999999999994</ele><time>2026-03-25T09:38:48.185Z</time></trkpt><trkpt lat="44.1353103" lon="10.3223748"><ele>481.0</ele><time>2026-03-25T09:38:50.179Z</time></trkpt><trkpt lat="44.1352941" lon="10.3222637"><ele>480.99999999999994</ele><time>2026-03-25T09:38:52.166Z</time></trkpt><trkpt lat="44.135283" lon="10.3221703"><ele>480.99999999999994</ele><time>2026-03-25T09:38:54.175Z</time></trkpt><trkpt lat="44.1352699" lon="10.3220624"><ele>480.50000000000006</ele><time>2026-03-25T09:38:56.188Z</time></trkpt><trkpt lat="44.1352482" lon="10.3219509"><ele>480.0</ele><time>2026-03-25T09:38:58.18Z</time></trkpt><trkpt lat="44.1352309" lon="10.3218334"><ele>479.5</ele><time>2026-03-25T09:39:00.185Z</time></trkpt><trkpt lat="44.1352152" lon="10.321715"><ele>479.0</ele><time>2026-03-25T09:39:02.187Z</time></trkpt><trkpt lat="44.1351964" lon="10.3216114"><ele>478.50000000000006</ele><time>2026-03-25T09:39:04.174Z</time></trkpt><trkpt lat="44.1351762" lon="10.3215214"><ele>478.0</ele><time>2026-03-25T09:39:06.188Z</time></trkpt><trkpt lat="44.1351568" lon="10.3214201"><ele>476.83333333333337</ele><time>2026-03-25T09:39:08.168Z</time></trkpt><trkpt lat="44.1351432" lon="10.3213071"><ele>475.6666666666667</ele><time>2026-03-25T09:39:10.177Z</time></trkpt><trkpt lat="44.1351326" lon="10.3212026"><ele>474.5</ele><time>2026-03-25T09:39:12.173Z</time></trkpt><trkpt lat="44.1351267" lon="10.3210989"><ele>473.33333333333337</ele><time>2026-03-25T09:39:14.175Z</time></trkpt><trkpt lat="44.13512" lon="10.3210074"><ele>472.1666666666667</ele><time>2026-03-25T09:39:16.173Z</time></trkpt><trkpt lat="44.1351148" lon="10.3209006"><ele>471.0</ele><time>2026-03-25T09:39:18.175Z</time></trkpt><trkpt lat="44.1351076" lon="10.3207825"><ele>471.0</ele><time>2026-03-25T09:39:20.171Z</time></trkpt><trkpt lat="44.1351083" lon="10.3206526"><ele>471.0</ele><time>2026-03-25T09:39:22.177Z</time></trkpt><trkpt lat="44.1351085" lon="10.3205238"><ele>471.0</ele><time>2026-03-25T09:39:24.178Z</time></trkpt><trkpt lat="44.1351054" lon="10.3203999"><ele>471.0</ele><time>2026-03-25T09:39:26.177Z</time></trkpt><trkpt lat="44.1351102" lon="10.3202805"><ele>471.0</ele><time>2026-03-25T09:39:28.18Z</time></trkpt><trkpt lat="44.1351224" lon="10.3201603"><ele>471.0</ele><time>2026-03-25T09:39:30.171Z</time></trkpt><trkpt lat="44.1351326" lon="10.3200368"><ele>470.0</ele><time>2026-03-25T09:39:32.173Z</time></trkpt><trkpt lat="44.1351439" lon="10.3199187"><ele>469.0</ele><time>2026-03-25T09:39:34.182Z</time></trkpt><trkpt lat="44.1351539" lon="10.3198052"><ele>468.0</ele><time>2026-03-25T09:39:36.182Z</time></trkpt><trkpt lat="44.1351584" lon="10.3196923"><ele>467.0</ele><time>2026-03-25T09:39:38.182Z</time></trkpt><trkpt lat="44.1351433" lon="10.3195922"><ele>466.0</ele><time>2026-03-25T09:39:40.176Z</time></trkpt><trkpt lat="44.1351057" lon="10.3195115"><ele>465.0</ele><time>2026-03-25T09:39:42.186Z</time></trkpt><trkpt lat="44.1350507" lon="10.3194174"><ele>465.0</ele><time>2026-03-25T09:39:45.176Z</time></trkpt><trkpt lat="44.1350026" lon="10.3193559"><ele>465.0</ele><time>2026-03-25T09:39:48.189Z</time></trkpt><trkpt lat="44.1349642" lon="10.3192636"><ele>465.0</ele><time>2026-03-25T09:39:52.176Z</time></trkpt><trkpt lat="44.1349236" lon="10.3191961"><ele>465.0</ele><time>2026-03-25T09:39:55.175Z</time></trkpt><trkpt lat="44.134895" lon="10.3191137"><ele>465.0</ele><time>2026-03-25T09:39:58.167Z</time></trkpt><trkpt lat="44.134871" lon="10.3190274"><ele>465.0</ele><time>2026-03-25T09:40:01.166Z</time></trkpt><trkpt lat="44.1348497" lon="10.3189359"><ele>465.0</ele><time>2026-03-25T09:40:04.187Z</time></trkpt><trkpt lat="44.1348297" lon="10.3188447"><ele>464.42857142857144</ele><time>2026-03-25T09:40:07.194Z</time></trkpt><trkpt lat="44.1348201" lon="10.3187512"><ele>463.8571428571429</ele><time>2026-03-25T09:40:10.184Z</time></trkpt><trkpt lat="44.1348132" lon="10.3186517"><ele>463.28571428571433</ele><time>2026-03-25T09:40:13.17Z</time></trkpt><trkpt lat="44.1347989" lon="10.3185405"><ele>462.7142857142857</ele><time>2026-03-25T09:40:16.178Z</time></trkpt><trkpt lat="44.1347755" lon="10.3184526"><ele>462.1428571428572</ele><time>2026-03-25T09:40:19.175Z</time></trkpt><trkpt lat="44.1347489" lon="10.3183526"><ele>461.5714285714286</ele><time>2026-03-25T09:40:22.175Z</time></trkpt><trkpt lat="44.1347084" lon="10.3182588"><ele>461.0</ele><time>2026-03-25T09:40:25.187Z</time></trkpt><trkpt lat="44.1346636" lon="10.3181786"><ele>460.99999999999994</ele><time>2026-03-25T09:40:28.184Z</time></trkpt><trkpt lat="44.1346169" lon="10.3180977"><ele>461.0</ele><time>2026-03-25T09:40:31.175Z</time></trkpt><trkpt lat="44.1345801" lon="10.3180001"><ele>461.0</ele><time>2026-03-25T09:40:34.188Z</time></trkpt><trkpt lat="44.1345373" lon="10.3179078"><ele>461.0</ele><time>2026-03-25T09:40:37.179Z</time></trkpt><trkpt lat="44.1344931" lon="10.3178156"><ele>460.99999999999994</ele><time>2026-03-25T09:40:40.186Z</time></trkpt><trkpt lat="44.134444" lon="10.3177212"><ele>461.0</ele><time>2026-03-25T09:40:43.178Z</time></trkpt><trkpt lat="44.1344002" lon="10.3176221"><ele>462.8333333333333</ele><time>2026-03-25T09:40:46.184Z</time></trkpt><trkpt lat="44.134352" lon="10.3175252"><ele>464.66666666666663</ele><time>2026-03-25T09:40:49.173Z</time></trkpt><trkpt lat="44.1343008" lon="10.3174311"><ele>466.5</ele><time>2026-03-25T09:40:52.176Z</time></trkpt><trkpt lat="44.1342487" lon="10.3173358"><ele>468.33333333333337</ele><time>2026-03-25T09:40:55.183Z</time></trkpt><trkpt lat="44.1341998" lon="10.317237"><ele>470.1666666666667</ele><time>2026-03-25T09:40:58.178Z</time></trkpt><trkpt lat="44.1341497" lon="10.3171382"><ele>472.0</ele><time>2026-03-25T09:41:01.178Z</time></trkpt><trkpt lat="44.134104" lon="10.3170448"><ele>470.00000000000006</ele><time>2026-03-25T09:41:04.179Z</time></trkpt><trkpt lat="44.1340537" lon="10.3169444"><ele>468.0</ele><time>2026-03-25T09:41:07.164Z</time></trkpt><trkpt lat="44.1340076" lon="10.3168417"><ele>466.0</ele><time>2026-03-25T09:41:10.168Z</time></trkpt><trkpt lat="44.1339618" lon="10.3167419"><ele>464.0</ele><time>2026-03-25T09:41:13.171Z</time></trkpt><trkpt lat="44.1339169" lon="10.3166411"><ele>462.00000000000006</ele><time>2026-03-25T09:41:16.167Z</time></trkpt><trkpt lat="44.1338643" lon="10.3165539"><ele>460.0</ele><time>2026-03-25T09:41:19.168Z</time></trkpt><trkpt lat="44.1338126" lon="10.3164631"><ele>461.33333333333337</ele><time>2026-03-25T09:41:22.172Z</time></trkpt><trkpt lat="44.1337656" lon="10.3163753"><ele>462.6666666666667</ele><time>2026-03-25T09:41:25.165Z</time></trkpt><trkpt lat="44.1337233" lon="10.3162869"><ele>464.0</ele><time>2026-03-25T09:41:28.166Z</time></trkpt><trkpt lat="44.1336828" lon="10.3161957"><ele>465.33333333333337</ele><time>2026-03-25T09:41:31.169Z</time></trkpt><trkpt lat="44.1336451" lon="10.3161028"><ele>466.6666666666667</ele><time>2026-03-25T09:41:34.169Z</time></trkpt><trkpt lat="44.1336042" lon="10.3160084"><ele>468.0</ele><time>2026-03-25T09:41:37.174Z</time></trkpt><trkpt lat="44.1335615" lon="10.3159212"><ele>468.0</ele><time>2026-03-25T09:41:40.2Z</time></trkpt><trkpt lat="44.1335223" lon="10.3158351"><ele>468.00000000000006</ele><time>2026-03-25T09:41:43.18Z</time></trkpt><trkpt lat="44.1334775" lon="10.3157574"><ele>468.0</ele><time>2026-03-25T09:41:46.173Z</time></trkpt><trkpt lat="44.1334407" lon="10.3156606"><ele>468.0</ele><time>2026-03-25T09:41:49.176Z</time></trkpt><trkpt lat="44.1334061" lon="10.3155672"><ele>468.00000000000006</ele><time>2026-03-25T09:41:52.185Z</time></trkpt><trkpt lat="44.1333768" lon="10.3154834"><ele>468.0</ele><time>2026-03-25T09:41:55.182Z</time></trkpt><trkpt lat="44.1333519" lon="10.3153794"><ele>468.0</ele><time>2026-03-25T09:41:58.167Z</time></trkpt><trkpt lat="44.1333318" lon="10.3152676"><ele>467.42857142857144</ele><time>2026-03-25T09:42:01.186Z</time></trkpt><trkpt lat="44.1333216" lon="10.3151557"><ele>466.8571428571429</ele><time>2026-03-25T09:42:04.178Z</time></trkpt><trkpt lat="44.1333116" lon="10.3150549"><ele>466.28571428571433</ele><time>2026-03-25T09:42:07.179Z</time></trkpt><trkpt lat="44.1333044" lon="10.3149609"><ele>465.7142857142858</ele><time>2026-03-25T09:42:10.18Z</time></trkpt><trkpt lat="44.1332922" lon="10.3148625"><ele>465.14285714285717</ele><time>2026-03-25T09:42:13.173Z</time></trkpt><trkpt lat="44.1332677" lon="10.3147715"><ele>464.57142857142867</ele><time>2026-03-25T09:42:16.182Z</time></trkpt><trkpt lat="44.1332311" lon="10.3146757"><ele>464.00000000000006</ele><time>2026-03-25T09:42:19.192Z</time></trkpt><trkpt lat="44.1331892" lon="10.3145831"><ele>463.99999999999994</ele><time>2026-03-25T09:42:22.192Z</time></trkpt><trkpt lat="44.1331416" lon="10.3144856"><ele>464.0</ele><time>2026-03-25T09:42:25.182Z</time></trkpt><trkpt lat="44.1330955" lon="10.3143909"><ele>464.0</ele><time>2026-03-25T09:42:28.174Z</time></trkpt><trkpt lat="44.133048" lon="10.3143041"><ele>464.0</ele><time>2026-03-25T09:42:31.185Z</time></trkpt><trkpt lat="44.1329999" lon="10.3142173"><ele>463.99999999999994</ele><time>2026-03-25T09:42:34.178Z</time></trkpt><trkpt lat="44.1329517" lon="10.3141317"><ele>464.0</ele><time>2026-03-25T09:42:37.183Z</time></trkpt><trkpt lat="44.1329144" lon="10.3140426"><ele>464.00000000000006</ele><time>2026-03-25T09:42:40.182Z</time></trkpt><trkpt lat="44.1328977" lon="10.3139388"><ele>464.0</ele><time>2026-03-25T09:42:43.183Z</time></trkpt><trkpt lat="44.1328808" lon="10.3138482"><ele>464.00000000000006</ele><time>2026-03-25T09:42:46.181Z</time></trkpt><trkpt lat="44.1328642" lon="10.3137547"><ele>464.00000000000006</ele><time>2026-03-25T09:42:49.176Z</time></trkpt><trkpt lat="44.132859" lon="10.3136375"><ele>464.0</ele><time>2026-03-25T09:42:53.183Z</time></trkpt><trkpt lat="44.1328642" lon="10.3135469"><ele>464.00000000000006</ele><time>2026-03-25T09:42:56.174Z</time></trkpt><trkpt lat="44.1328722" lon="10.3134576"><ele>464.00000000000006</ele><time>2026-03-25T09:42:59.166Z</time></trkpt><trkpt lat="44.1328773" lon="10.3133664"><ele>464.57142857142867</ele><time>2026-03-25T09:43:02.178Z</time></trkpt><trkpt lat="44.1328777" lon="10.3132708"><ele>465.14285714285717</ele><time>2026-03-25T09:43:05.177Z</time></trkpt><trkpt lat="44.1328798" lon="10.3131798"><ele>465.7142857142858</ele><time>2026-03-25T09:43:08.171Z</time></trkpt><trkpt lat="44.1328888" lon="10.3130627"><ele>466.28571428571433</ele><time>2026-03-25T09:43:12.184Z</time></trkpt><trkpt lat="44.1328941" lon="10.3129663"><ele>466.8571428571429</ele><time>2026-03-25T09:43:15.182Z</time></trkpt><trkpt lat="44.1328986" lon="10.3128748"><ele>467.42857142857144</ele><time>2026-03-25T09:43:18.172Z</time></trkpt><trkpt lat="44.132895" lon="10.3127864"><ele>468.0</ele><time>2026-03-25T09:43:21.19Z</time></trkpt><trkpt lat="44.1328957" lon="10.3126938"><ele>469.42857142857144</ele><time>2026-03-25T09:43:24.182Z</time></trkpt><trkpt lat="44.132889" lon="10.3125984"><ele>470.8571428571429</ele><time>2026-03-25T09:43:27.177Z</time></trkpt><trkpt lat="44.132885" lon="10.3124845"><ele>472.28571428571433</ele><time>2026-03-25T09:43:31.179Z</time></trkpt><trkpt lat="44.1328667" lon="10.3123912"><ele>473.7142857142858</ele><time>2026-03-25T09:43:34.186Z</time></trkpt><trkpt lat="44.1328245" lon="10.3122942"><ele>475.14285714285717</ele><time>2026-03-25T09:43:38.171Z</time></trkpt><trkpt lat="44.1327809" lon="10.3122085"><ele>476.57142857142867</ele><time>2026-03-25T09:43:41.172Z</time></trkpt><trkpt lat="44.1327392" lon="10.312137"><ele>478.00000000000006</ele><time>2026-03-25T09:43:44.199Z</time></trkpt><trkpt lat="44.1326903" lon="10.3120436"><ele>478.28571428571433</ele><time>2026-03-25T09:43:48.179Z</time></trkpt><trkpt lat="44.1326501" lon="10.3119675"><ele>478.57142857142856</ele><time>2026-03-25T09:43:51.19Z</time></trkpt><trkpt lat="44.1326035" lon="10.3118735"><ele>478.8571428571429</ele><time>2026-03-25T09:43:55.179Z</time></trkpt><trkpt lat="44.1325633" lon="10.3118055"><ele>479.14285714285717</ele><time>2026-03-25T09:43:58.192Z</time></trkpt><trkpt lat="44.1325179" lon="10.3117385"><ele>479.42857142857144</ele><time>2026-03-25T09:44:01.174Z</time></trkpt><trkpt lat="44.1324763" lon="10.3116706"><ele>479.7142857142857</ele><time>2026-03-25T09:44:04.18Z</time></trkpt><trkpt lat="44.1324163" lon="10.3115902"><ele>480.0</ele><time>2026-03-25T09:44:08.182Z</time></trkpt><trkpt lat="44.132375" lon="10.3115235"><ele>480.0</ele><time>2026-03-25T09:44:11.179Z</time></trkpt><trkpt lat="44.1323241" lon="10.3114313"><ele>480.0</ele><time>2026-03-25T09:44:15.181Z</time></trkpt><trkpt lat="44.1322771" lon="10.3113694"><ele>480.0</ele><time>2026-03-25T09:44:18.176Z</time></trkpt><trkpt lat="44.1322325" lon="10.3113025"><ele>480.0</ele><time>2026-03-25T09:44:21.168Z</time></trkpt><trkpt lat="44.1321754" lon="10.3112158"><ele>480.0</ele><time>2026-03-25T09:44:25.178Z</time></trkpt><trkpt lat="44.1321367" lon="10.311144"><ele>480.0</ele><time>2026-03-25T09:44:28.172Z</time></trkpt><trkpt lat="44.132091" lon="10.3110809"><ele>480.0</ele><time>2026-03-25T09:44:31.177Z</time></trkpt><trkpt lat="44.1320351" lon="10.3110019"><ele>483.14285714285717</ele><time>2026-03-25T09:44:35.191Z</time></trkpt><trkpt lat="44.1319932" lon="10.3109354"><ele>486.2857142857142</ele><time>2026-03-25T09:44:38.181Z</time></trkpt><trkpt lat="44.1319442" lon="10.3108518"><ele>489.4285714285714</ele><time>2026-03-25T09:44:42.179Z</time></trkpt><trkpt lat="44.1319022" lon="10.3107846"><ele>492.57142857142856</ele><time>2026-03-25T09:44:45.183Z</time></trkpt><trkpt lat="44.1318628" lon="10.3107147"><ele>495.71428571428567</ele><time>2026-03-25T09:44:48.168Z</time></trkpt><trkpt lat="44.1318199" lon="10.3106483"><ele>498.8571428571428</ele><time>2026-03-25T09:44:51.187Z</time></trkpt><trkpt lat="44.1317755" lon="10.3105811"><ele>501.99999999999994</ele><time>2026-03-25T09:44:54.179Z</time></trkpt><trkpt lat="44.1317162" lon="10.3104982"><ele>499.42857142857133</ele><time>2026-03-25T09:44:58.185Z</time></trkpt><trkpt lat="44.1316549" lon="10.3104404"><ele>496.85714285714283</ele><time>2026-03-25T09:45:02.181Z</time></trkpt><trkpt lat="44.1315794" lon="10.3103835"><ele>494.2857142857142</ele><time>2026-03-25T09:45:06.184Z</time></trkpt><trkpt lat="44.1315239" lon="10.3103259"><ele>491.71428571428567</ele><time>2026-03-25T09:45:09.169Z</time></trkpt><trkpt lat="44.1314688" lon="10.3102773"><ele>489.1428571428571</ele><time>2026-03-25T09:45:12.168Z</time></trkpt><trkpt lat="44.1314178" lon="10.3102135"><ele>486.57142857142856</ele><time>2026-03-25T09:45:15.198Z</time></trkpt><trkpt lat="44.1313754" lon="10.3101132"><ele>484.0</ele><time>2026-03-25T09:45:19.183Z</time></trkpt><trkpt lat="44.1313504" lon="10.3100303"><ele>484.0</ele><time>2026-03-25T09:45:22.181Z</time></trkpt><trkpt lat="44.1313168" lon="10.3099249"><ele>483.99999999999994</ele><time>2026-03-25T09:45:26.177Z</time></trkpt><trkpt lat="44.1312944" lon="10.3098418"><ele>484.0</ele><time>2026-03-25T09:45:29.179Z</time></trkpt><trkpt lat="44.1312702" lon="10.3097545"><ele>484.0</ele><time>2026-03-25T09:45:32.179Z</time></trkpt><trkpt lat="44.131263" lon="10.3096637"><ele>483.99999999999994</ele><time>2026-03-25T09:45:35.185Z</time></trkpt><trkpt lat="44.1312782" lon="10.3095714"><ele>484.0</ele><time>2026-03-25T09:45:38.187Z</time></trkpt><trkpt lat="44.1313021" lon="10.3094882"><ele>484.0</ele><time>2026-03-25T09:45:41.176Z</time></trkpt><trkpt lat="44.1313406" lon="10.3094124"><ele>486.1428571428571</ele><time>2026-03-25T09:45:44.171Z</time></trkpt><trkpt lat="44.1313983" lon="10.3093319"><ele>488.2857142857142</ele><time>2026-03-25T09:45:48.184Z</time></trkpt><trkpt lat="44.1314662" lon="10.3092806"><ele>490.42857142857144</ele><time>2026-03-25T09:45:52.18Z</time></trkpt><trkpt lat="44.1315283" lon="10.3092126"><ele>492.57142857142856</ele><time>2026-03-25T09:45:56.176Z</time></trkpt><trkpt lat="44.1315851" lon="10.3091698"><ele>494.7142857142857</ele><time>2026-03-25T09:45:59.177Z</time></trkpt><trkpt lat="44.1316405" lon="10.3091165"><ele>496.8571428571429</ele><time>2026-03-25T09:46:02.18Z</time></trkpt><trkpt lat="44.1316968" lon="10.3090646"><ele>499.00000000000006</ele><time>2026-03-25T09:46:05.182Z</time></trkpt><trkpt lat="44.131757" lon="10.3090104"><ele>501.00000000000006</ele><time>2026-03-25T09:46:08.194Z</time></trkpt><trkpt lat="44.1318125" lon="10.308947"><ele>503.0</ele><time>2026-03-25T09:46:11.192Z</time></trkpt><trkpt lat="44.1318618" lon="10.3088821"><ele>505.00000000000006</ele><time>2026-03-25T09:46:14.18Z</time></trkpt><trkpt lat="44.1319167" lon="10.3088223"><ele>507.00000000000006</ele><time>2026-03-25T09:46:17.184Z</time></trkpt><trkpt lat="44.1319729" lon="10.30876"><ele>509.0</ele><time>2026-03-25T09:46:20.183Z</time></trkpt><trkpt lat="44.1320366" lon="10.3087081"><ele>511.00000000000006</ele><time>2026-03-25T09:46:23.182Z</time></trkpt><trkpt lat="44.1320961" lon="10.3086483"><ele>513.0</ele><time>2026-03-25T09:46:26.178Z</time></trkpt><trkpt lat="44.132159" lon="10.308587"><ele>513.0</ele><time>2026-03-25T09:46:29.175Z</time></trkpt><trkpt lat="44.1322172" lon="10.3085289"><ele>513.0</ele><time>2026-03-25T09:46:32.174Z</time></trkpt><trkpt lat="44.1322773" lon="10.3084626"><ele>513.0</ele><time>2026-03-25T09:46:35.186Z</time></trkpt><trkpt lat="44.1323391" lon="10.308397"><ele>513.0</ele><time>2026-03-25T09:46:38.181Z</time></trkpt><trkpt lat="44.1324028" lon="10.3083318"><ele>513.0</ele><time>2026-03-25T09:46:41.181Z</time></trkpt><trkpt lat="44.1324675" lon="10.3082763"><ele>513.0</ele><time>2026-03-25T09:46:44.199Z</time></trkpt><trkpt lat="44.1325352" lon="10.3082058"><ele>515.8333333333334</ele><time>2026-03-25T09:46:47.18Z</time></trkpt><trkpt lat="44.1325933" lon="10.3081256"><ele>518.6666666666666</ele><time>2026-03-25T09:46:50.178Z</time></trkpt><trkpt lat="44.132644" lon="10.3080494"><ele>521.5</ele><time>2026-03-25T09:46:53.167Z</time></trkpt><trkpt lat="44.132698" lon="10.3079682"><ele>524.3333333333333</ele><time>2026-03-25T09:46:56.176Z</time></trkpt><trkpt lat="44.1327581" lon="10.3078988"><ele>527.1666666666666</ele><time>2026-03-25T09:46:59.182Z</time></trkpt><trkpt lat="44.1328157" lon="10.3078248"><ele>530.0</ele><time>2026-03-25T09:47:02.175Z</time></trkpt><trkpt lat="44.1328719" lon="10.3077451"><ele>529.9999999999999</ele><time>2026-03-25T09:47:05.179Z</time></trkpt><trkpt lat="44.132928" lon="10.3076768"><ele>530.0</ele><time>2026-03-25T09:47:08.181Z</time></trkpt><trkpt lat="44.1329791" lon="10.3076105"><ele>530.0</ele><time>2026-03-25T09:47:11.184Z</time></trkpt><trkpt lat="44.1330316" lon="10.3075397"><ele>530.0</ele><time>2026-03-25T09:47:14.181Z</time></trkpt><trkpt lat="44.1330931" lon="10.3074718"><ele>530.0</ele><time>2026-03-25T09:47:17.178Z</time></trkpt><trkpt lat="44.1331514" lon="10.3074061"><ele>529.9999999999999</ele><time>2026-03-25T09:47:20.18Z</time></trkpt><trkpt lat="44.133211" lon="10.307337"><ele>530.0</ele><time>2026-03-25T09:47:23.177Z</time></trkpt><trkpt lat="44.1332655" lon="10.3072634"><ele>533.3333333333333</ele><time>2026-03-25T09:47:26.168Z</time></trkpt><trkpt lat="44.1333167" lon="10.3071777"><ele>536.6666666666666</ele><time>2026-03-25T09:47:29.179Z</time></trkpt><trkpt lat="44.1333647" lon="10.3070832"><ele>540.0</ele><time>2026-03-25T09:47:32.168Z</time></trkpt><trkpt lat="44.1334069" lon="10.3069886"><ele>543.3333333333334</ele><time>2026-03-25T09:47:35.184Z</time></trkpt><trkpt lat="44.1334315" lon="10.3069015"><ele>546.6666666666667</ele><time>2026-03-25T09:47:38.179Z</time></trkpt><trkpt lat="44.1334415" lon="10.3067986"><ele>550.0</ele><time>2026-03-25T09:47:41.176Z</time></trkpt><trkpt lat="44.1334384" lon="10.306684"><ele>550.0</ele><time>2026-03-25T09:47:44.183Z</time></trkpt><trkpt lat="44.1334239" lon="10.3065707"><ele>550.0</ele><time>2026-03-25T09:47:47.188Z</time></trkpt><trkpt lat="44.1333865" lon="10.3064746"><ele>550.0</ele><time>2026-03-25T09:47:50.173Z</time></trkpt><trkpt lat="44.133358" lon="10.3063735"><ele>550.0</ele><time>2026-03-25T09:47:53.188Z</time></trkpt><trkpt lat="44.1333437" lon="10.306286"><ele>550.0</ele><time>2026-03-25T09:47:56.172Z</time></trkpt><trkpt lat="44.1333241" lon="10.3061957"><ele>550.0</ele><time>2026-03-25T09:47:59.174Z</time></trkpt><trkpt lat="44.1332981" lon="10.306096"><ele>550.0</ele><time>2026-03-25T09:48:02.182Z</time></trkpt><trkpt lat="44.1332687" lon="10.3059963"><ele>551.5</ele><time>2026-03-25T09:48:05.182Z</time></trkpt><trkpt lat="44.1332505" lon="10.3058974"><ele>553.0</ele><time>2026-03-25T09:48:08.179Z</time></trkpt><trkpt lat="44.1332514" lon="10.3057844"><ele>554.5</ele><time>2026-03-25T09:48:11.186Z</time></trkpt><trkpt lat="44.1332612" lon="10.3056712"><ele>556.0</ele><time>2026-03-25T09:48:14.189Z</time></trkpt><trkpt lat="44.1332799" lon="10.3055655"><ele>557.5</ele><time>2026-03-25T09:48:17.176Z</time></trkpt><trkpt lat="44.1333017" lon="10.3054632"><ele>559.0</ele><time>2026-03-25T09:48:20.171Z</time></trkpt><trkpt lat="44.1333031" lon="10.3053656"><ele>561.0</ele><time>2026-03-25T09:48:23.195Z</time></trkpt><trkpt lat="44.1332661" lon="10.3052683"><ele>563.0</ele><time>2026-03-25T09:48:26.188Z</time></trkpt><trkpt lat="44.1332136" lon="10.3051875"><ele>565.0</ele><time>2026-03-25T09:48:29.181Z</time></trkpt><trkpt lat="44.1331426" lon="10.3051286"><ele>567.0</ele><time>2026-03-25T09:48:32.178Z</time></trkpt><trkpt lat="44.1330713" lon="10.3051241"><ele>569.0</ele><time>2026-03-25T09:48:35.183Z</time></trkpt><trkpt lat="44.1330005" lon="10.3051699"><ele>571.0</ele><time>2026-03-25T09:48:38.182Z</time></trkpt><trkpt lat="44.1329299" lon="10.3052379"><ele>574.0</ele><time>2026-03-25T09:48:41.185Z</time></trkpt><trkpt lat="44.1328729" lon="10.3053056"><ele>577.0</ele><time>2026-03-25T09:48:44.18Z</time></trkpt><trkpt lat="44.1328107" lon="10.3053854"><ele>580.0</ele><time>2026-03-25T09:48:47.175Z</time></trkpt><trkpt lat="44.1327635" lon="10.3054638"><ele>583.0</ele><time>2026-03-25T09:48:50.177Z</time></trkpt><trkpt lat="44.1327192" lon="10.3055619"><ele>586.0</ele><time>2026-03-25T09:48:53.182Z</time></trkpt><trkpt lat="44.1326975" lon="10.305705"><ele>589.0</ele><time>2026-03-25T09:48:56.176Z</time></trkpt><trkpt lat="44.1326932" lon="10.3058183"><ele>589.0</ele><time>2026-03-25T09:48:59.184Z</time></trkpt><trkpt lat="44.1326908" lon="10.3059355"><ele>589.0</ele><time>2026-03-25T09:49:02.168Z</time></trkpt><trkpt lat="44.132668" lon="10.3060522"><ele>589.0</ele><time>2026-03-25T09:49:05.188Z</time></trkpt><trkpt lat="44.1326524" lon="10.3061644"><ele>589.0</ele><time>2026-03-25T09:49:08.18Z</time></trkpt><trkpt lat="44.1326329" lon="10.3062663"><ele>589.0</ele><time>2026-03-25T09:49:11.177Z</time></trkpt><trkpt lat="44.1326003" lon="10.3063607"><ele>589.0</ele><time>2026-03-25T09:49:14.183Z</time></trkpt><trkpt lat="44.1325497" lon="10.3064352"><ele>589.1666666666667</ele><time>2026-03-25T09:49:17.172Z</time></trkpt><trkpt lat="44.1324929" lon="10.3065009"><ele>589.3333333333334</ele><time>2026-03-25T09:49:21.17Z</time></trkpt><trkpt lat="44.132428" lon="10.3065699"><ele>589.5</ele><time>2026-03-25T09:49:24.186Z</time></trkpt><trkpt lat="44.1323657" lon="10.3066231"><ele>589.6666666666666</ele><time>2026-03-25T09:49:27.172Z</time></trkpt><trkpt lat="44.1322996" lon="10.3066773"><ele>589.8333333333333</ele><time>2026-03-25T09:49:30.18Z</time></trkpt><trkpt lat="44.1322334" lon="10.3067232"><ele>590.0</ele><time>2026-03-25T09:49:33.181Z</time></trkpt><trkpt lat="44.132162" lon="10.3067664"><ele>590.0</ele><time>2026-03-25T09:49:36.176Z</time></trkpt><trkpt lat="44.1320872" lon="10.3068022"><ele>590.0</ele><time>2026-03-25T09:49:39.179Z</time></trkpt><trkpt lat="44.1320106" lon="10.3068303"><ele>590.0</ele><time>2026-03-25T09:49:42.179Z</time></trkpt><trkpt lat="44.1319283" lon="10.3068611"><ele>590.0</ele><time>2026-03-25T09:49:45.18Z</time></trkpt><trkpt lat="44.1318523" lon="10.3068957"><ele>590.0</ele><time>2026-03-25T09:49:48.193Z</time></trkpt><trkpt lat="44.131781" lon="10.3069486"><ele>590.0</ele><time>2026-03-25T09:49:51.187Z</time></trkpt><trkpt lat="44.1317129" lon="10.3070246"><ele>590.0</ele><time>2026-03-25T09:49:54.18Z</time></trkpt><trkpt lat="44.1316531" lon="10.3070966"><ele>590.0</ele><time>2026-03-25T09:49:57.183Z</time></trkpt><trkpt lat="44.1315939" lon="10.3071561"><ele>590.0</ele><time>2026-03-25T09:50:00.185Z</time></trkpt><trkpt lat="44.1315315" lon="10.3072133"><ele>590.0</ele><time>2026-03-25T09:50:03.181Z</time></trkpt><trkpt lat="44.1314719" lon="10.3072775"><ele>590.0</ele><time>2026-03-25T09:50:06.183Z</time></trkpt><trkpt lat="44.1314135" lon="10.3073447"><ele>590.0</ele><time>2026-03-25T09:50:09.193Z</time></trkpt><trkpt lat="44.1313476" lon="10.3073954"><ele>585.1666666666666</ele><time>2026-03-25T09:50:12.18Z</time></trkpt><trkpt lat="44.1312788" lon="10.3074506"><ele>580.3333333333333</ele><time>2026-03-25T09:50:15.177Z</time></trkpt><trkpt lat="44.131211" lon="10.307505"><ele>575.5</ele><time>2026-03-25T09:50:18.182Z</time></trkpt><trkpt lat="44.1311454" lon="10.3075622"><ele>570.6666666666666</ele><time>2026-03-25T09:50:21.179Z</time></trkpt><trkpt lat="44.1310774" lon="10.3075988"><ele>565.8333333333334</ele><time>2026-03-25T09:50:24.178Z</time></trkpt><trkpt lat="44.1310084" lon="10.3076353"><ele>561.0</ele><time>2026-03-25T09:50:27.177Z</time></trkpt><trkpt lat="44.1309372" lon="10.3076781"><ele>561.0</ele><time>2026-03-25T09:50:30.173Z</time></trkpt><trkpt lat="44.130867" lon="10.3077215"><ele>561.0</ele><time>2026-03-25T09:50:33.178Z</time></trkpt><trkpt lat="44.1307921" lon="10.3077449"><ele>561.0</ele><time>2026-03-25T09:50:36.189Z</time></trkpt><trkpt lat="44.1307119" lon="10.3077593"><ele>561.0</ele><time>2026-03-25T09:50:39.183Z</time></trkpt><trkpt lat="44.1306351" lon="10.3077286"><ele>561.0</ele><time>2026-03-25T09:50:42.183Z</time></trkpt><trkpt lat="44.1305736" lon="10.3076682"><ele>561.0</ele><time>2026-03-25T09:50:45.186Z</time></trkpt><trkpt lat="44.1305319" lon="10.3075909"><ele>558.1666666666666</ele><time>2026-03-25T09:50:48.189Z</time></trkpt><trkpt lat="44.1305112" lon="10.3074967"><ele>555.3333333333334</ele><time>2026-03-25T09:50:51.181Z</time></trkpt><trkpt lat="44.1305144" lon="10.3073931"><ele>552.5</ele><time>2026-03-25T09:50:54.18Z</time></trkpt><trkpt lat="44.1305224" lon="10.3072806"><ele>549.6666666666667</ele><time>2026-03-25T09:50:57.169Z</time></trkpt><trkpt lat="44.1305251" lon="10.3071706"><ele>546.8333333333334</ele><time>2026-03-25T09:51:00.185Z</time></trkpt><trkpt lat="44.1304985" lon="10.3070673"><ele>544.0</ele><time>2026-03-25T09:51:03.172Z</time></trkpt><trkpt lat="44.1304463" lon="10.3069803"><ele>544.0</ele><time>2026-03-25T09:51:06.183Z</time></trkpt><trkpt lat="44.1303968" lon="10.3069033"><ele>544.0</ele><time>2026-03-25T09:51:09.187Z</time></trkpt><trkpt lat="44.1303482" lon="10.3068161"><ele>544.0</ele><time>2026-03-25T09:51:12.178Z</time></trkpt><trkpt lat="44.1303186" lon="10.3067105"><ele>544.0</ele><time>2026-03-25T09:51:15.181Z</time></trkpt><trkpt lat="44.1303314" lon="10.3066038"><ele>544.0</ele><time>2026-03-25T09:51:18.176Z</time></trkpt><trkpt lat="44.1303479" lon="10.3065016"><ele>544.0</ele><time>2026-03-25T09:51:21.176Z</time></trkpt><trkpt lat="44.1303652" lon="10.3064026"><ele>548.8333333333334</ele><time>2026-03-25T09:51:24.171Z</time></trkpt><trkpt lat="44.1303575" lon="10.3062927"><ele>553.6666666666667</ele><time>2026-03-25T09:51:27.182Z</time></trkpt><trkpt lat="44.1303161" lon="10.3061834"><ele>558.5</ele><time>2026-03-25T09:51:30.181Z</time></trkpt><trkpt lat="44.1302598" lon="10.3060929"><ele>563.3333333333334</ele><time>2026-03-25T09:51:33.185Z</time></trkpt><trkpt lat="44.1301942" lon="10.3060253"><ele>568.1666666666666</ele><time>2026-03-25T09:51:36.175Z</time></trkpt><trkpt lat="44.1301139" lon="10.3059752"><ele>573.0</ele><time>2026-03-25T09:51:39.183Z</time></trkpt><trkpt lat="44.1300349" lon="10.3059309"><ele>573.0</ele><time>2026-03-25T09:51:42.175Z</time></trkpt><trkpt lat="44.1299554" lon="10.3058846"><ele>573.0</ele><time>2026-03-25T09:51:45.174Z</time></trkpt><trkpt lat="44.1298769" lon="10.3058448"><ele>573.0</ele><time>2026-03-25T09:51:48.185Z</time></trkpt><trkpt lat="44.1297972" lon="10.3058303"><ele>573.0</ele><time>2026-03-25T09:51:51.187Z</time></trkpt><trkpt lat="44.1297159" lon="10.3058121"><ele>573.0</ele><time>2026-03-25T09:51:54.183Z</time></trkpt><trkpt lat="44.1296345" lon="10.3057756"><ele>573.0</ele><time>2026-03-25T09:51:57.181Z</time></trkpt><trkpt lat="44.1295632" lon="10.3057245"><ele>572.6666666666666</ele><time>2026-03-25T09:52:00.181Z</time></trkpt><trkpt lat="44.1295053" lon="10.3056405"><ele>572.3333333333334</ele><time>2026-03-25T09:52:03.177Z</time></trkpt><trkpt lat="44.1294761" lon="10.305535"><ele>572.0</ele><time>2026-03-25T09:52:06.178Z</time></trkpt><trkpt lat="44.1294542" lon="10.3054285"><ele>571.6666666666667</ele><time>2026-03-25T09:52:09.179Z</time></trkpt><trkpt lat="44.1294347" lon="10.3053152"><ele>571.3333333333334</ele><time>2026-03-25T09:52:12.179Z</time></trkpt><trkpt lat="44.1294315" lon="10.3051982"><ele>571.0</ele><time>2026-03-25T09:52:15.183Z</time></trkpt><trkpt lat="44.1294307" lon="10.3050861"><ele>571.0</ele><time>2026-03-25T09:52:18.183Z</time></trkpt><trkpt lat="44.129414" lon="10.3049788"><ele>571.0</ele><time>2026-03-25T09:52:21.179Z</time></trkpt><trkpt lat="44.1293789" lon="10.304875"><ele>571.0</ele><time>2026-03-25T09:52:24.174Z</time></trkpt><trkpt lat="44.1293287" lon="10.3047756"><ele>571.0</ele><time>2026-03-25T09:52:27.176Z</time></trkpt><trkpt lat="44.1292848" lon="10.3046765"><ele>571.0</ele><time>2026-03-25T09:52:30.182Z</time></trkpt><trkpt lat="44.1292297" lon="10.3046049"><ele>571.0</ele><time>2026-03-25T09:52:33.178Z</time></trkpt><trkpt lat="44.1291397" lon="10.3045775"><ele>577.1428571428571</ele><time>2026-03-25T09:52:36.185Z</time></trkpt><trkpt lat="44.1290487" lon="10.3045789"><ele>583.2857142857142</ele><time>2026-03-25T09:52:39.183Z</time></trkpt><trkpt lat="44.1289792" lon="10.3045867"><ele>589.4285714285713</ele><time>2026-03-25T09:52:41.189Z</time></trkpt><trkpt lat="44.1289137" lon="10.3045963"><ele>595.5714285714286</ele><time>2026-03-25T09:52:43.179Z</time></trkpt><trkpt lat="44.1288499" lon="10.3045876"><ele>601.7142857142857</ele><time>2026-03-25T09:52:45.184Z</time></trkpt><trkpt lat="44.1287867" lon="10.3045714"><ele>607.8571428571428</ele><time>2026-03-25T09:52:47.196Z</time></trkpt><trkpt lat="44.1286985" lon="10.3045493"><ele>614.0</ele><time>2026-03-25T09:52:50.2Z</time></trkpt><trkpt lat="44.1286208" lon="10.3045372"><ele>614.0</ele><time>2026-03-25T09:52:53.173Z</time></trkpt><trkpt lat="44.1285478" lon="10.3045524"><ele>614.0</ele><time>2026-03-25T09:52:56.191Z</time></trkpt><trkpt lat="44.1284634" lon="10.3045865"><ele>614.0</ele><time>2026-03-25T09:52:59.183Z</time></trkpt><trkpt lat="44.1283709" lon="10.3046064"><ele>614.0</ele><time>2026-03-25T09:53:02.18Z</time></trkpt><trkpt lat="44.1282791" lon="10.304608"><ele>614.0</ele><time>2026-03-25T09:53:05.187Z</time></trkpt><trkpt lat="44.1282159" lon="10.3045977"><ele>614.0</ele><time>2026-03-25T09:53:07.172Z</time></trkpt><trkpt lat="44.1281303" lon="10.3045725"><ele>613.0</ele><time>2026-03-25T09:53:10.176Z</time></trkpt><trkpt lat="44.1280494" lon="10.3045524"><ele>612.0</ele><time>2026-03-25T09:53:13.179Z</time></trkpt><trkpt lat="44.1279706" lon="10.304519"><ele>611.0</ele><time>2026-03-25T09:53:16.179Z</time></trkpt><trkpt lat="44.1278945" lon="10.3044921"><ele>610.0</ele><time>2026-03-25T09:53:19.186Z</time></trkpt><trkpt lat="44.1278128" lon="10.3044611"><ele>609.0</ele><time>2026-03-25T09:53:22.186Z</time></trkpt><trkpt lat="44.127729" lon="10.3044503"><ele>608.0</ele><time>2026-03-25T09:53:25.18Z</time></trkpt><trkpt lat="44.1276444" lon="10.304465"><ele>608.0</ele><time>2026-03-25T09:53:28.175Z</time></trkpt><trkpt lat="44.1275658" lon="10.3044982"><ele>608.0</ele><time>2026-03-25T09:53:31.176Z</time></trkpt><trkpt lat="44.1274846" lon="10.3045419"><ele>608.0</ele><time>2026-03-25T09:53:34.173Z</time></trkpt><trkpt lat="44.1274101" lon="10.3046086"><ele>608.0</ele><time>2026-03-25T09:53:37.186Z</time></trkpt><trkpt lat="44.1273356" lon="10.3046545"><ele>608.0</ele><time>2026-03-25T09:53:40.186Z</time></trkpt><trkpt lat="44.1272621" lon="10.304704"><ele>608.0</ele><time>2026-03-25T09:53:43.184Z</time></trkpt><trkpt lat="44.1271895" lon="10.3047501"><ele>603.2857142857142</ele><time>2026-03-25T09:53:46.196Z</time></trkpt><trkpt lat="44.1271133" lon="10.3047609"><ele>598.5714285714287</ele><time>2026-03-25T09:53:49.172Z</time></trkpt><trkpt lat="44.1270483" lon="10.3047577"><ele>593.8571428571429</ele><time>2026-03-25T09:53:53.183Z</time></trkpt><trkpt lat="44.1269941" lon="10.3047081"><ele>589.1428571428571</ele><time>2026-03-25T09:53:57.186Z</time></trkpt><trkpt lat="44.1269356" lon="10.3046185"><ele>584.4285714285713</ele><time>2026-03-25T09:54:01.179Z</time></trkpt><trkpt lat="44.126889" lon="10.3045524"><ele>579.7142857142857</ele><time>2026-03-25T09:54:04.184Z</time></trkpt><trkpt lat="44.1268471" lon="10.3044787"><ele>575.0</ele><time>2026-03-25T09:54:07.184Z</time></trkpt><trkpt lat="44.1267944" lon="10.3043991"><ele>575.0</ele><time>2026-03-25T09:54:10.176Z</time></trkpt><trkpt lat="44.1267441" lon="10.3043131"><ele>575.0</ele><time>2026-03-25T09:54:13.182Z</time></trkpt><trkpt lat="44.1266994" lon="10.3042295"><ele>575.0</ele><time>2026-03-25T09:54:16.171Z</time></trkpt><trkpt lat="44.1267587" lon="10.3042937"><ele>575.0</ele><time>2026-03-25T09:54:27.186Z</time></trkpt><trkpt lat="44.1268043" lon="10.3043722"><ele>575.0</ele><time>2026-03-25T09:54:31.186Z</time></trkpt><trkpt lat="44.126861" lon="10.304446"><ele>575.0</ele><time>2026-03-25T09:54:35.171Z</time></trkpt><trkpt lat="44.1269063" lon="10.3045083"><ele>575.0</ele><time>2026-03-25T09:54:38.182Z</time></trkpt><trkpt lat="44.1269663" lon="10.3045889"><ele>575.0</ele><time>2026-03-25T09:54:42.175Z</time></trkpt><trkpt lat="44.1270274" lon="10.3046619"><ele>575.0</ele><time>2026-03-25T09:54:46.193Z</time></trkpt><trkpt lat="44.1271007" lon="10.3046965"><ele>575.0</ele><time>2026-03-25T09:54:50.188Z</time></trkpt><trkpt lat="44.127182" lon="10.3046809"><ele>575.0</ele><time>2026-03-25T09:54:54.187Z</time></trkpt><trkpt lat="44.1272512" lon="10.304631"><ele>575.0</ele><time>2026-03-25T09:54:58.171Z</time></trkpt><trkpt lat="44.1273173" lon="10.3045699"><ele>575.0</ele><time>2026-03-25T09:55:02.17Z</time></trkpt><trkpt lat="44.1273822" lon="10.3045132"><ele>579.7142857142857</ele><time>2026-03-25T09:55:06.183Z</time></trkpt><trkpt lat="44.1274468" lon="10.3044552"><ele>584.4285714285713</ele><time>2026-03-25T09:55:10.179Z</time></trkpt><trkpt lat="44.1275121" lon="10.3044017"><ele>589.1428571428571</ele><time>2026-03-25T09:55:14.178Z</time></trkpt><trkpt lat="44.1275816" lon="10.304351"><ele>593.8571428571429</ele><time>2026-03-25T09:55:18.178Z</time></trkpt><trkpt lat="44.1276402" lon="10.304308"><ele>598.5714285714287</ele><time>2026-03-25T09:55:21.172Z</time></trkpt><trkpt lat="44.1277132" lon="10.304271"><ele>603.2857142857142</ele><time>2026-03-25T09:55:25.173Z</time></trkpt><trkpt lat="44.1277745" lon="10.3042489"><ele>608.0</ele><time>2026-03-25T09:55:28.184Z</time></trkpt><trkpt lat="44.1278424" lon="10.3042317"><ele>608.0</ele><time>2026-03-25T09:55:31.18Z</time></trkpt><trkpt lat="44.1279254" lon="10.3042459"><ele>608.0</ele><time>2026-03-25T09:55:35.18Z</time></trkpt><trkpt lat="44.1280071" lon="10.3042542"><ele>608.0</ele><time>2026-03-25T09:55:39.178Z</time></trkpt><trkpt lat="44.1280865" lon="10.3042614"><ele>608.0</ele><time>2026-03-25T09:55:43.179Z</time></trkpt><trkpt lat="44.1281644" lon="10.3042812"><ele>608.0</ele><time>2026-03-25T09:55:47.183Z</time></trkpt><trkpt lat="44.1282435" lon="10.304294"><ele>608.0</ele><time>2026-03-25T09:55:51.193Z</time></trkpt><trkpt lat="44.1283094" lon="10.3042882"><ele>608.8571428571428</ele><time>2026-03-25T09:55:54.181Z</time></trkpt><trkpt lat="44.1283764" lon="10.3042967"><ele>609.7142857142858</ele><time>2026-03-25T09:55:57.182Z</time></trkpt><trkpt lat="44.1284427" lon="10.3042954"><ele>610.5714285714286</ele><time>2026-03-25T09:56:00.207Z</time></trkpt><trkpt lat="44.1285245" lon="10.3043056"><ele>611.4285714285713</ele><time>2026-03-25T09:56:04.18Z</time></trkpt><trkpt lat="44.1285887" lon="10.3043099"><ele>612.2857142857142</ele><time>2026-03-25T09:56:08.195Z</time></trkpt><trkpt lat="44.1286626" lon="10.3042921"><ele>613.1428571428571</ele><time>2026-03-25T09:56:12.179Z</time></trkpt><trkpt lat="44.1287401" lon="10.3042736"><ele>614.0</ele><time>2026-03-25T09:56:16.174Z</time></trkpt><trkpt lat="44.1288085" lon="10.3042564"><ele>614.0</ele><time>2026-03-25T09:56:20.193Z</time></trkpt><trkpt lat="44.1288763" lon="10.3042392"><ele>614.0</ele><time>2026-03-25T09:56:24.188Z</time></trkpt><trkpt lat="44.1289612" lon="10.3042212"><ele>614.0</ele><time>2026-03-25T09:56:28.169Z</time></trkpt><trkpt lat="44.1290376" lon="10.3042107"><ele>614.0</ele><time>2026-03-25T09:56:31.185Z</time></trkpt><trkpt lat="44.1291222" lon="10.3042138"><ele>614.0</ele><time>2026-03-25T09:56:35.194Z</time></trkpt><trkpt lat="44.129189" lon="10.3042013"><ele>614.0</ele><time>2026-03-25T09:56:38.164Z</time></trkpt><trkpt lat="44.1292587" lon="10.3041804"><ele>615.7142857142857</ele><time>2026-03-25T09:56:41.165Z</time></trkpt><trkpt lat="44.1293203" lon="10.3041359"><ele>617.4285714285714</ele><time>2026-03-25T09:56:44.186Z</time></trkpt><trkpt lat="44.1293947" lon="10.3040925"><ele>619.1428571428571</ele><time>2026-03-25T09:56:48.169Z</time></trkpt><trkpt lat="44.1294575" lon="10.3041015"><ele>620.8571428571429</ele><time>2026-03-25T09:56:51.169Z</time></trkpt><trkpt lat="44.1295303" lon="10.3041514"><ele>622.5714285714286</ele><time>2026-03-25T09:56:55.184Z</time></trkpt><trkpt lat="44.1295694" lon="10.3042304"><ele>624.2857142857142</ele><time>2026-03-25T09:56:58.18Z</time></trkpt><trkpt lat="44.1295846" lon="10.3043399"><ele>626.0</ele><time>2026-03-25T09:57:02.19Z</time></trkpt><trkpt lat="44.1295764" lon="10.3044373"><ele>626.0</ele><time>2026-03-25T09:57:06.176Z</time></trkpt><trkpt lat="44.1295801" lon="10.3045382"><ele>626.0</ele><time>2026-03-25T09:57:10.176Z</time></trkpt><trkpt lat="44.1296147" lon="10.3046446"><ele>626.0</ele><time>2026-03-25T09:57:14.179Z</time></trkpt><trkpt lat="44.1296444" lon="10.3047443"><ele>626.0</ele><time>2026-03-25T09:57:18.17Z</time></trkpt><trkpt lat="44.1296779" lon="10.3048351"><ele>626.0</ele><time>2026-03-25T09:57:22.182Z</time></trkpt><trkpt lat="44.1297063" lon="10.3049317"><ele>626.0</ele><time>2026-03-25T09:57:26.176Z</time></trkpt><trkpt lat="44.1297477" lon="10.3050288"><ele>624.1428571428571</ele><time>2026-03-25T09:57:30.181Z</time></trkpt><trkpt lat="44.1297798" lon="10.3051092"><ele>622.2857142857143</ele><time>2026-03-25T09:57:33.178Z</time></trkpt><trkpt lat="44.1298382" lon="10.3051826"><ele>620.4285714285714</ele><time>2026-03-25T09:57:37.179Z</time></trkpt><trkpt lat="44.129913" lon="10.3052252"><ele>618.5714285714286</ele><time>2026-03-25T09:57:41.181Z</time></trkpt><trkpt lat="44.1299877" lon="10.3052303"><ele>616.7142857142857</ele><time>2026-03-25T09:57:45.184Z</time></trkpt><trkpt lat="44.1300594" lon="10.3052101"><ele>614.8571428571429</ele><time>2026-03-25T09:57:49.17Z</time></trkpt><trkpt lat="44.1301284" lon="10.3052004"><ele>613.0</ele><time>2026-03-25T09:57:53.182Z</time></trkpt><trkpt lat="44.1301994" lon="10.305225"><ele>613.0</ele><time>2026-03-25T09:57:58.197Z</time></trkpt><trkpt lat="44.1302701" lon="10.3052473"><ele>613.0</ele><time>2026-03-25T09:58:02.193Z</time></trkpt><trkpt lat="44.1303472" lon="10.3052759"><ele>613.0</ele><time>2026-03-25T09:58:06.194Z</time></trkpt><trkpt lat="44.1304215" lon="10.3053196"><ele>613.0</ele><time>2026-03-25T09:58:10.183Z</time></trkpt><trkpt lat="44.1304936" lon="10.3053583"><ele>613.0</ele><time>2026-03-25T09:58:14.178Z</time></trkpt><trkpt lat="44.1305594" lon="10.3053776"><ele>613.0</ele><time>2026-03-25T09:58:17.174Z</time></trkpt><trkpt lat="44.1306157" lon="10.3054293"><ele>613.0</ele><time>2026-03-25T09:58:20.202Z</time></trkpt><trkpt lat="44.1306723" lon="10.3054977"><ele>614.7142857142858</ele><time>2026-03-25T09:58:23.174Z</time></trkpt><trkpt lat="44.1307154" lon="10.3055843"><ele>616.4285714285714</ele><time>2026-03-25T09:58:26.178Z</time></trkpt><trkpt lat="44.1307582" lon="10.3056575"><ele>618.1428571428571</ele><time>2026-03-25T09:58:29.203Z</time></trkpt><trkpt lat="44.1308131" lon="10.3057441"><ele>619.8571428571429</ele><time>2026-03-25T09:58:33.191Z</time></trkpt><trkpt lat="44.1308613" lon="10.3058368"><ele>621.5714285714286</ele><time>2026-03-25T09:58:37.177Z</time></trkpt><trkpt lat="44.1309049" lon="10.3059038"><ele>623.2857142857143</ele><time>2026-03-25T09:58:40.18Z</time></trkpt><trkpt lat="44.1309566" lon="10.305958"><ele>625.0</ele><time>2026-03-25T09:58:43.187Z</time></trkpt><trkpt lat="44.1310358" lon="10.3059875"><ele>625.0000000000001</ele><time>2026-03-25T09:58:47.188Z</time></trkpt><trkpt lat="44.1311145" lon="10.3059571"><ele>625.0</ele><time>2026-03-25T09:58:51.2Z</time></trkpt><trkpt lat="44.1311692" lon="10.3059037"><ele>625.0</ele><time>2026-03-25T09:58:54.18Z</time></trkpt><trkpt lat="44.1312248" lon="10.3058473"><ele>625.0</ele><time>2026-03-25T09:58:57.187Z</time></trkpt><trkpt lat="44.1312781" lon="10.3057899"><ele>625.0</ele><time>2026-03-25T09:59:00.179Z</time></trkpt><trkpt lat="44.1313223" lon="10.3057226"><ele>625.0000000000001</ele><time>2026-03-25T09:59:03.179Z</time></trkpt><trkpt lat="44.1313885" lon="10.3056522"><ele>625.0</ele><time>2026-03-25T09:59:07.196Z</time></trkpt><trkpt lat="44.1314604" lon="10.3055975"><ele>631.6666666666667</ele><time>2026-03-25T09:59:11.169Z</time></trkpt><trkpt lat="44.1315341" lon="10.3055457"><ele>638.3333333333334</ele><time>2026-03-25T09:59:15.189Z</time></trkpt><trkpt lat="44.1316046" lon="10.3054925"><ele>645.0</ele><time>2026-03-25T09:59:19.176Z</time></trkpt><trkpt lat="44.1316768" lon="10.3054329"><ele>651.6666666666666</ele><time>2026-03-25T09:59:23.173Z</time></trkpt><trkpt lat="44.1317307" lon="10.3053816"><ele>658.3333333333333</ele><time>2026-03-25T09:59:26.189Z</time></trkpt><trkpt lat="44.1317908" lon="10.305306"><ele>665.0</ele><time>2026-03-25T09:59:30.193Z</time></trkpt><trkpt lat="44.1318313" lon="10.305228"><ele>665.1428571428571</ele><time>2026-03-25T09:59:33.182Z</time></trkpt><trkpt lat="44.1318689" lon="10.3051567"><ele>665.2857142857142</ele><time>2026-03-25T09:59:36.182Z</time></trkpt><trkpt lat="44.1319084" lon="10.305087"><ele>665.4285714285714</ele><time>2026-03-25T09:59:39.186Z</time></trkpt><trkpt lat="44.1319381" lon="10.305008"><ele>665.5714285714286</ele><time>2026-03-25T09:59:42.174Z</time></trkpt><trkpt lat="44.131973" lon="10.304931"><ele>665.7142857142857</ele><time>2026-03-25T09:59:45.171Z</time></trkpt><trkpt lat="44.1320139" lon="10.3048596"><ele>665.8571428571429</ele><time>2026-03-25T09:59:48.186Z</time></trkpt><trkpt lat="44.1320391" lon="10.304753"><ele>666.0</ele><time>2026-03-25T09:59:52.173Z</time></trkpt><trkpt lat="44.1320401" lon="10.3046606"><ele>669.6666666666666</ele><time>2026-03-25T09:59:55.182Z</time></trkpt><trkpt lat="44.1320463" lon="10.3045527"><ele>673.3333333333334</ele><time>2026-03-25T09:59:59.173Z</time></trkpt><trkpt lat="44.1320415" lon="10.3044536"><ele>677.0</ele><time>2026-03-25T10:00:03.178Z</time></trkpt><trkpt lat="44.1320468" lon="10.304348"><ele>680.6666666666667</ele><time>2026-03-25T10:00:07.168Z</time></trkpt><trkpt lat="44.1320767" lon="10.3042555"><ele>684.3333333333334</ele><time>2026-03-25T10:00:11.177Z</time></trkpt><trkpt lat="44.132137" lon="10.3041915"><ele>688.0</ele><time>2026-03-25T10:00:14.173Z</time></trkpt><trkpt lat="44.1322048" lon="10.304138"><ele>688.0000000000001</ele><time>2026-03-25T10:00:18.167Z</time></trkpt><trkpt lat="44.1322672" lon="10.3040806"><ele>688.0</ele><time>2026-03-25T10:00:22.172Z</time></trkpt><trkpt lat="44.1323382" lon="10.3040355"><ele>688.0</ele><time>2026-03-25T10:00:25.174Z</time></trkpt><trkpt lat="44.132407" lon="10.3039856"><ele>688.0</ele><time>2026-03-25T10:00:29.185Z</time></trkpt><trkpt lat="44.1324625" lon="10.3039389"><ele>688.0</ele><time>2026-03-25T10:00:32.185Z</time></trkpt><trkpt lat="44.1325182" lon="10.3038801"><ele>688.0000000000001</ele><time>2026-03-25T10:00:35.176Z</time></trkpt><trkpt lat="44.1325582" lon="10.3038037"><ele>688.0</ele><time>2026-03-25T10:00:38.176Z</time></trkpt><trkpt lat="44.1325816" lon="10.3037147"><ele>688.8571428571429</ele><time>2026-03-25T10:00:41.177Z</time></trkpt><trkpt lat="44.1325904" lon="10.3036224"><ele>689.7142857142858</ele><time>2026-03-25T10:00:44.178Z</time></trkpt><trkpt lat="44.1325911" lon="10.3035293"><ele>690.5714285714287</ele><time>2026-03-25T10:00:47.198Z</time></trkpt><trkpt lat="44.1325862" lon="10.3034301"><ele>691.4285714285714</ele><time>2026-03-25T10:00:50.198Z</time></trkpt><trkpt lat="44.1325848" lon="10.3033363"><ele>692.2857142857142</ele><time>2026-03-25T10:00:53.186Z</time></trkpt><trkpt lat="44.132583" lon="10.3032486"><ele>693.1428571428572</ele><time>2026-03-25T10:00:56.189Z</time></trkpt><trkpt lat="44.1325839" lon="10.3031293"><ele>694.0</ele><time>2026-03-25T10:01:00.169Z</time></trkpt><trkpt lat="44.1325895" lon="10.3030359"><ele>694.0</ele><time>2026-03-25T10:01:03.177Z</time></trkpt><trkpt lat="44.1325957" lon="10.3029382"><ele>694.0</ele><time>2026-03-25T10:01:06.182Z</time></trkpt><trkpt lat="44.1326109" lon="10.3028337"><ele>694.0</ele><time>2026-03-25T10:01:09.174Z</time></trkpt><trkpt lat="44.1326613" lon="10.3027555"><ele>694.0</ele><time>2026-03-25T10:01:12.179Z</time></trkpt><trkpt lat="44.1327232" lon="10.3027358"><ele>694.0</ele><time>2026-03-25T10:01:15.194Z</time></trkpt><trkpt lat="44.1328039" lon="10.3027416"><ele>694.0</ele><time>2026-03-25T10:01:19.169Z</time></trkpt><trkpt lat="44.1328808" lon="10.3027472"><ele>694.0</ele><time>2026-03-25T10:01:23.187Z</time></trkpt><trkpt lat="44.1329461" lon="10.3027467"><ele>694.0</ele><time>2026-03-25T10:01:26.197Z</time></trkpt><trkpt lat="44.1330096" lon="10.3027391"><ele>694.0</ele><time>2026-03-25T10:01:29.17Z</time></trkpt><trkpt lat="44.1330883" lon="10.3027094"><ele>694.0</ele><time>2026-03-25T10:01:33.182Z</time></trkpt><trkpt lat="44.1331494" lon="10.302676"><ele>694.0</ele><time>2026-03-25T10:01:36.189Z</time></trkpt><trkpt lat="44.1332071" lon="10.3026346"><ele>694.0</ele><time>2026-03-25T10:01:39.18Z</time></trkpt><trkpt lat="44.1332581" lon="10.3025707"><ele>694.0</ele><time>2026-03-25T10:01:42.172Z</time></trkpt><trkpt lat="44.133294" lon="10.3024929"><ele>694.0</ele><time>2026-03-25T10:01:45.169Z</time></trkpt><trkpt lat="44.1333165" lon="10.3024082"><ele>692.1428571428572</ele><time>2026-03-25T10:01:48.172Z</time></trkpt><trkpt lat="44.1333203" lon="10.3023154"><ele>690.2857142857142</ele><time>2026-03-25T10:01:51.176Z</time></trkpt><trkpt lat="44.1333142" lon="10.3022281"><ele>688.4285714285714</ele><time>2026-03-25T10:01:54.19Z</time></trkpt><trkpt lat="44.1332831" lon="10.3021224"><ele>686.5714285714287</ele><time>2026-03-25T10:01:58.185Z</time></trkpt><trkpt lat="44.1332602" lon="10.3020185"><ele>684.7142857142858</ele><time>2026-03-25T10:02:02.219Z</time></trkpt><trkpt lat="44.1332362" lon="10.3019141"><ele>682.8571428571429</ele><time>2026-03-25T10:02:06.192Z</time></trkpt><trkpt lat="44.1332248" lon="10.3018185"><ele>681.0</ele><time>2026-03-25T10:02:10.171Z</time></trkpt><trkpt lat="44.1332329" lon="10.3017282"><ele>681.0000000000001</ele><time>2026-03-25T10:02:13.179Z</time></trkpt><trkpt lat="44.1332521" lon="10.301638"><ele>681.0</ele><time>2026-03-25T10:02:16.176Z</time></trkpt><trkpt lat="44.1332706" lon="10.3015456"><ele>681.0</ele><time>2026-03-25T10:02:19.178Z</time></trkpt><trkpt lat="44.1332877" lon="10.30146"><ele>681.0</ele><time>2026-03-25T10:02:22.185Z</time></trkpt><trkpt lat="44.133316" lon="10.301374"><ele>681.0</ele><time>2026-03-25T10:02:25.172Z</time></trkpt><trkpt lat="44.133349" lon="10.3012898"><ele>681.0000000000001</ele><time>2026-03-25T10:02:28.173Z</time></trkpt><trkpt lat="44.1333858" lon="10.3012103"><ele>681.0</ele><time>2026-03-25T10:02:31.171Z</time></trkpt><trkpt lat="44.1334269" lon="10.3011397"><ele>683.1428571428572</ele><time>2026-03-25T10:02:34.177Z</time></trkpt><trkpt lat="44.1334635" lon="10.3010526"><ele>685.2857142857143</ele><time>2026-03-25T10:02:38.173Z</time></trkpt><trkpt lat="44.1335016" lon="10.3009586"><ele>687.4285714285714</ele><time>2026-03-25T10:02:42.194Z</time></trkpt><trkpt lat="44.1335273" lon="10.3008683"><ele>689.5714285714287</ele><time>2026-03-25T10:02:45.181Z</time></trkpt><trkpt lat="44.1335265" lon="10.3007641"><ele>691.7142857142858</ele><time>2026-03-25T10:02:48.181Z</time></trkpt><trkpt lat="44.1335191" lon="10.3006683"><ele>693.8571428571429</ele><time>2026-03-25T10:02:51.173Z</time></trkpt><trkpt lat="44.1335036" lon="10.3005759"><ele>696.0</ele><time>2026-03-25T10:02:54.183Z</time></trkpt><trkpt lat="44.1334913" lon="10.3004613"><ele>698.0</ele><time>2026-03-25T10:02:58.204Z</time></trkpt><trkpt lat="44.1334893" lon="10.3003703"><ele>700.0</ele><time>2026-03-25T10:03:01.188Z</time></trkpt><trkpt lat="44.1334894" lon="10.3002529"><ele>702.0</ele><time>2026-03-25T10:03:05.188Z</time></trkpt><trkpt lat="44.1335023" lon="10.3001608"><ele>704.0</ele><time>2026-03-25T10:03:08.175Z</time></trkpt><trkpt lat="44.1335325" lon="10.3000678"><ele>706.0</ele><time>2026-03-25T10:03:11.191Z</time></trkpt><trkpt lat="44.1335782" lon="10.3000061"><ele>708.0</ele><time>2026-03-25T10:03:14.18Z</time></trkpt><trkpt lat="44.1336521" lon="10.2999712"><ele>710.0</ele><time>2026-03-25T10:03:18.177Z</time></trkpt><trkpt lat="44.133734" lon="10.2999432"><ele>710.0</ele><time>2026-03-25T10:03:22.181Z</time></trkpt><trkpt lat="44.1337947" lon="10.2999189"><ele>710.0</ele><time>2026-03-25T10:03:25.186Z</time></trkpt><trkpt lat="44.1338536" lon="10.2998753"><ele>710.0</ele><time>2026-03-25T10:03:28.174Z</time></trkpt><trkpt lat="44.1338962" lon="10.2998042"><ele>710.0</ele><time>2026-03-25T10:03:31.183Z</time></trkpt><trkpt lat="44.1339191" lon="10.2996954"><ele>710.0</ele><time>2026-03-25T10:03:35.192Z</time></trkpt><trkpt lat="44.1339026" lon="10.2995869"><ele>710.0</ele><time>2026-03-25T10:03:39.177Z</time></trkpt><trkpt lat="44.1338808" lon="10.2994937"><ele>710.0</ele><time>2026-03-25T10:03:42.193Z</time></trkpt><trkpt lat="44.133854" lon="10.2994006"><ele>711.8571428571429</ele><time>2026-03-25T10:03:45.178Z</time></trkpt><trkpt lat="44.1338575" lon="10.2992828"><ele>713.7142857142858</ele><time>2026-03-25T10:03:49.182Z</time></trkpt><trkpt lat="44.1338524" lon="10.2991925"><ele>715.5714285714287</ele><time>2026-03-25T10:03:52.172Z</time></trkpt><trkpt lat="44.1338533" lon="10.2990988"><ele>717.4285714285714</ele><time>2026-03-25T10:03:55.17Z</time></trkpt><trkpt lat="44.1338731" lon="10.2990154"><ele>719.2857142857143</ele><time>2026-03-25T10:03:58.182Z</time></trkpt><trkpt lat="44.1339148" lon="10.2989361"><ele>721.1428571428572</ele><time>2026-03-25T10:04:01.201Z</time></trkpt><trkpt lat="44.133973" lon="10.2988607"><ele>723.0</ele><time>2026-03-25T10:04:05.175Z</time></trkpt><trkpt lat="44.1340148" lon="10.2987635"><ele>721.3333333333334</ele><time>2026-03-25T10:04:09.192Z</time></trkpt><trkpt lat="44.1340594" lon="10.298674"><ele>719.6666666666666</ele><time>2026-03-25T10:04:13.179Z</time></trkpt><trkpt lat="44.1341036" lon="10.2985794"><ele>718.0</ele><time>2026-03-25T10:04:17.18Z</time></trkpt><trkpt lat="44.1341545" lon="10.2985111"><ele>716.3333333333333</ele><time>2026-03-25T10:04:21.2Z</time></trkpt><trkpt lat="44.1342177" lon="10.2984628"><ele>714.6666666666666</ele><time>2026-03-25T10:04:25.175Z</time></trkpt><trkpt lat="44.1342813" lon="10.2984259"><ele>713.0</ele><time>2026-03-25T10:04:29.192Z</time></trkpt><trkpt lat="44.1343516" lon="10.2983761"><ele>713.0</ele><time>2026-03-25T10:04:33.178Z</time></trkpt><trkpt lat="44.1344054" lon="10.2983207"><ele>713.0</ele><time>2026-03-25T10:04:36.184Z</time></trkpt><trkpt lat="44.1344523" lon="10.2982613"><ele>713.0</ele><time>2026-03-25T10:04:39.187Z</time></trkpt><trkpt lat="44.1345005" lon="10.2981662"><ele>713.0</ele><time>2026-03-25T10:04:43.181Z</time></trkpt><trkpt lat="44.1345584" lon="10.2980945"><ele>713.0</ele><time>2026-03-25T10:04:47.191Z</time></trkpt><trkpt lat="44.1346212" lon="10.2980335"><ele>713.0</ele><time>2026-03-25T10:04:51.185Z</time></trkpt><trkpt lat="44.1346955" lon="10.2980111"><ele>713.0</ele><time>2026-03-25T10:04:55.184Z</time></trkpt><trkpt lat="44.1347784" lon="10.2980037"><ele>716.6666666666666</ele><time>2026-03-25T10:04:59.181Z</time></trkpt><trkpt lat="44.1348548" lon="10.2980084"><ele>720.3333333333333</ele><time>2026-03-25T10:05:03.181Z</time></trkpt><trkpt lat="44.1349344" lon="10.297981"><ele>724.0</ele><time>2026-03-25T10:05:07.187Z</time></trkpt><trkpt lat="44.1350104" lon="10.2979389"><ele>727.6666666666666</ele><time>2026-03-25T10:05:11.187Z</time></trkpt><trkpt lat="44.1350774" lon="10.2978745"><ele>731.3333333333334</ele><time>2026-03-25T10:05:15.199Z</time></trkpt><trkpt lat="44.1351342" lon="10.2978208"><ele>735.0</ele><time>2026-03-25T10:05:18.177Z</time></trkpt><trkpt lat="44.1351963" lon="10.2977818"><ele>735.0</ele><time>2026-03-25T10:05:21.183Z</time></trkpt><trkpt lat="44.1352735" lon="10.2977551"><ele>735.0</ele><time>2026-03-25T10:05:25.171Z</time></trkpt><trkpt lat="44.1353439" lon="10.2976903"><ele>735.0</ele><time>2026-03-25T10:05:29.193Z</time></trkpt><trkpt lat="44.1353942" lon="10.2976321"><ele>735.0</ele><time>2026-03-25T10:05:32.17Z</time></trkpt><trkpt lat="44.135454" lon="10.2975595"><ele>735.0</ele><time>2026-03-25T10:05:35.186Z</time></trkpt><trkpt lat="44.1354958" lon="10.2974868"><ele>735.0</ele><time>2026-03-25T10:05:38.191Z</time></trkpt><trkpt lat="44.1355362" lon="10.2974151"><ele>735.0</ele><time>2026-03-25T10:05:41.17Z</time></trkpt><trkpt lat="44.1355848" lon="10.2973317"><ele>735.7142857142857</ele><time>2026-03-25T10:05:45.203Z</time></trkpt><trkpt lat="44.1356105" lon="10.2972505"><ele>736.4285714285714</ele><time>2026-03-25T10:05:48.172Z</time></trkpt><trkpt lat="44.135655" lon="10.2971705"><ele>737.1428571428571</ele><time>2026-03-25T10:05:51.174Z</time></trkpt><trkpt lat="44.1356909" lon="10.2970862"><ele>737.8571428571429</ele><time>2026-03-25T10:05:54.172Z</time></trkpt><trkpt lat="44.1357192" lon="10.2970072"><ele>738.5714285714286</ele><time>2026-03-25T10:05:57.178Z</time></trkpt><trkpt lat="44.1357477" lon="10.2969194"><ele>739.2857142857142</ele><time>2026-03-25T10:06:00.168Z</time></trkpt><trkpt lat="44.1357726" lon="10.296825"><ele>740.0</ele><time>2026-03-25T10:06:03.183Z</time></trkpt><trkpt lat="44.1358028" lon="10.2967448"><ele>739.9999999999999</ele><time>2026-03-25T10:06:06.186Z</time></trkpt><trkpt lat="44.1358289" lon="10.2966628"><ele>740.0</ele><time>2026-03-25T10:06:09.181Z</time></trkpt><trkpt lat="44.1358588" lon="10.2965809"><ele>740.0</ele><time>2026-03-25T10:06:12.184Z</time></trkpt><trkpt lat="44.1359152" lon="10.2965153"><ele>740.0</ele><time>2026-03-25T10:06:15.179Z</time></trkpt><trkpt lat="44.1359798" lon="10.2965048"><ele>740.0</ele><time>2026-03-25T10:06:18.178Z</time></trkpt><trkpt lat="44.1360431" lon="10.296535"><ele>739.9999999999999</ele><time>2026-03-25T10:06:21.179Z</time></trkpt><trkpt lat="44.1360907" lon="10.2965931"><ele>740.0</ele><time>2026-03-25T10:06:24.181Z</time></trkpt><trkpt lat="44.136146" lon="10.2966731"><ele>739.9999999999999</ele><time>2026-03-25T10:06:28.191Z</time></trkpt><trkpt lat="44.136204" lon="10.2967517"><ele>740.0</ele><time>2026-03-25T10:06:32.185Z</time></trkpt><trkpt lat="44.136248" lon="10.2968178"><ele>740.0</ele><time>2026-03-25T10:06:35.196Z</time></trkpt><trkpt lat="44.1363125" lon="10.2968803"><ele>740.0</ele><time>2026-03-25T10:06:39.181Z</time></trkpt><trkpt lat="44.136383" lon="10.296948"><ele>740.0</ele><time>2026-03-25T10:06:43.186Z</time></trkpt><trkpt lat="44.136436" lon="10.296997"><ele>739.9999999999999</ele><time>2026-03-25T10:06:46.186Z</time></trkpt><trkpt lat="44.1365035" lon="10.2970231"><ele>740.0</ele><time>2026-03-25T10:06:49.181Z</time></trkpt><trkpt lat="44.1365684" lon="10.2970407"><ele>740.7142857142857</ele><time>2026-03-25T10:06:52.188Z</time></trkpt><trkpt lat="44.1366503" lon="10.2970531"><ele>741.4285714285714</ele><time>2026-03-25T10:06:56.178Z</time></trkpt><trkpt lat="44.1367246" lon="10.2970558"><ele>742.1428571428571</ele><time>2026-03-25T10:06:59.196Z</time></trkpt><trkpt lat="44.1367882" lon="10.2970702"><ele>742.8571428571429</ele><time>2026-03-25T10:07:02.176Z</time></trkpt><trkpt lat="44.1368527" lon="10.2970807"><ele>743.5714285714286</ele><time>2026-03-25T10:07:05.181Z</time></trkpt><trkpt lat="44.1369226" lon="10.2971093"><ele>744.2857142857142</ele><time>2026-03-25T10:07:08.178Z</time></trkpt><trkpt lat="44.136985" lon="10.2971606"><ele>745.0</ele><time>2026-03-25T10:07:11.173Z</time></trkpt><trkpt lat="44.1370337" lon="10.2972399"><ele>740.4285714285714</ele><time>2026-03-25T10:07:14.172Z</time></trkpt><trkpt lat="44.1370797" lon="10.2973085"><ele>735.8571428571429</ele><time>2026-03-25T10:07:17.18Z</time></trkpt><trkpt lat="44.1371389" lon="10.297389"><ele>731.2857142857142</ele><time>2026-03-25T10:07:21.182Z</time></trkpt><trkpt lat="44.1371891" lon="10.2974477"><ele>726.7142857142858</ele><time>2026-03-25T10:07:24.202Z</time></trkpt><trkpt lat="44.1372315" lon="10.2975196"><ele>722.1428571428572</ele><time>2026-03-25T10:07:27.181Z</time></trkpt><trkpt lat="44.1372742" lon="10.2975897"><ele>717.5714285714286</ele><time>2026-03-25T10:07:30.208Z</time></trkpt><trkpt lat="44.1373296" lon="10.2976769"><ele>713.0</ele><time>2026-03-25T10:07:34.181Z</time></trkpt><trkpt lat="44.1373735" lon="10.2977454"><ele>714.2857142857142</ele><time>2026-03-25T10:07:37.18Z</time></trkpt><trkpt lat="44.137418" lon="10.2978147"><ele>715.5714285714287</ele><time>2026-03-25T10:07:40.179Z</time></trkpt><trkpt lat="44.1374599" lon="10.2978856"><ele>716.8571428571429</ele><time>2026-03-25T10:07:43.167Z</time></trkpt><trkpt lat="44.1375035" lon="10.2979564"><ele>718.1428571428571</ele><time>2026-03-25T10:07:46.177Z</time></trkpt><trkpt lat="44.1375523" lon="10.2980254"><ele>719.4285714285713</ele><time>2026-03-25T10:07:49.182Z</time></trkpt><trkpt lat="44.1375996" lon="10.2980961"><ele>720.7142857142858</ele><time>2026-03-25T10:07:52.172Z</time></trkpt><trkpt lat="44.1376531" lon="10.2981522"><ele>722.0</ele><time>2026-03-25T10:07:55.205Z</time></trkpt><trkpt lat="44.1377193" lon="10.2981796"><ele>722.0</ele><time>2026-03-25T10:07:58.186Z</time></trkpt><trkpt lat="44.1377871" lon="10.2981937"><ele>722.0</ele><time>2026-03-25T10:08:01.177Z</time></trkpt><trkpt lat="44.1378508" lon="10.2982132"><ele>722.0</ele><time>2026-03-25T10:08:04.17Z</time></trkpt><trkpt lat="44.1379156" lon="10.2982245"><ele>722.0</ele><time>2026-03-25T10:08:07.192Z</time></trkpt><trkpt lat="44.1379809" lon="10.2982424"><ele>722.0</ele><time>2026-03-25T10:08:10.182Z</time></trkpt><trkpt lat="44.1380483" lon="10.2982795"><ele>722.0</ele><time>2026-03-25T10:08:14.205Z</time></trkpt><trkpt lat="44.1380932" lon="10.2983448"><ele>722.0</ele><time>2026-03-25T10:08:17.187Z</time></trkpt><trkpt lat="44.1381356" lon="10.2984136"><ele>722.0</ele><time>2026-03-25T10:08:20.183Z</time></trkpt><trkpt lat="44.1381868" lon="10.2985002"><ele>722.0</ele><time>2026-03-25T10:08:24.176Z</time></trkpt><trkpt lat="44.1382303" lon="10.298596"><ele>722.0</ele><time>2026-03-25T10:08:28.182Z</time></trkpt><trkpt lat="44.1382643" lon="10.2986732"><ele>722.0</ele><time>2026-03-25T10:08:31.169Z</time></trkpt><trkpt lat="44.1383002" lon="10.2987453"><ele>722.0</ele><time>2026-03-25T10:08:34.171Z</time></trkpt><trkpt lat="44.1383533" lon="10.2988344"><ele>722.0</ele><time>2026-03-25T10:08:38.182Z</time></trkpt><trkpt lat="44.1384056" lon="10.2989242"><ele>725.2857142857143</ele><time>2026-03-25T10:08:42.183Z</time></trkpt><trkpt lat="44.1384599" lon="10.2990062"><ele>728.5714285714286</ele><time>2026-03-25T10:08:46.182Z</time></trkpt><trkpt lat="44.1385037" lon="10.2990712"><ele>731.8571428571429</ele><time>2026-03-25T10:08:49.186Z</time></trkpt><trkpt lat="44.1385722" lon="10.2991315"><ele>735.1428571428571</ele><time>2026-03-25T10:08:53.185Z</time></trkpt><trkpt lat="44.1386516" lon="10.2991745"><ele>738.4285714285713</ele><time>2026-03-25T10:08:57.185Z</time></trkpt><trkpt lat="44.1387155" lon="10.2992116"><ele>741.7142857142857</ele><time>2026-03-25T10:09:00.184Z</time></trkpt><trkpt lat="44.138775" lon="10.2992492"><ele>745.0</ele><time>2026-03-25T10:09:03.181Z</time></trkpt><trkpt lat="44.1388511" lon="10.2992972"><ele>745.0</ele><time>2026-03-25T10:09:07.182Z</time></trkpt><trkpt lat="44.1389057" lon="10.2993518"><ele>745.0</ele><time>2026-03-25T10:09:10.186Z</time></trkpt><trkpt lat="44.1389464" lon="10.2994262"><ele>745.0</ele><time>2026-03-25T10:09:13.189Z</time></trkpt><trkpt lat="44.1389751" lon="10.2995281"><ele>745.0</ele><time>2026-03-25T10:09:17.18Z</time></trkpt><trkpt lat="44.1389717" lon="10.2996407"><ele>745.0</ele><time>2026-03-25T10:09:21.181Z</time></trkpt><trkpt lat="44.1389425" lon="10.2997418"><ele>745.0</ele><time>2026-03-25T10:09:25.182Z</time></trkpt><trkpt lat="44.1389009" lon="10.2998418"><ele>745.7142857142857</ele><time>2026-03-25T10:09:29.177Z</time></trkpt><trkpt lat="44.1388601" lon="10.2999128"><ele>746.4285714285713</ele><time>2026-03-25T10:09:32.184Z</time></trkpt><trkpt lat="44.138823" lon="10.2999849"><ele>747.1428571428571</ele><time>2026-03-25T10:09:35.169Z</time></trkpt><trkpt lat="44.1387837" lon="10.3000645"><ele>747.8571428571429</ele><time>2026-03-25T10:09:38.193Z</time></trkpt><trkpt lat="44.1387534" lon="10.3001461"><ele>748.5714285714286</ele><time>2026-03-25T10:09:41.175Z</time></trkpt><trkpt lat="44.1387246" lon="10.3002469"><ele>749.2857142857143</ele><time>2026-03-25T10:09:45.174Z</time></trkpt><trkpt lat="44.1386949" lon="10.300352"><ele>750.0</ele><time>2026-03-25T10:09:49.191Z</time></trkpt><trkpt lat="44.1386573" lon="10.3004545"><ele>750.0</ele><time>2026-03-25T10:09:53.184Z</time></trkpt><trkpt lat="44.1386457" lon="10.3005426"><ele>750.0</ele><time>2026-03-25T10:09:56.169Z</time></trkpt><trkpt lat="44.1386366" lon="10.3006397"><ele>750.0</ele><time>2026-03-25T10:10:00.182Z</time></trkpt><trkpt lat="44.138658" lon="10.3007532"><ele>750.0</ele><time>2026-03-25T10:10:04.171Z</time></trkpt><trkpt lat="44.1386706" lon="10.300847"><ele>750.0</ele><time>2026-03-25T10:10:07.179Z</time></trkpt><trkpt lat="44.1386812" lon="10.3009355"><ele>750.0</ele><time>2026-03-25T10:10:10.186Z</time></trkpt><trkpt lat="44.1386908" lon="10.3010431"><ele>750.0</ele><time>2026-03-25T10:10:14.177Z</time></trkpt><trkpt lat="44.1387013" lon="10.3011566"><ele>751.2857142857143</ele><time>2026-03-25T10:10:18.173Z</time></trkpt><trkpt lat="44.1387236" lon="10.3012431"><ele>752.5714285714286</ele><time>2026-03-25T10:10:21.198Z</time></trkpt><trkpt lat="44.138749" lon="10.3013251"><ele>753.8571428571429</ele><time>2026-03-25T10:10:24.179Z</time></trkpt><trkpt lat="44.1387705" lon="10.301438"><ele>755.1428571428571</ele><time>2026-03-25T10:10:28.182Z</time></trkpt><trkpt lat="44.1387874" lon="10.3015237"><ele>756.4285714285713</ele><time>2026-03-25T10:10:31.177Z</time></trkpt><trkpt lat="44.1388071" lon="10.3016349"><ele>757.7142857142857</ele><time>2026-03-25T10:10:35.171Z</time></trkpt><trkpt lat="44.1388235" lon="10.3017221"><ele>759.0</ele><time>2026-03-25T10:10:38.181Z</time></trkpt><trkpt lat="44.1388342" lon="10.3018098"><ele>759.5714285714286</ele><time>2026-03-25T10:10:41.194Z</time></trkpt><trkpt lat="44.1388496" lon="10.301897"><ele>760.1428571428571</ele><time>2026-03-25T10:10:44.169Z</time></trkpt><trkpt lat="44.1388678" lon="10.3019812"><ele>760.7142857142858</ele><time>2026-03-25T10:10:47.183Z</time></trkpt><trkpt lat="44.1388776" lon="10.3020963"><ele>761.2857142857142</ele><time>2026-03-25T10:10:51.186Z</time></trkpt><trkpt lat="44.1388989" lon="10.302208"><ele>761.8571428571429</ele><time>2026-03-25T10:10:55.178Z</time></trkpt><trkpt lat="44.138917" lon="10.3022921"><ele>762.4285714285714</ele><time>2026-03-25T10:10:58.187Z</time></trkpt><trkpt lat="44.1389349" lon="10.3023787"><ele>763.0</ele><time>2026-03-25T10:11:01.181Z</time></trkpt><trkpt lat="44.1389481" lon="10.3024659"><ele>763.0</ele><time>2026-03-25T10:11:04.179Z</time></trkpt><trkpt lat="44.1389653" lon="10.3025526"><ele>763.0</ele><time>2026-03-25T10:11:07.175Z</time></trkpt><trkpt lat="44.1389811" lon="10.3026402"><ele>763.0</ele><time>2026-03-25T10:11:10.187Z</time></trkpt><trkpt lat="44.138998" lon="10.3027507"><ele>763.0</ele><time>2026-03-25T10:11:14.18Z</time></trkpt><trkpt lat="44.1390193" lon="10.3028633"><ele>763.0</ele><time>2026-03-25T10:11:18.198Z</time></trkpt><trkpt lat="44.1390463" lon="10.3029473"><ele>763.0</ele><time>2026-03-25T10:11:21.169Z</time></trkpt><trkpt lat="44.1390818" lon="10.3030255"><ele>763.0</ele><time>2026-03-25T10:11:24.193Z</time></trkpt><trkpt lat="44.1391401" lon="10.3030757"><ele>764.1666666666667</ele><time>2026-03-25T10:11:27.189Z</time></trkpt><trkpt lat="44.1392088" lon="10.3031048"><ele>765.3333333333334</ele><time>2026-03-25T10:11:31.182Z</time></trkpt><trkpt lat="44.1392822" lon="10.3030927"><ele>766.5</ele><time>2026-03-25T10:11:34.18Z</time></trkpt><trkpt lat="44.1393581" lon="10.3030553"><ele>767.6666666666667</ele><time>2026-03-25T10:11:38.18Z</time></trkpt><trkpt lat="44.139425" lon="10.3030171"><ele>768.8333333333334</ele><time>2026-03-25T10:11:41.174Z</time></trkpt><trkpt lat="44.1395075" lon="10.3029929"><ele>770.0</ele><time>2026-03-25T10:11:45.19Z</time></trkpt><trkpt lat="44.1395859" lon="10.3029541"><ele>771.1428571428571</ele><time>2026-03-25T10:11:49.205Z</time></trkpt><trkpt lat="44.1396536" lon="10.3029151"><ele>772.2857142857142</ele><time>2026-03-25T10:11:52.2Z</time></trkpt><trkpt lat="44.1397085" lon="10.3028508"><ele>773.4285714285714</ele><time>2026-03-25T10:11:55.169Z</time></trkpt><trkpt lat="44.1397587" lon="10.3027685"><ele>774.5714285714286</ele><time>2026-03-25T10:11:58.184Z</time></trkpt><trkpt lat="44.1398015" lon="10.3027002"><ele>775.7142857142857</ele><time>2026-03-25T10:12:01.168Z</time></trkpt><trkpt lat="44.1398189" lon="10.3026009"><ele>776.8571428571429</ele><time>2026-03-25T10:12:05.171Z</time></trkpt><trkpt lat="44.1398426" lon="10.3024961"><ele>778.0</ele><time>2026-03-25T10:12:09.167Z</time></trkpt><trkpt lat="44.1398509" lon="10.3024085"><ele>778.0</ele><time>2026-03-25T10:12:12.169Z</time></trkpt><trkpt lat="44.1398697" lon="10.302317"><ele>778.0</ele><time>2026-03-25T10:12:15.187Z</time></trkpt><trkpt lat="44.139882" lon="10.3022284"><ele>778.0</ele><time>2026-03-25T10:12:18.172Z</time></trkpt><trkpt lat="44.1398921" lon="10.3021358"><ele>778.0</ele><time>2026-03-25T10:12:21.174Z</time></trkpt><trkpt lat="44.1399143" lon="10.3020207"><ele>778.0</ele><time>2026-03-25T10:12:25.173Z</time></trkpt><trkpt lat="44.1399287" lon="10.3019248"><ele>778.0</ele><time>2026-03-25T10:12:28.169Z</time></trkpt><trkpt lat="44.1399366" lon="10.3018348"><ele>778.0</ele><time>2026-03-25T10:12:31.168Z</time></trkpt><trkpt lat="44.1399496" lon="10.3017189"><ele>780.3333333333333</ele><time>2026-03-25T10:12:35.182Z</time></trkpt><trkpt lat="44.1399518" lon="10.3016312"><ele>782.6666666666666</ele><time>2026-03-25T10:12:38.181Z</time></trkpt><trkpt lat="44.1399537" lon="10.301515"><ele>785.0</ele><time>2026-03-25T10:12:42.183Z</time></trkpt><trkpt lat="44.1399652" lon="10.3014225"><ele>787.3333333333333</ele><time>2026-03-25T10:12:45.185Z</time></trkpt><trkpt lat="44.1399848" lon="10.3013171"><ele>789.6666666666666</ele><time>2026-03-25T10:12:49.174Z</time></trkpt><trkpt lat="44.1400011" lon="10.3012033"><ele>792.0</ele><time>2026-03-25T10:12:53.172Z</time></trkpt><trkpt lat="44.1400257" lon="10.3010919"><ele>792.0</ele><time>2026-03-25T10:12:57.176Z</time></trkpt><trkpt lat="44.1400445" lon="10.3010015"><ele>792.0</ele><time>2026-03-25T10:13:00.171Z</time></trkpt><trkpt lat="44.1400631" lon="10.3009143"><ele>792.0</ele><time>2026-03-25T10:13:03.181Z</time></trkpt><trkpt lat="44.1400833" lon="10.3008305"><ele>792.0</ele><time>2026-03-25T10:13:06.178Z</time></trkpt><trkpt lat="44.1401039" lon="10.3007432"><ele>792.0</ele><time>2026-03-25T10:13:09.175Z</time></trkpt><trkpt lat="44.1401295" lon="10.300652"><ele>792.0</ele><time>2026-03-25T10:13:12.172Z</time></trkpt><trkpt lat="44.1401553" lon="10.3005611"><ele>792.0</ele><time>2026-03-25T10:13:15.169Z</time></trkpt><trkpt lat="44.1401839" lon="10.3004785"><ele>792.0</ele><time>2026-03-25T10:13:18.169Z</time></trkpt><trkpt lat="44.1402158" lon="10.3003997"><ele>792.0</ele><time>2026-03-25T10:13:21.176Z</time></trkpt><trkpt lat="44.1402534" lon="10.3002976"><ele>792.0</ele><time>2026-03-25T10:13:25.174Z</time></trkpt><trkpt lat="44.1402812" lon="10.3002147"><ele>792.0</ele><time>2026-03-25T10:13:28.188Z</time></trkpt><trkpt lat="44.140316" lon="10.3001348"><ele>792.0</ele><time>2026-03-25T10:13:31.173Z</time></trkpt><trkpt lat="44.1403485" lon="10.3000556"><ele>792.0</ele><time>2026-03-25T10:13:34.185Z</time></trkpt><trkpt lat="44.1403808" lon="10.2999753"><ele>792.0</ele><time>2026-03-25T10:13:37.177Z</time></trkpt><trkpt lat="44.140413" lon="10.2998856"><ele>792.0</ele><time>2026-03-25T10:13:40.182Z</time></trkpt><trkpt lat="44.1404426" lon="10.2997997"><ele>792.0</ele><time>2026-03-25T10:13:43.177Z</time></trkpt><trkpt lat="44.1404766" lon="10.2997205"><ele>792.0</ele><time>2026-03-25T10:13:46.169Z</time></trkpt><trkpt lat="44.1405027" lon="10.2996374"><ele>792.0</ele><time>2026-03-25T10:13:49.188Z</time></trkpt><trkpt lat="44.1405414" lon="10.2995341"><ele>792.0</ele><time>2026-03-25T10:13:53.177Z</time></trkpt><trkpt lat="44.1405815" lon="10.2994341"><ele>792.0</ele><time>2026-03-25T10:13:57.181Z</time></trkpt><trkpt lat="44.1406031" lon="10.2993502"><ele>792.0</ele><time>2026-03-25T10:14:00.17Z</time></trkpt><trkpt lat="44.1406297" lon="10.299241"><ele>791.2857142857143</ele><time>2026-03-25T10:14:04.177Z</time></trkpt><trkpt lat="44.1406405" lon="10.2991517"><ele>790.5714285714286</ele><time>2026-03-25T10:14:07.17Z</time></trkpt><trkpt lat="44.1406428" lon="10.2990368"><ele>789.8571428571429</ele><time>2026-03-25T10:14:11.18Z</time></trkpt><trkpt lat="44.1406279" lon="10.2989504"><ele>789.1428571428571</ele><time>2026-03-25T10:14:14.172Z</time></trkpt><trkpt lat="44.1406099" lon="10.2988422"><ele>788.4285714285713</ele><time>2026-03-25T10:14:18.185Z</time></trkpt><trkpt lat="44.1406079" lon="10.2987359"><ele>787.7142857142857</ele><time>2026-03-25T10:14:22.169Z</time></trkpt><trkpt lat="44.1405926" lon="10.2986318"><ele>787.0</ele><time>2026-03-25T10:14:26.181Z</time></trkpt><trkpt lat="44.1405733" lon="10.2985474"><ele>787.0</ele><time>2026-03-25T10:14:29.173Z</time></trkpt><trkpt lat="44.1405681" lon="10.2984594"><ele>787.0</ele><time>2026-03-25T10:14:32.183Z</time></trkpt><trkpt lat="44.1405724" lon="10.2983693"><ele>787.0</ele><time>2026-03-25T10:14:35.182Z</time></trkpt><trkpt lat="44.1405636" lon="10.2982754"><ele>787.0</ele><time>2026-03-25T10:14:38.178Z</time></trkpt><trkpt lat="44.1405502" lon="10.298185"><ele>787.0</ele><time>2026-03-25T10:14:41.186Z</time></trkpt><trkpt lat="44.140538" lon="10.2980955"><ele>787.0</ele><time>2026-03-25T10:14:44.172Z</time></trkpt><trkpt lat="44.1405177" lon="10.2980107"><ele>787.0</ele><time>2026-03-25T10:14:47.174Z</time></trkpt><trkpt lat="44.1405045" lon="10.2979217"><ele>788.4285714285714</ele><time>2026-03-25T10:14:50.166Z</time></trkpt><trkpt lat="44.1404927" lon="10.2978328"><ele>789.8571428571429</ele><time>2026-03-25T10:14:53.173Z</time></trkpt><trkpt lat="44.1404775" lon="10.2977457"><ele>791.2857142857142</ele><time>2026-03-25T10:14:56.177Z</time></trkpt><trkpt lat="44.1404588" lon="10.297654"><ele>792.7142857142858</ele><time>2026-03-25T10:14:59.178Z</time></trkpt><trkpt lat="44.140444" lon="10.2975652"><ele>794.1428571428572</ele><time>2026-03-25T10:15:02.185Z</time></trkpt><trkpt lat="44.1404146" lon="10.2974538"><ele>795.5714285714286</ele><time>2026-03-25T10:15:06.169Z</time></trkpt><trkpt lat="44.140384" lon="10.2973711"><ele>797.0</ele><time>2026-03-25T10:15:09.187Z</time></trkpt><trkpt lat="44.1403479" lon="10.2972891"><ele>798.8333333333334</ele><time>2026-03-25T10:15:12.172Z</time></trkpt><trkpt lat="44.1402886" lon="10.2972009"><ele>800.6666666666667</ele><time>2026-03-25T10:15:15.172Z</time></trkpt><trkpt lat="44.1402413" lon="10.2971374"><ele>802.5</ele><time>2026-03-25T10:15:17.177Z</time></trkpt><trkpt lat="44.1401888" lon="10.2970681"><ele>804.3333333333333</ele><time>2026-03-25T10:15:19.178Z</time></trkpt><trkpt lat="44.1401372" lon="10.2969886"><ele>806.1666666666666</ele><time>2026-03-25T10:15:21.171Z</time></trkpt><trkpt lat="44.1400876" lon="10.2969047"><ele>808.0</ele><time>2026-03-25T10:15:23.17Z</time></trkpt><trkpt lat="44.1400351" lon="10.296821"><ele>807.9999999999999</ele><time>2026-03-25T10:15:25.171Z</time></trkpt><trkpt lat="44.139981" lon="10.296737"><ele>808.0</ele><time>2026-03-25T10:15:27.178Z</time></trkpt><trkpt lat="44.1399364" lon="10.2966401"><ele>808.0</ele><time>2026-03-25T10:15:29.184Z</time></trkpt><trkpt lat="44.139907" lon="10.2965405"><ele>808.0</ele><time>2026-03-25T10:15:31.171Z</time></trkpt><trkpt lat="44.1398925" lon="10.2964213"><ele>807.9999999999999</ele><time>2026-03-25T10:15:34.174Z</time></trkpt><trkpt lat="44.1398956" lon="10.2963295"><ele>808.0</ele><time>2026-03-25T10:15:37.17Z</time></trkpt><trkpt lat="44.1398952" lon="10.2962219"><ele>807.2857142857142</ele><time>2026-03-25T10:15:41.198Z</time></trkpt><trkpt lat="44.139895" lon="10.2961327"><ele>806.5714285714286</ele><time>2026-03-25T10:15:45.174Z</time></trkpt><trkpt lat="44.1398916" lon="10.2960152"><ele>805.8571428571429</ele><time>2026-03-25T10:15:49.171Z</time></trkpt><trkpt lat="44.1398941" lon="10.2959208"><ele>805.1428571428571</ele><time>2026-03-25T10:15:52.172Z</time></trkpt><trkpt lat="44.1398859" lon="10.2958243"><ele>804.4285714285714</ele><time>2026-03-25T10:15:55.172Z</time></trkpt><trkpt lat="44.1398828" lon="10.2957241"><ele>803.7142857142857</ele><time>2026-03-25T10:15:58.17Z</time></trkpt><trkpt lat="44.1398769" lon="10.2956276"><ele>803.0</ele><time>2026-03-25T10:16:01.19Z</time></trkpt><trkpt lat="44.1398713" lon="10.2955128"><ele>804.5714285714286</ele><time>2026-03-25T10:16:05.181Z</time></trkpt><trkpt lat="44.1398737" lon="10.2953987"><ele>806.1428571428571</ele><time>2026-03-25T10:16:09.183Z</time></trkpt><trkpt lat="44.139875" lon="10.2952889"><ele>807.7142857142858</ele><time>2026-03-25T10:16:13.183Z</time></trkpt><trkpt lat="44.1398633" lon="10.295196"><ele>809.2857142857142</ele><time>2026-03-25T10:16:16.173Z</time></trkpt><trkpt lat="44.1398492" lon="10.2950948"><ele>810.8571428571429</ele><time>2026-03-25T10:16:19.172Z</time></trkpt><trkpt lat="44.1398394" lon="10.2949972"><ele>812.4285714285714</ele><time>2026-03-25T10:16:22.176Z</time></trkpt><trkpt lat="44.1398253" lon="10.2948986"><ele>814.0</ele><time>2026-03-25T10:16:25.168Z</time></trkpt><trkpt lat="44.1398091" lon="10.2947855"><ele>814.8571428571429</ele><time>2026-03-25T10:16:29.173Z</time></trkpt><trkpt lat="44.139795" lon="10.2946868"><ele>815.7142857142858</ele><time>2026-03-25T10:16:32.173Z</time></trkpt><trkpt lat="44.1397867" lon="10.2945921"><ele>816.5714285714287</ele><time>2026-03-25T10:16:35.169Z</time></trkpt><trkpt lat="44.1397745" lon="10.2945012"><ele>817.4285714285714</ele><time>2026-03-25T10:16:38.167Z</time></trkpt><trkpt lat="44.1397524" lon="10.2944096"><ele>818.2857142857142</ele><time>2026-03-25T10:16:41.185Z</time></trkpt><trkpt lat="44.1397315" lon="10.2943235"><ele>819.1428571428572</ele><time>2026-03-25T10:16:44.178Z</time></trkpt><trkpt lat="44.1397272" lon="10.2942349"><ele>820.0</ele><time>2026-03-25T10:16:47.18Z</time></trkpt><trkpt lat="44.1397022" lon="10.2941224"><ele>820.0</ele><time>2026-03-25T10:16:51.171Z</time></trkpt><trkpt lat="44.139688" lon="10.2940355"><ele>820.0</ele><time>2026-03-25T10:16:54.176Z</time></trkpt><trkpt lat="44.1396745" lon="10.2939278"><ele>820.0</ele><time>2026-03-25T10:16:58.18Z</time></trkpt><trkpt lat="44.1396881" lon="10.2938257"><ele>820.0</ele><time>2026-03-25T10:17:03.18Z</time></trkpt><trkpt lat="44.1397491" lon="10.2938013"><ele>820.0</ele><time>2026-03-25T10:17:07.175Z</time></trkpt><trkpt lat="44.1398196" lon="10.2938089"><ele>820.0</ele><time>2026-03-25T10:17:11.174Z</time></trkpt><trkpt lat="44.13989" lon="10.2938095"><ele>820.0</ele><time>2026-03-25T10:17:15.177Z</time></trkpt><trkpt lat="44.1399539" lon="10.2938219"><ele>819.5714285714286</ele><time>2026-03-25T10:17:19.173Z</time></trkpt><trkpt lat="44.1400328" lon="10.2938187"><ele>819.1428571428571</ele><time>2026-03-25T10:17:24.175Z</time></trkpt><trkpt lat="44.1401017" lon="10.2938243"><ele>818.7142857142857</ele><time>2026-03-25T10:17:28.17Z</time></trkpt><trkpt lat="44.1401812" lon="10.2938259"><ele>818.2857142857142</ele><time>2026-03-25T10:17:35.177Z</time></trkpt><trkpt lat="44.1402433" lon="10.2938105"><ele>817.8571428571429</ele><time>2026-03-25T10:17:38.172Z</time></trkpt><trkpt lat="44.1403236" lon="10.2937985"><ele>817.4285714285713</ele><time>2026-03-25T10:17:42.168Z</time></trkpt><trkpt lat="44.140391" lon="10.2937997"><ele>817.0</ele><time>2026-03-25T10:17:45.175Z</time></trkpt><trkpt lat="44.1404619" lon="10.2938225"><ele>816.9999999999999</ele><time>2026-03-25T10:17:49.174Z</time></trkpt><trkpt lat="44.1405272" lon="10.2938329"><ele>817.0</ele><time>2026-03-25T10:17:53.191Z</time></trkpt><trkpt lat="44.1405929" lon="10.2938349"><ele>817.0</ele><time>2026-03-25T10:17:56.173Z</time></trkpt><trkpt lat="44.1406522" lon="10.2938053"><ele>817.0</ele><time>2026-03-25T10:18:01.18Z</time></trkpt><trkpt lat="44.140704" lon="10.2937383"><ele>817.0</ele><time>2026-03-25T10:18:05.174Z</time></trkpt><trkpt lat="44.1407665" lon="10.2936664"><ele>816.9999999999999</ele><time>2026-03-25T10:18:09.186Z</time></trkpt><trkpt lat="44.1408365" lon="10.2936142"><ele>817.0</ele><time>2026-03-25T10:18:13.169Z</time></trkpt><trkpt lat="44.1409148" lon="10.2935759"><ele>818.6666666666666</ele><time>2026-03-25T10:18:17.174Z</time></trkpt><trkpt lat="44.1409899" lon="10.2935427"><ele>820.3333333333333</ele><time>2026-03-25T10:18:21.172Z</time></trkpt><trkpt lat="44.1410682" lon="10.2935023"><ele>822.0</ele><time>2026-03-25T10:18:25.181Z</time></trkpt><trkpt lat="44.1411331" lon="10.2934667"><ele>823.6666666666667</ele><time>2026-03-25T10:18:28.169Z</time></trkpt><trkpt lat="44.1411967" lon="10.2934149"><ele>825.3333333333334</ele><time>2026-03-25T10:18:31.184Z</time></trkpt><trkpt lat="44.1412652" lon="10.2933486"><ele>827.0</ele><time>2026-03-25T10:18:35.172Z</time></trkpt><trkpt lat="44.1413267" lon="10.2933"><ele>827.0000000000001</ele><time>2026-03-25T10:18:38.178Z</time></trkpt><trkpt lat="44.1413895" lon="10.2932601"><ele>827.0</ele><time>2026-03-25T10:18:41.179Z</time></trkpt><trkpt lat="44.1414559" lon="10.2932162"><ele>827.0</ele><time>2026-03-25T10:18:44.179Z</time></trkpt><trkpt lat="44.14153" lon="10.2931613"><ele>827.0</ele><time>2026-03-25T10:18:47.177Z</time></trkpt><trkpt lat="44.1416138" lon="10.293098"><ele>827.0000000000001</ele><time>2026-03-25T10:18:50.175Z</time></trkpt><trkpt lat="44.1416793" lon="10.2930561"><ele>827.0</ele><time>2026-03-25T10:18:52.179Z</time></trkpt><trkpt lat="44.141751" lon="10.2930152"><ele>825.5000000000001</ele><time>2026-03-25T10:18:54.176Z</time></trkpt><trkpt lat="44.1418254" lon="10.2929711"><ele>824.0</ele><time>2026-03-25T10:18:56.187Z</time></trkpt><trkpt lat="44.1418909" lon="10.2929022"><ele>822.5</ele><time>2026-03-25T10:18:58.186Z</time></trkpt><trkpt lat="44.1419422" lon="10.2928159"><ele>821.0</ele><time>2026-03-25T10:19:00.177Z</time></trkpt><trkpt lat="44.1420048" lon="10.2927431"><ele>819.5000000000001</ele><time>2026-03-25T10:19:02.178Z</time></trkpt><trkpt lat="44.1420898" lon="10.2926889"><ele>818.0</ele><time>2026-03-25T10:19:04.173Z</time></trkpt><trkpt lat="44.1421861" lon="10.2926419"><ele>818.0</ele><time>2026-03-25T10:19:06.176Z</time></trkpt><trkpt lat="44.1422804" lon="10.292565"><ele>818.0</ele><time>2026-03-25T10:19:08.179Z</time></trkpt><trkpt lat="44.1423726" lon="10.2924743"><ele>818.0</ele><time>2026-03-25T10:19:10.18Z</time></trkpt><trkpt lat="44.1424775" lon="10.2924156"><ele>818.0</ele><time>2026-03-25T10:19:12.185Z</time></trkpt><trkpt lat="44.1425914" lon="10.2923768"><ele>820.0</ele><time>2026-03-25T10:19:14.194Z</time></trkpt><trkpt lat="44.1426528" lon="10.2923553"><ele>822.0</ele><time>2026-03-25T10:19:15.189Z</time></trkpt><trkpt lat="44.1427678" lon="10.2923384"><ele>824.0</ele><time>2026-03-25T10:19:17.179Z</time></trkpt><trkpt lat="44.142884" lon="10.2923325"><ele>826.0</ele><time>2026-03-25T10:19:19.185Z</time></trkpt><trkpt lat="44.1430052" lon="10.2923582"><ele>828.0</ele><time>2026-03-25T10:19:21.18Z</time></trkpt><trkpt lat="44.1431104" lon="10.2923731"><ele>828.0</ele><time>2026-03-25T10:19:23.192Z</time></trkpt><trkpt lat="44.1431729" lon="10.2923877"><ele>828.0</ele><time>2026-03-25T10:19:24.185Z</time></trkpt><trkpt lat="44.1432845" lon="10.2923882"><ele>828.0</ele><time>2026-03-25T10:19:26.188Z</time></trkpt><trkpt lat="44.1433912" lon="10.292395"><ele>828.0</ele><time>2026-03-25T10:19:28.187Z</time></trkpt><trkpt lat="44.1435044" lon="10.2924044"><ele>828.0</ele><time>2026-03-25T10:19:30.188Z</time></trkpt><trkpt lat="44.1436125" lon="10.2924007"><ele>828.2</ele><time>2026-03-25T10:19:32.182Z</time></trkpt><trkpt lat="44.1437281" lon="10.292375"><ele>828.4</ele><time>2026-03-25T10:19:34.174Z</time></trkpt><trkpt lat="44.1438226" lon="10.2923324"><ele>828.6</ele><time>2026-03-25T10:19:36.181Z</time></trkpt><trkpt lat="44.1439094" lon="10.2922949"><ele>828.8000000000001</ele><time>2026-03-25T10:19:38.181Z</time></trkpt><trkpt lat="44.1439758" lon="10.2923084"><ele>829.0</ele><time>2026-03-25T10:19:40.175Z</time></trkpt><trkpt lat="44.1440528" lon="10.2923605"><ele>828.9999999999999</ele><time>2026-03-25T10:19:42.177Z</time></trkpt><trkpt lat="44.1441096" lon="10.2924462"><ele>829.0</ele><time>2026-03-25T10:19:44.178Z</time></trkpt><trkpt lat="44.1441578" lon="10.2925481"><ele>829.0</ele><time>2026-03-25T10:19:46.173Z</time></trkpt><trkpt lat="44.1441909" lon="10.2926266"><ele>829.0</ele><time>2026-03-25T10:19:48.181Z</time></trkpt><trkpt lat="44.1442302" lon="10.2927153"><ele>828.9999999999999</ele><time>2026-03-25T10:19:50.185Z</time></trkpt><trkpt lat="44.1442825" lon="10.2927972"><ele>829.0</ele><time>2026-03-25T10:19:52.177Z</time></trkpt><trkpt lat="44.144336" lon="10.292872"><ele>828.9999999999999</ele><time>2026-03-25T10:19:54.171Z</time></trkpt><trkpt lat="44.1443959" lon="10.2929426"><ele>829.0</ele><time>2026-03-25T10:19:56.178Z</time></trkpt><trkpt lat="44.1444643" lon="10.2930025"><ele>829.0</ele><time>2026-03-25T10:19:58.174Z</time></trkpt><trkpt lat="44.1445416" lon="10.2930315"><ele>829.0</ele><time>2026-03-25T10:20:00.186Z</time></trkpt><trkpt lat="44.1446142" lon="10.2930284"><ele>828.9999999999999</ele><time>2026-03-25T10:20:02.173Z</time></trkpt><trkpt lat="44.1446813" lon="10.2930089"><ele>829.0</ele><time>2026-03-25T10:20:04.19Z</time></trkpt><trkpt lat="44.1447731" lon="10.2929749"><ele>828.9999999999999</ele><time>2026-03-25T10:20:07.178Z</time></trkpt><trkpt lat="44.1448619" lon="10.2929551"><ele>829.0</ele><time>2026-03-25T10:20:10.174Z</time></trkpt><trkpt lat="44.1449357" lon="10.2929595"><ele>829.0</ele><time>2026-03-25T10:20:13.185Z</time></trkpt><trkpt lat="44.1450254" lon="10.2929624"><ele>829.0</ele><time>2026-03-25T10:20:16.178Z</time></trkpt><trkpt lat="44.1451184" lon="10.292944"><ele>828.9999999999999</ele><time>2026-03-25T10:20:19.172Z</time></trkpt><trkpt lat="44.1451822" lon="10.2929389"><ele>829.0</ele><time>2026-03-25T10:20:21.169Z</time></trkpt><trkpt lat="44.1452515" lon="10.292942"><ele>831.1666666666666</ele><time>2026-03-25T10:20:23.186Z</time></trkpt><trkpt lat="44.1453417" lon="10.2929604"><ele>833.3333333333333</ele><time>2026-03-25T10:20:26.172Z</time></trkpt><trkpt lat="44.1454068" lon="10.2929885"><ele>835.5</ele><time>2026-03-25T10:20:28.17Z</time></trkpt><trkpt lat="44.1454804" lon="10.2930595"><ele>837.6666666666667</ele><time>2026-03-25T10:20:31.177Z</time></trkpt><trkpt lat="44.1455376" lon="10.2931609"><ele>839.8333333333334</ele><time>2026-03-25T10:20:34.188Z</time></trkpt><trkpt lat="44.1455921" lon="10.2932332"><ele>842.0</ele><time>2026-03-25T10:20:36.183Z</time></trkpt><trkpt lat="44.145673" lon="10.2932685"><ele>840.5000000000001</ele><time>2026-03-25T10:20:38.181Z</time></trkpt><trkpt lat="44.1457617" lon="10.2932871"><ele>839.0</ele><time>2026-03-25T10:20:40.183Z</time></trkpt><trkpt lat="44.1458509" lon="10.2933231"><ele>837.5</ele><time>2026-03-25T10:20:42.182Z</time></trkpt><trkpt lat="44.1459111" lon="10.2933541"><ele>836.0</ele><time>2026-03-25T10:20:44.18Z</time></trkpt><trkpt lat="44.1459801" lon="10.2934063"><ele>834.5000000000001</ele><time>2026-03-25T10:20:46.173Z</time></trkpt><trkpt lat="44.1460404" lon="10.2934617"><ele>833.0</ele><time>2026-03-25T10:20:48.185Z</time></trkpt><trkpt lat="44.1461125" lon="10.2935117"><ele>833.0000000000001</ele><time>2026-03-25T10:20:50.183Z</time></trkpt><trkpt lat="44.1461723" lon="10.2935569"><ele>833.0</ele><time>2026-03-25T10:20:52.173Z</time></trkpt><trkpt lat="44.1462399" lon="10.2935912"><ele>833.0</ele><time>2026-03-25T10:20:54.197Z</time></trkpt><trkpt lat="44.14633" lon="10.2936223"><ele>833.0</ele><time>2026-03-25T10:20:56.174Z</time></trkpt><trkpt lat="44.1464112" lon="10.2936364"><ele>833.0000000000001</ele><time>2026-03-25T10:20:57.169Z</time></trkpt><trkpt lat="44.1465297" lon="10.29365"><ele>833.0</ele><time>2026-03-25T10:20:59.183Z</time></trkpt><trkpt lat="44.1466454" lon="10.293642"><ele>830.3333333333334</ele><time>2026-03-25T10:21:01.168Z</time></trkpt><trkpt lat="44.1467098" lon="10.293637"><ele>827.6666666666667</ele><time>2026-03-25T10:21:02.179Z</time></trkpt><trkpt lat="44.1468313" lon="10.2936423"><ele>825.0</ele><time>2026-03-25T10:21:04.178Z</time></trkpt><trkpt lat="44.1468949" lon="10.2936384"><ele>822.3333333333333</ele><time>2026-03-25T10:21:05.181Z</time></trkpt><trkpt lat="44.1470053" lon="10.2935946"><ele>819.6666666666666</ele><time>2026-03-25T10:21:07.175Z</time></trkpt><trkpt lat="44.1470724" lon="10.2935863"><ele>817.0</ele><time>2026-03-25T10:21:08.177Z</time></trkpt><trkpt lat="44.147139" lon="10.2936435"><ele>817.0</ele><time>2026-03-25T10:21:10.175Z</time></trkpt><trkpt lat="44.1471539" lon="10.2937699"><ele>817.0</ele><time>2026-03-25T10:21:12.169Z</time></trkpt><trkpt lat="44.1471592" lon="10.2939081"><ele>817.0</ele><time>2026-03-25T10:21:14.185Z</time></trkpt><trkpt lat="44.147168" lon="10.2940643"><ele>817.0</ele><time>2026-03-25T10:21:16.18Z</time></trkpt><trkpt lat="44.1471798" lon="10.2942236"><ele>817.0</ele><time>2026-03-25T10:21:18.175Z</time></trkpt><trkpt lat="44.1471815" lon="10.2943812"><ele>816.6666666666666</ele><time>2026-03-25T10:21:20.186Z</time></trkpt><trkpt lat="44.1471823" lon="10.294472"><ele>816.3333333333333</ele><time>2026-03-25T10:21:21.173Z</time></trkpt><trkpt lat="44.1471958" lon="10.2946137"><ele>816.0</ele><time>2026-03-25T10:21:23.175Z</time></trkpt><trkpt lat="44.1472349" lon="10.2947311"><ele>815.6666666666667</ele><time>2026-03-25T10:21:25.182Z</time></trkpt><trkpt lat="44.147325" lon="10.2947666"><ele>815.3333333333334</ele><time>2026-03-25T10:21:27.178Z</time></trkpt><trkpt lat="44.1474068" lon="10.2947471"><ele>815.0</ele><time>2026-03-25T10:21:29.178Z</time></trkpt><trkpt lat="44.1474845" lon="10.2947016"><ele>815.0000000000001</ele><time>2026-03-25T10:21:31.174Z</time></trkpt><trkpt lat="44.1475577" lon="10.2946468"><ele>815.0</ele><time>2026-03-25T10:21:33.17Z</time></trkpt><trkpt lat="44.1476533" lon="10.2945778"><ele>815.0</ele><time>2026-03-25T10:21:35.17Z</time></trkpt><trkpt lat="44.1477391" lon="10.2945635"><ele>815.0</ele><time>2026-03-25T10:21:37.172Z</time></trkpt><trkpt lat="44.1478254" lon="10.2945454"><ele>815.0000000000001</ele><time>2026-03-25T10:21:39.173Z</time></trkpt><trkpt lat="44.1479065" lon="10.2945561"><ele>815.0</ele><time>2026-03-25T10:21:41.173Z</time></trkpt><trkpt lat="44.1479824" lon="10.2945941"><ele>815.0</ele><time>2026-03-25T10:21:43.173Z</time></trkpt><trkpt lat="44.1480588" lon="10.2946894"><ele>815.0</ele><time>2026-03-25T10:21:45.174Z</time></trkpt><trkpt lat="44.1481396" lon="10.2947855"><ele>815.0</ele><time>2026-03-25T10:21:47.171Z</time></trkpt><trkpt lat="44.1482325" lon="10.2948718"><ele>815.0</ele><time>2026-03-25T10:21:49.193Z</time></trkpt><trkpt lat="44.1482977" lon="10.2949781"><ele>815.0</ele><time>2026-03-25T10:21:51.169Z</time></trkpt><trkpt lat="44.1483552" lon="10.2950992"><ele>816.2</ele><time>2026-03-25T10:21:53.171Z</time></trkpt><trkpt lat="44.1484299" lon="10.2952061"><ele>817.4</ele><time>2026-03-25T10:21:55.179Z</time></trkpt><trkpt lat="44.1485008" lon="10.2952779"><ele>818.5999999999999</ele><time>2026-03-25T10:21:57.172Z</time></trkpt><trkpt lat="44.1485876" lon="10.2953249"><ele>819.8</ele><time>2026-03-25T10:21:59.175Z</time></trkpt><trkpt lat="44.1486776" lon="10.2953153"><ele>821.0</ele><time>2026-03-25T10:22:02.183Z</time></trkpt><trkpt lat="44.1487599" lon="10.2952865"><ele>821.0000000000001</ele><time>2026-03-25T10:22:05.171Z</time></trkpt><trkpt lat="44.1488505" lon="10.2952409"><ele>821.0</ele><time>2026-03-25T10:22:08.177Z</time></trkpt><trkpt lat="44.148946" lon="10.2952086"><ele>821.0</ele><time>2026-03-25T10:22:11.176Z</time></trkpt><trkpt lat="44.1490147" lon="10.2952149"><ele>821.0</ele><time>2026-03-25T10:22:13.17Z</time></trkpt><trkpt lat="44.149101" lon="10.2952472"><ele>821.0000000000001</ele><time>2026-03-25T10:22:15.183Z</time></trkpt><trkpt lat="44.1491716" lon="10.2953024"><ele>821.0</ele><time>2026-03-25T10:22:17.179Z</time></trkpt><trkpt lat="44.1492171" lon="10.2953704"><ele>818.4</ele><time>2026-03-25T10:22:19.186Z</time></trkpt><trkpt lat="44.1492431" lon="10.2954718"><ele>815.8</ele><time>2026-03-25T10:22:21.179Z</time></trkpt><trkpt lat="44.1492404" lon="10.295583"><ele>813.1999999999999</ele><time>2026-03-25T10:22:23.176Z</time></trkpt><trkpt lat="44.1492022" lon="10.2957029"><ele>810.5999999999999</ele><time>2026-03-25T10:22:25.185Z</time></trkpt><trkpt lat="44.1491211" lon="10.2958016"><ele>808.0</ele><time>2026-03-25T10:22:27.174Z</time></trkpt><trkpt lat="44.1490337" lon="10.2959292"><ele>814.6666666666666</ele><time>2026-03-25T10:22:29.178Z</time></trkpt><trkpt lat="44.1490248" lon="10.2960329"><ele>821.3333333333333</ele><time>2026-03-25T10:22:30.182Z</time></trkpt><trkpt lat="44.1490211" lon="10.2961249"><ele>828.0</ele><time>2026-03-25T10:22:31.174Z</time></trkpt><trkpt lat="44.1490324" lon="10.2963003"><ele>834.6666666666667</ele><time>2026-03-25T10:22:33.183Z</time></trkpt><trkpt lat="44.1490266" lon="10.2963969"><ele>841.3333333333334</ele><time>2026-03-25T10:22:34.175Z</time></trkpt><trkpt lat="44.1490236" lon="10.2964876"><ele>848.0</ele><time>2026-03-25T10:22:35.17Z</time></trkpt><trkpt lat="44.149011" lon="10.296575"><ele>848.8</ele><time>2026-03-25T10:22:36.174Z</time></trkpt><trkpt lat="44.1489834" lon="10.2966633"><ele>849.5999999999999</ele><time>2026-03-25T10:22:37.178Z</time></trkpt><trkpt lat="44.1489934" lon="10.2968317"><ele>850.4000000000001</ele><time>2026-03-25T10:22:39.187Z</time></trkpt><trkpt lat="44.1490153" lon="10.2969883"><ele>851.2</ele><time>2026-03-25T10:22:41.188Z</time></trkpt><trkpt lat="44.149068" lon="10.2970591"><ele>852.0</ele><time>2026-03-25T10:22:42.178Z</time></trkpt><trkpt lat="44.1491348" lon="10.2971076"><ele>846.2</ele><time>2026-03-25T10:22:43.17Z</time></trkpt><trkpt lat="44.1492318" lon="10.2971592"><ele>840.4000000000001</ele><time>2026-03-25T10:22:45.181Z</time></trkpt><trkpt lat="44.1493328" lon="10.2972238"><ele>834.5999999999999</ele><time>2026-03-25T10:22:47.183Z</time></trkpt><trkpt lat="44.1493974" lon="10.2972916"><ele>828.8</ele><time>2026-03-25T10:22:49.174Z</time></trkpt><trkpt lat="44.1494603" lon="10.2973568"><ele>823.0</ele><time>2026-03-25T10:22:51.175Z</time></trkpt><trkpt lat="44.1495425" lon="10.2974407"><ele>822.9999999999999</ele><time>2026-03-25T10:22:53.18Z</time></trkpt><trkpt lat="44.1496275" lon="10.2975105"><ele>823.0</ele><time>2026-03-25T10:22:55.175Z</time></trkpt><trkpt lat="44.1497131" lon="10.2975585"><ele>823.0</ele><time>2026-03-25T10:22:57.176Z</time></trkpt><trkpt lat="44.1497927" lon="10.297613"><ele>823.0</ele><time>2026-03-25T10:22:59.171Z</time></trkpt><trkpt lat="44.1498635" lon="10.2976735"><ele>822.9999999999999</ele><time>2026-03-25T10:23:01.174Z</time></trkpt><trkpt lat="44.1499289" lon="10.2977382"><ele>823.0</ele><time>2026-03-25T10:23:03.183Z</time></trkpt><trkpt lat="44.1499709" lon="10.2978295"><ele>823.1666666666666</ele><time>2026-03-25T10:23:05.186Z</time></trkpt><trkpt lat="44.1500188" lon="10.2979154"><ele>823.3333333333333</ele><time>2026-03-25T10:23:07.173Z</time></trkpt><trkpt lat="44.1500723" lon="10.298001"><ele>823.5</ele><time>2026-03-25T10:23:09.178Z</time></trkpt><trkpt lat="44.1501203" lon="10.2980655"><ele>823.6666666666667</ele><time>2026-03-25T10:23:11.188Z</time></trkpt><trkpt lat="44.150172" lon="10.298149"><ele>823.8333333333334</ele><time>2026-03-25T10:23:13.171Z</time></trkpt><trkpt lat="44.1502204" lon="10.2982471"><ele>824.0</ele><time>2026-03-25T10:23:15.181Z</time></trkpt><trkpt lat="44.1502856" lon="10.2983531"><ele>824.0</ele><time>2026-03-25T10:23:17.174Z</time></trkpt><trkpt lat="44.1503573" lon="10.2984365"><ele>824.0</ele><time>2026-03-25T10:23:19.183Z</time></trkpt><trkpt lat="44.150419" lon="10.2985324"><ele>824.0</ele><time>2026-03-25T10:23:21.174Z</time></trkpt><trkpt lat="44.1504609" lon="10.2986418"><ele>824.0</ele><time>2026-03-25T10:23:23.175Z</time></trkpt><trkpt lat="44.150479" lon="10.2987568"><ele>824.0</ele><time>2026-03-25T10:23:25.172Z</time></trkpt><trkpt lat="44.1504842" lon="10.2988958"><ele>827.0</ele><time>2026-03-25T10:23:27.168Z</time></trkpt><trkpt lat="44.1504801" lon="10.2990306"><ele>830.0</ele><time>2026-03-25T10:23:29.202Z</time></trkpt><trkpt lat="44.1504949" lon="10.2991725"><ele>833.0</ele><time>2026-03-25T10:23:31.173Z</time></trkpt><trkpt lat="44.1505105" lon="10.2993116"><ele>836.0</ele><time>2026-03-25T10:23:33.18Z</time></trkpt><trkpt lat="44.1505444" lon="10.2994453"><ele>839.0</ele><time>2026-03-25T10:23:35.175Z</time></trkpt><trkpt lat="44.1505605" lon="10.2995484"><ele>839.0000000000001</ele><time>2026-03-25T10:23:37.168Z</time></trkpt><trkpt lat="44.1505564" lon="10.2996795"><ele>839.0</ele><time>2026-03-25T10:23:40.174Z</time></trkpt><trkpt lat="44.1505243" lon="10.299775"><ele>839.0</ele><time>2026-03-25T10:23:42.188Z</time></trkpt><trkpt lat="44.1504913" lon="10.2998533"><ele>839.0</ele><time>2026-03-25T10:23:44.175Z</time></trkpt><trkpt lat="44.1504687" lon="10.2999463"><ele>839.0000000000001</ele><time>2026-03-25T10:23:46.175Z</time></trkpt><trkpt lat="44.150497" lon="10.300034"><ele>839.0</ele><time>2026-03-25T10:23:49.171Z</time></trkpt><trkpt lat="44.1505725" lon="10.3000658"><ele>840.5000000000001</ele><time>2026-03-25T10:23:52.184Z</time></trkpt><trkpt lat="44.1506582" lon="10.3001025"><ele>842.0</ele><time>2026-03-25T10:23:55.176Z</time></trkpt><trkpt lat="44.1507203" lon="10.3001508"><ele>843.5</ele><time>2026-03-25T10:23:57.175Z</time></trkpt><trkpt lat="44.1507899" lon="10.3002186"><ele>845.0</ele><time>2026-03-25T10:23:59.186Z</time></trkpt><trkpt lat="44.1508551" lon="10.3002824"><ele>846.5000000000001</ele><time>2026-03-25T10:24:01.18Z</time></trkpt><trkpt lat="44.1509143" lon="10.3003322"><ele>848.0</ele><time>2026-03-25T10:24:03.181Z</time></trkpt><trkpt lat="44.1509769" lon="10.3003857"><ele>843.3333333333334</ele><time>2026-03-25T10:24:05.17Z</time></trkpt><trkpt lat="44.151043" lon="10.3004561"><ele>838.6666666666667</ele><time>2026-03-25T10:24:07.18Z</time></trkpt><trkpt lat="44.1511069" lon="10.3005479"><ele>834.0</ele><time>2026-03-25T10:24:09.172Z</time></trkpt><trkpt lat="44.1511661" lon="10.3006435"><ele>829.3333333333333</ele><time>2026-03-25T10:24:11.184Z</time></trkpt><trkpt lat="44.151209" lon="10.3007409"><ele>824.6666666666666</ele><time>2026-03-25T10:24:13.182Z</time></trkpt><trkpt lat="44.151227" lon="10.3008376"><ele>820.0</ele><time>2026-03-25T10:24:15.178Z</time></trkpt><trkpt lat="44.1512415" lon="10.3009321"><ele>819.9999999999999</ele><time>2026-03-25T10:24:17.172Z</time></trkpt><trkpt lat="44.1512327" lon="10.301027"><ele>820.0</ele><time>2026-03-25T10:24:19.17Z</time></trkpt><trkpt lat="44.1512077" lon="10.3011284"><ele>820.0</ele><time>2026-03-25T10:24:21.179Z</time></trkpt><trkpt lat="44.1511972" lon="10.3012376"><ele>820.0</ele><time>2026-03-25T10:24:23.173Z</time></trkpt><trkpt lat="44.1512103" lon="10.3013967"><ele>819.9999999999999</ele><time>2026-03-25T10:24:25.177Z</time></trkpt><trkpt lat="44.1512287" lon="10.301546"><ele>820.0</ele><time>2026-03-25T10:24:27.172Z</time></trkpt><trkpt lat="44.1511877" lon="10.3016793"><ele>821.8</ele><time>2026-03-25T10:24:29.185Z</time></trkpt><trkpt lat="44.1511485" lon="10.3018406"><ele>823.6</ele><time>2026-03-25T10:24:31.174Z</time></trkpt><trkpt lat="44.1511114" lon="10.3019899"><ele>825.4000000000001</ele><time>2026-03-25T10:24:33.171Z</time></trkpt><trkpt lat="44.1510827" lon="10.3021237"><ele>827.2</ele><time>2026-03-25T10:24:35.175Z</time></trkpt><trkpt lat="44.1510414" lon="10.3022692"><ele>829.0</ele><time>2026-03-25T10:24:37.178Z</time></trkpt><trkpt lat="44.1510883" lon="10.3023779"><ele>829.0</ele><time>2026-03-25T10:24:39.183Z</time></trkpt><trkpt lat="44.1511721" lon="10.3024629"><ele>829.0</ele><time>2026-03-25T10:24:41.193Z</time></trkpt><trkpt lat="44.1513006" lon="10.3024842"><ele>829.0</ele><time>2026-03-25T10:24:43.184Z</time></trkpt><trkpt lat="44.1514062" lon="10.3025607"><ele>829.0</ele><time>2026-03-25T10:24:45.179Z</time></trkpt><trkpt lat="44.1514959" lon="10.302664"><ele>820.8000000000001</ele><time>2026-03-25T10:24:47.183Z</time></trkpt><trkpt lat="44.1515698" lon="10.3027836"><ele>812.6</ele><time>2026-03-25T10:24:49.186Z</time></trkpt><trkpt lat="44.1516409" lon="10.3029085"><ele>804.4</ele><time>2026-03-25T10:24:51.19Z</time></trkpt><trkpt lat="44.1517123" lon="10.3030621"><ele>796.2</ele><time>2026-03-25T10:24:53.177Z</time></trkpt><trkpt lat="44.1517564" lon="10.3031511"><ele>788.0</ele><time>2026-03-25T10:24:54.179Z</time></trkpt><trkpt lat="44.151802" lon="10.3032271"><ele>788.0000000000001</ele><time>2026-03-25T10:24:55.188Z</time></trkpt><trkpt lat="44.1518637" lon="10.3033217"><ele>788.0</ele><time>2026-03-25T10:24:57.178Z</time></trkpt><trkpt lat="44.1518747" lon="10.3034284"><ele>788.0</ele><time>2026-03-25T10:24:59.171Z</time></trkpt><trkpt lat="44.1518016" lon="10.3034893"><ele>788.0</ele><time>2026-03-25T10:25:01.196Z</time></trkpt><trkpt lat="44.1517395" lon="10.3035099"><ele>788.0000000000001</ele><time>2026-03-25T10:25:02.194Z</time></trkpt><trkpt lat="44.1516363" lon="10.3035908"><ele>788.0</ele><time>2026-03-25T10:25:04.198Z</time></trkpt><trkpt lat="44.151579" lon="10.3036379"><ele>791.3333333333334</ele><time>2026-03-25T10:25:05.183Z</time></trkpt><trkpt lat="44.1515213" lon="10.3036879"><ele>794.6666666666667</ele><time>2026-03-25T10:25:06.19Z</time></trkpt><trkpt lat="44.1514479" lon="10.3037524"><ele>798.0</ele><time>2026-03-25T10:25:07.18Z</time></trkpt><trkpt lat="44.1513754" lon="10.3038028"><ele>801.3333333333333</ele><time>2026-03-25T10:25:08.18Z</time></trkpt><trkpt lat="44.1513018" lon="10.3038553"><ele>804.6666666666666</ele><time>2026-03-25T10:25:09.17Z</time></trkpt><trkpt lat="44.1512273" lon="10.3039284"><ele>808.0</ele><time>2026-03-25T10:25:10.18Z</time></trkpt><trkpt lat="44.1511632" lon="10.3040161"><ele>808.0</ele><time>2026-03-25T10:25:11.189Z</time></trkpt><trkpt lat="44.1511094" lon="10.3041117"><ele>808.0</ele><time>2026-03-25T10:25:12.177Z</time></trkpt><trkpt lat="44.1510554" lon="10.3042259"><ele>808.0</ele><time>2026-03-25T10:25:13.185Z</time></trkpt><trkpt lat="44.1510025" lon="10.3043312"><ele>808.0</ele><time>2026-03-25T10:25:14.177Z</time></trkpt><trkpt lat="44.1509428" lon="10.304451"><ele>808.0</ele><time>2026-03-25T10:25:15.191Z</time></trkpt><trkpt lat="44.1508855" lon="10.3045643"><ele>807.9999999999999</ele><time>2026-03-25T10:25:16.18Z</time></trkpt><trkpt lat="44.1508362" lon="10.3046473"><ele>808.0</ele><time>2026-03-25T10:25:17.173Z</time></trkpt><trkpt lat="44.1507703" lon="10.304738"><ele>808.0</ele><time>2026-03-25T10:25:18.183Z</time></trkpt><trkpt lat="44.1507117" lon="10.304829"><ele>808.0</ele><time>2026-03-25T10:25:19.172Z</time></trkpt><trkpt lat="44.1506453" lon="10.3049274"><ele>807.9999999999999</ele><time>2026-03-25T10:25:20.182Z</time></trkpt><trkpt lat="44.1505911" lon="10.3050311"><ele>808.0</ele><time>2026-03-25T10:25:21.182Z</time></trkpt><trkpt lat="44.1505368" lon="10.3051219"><ele>807.9999999999999</ele><time>2026-03-25T10:25:22.178Z</time></trkpt><trkpt lat="44.1504867" lon="10.3051968"><ele>808.0</ele><time>2026-03-25T10:25:23.179Z</time></trkpt><trkpt lat="44.1504286" lon="10.305267"><ele>808.0</ele><time>2026-03-25T10:25:24.188Z</time></trkpt><trkpt lat="44.1503346" lon="10.3053693"><ele>808.0</ele><time>2026-03-25T10:25:26.172Z</time></trkpt><trkpt lat="44.1502682" lon="10.3054702"><ele>807.9999999999999</ele><time>2026-03-25T10:25:28.179Z</time></trkpt><trkpt lat="44.1502921" lon="10.3055743"><ele>808.0</ele><time>2026-03-25T10:25:30.171Z</time></trkpt><trkpt lat="44.1503642" lon="10.305613"><ele>807.9999999999999</ele><time>2026-03-25T10:25:32.172Z</time></trkpt><trkpt lat="44.1504573" lon="10.3056682"><ele>808.0</ele><time>2026-03-25T10:25:34.182Z</time></trkpt><trkpt lat="44.1505175" lon="10.3056953"><ele>808.0</ele><time>2026-03-25T10:25:35.183Z</time></trkpt><trkpt lat="44.1506357" lon="10.3056991"><ele>808.0</ele><time>2026-03-25T10:25:37.175Z</time></trkpt><trkpt lat="44.1507101" lon="10.3057064"><ele>807.9999999999999</ele><time>2026-03-25T10:25:38.187Z</time></trkpt><trkpt lat="44.1507785" lon="10.3057178"><ele>808.0</ele><time>2026-03-25T10:25:39.181Z</time></trkpt><trkpt lat="44.1508958" lon="10.3057599"><ele>801.4999999999999</ele><time>2026-03-25T10:25:41.174Z</time></trkpt><trkpt lat="44.1509229" lon="10.3058482"><ele>795.0</ele><time>2026-03-25T10:25:42.187Z</time></trkpt><trkpt lat="44.150951" lon="10.3059862"><ele>788.5</ele><time>2026-03-25T10:25:44.173Z</time></trkpt><trkpt lat="44.1509488" lon="10.30609"><ele>782.0</ele><time>2026-03-25T10:25:45.19Z</time></trkpt><trkpt lat="44.1509592" lon="10.3061935"><ele>775.4999999999999</ele><time>2026-03-25T10:25:46.179Z</time></trkpt><trkpt lat="44.1509673" lon="10.3062879"><ele>769.0</ele><time>2026-03-25T10:25:47.19Z</time></trkpt><trkpt lat="44.1509671" lon="10.3063758"><ele>770.6666666666666</ele><time>2026-03-25T10:25:48.196Z</time></trkpt><trkpt lat="44.1509253" lon="10.3065239"><ele>772.3333333333333</ele><time>2026-03-25T10:25:50.177Z</time></trkpt><trkpt lat="44.150914" lon="10.3066157"><ele>774.0</ele><time>2026-03-25T10:25:51.181Z</time></trkpt><trkpt lat="44.1509268" lon="10.3067371"><ele>775.6666666666667</ele><time>2026-03-25T10:25:53.181Z</time></trkpt><trkpt lat="44.1509924" lon="10.3067716"><ele>777.3333333333334</ele><time>2026-03-25T10:25:55.168Z</time></trkpt><trkpt lat="44.1510725" lon="10.3067877"><ele>779.0</ele><time>2026-03-25T10:25:58.171Z</time></trkpt><trkpt lat="44.1511358" lon="10.3067811"><ele>779.0000000000001</ele><time>2026-03-25T10:26:01.184Z</time></trkpt><trkpt lat="44.1511964" lon="10.3067488"><ele>779.0</ele><time>2026-03-25T10:26:04.172Z</time></trkpt><trkpt lat="44.1512703" lon="10.3066926"><ele>779.0</ele><time>2026-03-25T10:26:08.176Z</time></trkpt><trkpt lat="44.1513237" lon="10.3066457"><ele>779.0</ele><time>2026-03-25T10:26:11.179Z</time></trkpt><trkpt lat="44.1513728" lon="10.3065584"><ele>779.0</ele><time>2026-03-25T10:26:15.179Z</time></trkpt><trkpt lat="44.1514214" lon="10.3064754"><ele>779.0000000000001</ele><time>2026-03-25T10:26:19.198Z</time></trkpt><trkpt lat="44.1514708" lon="10.3063911"><ele>779.0</ele><time>2026-03-25T10:26:23.182Z</time></trkpt><trkpt lat="44.1514966" lon="10.3062943"><ele>773.0000000000001</ele><time>2026-03-25T10:26:27.188Z</time></trkpt><trkpt lat="44.1515523" lon="10.3062136"><ele>767.0</ele><time>2026-03-25T10:26:30.179Z</time></trkpt><trkpt lat="44.1516106" lon="10.3061681"><ele>761.0</ele><time>2026-03-25T10:26:33.182Z</time></trkpt><trkpt lat="44.1516897" lon="10.3061878"><ele>755.0</ele><time>2026-03-25T10:26:36.185Z</time></trkpt><trkpt lat="44.151768" lon="10.3062516"><ele>749.0</ele><time>2026-03-25T10:26:39.178Z</time></trkpt><trkpt lat="44.151821" lon="10.3063153"><ele>743.0</ele><time>2026-03-25T10:26:41.187Z</time></trkpt><trkpt lat="44.1518808" lon="10.3064079"><ele>747.0</ele><time>2026-03-25T10:26:43.185Z</time></trkpt><trkpt lat="44.1519426" lon="10.3064857"><ele>751.0</ele><time>2026-03-25T10:26:45.18Z</time></trkpt><trkpt lat="44.1519899" lon="10.306589"><ele>755.0</ele><time>2026-03-25T10:26:47.189Z</time></trkpt><trkpt lat="44.1520242" lon="10.3066976"><ele>759.0</ele><time>2026-03-25T10:26:49.171Z</time></trkpt><trkpt lat="44.1520392" lon="10.306818"><ele>763.0</ele><time>2026-03-25T10:26:51.187Z</time></trkpt><trkpt lat="44.1520603" lon="10.3069765"><ele>763.0</ele><time>2026-03-25T10:26:53.202Z</time></trkpt><trkpt lat="44.15208" lon="10.3071314"><ele>763.0</ele><time>2026-03-25T10:26:55.199Z</time></trkpt><trkpt lat="44.1521128" lon="10.3072753"><ele>763.0</ele><time>2026-03-25T10:26:57.185Z</time></trkpt><trkpt lat="44.1521589" lon="10.3073738"><ele>763.0</ele><time>2026-03-25T10:27:00.177Z</time></trkpt><trkpt lat="44.1522183" lon="10.3074456"><ele>763.0</ele><time>2026-03-25T10:27:04.175Z</time></trkpt><trkpt lat="44.152286" lon="10.3074984"><ele>764.5714285714286</ele><time>2026-03-25T10:27:08.173Z</time></trkpt><trkpt lat="44.1523479" lon="10.307526"><ele>766.1428571428571</ele><time>2026-03-25T10:27:11.186Z</time></trkpt><trkpt lat="44.1524118" lon="10.3075335"><ele>767.7142857142858</ele><time>2026-03-25T10:27:14.174Z</time></trkpt><trkpt lat="44.1524908" lon="10.3075258"><ele>769.2857142857142</ele><time>2026-03-25T10:27:18.181Z</time></trkpt><trkpt lat="44.1525705" lon="10.3074968"><ele>770.8571428571429</ele><time>2026-03-25T10:27:22.179Z</time></trkpt><trkpt lat="44.1526468" lon="10.3074547"><ele>772.4285714285714</ele><time>2026-03-25T10:27:26.184Z</time></trkpt><trkpt lat="44.1527003" lon="10.307407"><ele>774.0</ele><time>2026-03-25T10:27:29.182Z</time></trkpt><trkpt lat="44.1527537" lon="10.30736"><ele>774.0</ele><time>2026-03-25T10:27:32.183Z</time></trkpt><trkpt lat="44.152816" lon="10.307287"><ele>774.0</ele><time>2026-03-25T10:27:36.18Z</time></trkpt><trkpt lat="44.152877" lon="10.3072203"><ele>774.0</ele><time>2026-03-25T10:27:40.179Z</time></trkpt><trkpt lat="44.1529394" lon="10.307151"><ele>774.0</ele><time>2026-03-25T10:27:44.171Z</time></trkpt><trkpt lat="44.1530025" lon="10.3071323"><ele>774.0</ele><time>2026-03-25T10:27:47.176Z</time></trkpt><trkpt lat="44.15308" lon="10.307133"><ele>774.0</ele><time>2026-03-25T10:27:51.177Z</time></trkpt><trkpt lat="44.1531557" lon="10.3071452"><ele>774.4285714285714</ele><time>2026-03-25T10:27:55.176Z</time></trkpt><trkpt lat="44.1532178" lon="10.3071648"><ele>774.8571428571429</ele><time>2026-03-25T10:27:59.181Z</time></trkpt><trkpt lat="44.1532803" lon="10.3071893"><ele>775.2857142857142</ele><time>2026-03-25T10:28:03.194Z</time></trkpt><trkpt lat="44.1533504" lon="10.3072086"><ele>775.7142857142858</ele><time>2026-03-25T10:28:07.178Z</time></trkpt><trkpt lat="44.153428" lon="10.3072318"><ele>776.1428571428571</ele><time>2026-03-25T10:28:11.182Z</time></trkpt><trkpt lat="44.1535118" lon="10.3072625"><ele>776.5714285714286</ele><time>2026-03-25T10:28:15.182Z</time></trkpt><trkpt lat="44.1535872" lon="10.3072987"><ele>777.0</ele><time>2026-03-25T10:28:18.183Z</time></trkpt><trkpt lat="44.1536479" lon="10.3073506"><ele>777.0</ele><time>2026-03-25T10:28:22.178Z</time></trkpt><trkpt lat="44.1536805" lon="10.3074305"><ele>777.0</ele><time>2026-03-25T10:28:25.17Z</time></trkpt><trkpt lat="44.1536918" lon="10.3075457"><ele>777.0</ele><time>2026-03-25T10:28:29.184Z</time></trkpt><trkpt lat="44.1536862" lon="10.3076594"><ele>777.0</ele><time>2026-03-25T10:28:33.167Z</time></trkpt><trkpt lat="44.1536812" lon="10.3077722"><ele>777.0</ele><time>2026-03-25T10:28:36.17Z</time></trkpt><trkpt lat="44.1536949" lon="10.3078752"><ele>777.0</ele><time>2026-03-25T10:28:38.171Z</time></trkpt><trkpt lat="44.1537286" lon="10.3079634"><ele>777.0</ele><time>2026-03-25T10:28:40.171Z</time></trkpt><trkpt lat="44.1537776" lon="10.3080217"><ele>777.0</ele><time>2026-03-25T10:28:42.176Z</time></trkpt><trkpt lat="44.1538348" lon="10.3080796"><ele>777.0</ele><time>2026-03-25T10:28:44.171Z</time></trkpt><trkpt lat="44.1538921" lon="10.3081688"><ele>777.0</ele><time>2026-03-25T10:28:46.168Z</time></trkpt><trkpt lat="44.1539333" lon="10.308312"><ele>777.0</ele><time>2026-03-25T10:28:48.173Z</time></trkpt><trkpt lat="44.1539137" lon="10.3083981"><ele>777.0</ele><time>2026-03-25T10:28:49.177Z</time></trkpt><trkpt lat="44.1538961" lon="10.3085756"><ele>781.0</ele><time>2026-03-25T10:28:51.176Z</time></trkpt><trkpt lat="44.1538833" lon="10.3086737"><ele>785.0</ele><time>2026-03-25T10:28:52.195Z</time></trkpt><trkpt lat="44.1538932" lon="10.3087914"><ele>789.0</ele><time>2026-03-25T10:28:53.177Z</time></trkpt><trkpt lat="44.1539099" lon="10.3088918"><ele>793.0</ele><time>2026-03-25T10:28:54.176Z</time></trkpt><trkpt lat="44.1539187" lon="10.3089992"><ele>797.0</ele><time>2026-03-25T10:28:55.177Z</time></trkpt><trkpt lat="44.1539312" lon="10.3090941"><ele>801.0</ele><time>2026-03-25T10:28:56.182Z</time></trkpt><trkpt lat="44.1539363" lon="10.3092032"><ele>803.4</ele><time>2026-03-25T10:28:57.181Z</time></trkpt><trkpt lat="44.153998" lon="10.3093635"><ele>805.8</ele><time>2026-03-25T10:28:59.176Z</time></trkpt><trkpt lat="44.154091" lon="10.3094607"><ele>808.1999999999999</ele><time>2026-03-25T10:29:01.188Z</time></trkpt><trkpt lat="44.1541697" lon="10.3095186"><ele>810.5999999999999</ele><time>2026-03-25T10:29:03.183Z</time></trkpt><trkpt lat="44.1542324" lon="10.3096025"><ele>813.0</ele><time>2026-03-25T10:29:05.18Z</time></trkpt><trkpt lat="44.1543051" lon="10.3096838"><ele>808.0</ele><time>2026-03-25T10:29:07.176Z</time></trkpt><trkpt lat="44.154362" lon="10.3097444"><ele>803.0</ele><time>2026-03-25T10:29:09.198Z</time></trkpt><trkpt lat="44.1544326" lon="10.3098044"><ele>798.0</ele><time>2026-03-25T10:29:11.18Z</time></trkpt><trkpt lat="44.1545113" lon="10.3098608"><ele>793.0</ele><time>2026-03-25T10:29:13.175Z</time></trkpt><trkpt lat="44.1546034" lon="10.3098777"><ele>788.0</ele><time>2026-03-25T10:29:15.184Z</time></trkpt><trkpt lat="44.1546863" lon="10.3098633"><ele>783.0</ele><time>2026-03-25T10:29:17.181Z</time></trkpt><trkpt lat="44.1547622" lon="10.309839"><ele>783.0</ele><time>2026-03-25T10:29:19.168Z</time></trkpt><trkpt lat="44.1548328" lon="10.3098032"><ele>783.0</ele><time>2026-03-25T10:29:21.173Z</time></trkpt><trkpt lat="44.1549046" lon="10.3097679"><ele>783.0</ele><time>2026-03-25T10:29:23.171Z</time></trkpt><trkpt lat="44.1549679" lon="10.3097521"><ele>783.0</ele><time>2026-03-25T10:29:25.182Z</time></trkpt><trkpt lat="44.1550371" lon="10.3097465"><ele>783.0</ele><time>2026-03-25T10:29:27.184Z</time></trkpt><trkpt lat="44.1551089" lon="10.3097211"><ele>783.0</ele><time>2026-03-25T10:29:29.188Z</time></trkpt><trkpt lat="44.1551695" lon="10.3096862"><ele>783.0</ele><time>2026-03-25T10:29:31.172Z</time></trkpt><trkpt lat="44.1552391" lon="10.3096358"><ele>775.3333333333334</ele><time>2026-03-25T10:29:33.183Z</time></trkpt><trkpt lat="44.1553062" lon="10.3095813"><ele>767.6666666666666</ele><time>2026-03-25T10:29:35.196Z</time></trkpt><trkpt lat="44.1553892" lon="10.3095097"><ele>760.0</ele><time>2026-03-25T10:29:38.172Z</time></trkpt><trkpt lat="44.1554599" lon="10.3094453"><ele>752.3333333333333</ele><time>2026-03-25T10:29:41.183Z</time></trkpt><trkpt lat="44.1555319" lon="10.3093878"><ele>744.6666666666666</ele><time>2026-03-25T10:29:44.171Z</time></trkpt><trkpt lat="44.1556061" lon="10.3093543"><ele>737.0</ele><time>2026-03-25T10:29:47.179Z</time></trkpt><trkpt lat="44.1556911" lon="10.3093057"><ele>737.3333333333333</ele><time>2026-03-25T10:29:50.187Z</time></trkpt><trkpt lat="44.1557533" lon="10.3092529"><ele>737.6666666666666</ele><time>2026-03-25T10:29:52.173Z</time></trkpt><trkpt lat="44.1558165" lon="10.3092014"><ele>738.0</ele><time>2026-03-25T10:29:54.035Z</time></trkpt><trkpt lat="44.1559056" lon="10.309166"><ele>738.3333333333334</ele><time>2026-03-25T10:29:56.187Z</time></trkpt><trkpt lat="44.1559852" lon="10.3092309"><ele>738.6666666666667</ele><time>2026-03-25T10:29:58.193Z</time></trkpt><trkpt lat="44.1559848" lon="10.3093188"><ele>739.0</ele><time>2026-03-25T10:29:59.183Z</time></trkpt><trkpt lat="44.1559616" lon="10.3094643"><ele>739.0</ele><time>2026-03-25T10:30:01.184Z</time></trkpt><trkpt lat="44.1559106" lon="10.3095934"><ele>739.0</ele><time>2026-03-25T10:30:03.179Z</time></trkpt><trkpt lat="44.1558768" lon="10.3096748"><ele>739.0</ele><time>2026-03-25T10:30:04.178Z</time></trkpt><trkpt lat="44.1558446" lon="10.3097916"><ele>739.0</ele><time>2026-03-25T10:30:05.172Z</time></trkpt><trkpt lat="44.1558307" lon="10.3099005"><ele>739.0</ele><time>2026-03-25T10:30:06.189Z</time></trkpt><trkpt lat="44.1558119" lon="10.3100184"><ele>739.0</ele><time>2026-03-25T10:30:07.177Z</time></trkpt><trkpt lat="44.1557976" lon="10.3101924"><ele>741.1666666666667</ele><time>2026-03-25T10:30:09.173Z</time></trkpt><trkpt lat="44.1557711" lon="10.3102743"><ele>743.3333333333334</ele><time>2026-03-25T10:30:10.172Z</time></trkpt><trkpt lat="44.155732" lon="10.3103453"><ele>745.5</ele><time>2026-03-25T10:30:11.182Z</time></trkpt><trkpt lat="44.1556864" lon="10.3104472"><ele>747.6666666666666</ele><time>2026-03-25T10:30:12.173Z</time></trkpt><trkpt lat="44.1556596" lon="10.3105382"><ele>749.8333333333333</ele><time>2026-03-25T10:30:13.181Z</time></trkpt><trkpt lat="44.1556384" lon="10.3106333"><ele>752.0</ele><time>2026-03-25T10:30:14.177Z</time></trkpt><trkpt lat="44.1556593" lon="10.3107641"><ele>751.0</ele><time>2026-03-25T10:30:15.178Z</time></trkpt><trkpt lat="44.1556772" lon="10.3108634"><ele>750.0</ele><time>2026-03-25T10:30:16.199Z</time></trkpt><trkpt lat="44.1557142" lon="10.3109604"><ele>749.0</ele><time>2026-03-25T10:30:17.199Z</time></trkpt><trkpt lat="44.1557196" lon="10.3111328"><ele>748.0</ele><time>2026-03-25T10:30:19.189Z</time></trkpt><trkpt lat="44.1556913" lon="10.3112233"><ele>747.0</ele><time>2026-03-25T10:30:20.174Z</time></trkpt><trkpt lat="44.1556784" lon="10.3113167"><ele>746.0</ele><time>2026-03-25T10:30:21.185Z</time></trkpt><trkpt lat="44.1556636" lon="10.3114373"><ele>745.8333333333333</ele><time>2026-03-25T10:30:22.172Z</time></trkpt><trkpt lat="44.1556482" lon="10.311543"><ele>745.6666666666666</ele><time>2026-03-25T10:30:23.171Z</time></trkpt><trkpt lat="44.1556502" lon="10.3116979"><ele>745.5</ele><time>2026-03-25T10:30:25.185Z</time></trkpt><trkpt lat="44.1557309" lon="10.3117534"><ele>745.3333333333334</ele><time>2026-03-25T10:30:27.186Z</time></trkpt><trkpt lat="44.1558263" lon="10.311746"><ele>745.1666666666667</ele><time>2026-03-25T10:30:29.171Z</time></trkpt><trkpt lat="44.1558985" lon="10.3117413"><ele>745.0</ele><time>2026-03-25T10:30:30.202Z</time></trkpt><trkpt lat="44.1559627" lon="10.3117582"><ele>745.0</ele><time>2026-03-25T10:30:31.188Z</time></trkpt><trkpt lat="44.1560326" lon="10.3117817"><ele>745.0</ele><time>2026-03-25T10:30:32.189Z</time></trkpt><trkpt lat="44.156163" lon="10.3117694"><ele>745.0</ele><time>2026-03-25T10:30:34.18Z</time></trkpt><trkpt lat="44.1562293" lon="10.3117252"><ele>745.0</ele><time>2026-03-25T10:30:35.179Z</time></trkpt><trkpt lat="44.1563013" lon="10.3116808"><ele>745.0</ele><time>2026-03-25T10:30:36.186Z</time></trkpt><trkpt lat="44.1563697" lon="10.3116532"><ele>745.0</ele><time>2026-03-25T10:30:37.186Z</time></trkpt><trkpt lat="44.1564386" lon="10.3116443"><ele>739.2</ele><time>2026-03-25T10:30:38.178Z</time></trkpt><trkpt lat="44.1565462" lon="10.3116173"><ele>733.4</ele><time>2026-03-25T10:30:40.212Z</time></trkpt><trkpt lat="44.1566247" lon="10.3116801"><ele>727.5999999999999</ele><time>2026-03-25T10:30:42.178Z</time></trkpt><trkpt lat="44.1565911" lon="10.3118185"><ele>721.8</ele><time>2026-03-25T10:30:44.173Z</time></trkpt><trkpt lat="44.1565671" lon="10.3119524"><ele>716.0</ele><time>2026-03-25T10:30:46.174Z</time></trkpt><trkpt lat="44.1565491" lon="10.3120621"><ele>720.8333333333333</ele><time>2026-03-25T10:30:47.19Z</time></trkpt><trkpt lat="44.1565271" lon="10.3121609"><ele>725.6666666666666</ele><time>2026-03-25T10:30:48.18Z</time></trkpt><trkpt lat="44.1565006" lon="10.3122694"><ele>730.5</ele><time>2026-03-25T10:30:49.18Z</time></trkpt><trkpt lat="44.156479" lon="10.3123982"><ele>735.3333333333334</ele><time>2026-03-25T10:30:50.178Z</time></trkpt><trkpt lat="44.1564756" lon="10.3125145"><ele>740.1666666666667</ele><time>2026-03-25T10:30:51.176Z</time></trkpt><trkpt lat="44.1564692" lon="10.3126189"><ele>745.0</ele><time>2026-03-25T10:30:52.186Z</time></trkpt><trkpt lat="44.1564688" lon="10.3127337"><ele>744.4</ele><time>2026-03-25T10:30:53.185Z</time></trkpt><trkpt lat="44.1564369" lon="10.3128817"><ele>743.8</ele><time>2026-03-25T10:30:54.174Z</time></trkpt><trkpt lat="44.1564137" lon="10.3129933"><ele>743.2</ele><time>2026-03-25T10:30:55.19Z</time></trkpt><trkpt lat="44.156346" lon="10.3131169"><ele>742.6</ele><time>2026-03-25T10:30:56.186Z</time></trkpt><trkpt lat="44.1563006" lon="10.3132325"><ele>742.0</ele><time>2026-03-25T10:30:57.169Z</time></trkpt><trkpt lat="44.1562498" lon="10.3133415"><ele>742.0</ele><time>2026-03-25T10:30:58.187Z</time></trkpt><trkpt lat="44.1561965" lon="10.3134386"><ele>742.0</ele><time>2026-03-25T10:30:59.186Z</time></trkpt><trkpt lat="44.1561398" lon="10.3135329"><ele>742.0</ele><time>2026-03-25T10:31:00.194Z</time></trkpt><trkpt lat="44.156091" lon="10.313614"><ele>742.0</ele><time>2026-03-25T10:31:01.188Z</time></trkpt><trkpt lat="44.1560769" lon="10.3137556"><ele>742.0</ele><time>2026-03-25T10:31:03.191Z</time></trkpt><trkpt lat="44.1561259" lon="10.3138956"><ele>740.2</ele><time>2026-03-25T10:31:05.204Z</time></trkpt><trkpt lat="44.1562209" lon="10.3139964"><ele>738.4000000000001</ele><time>2026-03-25T10:31:07.194Z</time></trkpt><trkpt lat="44.1562665" lon="10.3140726"><ele>736.5999999999999</ele><time>2026-03-25T10:31:08.194Z</time></trkpt><trkpt lat="44.1563055" lon="10.3141436"><ele>734.8</ele><time>2026-03-25T10:31:09.178Z</time></trkpt><trkpt lat="44.1563393" lon="10.3143259"><ele>733.0</ele><time>2026-03-25T10:31:11.196Z</time></trkpt><trkpt lat="44.1563659" lon="10.3144251"><ele>733.0</ele><time>2026-03-25T10:31:12.185Z</time></trkpt><trkpt lat="44.1563859" lon="10.3145317"><ele>733.0</ele><time>2026-03-25T10:31:13.181Z</time></trkpt><trkpt lat="44.1564002" lon="10.3146374"><ele>733.0</ele><time>2026-03-25T10:31:14.191Z</time></trkpt><trkpt lat="44.1563934" lon="10.3147268"><ele>733.0</ele><time>2026-03-25T10:31:15.189Z</time></trkpt><trkpt lat="44.1563771" lon="10.3148122"><ele>733.0</ele><time>2026-03-25T10:31:16.184Z</time></trkpt><trkpt lat="44.1563293" lon="10.3149248"><ele>733.0</ele><time>2026-03-25T10:31:17.177Z</time></trkpt><trkpt lat="44.1562871" lon="10.3150075"><ele>731.0</ele><time>2026-03-25T10:31:18.197Z</time></trkpt><trkpt lat="44.1562297" lon="10.3150885"><ele>729.0</ele><time>2026-03-25T10:31:19.182Z</time></trkpt><trkpt lat="44.1561803" lon="10.3151613"><ele>727.0</ele><time>2026-03-25T10:31:20.181Z</time></trkpt><trkpt lat="44.1561182" lon="10.315219"><ele>725.0</ele><time>2026-03-25T10:31:21.187Z</time></trkpt><trkpt lat="44.1560503" lon="10.3152602"><ele>723.0</ele><time>2026-03-25T10:31:22.186Z</time></trkpt><trkpt lat="44.1559943" lon="10.3153451"><ele>721.0</ele><time>2026-03-25T10:31:23.186Z</time></trkpt><trkpt lat="44.1559516" lon="10.3154348"><ele>721.0</ele><time>2026-03-25T10:31:24.183Z</time></trkpt><trkpt lat="44.1559184" lon="10.315524"><ele>721.0</ele><time>2026-03-25T10:31:25.182Z</time></trkpt><trkpt lat="44.1558793" lon="10.3156069"><ele>721.0</ele><time>2026-03-25T10:31:26.193Z</time></trkpt><trkpt lat="44.1558352" lon="10.3157353"><ele>721.0</ele><time>2026-03-25T10:31:28.18Z</time></trkpt><trkpt lat="44.1558391" lon="10.3158522"><ele>721.0</ele><time>2026-03-25T10:31:30.176Z</time></trkpt><trkpt lat="44.1559091" lon="10.3158058"><ele>721.0</ele><time>2026-03-25T10:31:34.177Z</time></trkpt><trkpt lat="44.1559555" lon="10.3157002"><ele>721.0</ele><time>2026-03-25T10:31:36.186Z</time></trkpt><trkpt lat="44.156039" lon="10.3156042"><ele>721.0</ele><time>2026-03-25T10:31:38.174Z</time></trkpt><trkpt lat="44.1561351" lon="10.3155253"><ele>721.0</ele><time>2026-03-25T10:31:40.18Z</time></trkpt><trkpt lat="44.1561992" lon="10.3155053"><ele>721.0</ele><time>2026-03-25T10:31:41.182Z</time></trkpt><trkpt lat="44.1563279" lon="10.3154584"><ele>721.0</ele><time>2026-03-25T10:31:43.18Z</time></trkpt><trkpt lat="44.1563905" lon="10.3154077"><ele>721.0</ele><time>2026-03-25T10:31:44.176Z</time></trkpt><trkpt lat="44.1564501" lon="10.315343"><ele>721.0</ele><time>2026-03-25T10:31:45.18Z</time></trkpt><trkpt lat="44.1565117" lon="10.3152629"><ele>721.0</ele><time>2026-03-25T10:31:46.174Z</time></trkpt><trkpt lat="44.1565701" lon="10.3151832"><ele>721.0</ele><time>2026-03-25T10:31:47.184Z</time></trkpt><trkpt lat="44.1566456" lon="10.3150664"><ele>721.0</ele><time>2026-03-25T10:31:49.181Z</time></trkpt><trkpt lat="44.1567387" lon="10.3149819"><ele>713.4</ele><time>2026-03-25T10:31:51.18Z</time></trkpt><trkpt lat="44.1568399" lon="10.3150057"><ele>705.8</ele><time>2026-03-25T10:31:53.172Z</time></trkpt><trkpt lat="44.1568488" lon="10.3151488"><ele>698.1999999999999</ele><time>2026-03-25T10:31:55.172Z</time></trkpt><trkpt lat="44.1568154" lon="10.3153037"><ele>690.5999999999999</ele><time>2026-03-25T10:31:57.187Z</time></trkpt><trkpt lat="44.1568049" lon="10.3154598"><ele>683.0</ele><time>2026-03-25T10:31:59.212Z</time></trkpt><trkpt lat="44.1568077" lon="10.315548"><ele>681.0</ele><time>2026-03-25T10:32:00.182Z</time></trkpt><trkpt lat="44.1568219" lon="10.3156335"><ele>679.0</ele><time>2026-03-25T10:32:01.18Z</time></trkpt><trkpt lat="44.1568685" lon="10.3157757"><ele>677.0</ele><time>2026-03-25T10:32:03.176Z</time></trkpt><trkpt lat="44.156936" lon="10.3157821"><ele>675.0</ele><time>2026-03-25T10:32:04.195Z</time></trkpt><trkpt lat="44.1570699" lon="10.3157845"><ele>673.0</ele><time>2026-03-25T10:32:06.194Z</time></trkpt><trkpt lat="44.1571509" lon="10.3157887"><ele>673.0</ele><time>2026-03-25T10:32:07.174Z</time></trkpt><trkpt lat="44.1572298" lon="10.3157914"><ele>673.0</ele><time>2026-03-25T10:32:08.191Z</time></trkpt><trkpt lat="44.1573105" lon="10.3157959"><ele>673.0</ele><time>2026-03-25T10:32:09.17Z</time></trkpt><trkpt lat="44.1573779" lon="10.3157774"><ele>673.0</ele><time>2026-03-25T10:32:10.183Z</time></trkpt><trkpt lat="44.1574874" lon="10.3156703"><ele>673.0</ele><time>2026-03-25T10:32:12.177Z</time></trkpt><trkpt lat="44.1575288" lon="10.3155857"><ele>673.0</ele><time>2026-03-25T10:32:13.175Z</time></trkpt><trkpt lat="44.1575683" lon="10.3154938"><ele>669.6666666666667</ele><time>2026-03-25T10:32:14.195Z</time></trkpt><trkpt lat="44.157591" lon="10.3153697"><ele>666.3333333333334</ele><time>2026-03-25T10:32:15.175Z</time></trkpt><trkpt lat="44.1576036" lon="10.3152697"><ele>663.0</ele><time>2026-03-25T10:32:16.178Z</time></trkpt><trkpt lat="44.1576174" lon="10.3151625"><ele>659.6666666666666</ele><time>2026-03-25T10:32:17.186Z</time></trkpt><trkpt lat="44.1576294" lon="10.3150607"><ele>656.3333333333333</ele><time>2026-03-25T10:32:18.176Z</time></trkpt><trkpt lat="44.1576516" lon="10.314956"><ele>653.0</ele><time>2026-03-25T10:32:19.177Z</time></trkpt><trkpt lat="44.1576888" lon="10.3148515"><ele>653.0</ele><time>2026-03-25T10:32:20.178Z</time></trkpt><trkpt lat="44.1577279" lon="10.3147599"><ele>653.0</ele><time>2026-03-25T10:32:21.175Z</time></trkpt><trkpt lat="44.1577806" lon="10.3146635"><ele>653.0</ele><time>2026-03-25T10:32:22.17Z</time></trkpt><trkpt lat="44.1578383" lon="10.3145669"><ele>653.0</ele><time>2026-03-25T10:32:23.184Z</time></trkpt><trkpt lat="44.1579071" lon="10.3144688"><ele>653.0</ele><time>2026-03-25T10:32:24.182Z</time></trkpt><trkpt lat="44.1579654" lon="10.3143644"><ele>653.0</ele><time>2026-03-25T10:32:25.182Z</time></trkpt><trkpt lat="44.1580286" lon="10.3142717"><ele>652.8571428571429</ele><time>2026-03-25T10:32:26.174Z</time></trkpt><trkpt lat="44.15809" lon="10.3141849"><ele>652.7142857142858</ele><time>2026-03-25T10:32:27.196Z</time></trkpt><trkpt lat="44.1581444" lon="10.314118"><ele>652.5714285714287</ele><time>2026-03-25T10:32:28.177Z</time></trkpt><trkpt lat="44.1582071" lon="10.314055"><ele>652.4285714285714</ele><time>2026-03-25T10:32:29.195Z</time></trkpt><trkpt lat="44.1582646" lon="10.3139864"><ele>652.2857142857142</ele><time>2026-03-25T10:32:30.182Z</time></trkpt><trkpt lat="44.158316" lon="10.3139345"><ele>652.1428571428572</ele><time>2026-03-25T10:32:31.183Z</time></trkpt><trkpt lat="44.1583715" lon="10.3138915"><ele>652.0</ele><time>2026-03-25T10:32:32.187Z</time></trkpt><trkpt lat="44.158431" lon="10.3138443"><ele>647.8000000000001</ele><time>2026-03-25T10:32:33.17Z</time></trkpt><trkpt lat="44.1584972" lon="10.3138244"><ele>643.6</ele><time>2026-03-25T10:32:34.176Z</time></trkpt><trkpt lat="44.1585893" lon="10.3137551"><ele>639.4000000000001</ele><time>2026-03-25T10:32:36.184Z</time></trkpt><trkpt lat="44.158638" lon="10.3136416"><ele>635.2</ele><time>2026-03-25T10:32:38.194Z</time></trkpt><trkpt lat="44.1586238" lon="10.3134864"><ele>631.0</ele><time>2026-03-25T10:32:40.187Z</time></trkpt><trkpt lat="44.1585541" lon="10.3133711"><ele>631.0</ele><time>2026-03-25T10:32:42.176Z</time></trkpt><trkpt lat="44.1584891" lon="10.3132523"><ele>631.0</ele><time>2026-03-25T10:32:44.194Z</time></trkpt><trkpt lat="44.1585112" lon="10.3131592"><ele>631.0</ele><time>2026-03-25T10:32:46.167Z</time></trkpt><trkpt lat="44.1585841" lon="10.3131443"><ele>631.0</ele><time>2026-03-25T10:32:48.177Z</time></trkpt><trkpt lat="44.1586462" lon="10.3132192"><ele>631.0</ele><time>2026-03-25T10:32:50.18Z</time></trkpt><trkpt lat="44.1587201" lon="10.3133056"><ele>631.0</ele><time>2026-03-25T10:32:52.186Z</time></trkpt><trkpt lat="44.1587864" lon="10.3133952"><ele>631.0</ele><time>2026-03-25T10:32:54.182Z</time></trkpt><trkpt lat="44.1588487" lon="10.3134903"><ele>631.0</ele><time>2026-03-25T10:32:56.181Z</time></trkpt><trkpt lat="44.15895" lon="10.3134866"><ele>631.0</ele><time>2026-03-25T10:32:58.172Z</time></trkpt><trkpt lat="44.1590399" lon="10.3134709"><ele>631.0</ele><time>2026-03-25T10:33:00.166Z</time></trkpt><trkpt lat="44.1591518" lon="10.3134659"><ele>631.0</ele><time>2026-03-25T10:33:02.191Z</time></trkpt><trkpt lat="44.159272" lon="10.3135065"><ele>629.4</ele><time>2026-03-25T10:33:04.185Z</time></trkpt><trkpt lat="44.1593606" lon="10.3135959"><ele>627.8</ele><time>2026-03-25T10:33:06.182Z</time></trkpt><trkpt lat="44.1594632" lon="10.3136138"><ele>626.1999999999999</ele><time>2026-03-25T10:33:08.182Z</time></trkpt><trkpt lat="44.1595144" lon="10.3134894"><ele>624.6</ele><time>2026-03-25T10:33:10.185Z</time></trkpt><trkpt lat="44.1595022" lon="10.3133702"><ele>623.0</ele><time>2026-03-25T10:33:12.193Z</time></trkpt><trkpt lat="44.1594478" lon="10.3132673"><ele>623.0</ele><time>2026-03-25T10:33:14.202Z</time></trkpt><trkpt lat="44.1593921" lon="10.3131212"><ele>623.0</ele><time>2026-03-25T10:33:16.183Z</time></trkpt><trkpt lat="44.1593615" lon="10.3130323"><ele>623.0</ele><time>2026-03-25T10:33:17.198Z</time></trkpt><trkpt lat="44.1593267" lon="10.3129404"><ele>623.0</ele><time>2026-03-25T10:33:18.196Z</time></trkpt><trkpt lat="44.1592784" lon="10.3128724"><ele>623.0</ele><time>2026-03-25T10:33:19.173Z</time></trkpt><trkpt lat="44.1592087" lon="10.3128111"><ele>623.0</ele><time>2026-03-25T10:33:20.18Z</time></trkpt><trkpt lat="44.1591389" lon="10.3127503"><ele>622.8333333333333</ele><time>2026-03-25T10:33:21.173Z</time></trkpt><trkpt lat="44.1590667" lon="10.312682"><ele>622.6666666666666</ele><time>2026-03-25T10:33:22.201Z</time></trkpt><trkpt lat="44.1589968" lon="10.3126135"><ele>622.5</ele><time>2026-03-25T10:33:23.188Z</time></trkpt><trkpt lat="44.1589232" lon="10.3125624"><ele>622.3333333333334</ele><time>2026-03-25T10:33:24.186Z</time></trkpt><trkpt lat="44.1588452" lon="10.3125023"><ele>622.1666666666667</ele><time>2026-03-25T10:33:25.201Z</time></trkpt><trkpt lat="44.1587684" lon="10.3124224"><ele>622.0</ele><time>2026-03-25T10:33:26.182Z</time></trkpt><trkpt lat="44.1587016" lon="10.3123448"><ele>622.0</ele><time>2026-03-25T10:33:27.202Z</time></trkpt><trkpt lat="44.1586474" lon="10.3122787"><ele>622.0</ele><time>2026-03-25T10:33:28.182Z</time></trkpt><trkpt lat="44.1585697" lon="10.3121711"><ele>622.0</ele><time>2026-03-25T10:33:30.192Z</time></trkpt><trkpt lat="44.1585914" lon="10.3120724"><ele>622.0</ele><time>2026-03-25T10:33:32.186Z</time></trkpt><trkpt lat="44.1586705" lon="10.3120749"><ele>622.0</ele><time>2026-03-25T10:33:35.184Z</time></trkpt><trkpt lat="44.1587397" lon="10.3121185"><ele>622.0</ele><time>2026-03-25T10:33:37.184Z</time></trkpt><trkpt lat="44.1588088" lon="10.3121382"><ele>621.6</ele><time>2026-03-25T10:33:38.185Z</time></trkpt><trkpt lat="44.1589208" lon="10.3121559"><ele>621.2</ele><time>2026-03-25T10:33:40.19Z</time></trkpt><trkpt lat="44.1590321" lon="10.3121983"><ele>620.8</ele><time>2026-03-25T10:33:42.177Z</time></trkpt><trkpt lat="44.1591331" lon="10.3122759"><ele>620.4</ele><time>2026-03-25T10:33:44.198Z</time></trkpt><trkpt lat="44.1592094" lon="10.3123205"><ele>620.0</ele><time>2026-03-25T10:33:46.178Z</time></trkpt><trkpt lat="44.1592975" lon="10.3122337"><ele>618.8333333333333</ele><time>2026-03-25T10:33:48.179Z</time></trkpt><trkpt lat="44.1593665" lon="10.3121836"><ele>617.6666666666666</ele><time>2026-03-25T10:33:50.207Z</time></trkpt><trkpt lat="44.1594399" lon="10.3121437"><ele>616.5</ele><time>2026-03-25T10:33:52.178Z</time></trkpt><trkpt lat="44.1595181" lon="10.31215"><ele>615.3333333333334</ele><time>2026-03-25T10:33:54.177Z</time></trkpt><trkpt lat="44.1596018" lon="10.3122024"><ele>614.1666666666667</ele><time>2026-03-25T10:33:56.17Z</time></trkpt><trkpt lat="44.159681" lon="10.3122765"><ele>613.0</ele><time>2026-03-25T10:33:58.173Z</time></trkpt><trkpt lat="44.159743" lon="10.3123264"><ele>613.0</ele><time>2026-03-25T10:33:59.174Z</time></trkpt><trkpt lat="44.1598265" lon="10.3124061"><ele>613.0</ele><time>2026-03-25T10:34:01.193Z</time></trkpt><trkpt lat="44.1599257" lon="10.3124445"><ele>613.0</ele><time>2026-03-25T10:34:03.179Z</time></trkpt><trkpt lat="44.1600467" lon="10.3124346"><ele>613.0</ele><time>2026-03-25T10:34:05.173Z</time></trkpt><trkpt lat="44.1601273" lon="10.3124586"><ele>613.0</ele><time>2026-03-25T10:34:07.18Z</time></trkpt><trkpt lat="44.1602266" lon="10.3125127"><ele>611.4</ele><time>2026-03-25T10:34:09.181Z</time></trkpt><trkpt lat="44.1603388" lon="10.3125391"><ele>609.8</ele><time>2026-03-25T10:34:11.173Z</time></trkpt><trkpt lat="44.1604537" lon="10.3124671"><ele>608.2</ele><time>2026-03-25T10:34:13.169Z</time></trkpt><trkpt lat="44.1605087" lon="10.312418"><ele>606.6</ele><time>2026-03-25T10:34:14.175Z</time></trkpt><trkpt lat="44.1605692" lon="10.3123767"><ele>605.0</ele><time>2026-03-25T10:34:15.196Z</time></trkpt><trkpt lat="44.1606579" lon="10.312341"><ele>602.4285714285714</ele><time>2026-03-25T10:34:17.185Z</time></trkpt><trkpt lat="44.1607093" lon="10.3122668"><ele>599.8571428571429</ele><time>2026-03-25T10:34:19.179Z</time></trkpt><trkpt lat="44.160684" lon="10.3121862"><ele>597.2857142857143</ele><time>2026-03-25T10:34:21.182Z</time></trkpt><trkpt lat="44.16063" lon="10.3121341"><ele>594.7142857142858</ele><time>2026-03-25T10:34:23.192Z</time></trkpt><trkpt lat="44.1605378" lon="10.3121321"><ele>592.1428571428572</ele><time>2026-03-25T10:34:25.177Z</time></trkpt><trkpt lat="44.1604689" lon="10.312114"><ele>589.5714285714286</ele><time>2026-03-25T10:34:26.194Z</time></trkpt><trkpt lat="44.160405" lon="10.3121049"><ele>587.0</ele><time>2026-03-25T10:34:27.191Z</time></trkpt><trkpt lat="44.1603443" lon="10.3120726"><ele>587.0</ele><time>2026-03-25T10:34:28.19Z</time></trkpt><trkpt lat="44.1602233" lon="10.3120298"><ele>587.0</ele><time>2026-03-25T10:34:30.184Z</time></trkpt><trkpt lat="44.1601119" lon="10.3120163"><ele>587.0</ele><time>2026-03-25T10:34:32.189Z</time></trkpt><trkpt lat="44.160016" lon="10.3119795"><ele>587.0</ele><time>2026-03-25T10:34:34.191Z</time></trkpt><trkpt lat="44.159918" lon="10.311887"><ele>586.5</ele><time>2026-03-25T10:34:36.19Z</time></trkpt><trkpt lat="44.1598583" lon="10.3117738"><ele>586.0</ele><time>2026-03-25T10:34:38.196Z</time></trkpt><trkpt lat="44.1598364" lon="10.3116182"><ele>585.5</ele><time>2026-03-25T10:34:40.184Z</time></trkpt><trkpt lat="44.159844" lon="10.3114405"><ele>585.0</ele><time>2026-03-25T10:34:42.198Z</time></trkpt><trkpt lat="44.1598116" lon="10.3112857"><ele>585.0</ele><time>2026-03-25T10:34:44.205Z</time></trkpt><trkpt lat="44.1597366" lon="10.311127"><ele>585.0</ele><time>2026-03-25T10:34:46.186Z</time></trkpt><trkpt lat="44.1596947" lon="10.3110327"><ele>585.0</ele><time>2026-03-25T10:34:47.191Z</time></trkpt><trkpt lat="44.1596607" lon="10.3109435"><ele>585.0</ele><time>2026-03-25T10:34:48.198Z</time></trkpt><trkpt lat="44.1596406" lon="10.3107899"><ele>585.0</ele><time>2026-03-25T10:34:50.202Z</time></trkpt><trkpt lat="44.1596795" lon="10.3106372"><ele>586.5</ele><time>2026-03-25T10:34:52.185Z</time></trkpt><trkpt lat="44.1597936" lon="10.3105662"><ele>588.0</ele><time>2026-03-25T10:34:54.19Z</time></trkpt><trkpt lat="44.159889" lon="10.3104584"><ele>589.5</ele><time>2026-03-25T10:34:56.19Z</time></trkpt><trkpt lat="44.1599317" lon="10.3103805"><ele>591.0</ele><time>2026-03-25T10:34:57.193Z</time></trkpt><trkpt lat="44.1599651" lon="10.3101922"><ele>586.8333333333334</ele><time>2026-03-25T10:34:59.177Z</time></trkpt><trkpt lat="44.1599828" lon="10.3101069"><ele>582.6666666666666</ele><time>2026-03-25T10:35:00.188Z</time></trkpt><trkpt lat="44.1599999" lon="10.3100202"><ele>578.5</ele><time>2026-03-25T10:35:01.17Z</time></trkpt><trkpt lat="44.1600227" lon="10.3099009"><ele>574.3333333333333</ele><time>2026-03-25T10:35:02.191Z</time></trkpt><trkpt lat="44.1600271" lon="10.3097943"><ele>570.1666666666666</ele><time>2026-03-25T10:35:03.19Z</time></trkpt><trkpt lat="44.1600116" lon="10.3096765"><ele>566.0</ele><time>2026-03-25T10:35:04.175Z</time></trkpt><trkpt lat="44.1599834" lon="10.3095612"><ele>564.8</ele><time>2026-03-25T10:35:05.187Z</time></trkpt><trkpt lat="44.1599689" lon="10.3094446"><ele>563.6</ele><time>2026-03-25T10:35:06.193Z</time></trkpt><trkpt lat="44.1599504" lon="10.3093113"><ele>562.4</ele><time>2026-03-25T10:35:07.189Z</time></trkpt><trkpt lat="44.1599152" lon="10.3091856"><ele>561.2</ele><time>2026-03-25T10:35:08.194Z</time></trkpt><trkpt lat="44.1598722" lon="10.3090514"><ele>560.0</ele><time>2026-03-25T10:35:09.186Z</time></trkpt><trkpt lat="44.1598379" lon="10.3089459"><ele>562.4</ele><time>2026-03-25T10:35:10.188Z</time></trkpt><trkpt lat="44.1598004" lon="10.3088333"><ele>564.8</ele><time>2026-03-25T10:35:11.188Z</time></trkpt><trkpt lat="44.159759" lon="10.3087018"><ele>567.2</ele><time>2026-03-25T10:35:13.189Z</time></trkpt><trkpt lat="44.1597298" lon="10.3085312"><ele>569.6</ele><time>2026-03-25T10:35:15.191Z</time></trkpt><trkpt lat="44.1597602" lon="10.3083758"><ele>572.0</ele><time>2026-03-25T10:35:17.18Z</time></trkpt><trkpt lat="44.159813" lon="10.3082093"><ele>572.0</ele><time>2026-03-25T10:35:19.198Z</time></trkpt><trkpt lat="44.1598491" lon="10.3081338"><ele>572.0</ele><time>2026-03-25T10:35:20.189Z</time></trkpt><trkpt lat="44.1598875" lon="10.3080609"><ele>572.0</ele><time>2026-03-25T10:35:21.181Z</time></trkpt><trkpt lat="44.159935" lon="10.3079995"><ele>572.0</ele><time>2026-03-25T10:35:22.188Z</time></trkpt><trkpt lat="44.1600171" lon="10.3078928"><ele>572.0</ele><time>2026-03-25T10:35:24.191Z</time></trkpt><trkpt lat="44.1600933" lon="10.3078572"><ele>572.0</ele><time>2026-03-25T10:35:26.184Z</time></trkpt><trkpt lat="44.1601682" lon="10.3078916"><ele>571.2857142857142</ele><time>2026-03-25T10:35:28.176Z</time></trkpt><trkpt lat="44.1602301" lon="10.3079477"><ele>570.5714285714286</ele><time>2026-03-25T10:35:30.181Z</time></trkpt><trkpt lat="44.1602903" lon="10.3080071"><ele>569.8571428571429</ele><time>2026-03-25T10:35:33.177Z</time></trkpt><trkpt lat="44.1603471" lon="10.308072"><ele>569.1428571428571</ele><time>2026-03-25T10:35:39.177Z</time></trkpt><trkpt lat="44.1604054" lon="10.3081077"><ele>568.4285714285714</ele><time>2026-03-25T10:35:45.178Z</time></trkpt><trkpt lat="44.1604678" lon="10.3081465"><ele>567.7142857142857</ele><time>2026-03-25T10:35:51.173Z</time></trkpt><trkpt lat="44.1605374" lon="10.3081741"><ele>567.0</ele><time>2026-03-25T10:35:58.179Z</time></trkpt><trkpt lat="44.1605996" lon="10.3081566"><ele>564.8571428571429</ele><time>2026-03-25T10:36:02.185Z</time></trkpt><trkpt lat="44.1606669" lon="10.3081397"><ele>562.7142857142858</ele><time>2026-03-25T10:36:06.17Z</time></trkpt><trkpt lat="44.1607349" lon="10.3081138"><ele>560.5714285714286</ele><time>2026-03-25T10:36:12.174Z</time></trkpt><trkpt lat="44.1608056" lon="10.3080854"><ele>558.4285714285714</ele><time>2026-03-25T10:36:19.18Z</time></trkpt><trkpt lat="44.1608775" lon="10.3080764"><ele>556.2857142857143</ele><time>2026-03-25T10:36:25.176Z</time></trkpt><trkpt lat="44.1609424" lon="10.3080468"><ele>554.1428571428571</ele><time>2026-03-25T10:36:31.182Z</time></trkpt><trkpt lat="44.1610129" lon="10.3080523"><ele>552.0</ele><time>2026-03-25T10:36:37.185Z</time></trkpt><trkpt lat="44.1610797" lon="10.3080651"><ele>555.8571428571429</ele><time>2026-03-25T10:36:43.187Z</time></trkpt><trkpt lat="44.1611456" lon="10.3080266"><ele>559.7142857142858</ele><time>2026-03-25T10:36:50.189Z</time></trkpt><trkpt lat="44.161211" lon="10.3079933"><ele>563.5714285714286</ele><time>2026-03-25T10:36:56.176Z</time></trkpt><trkpt lat="44.1612729" lon="10.3079747"><ele>567.4285714285714</ele><time>2026-03-25T10:37:01.171Z</time></trkpt><trkpt lat="44.1613355" lon="10.3079508"><ele>571.2857142857142</ele><time>2026-03-25T10:37:07.173Z</time></trkpt><trkpt lat="44.1614039" lon="10.30796"><ele>575.1428571428571</ele><time>2026-03-25T10:37:13.176Z</time></trkpt><trkpt lat="44.1614706" lon="10.3079624"><ele>579.0</ele><time>2026-03-25T10:37:18.174Z</time></trkpt><trkpt lat="44.1615399" lon="10.3079598"><ele>578.9999999999999</ele><time>2026-03-25T10:37:23.185Z</time></trkpt><trkpt lat="44.161592" lon="10.3078961"><ele>579.0</ele><time>2026-03-25T10:37:28.179Z</time></trkpt><trkpt lat="44.1616387" lon="10.3078075"><ele>579.0</ele><time>2026-03-25T10:37:34.169Z</time></trkpt><trkpt lat="44.1616905" lon="10.3077547"><ele>579.0</ele><time>2026-03-25T10:37:37.171Z</time></trkpt><trkpt lat="44.1617383" lon="10.3076956"><ele>579.0</ele><time>2026-03-25T10:37:41.186Z</time></trkpt><trkpt lat="44.1617835" lon="10.3076262"><ele>578.9999999999999</ele><time>2026-03-25T10:37:47.191Z</time></trkpt><trkpt lat="44.1618208" lon="10.3075383"><ele>579.0</ele><time>2026-03-25T10:37:54.179Z</time></trkpt><trkpt lat="44.1618453" lon="10.3074479"><ele>578.9999999999999</ele><time>2026-03-25T10:38:01.183Z</time></trkpt><trkpt lat="44.1618805" lon="10.3073712"><ele>579.0</ele><time>2026-03-25T10:38:07.191Z</time></trkpt><trkpt lat="44.1619197" lon="10.3072999"><ele>579.0</ele><time>2026-03-25T10:38:12.189Z</time></trkpt><trkpt lat="44.1619593" lon="10.3072172"><ele>579.0</ele><time>2026-03-25T10:38:18.178Z</time></trkpt><trkpt lat="44.1620053" lon="10.3071494"><ele>579.0</ele><time>2026-03-25T10:38:24.187Z</time></trkpt><trkpt lat="44.1620507" lon="10.3070813"><ele>578.9999999999999</ele><time>2026-03-25T10:38:29.178Z</time></trkpt><trkpt lat="44.1621148" lon="10.3070306"><ele>579.0</ele><time>2026-03-25T10:38:35.184Z</time></trkpt><trkpt lat="44.1621634" lon="10.3069619"><ele>581.2857142857142</ele><time>2026-03-25T10:38:41.187Z</time></trkpt><trkpt lat="44.162204" lon="10.306884"><ele>583.5714285714286</ele><time>2026-03-25T10:38:47.19Z</time></trkpt><trkpt lat="44.1622472" lon="10.3068149"><ele>585.8571428571429</ele><time>2026-03-25T10:38:53.172Z</time></trkpt><trkpt lat="44.1623093" lon="10.3067656"><ele>588.1428571428571</ele><time>2026-03-25T10:39:00.18Z</time></trkpt><trkpt lat="44.1623792" lon="10.306774"><ele>590.4285714285714</ele><time>2026-03-25T10:39:06.179Z</time></trkpt><trkpt lat="44.162449" lon="10.3067894"><ele>592.7142857142857</ele><time>2026-03-25T10:39:12.18Z</time></trkpt><trkpt lat="44.1625205" lon="10.3067899"><ele>595.0</ele><time>2026-03-25T10:39:19.18Z</time></trkpt><trkpt lat="44.162588" lon="10.3067565"><ele>595.0</ele><time>2026-03-25T10:39:25.187Z</time></trkpt><trkpt lat="44.1626464" lon="10.30672"><ele>595.0</ele><time>2026-03-25T10:39:30.18Z</time></trkpt><trkpt lat="44.1627067" lon="10.3066743"><ele>595.0</ele><time>2026-03-25T10:39:36.18Z</time></trkpt><trkpt lat="44.1627584" lon="10.3066191"><ele>595.0</ele><time>2026-03-25T10:39:41.175Z</time></trkpt><trkpt lat="44.1628098" lon="10.3065636"><ele>595.0</ele><time>2026-03-25T10:39:46.176Z</time></trkpt><trkpt lat="44.162859" lon="10.3065056"><ele>595.0</ele><time>2026-03-25T10:39:51.196Z</time></trkpt><trkpt lat="44.1629031" lon="10.3064353"><ele>595.0</ele><time>2026-03-25T10:39:57.186Z</time></trkpt><trkpt lat="44.162953" lon="10.3063802"><ele>597.8571428571429</ele><time>2026-03-25T10:40:03.175Z</time></trkpt><trkpt lat="44.1630108" lon="10.3063192"><ele>600.7142857142858</ele><time>2026-03-25T10:40:10.178Z</time></trkpt><trkpt lat="44.1630749" lon="10.3062663"><ele>603.5714285714286</ele><time>2026-03-25T10:40:17.185Z</time></trkpt><trkpt lat="44.1631344" lon="10.3062169"><ele>606.4285714285714</ele><time>2026-03-25T10:40:23.174Z</time></trkpt><trkpt lat="44.1631928" lon="10.3061585"><ele>609.2857142857143</ele><time>2026-03-25T10:40:29.172Z</time></trkpt><trkpt lat="44.1632479" lon="10.3060949"><ele>612.1428571428571</ele><time>2026-03-25T10:40:36.189Z</time></trkpt><trkpt lat="44.1632846" lon="10.3060177"><ele>615.0</ele><time>2026-03-25T10:40:42.183Z</time></trkpt><trkpt lat="44.1633301" lon="10.305957"><ele>615.0</ele><time>2026-03-25T10:40:48.178Z</time></trkpt><trkpt lat="44.163382" lon="10.3058922"><ele>615.0</ele><time>2026-03-25T10:40:54.185Z</time></trkpt><trkpt lat="44.1634322" lon="10.3058315"><ele>615.0</ele><time>2026-03-25T10:40:59.176Z</time></trkpt><trkpt lat="44.1634881" lon="10.3057699"><ele>615.0</ele><time>2026-03-25T10:41:05.189Z</time></trkpt><trkpt lat="44.1635449" lon="10.3057061"><ele>615.0</ele><time>2026-03-25T10:41:11.17Z</time></trkpt><trkpt lat="44.1636076" lon="10.3056609"><ele>615.0</ele><time>2026-03-25T10:41:17.178Z</time></trkpt><trkpt lat="44.1636661" lon="10.3056121"><ele>615.0</ele><time>2026-03-25T10:41:22.177Z</time></trkpt><trkpt lat="44.1637204" lon="10.3055564"><ele>615.8571428571428</ele><time>2026-03-25T10:41:28.181Z</time></trkpt><trkpt lat="44.1637724" lon="10.3054897"><ele>616.7142857142858</ele><time>2026-03-25T10:41:34.185Z</time></trkpt><trkpt lat="44.1638147" lon="10.3054141"><ele>617.5714285714286</ele><time>2026-03-25T10:41:40.182Z</time></trkpt><trkpt lat="44.1638624" lon="10.3053409"><ele>618.4285714285713</ele><time>2026-03-25T10:41:48.188Z</time></trkpt><trkpt lat="44.1639171" lon="10.3052903"><ele>619.2857142857142</ele><time>2026-03-25T10:41:54.179Z</time></trkpt><trkpt lat="44.1639758" lon="10.3052427"><ele>620.1428571428571</ele><time>2026-03-25T10:42:00.185Z</time></trkpt><trkpt lat="44.1640379" lon="10.3051858"><ele>621.0</ele><time>2026-03-25T10:42:06.188Z</time></trkpt><trkpt lat="44.1640838" lon="10.3051235"><ele>621.0</ele><time>2026-03-25T10:42:10.184Z</time></trkpt><trkpt lat="44.1641296" lon="10.3050498"><ele>621.0</ele><time>2026-03-25T10:42:12.185Z</time></trkpt><trkpt lat="44.1641908" lon="10.3049195"><ele>621.0</ele><time>2026-03-25T10:42:14.198Z</time></trkpt><trkpt lat="44.1642699" lon="10.3047939"><ele>621.0</ele><time>2026-03-25T10:42:16.193Z</time></trkpt><trkpt lat="44.1643354" lon="10.3046735"><ele>621.0</ele><time>2026-03-25T10:42:18.2Z</time></trkpt><trkpt lat="44.1643857" lon="10.304553"><ele>621.0</ele><time>2026-03-25T10:42:20.186Z</time></trkpt><trkpt lat="44.1644503" lon="10.3044622"><ele>621.0</ele><time>2026-03-25T10:42:22.179Z</time></trkpt><trkpt lat="44.1645404" lon="10.3044321"><ele>621.0</ele><time>2026-03-25T10:42:24.18Z</time></trkpt><trkpt lat="44.1645993" lon="10.3045137"><ele>621.0</ele><time>2026-03-25T10:42:26.182Z</time></trkpt><trkpt lat="44.164633" lon="10.3046121"><ele>621.0</ele><time>2026-03-25T10:42:28.192Z</time></trkpt><trkpt lat="44.1646866" lon="10.3046954"><ele>621.0</ele><time>2026-03-25T10:42:30.187Z</time></trkpt><trkpt lat="44.1647513" lon="10.3047465"><ele>620.9999999999999</ele><time>2026-03-25T10:42:32.188Z</time></trkpt><trkpt lat="44.1648215" lon="10.3047774"><ele>621.0</ele><time>2026-03-25T10:42:34.186Z</time></trkpt><trkpt lat="44.164891" lon="10.3047824"><ele>621.0</ele><time>2026-03-25T10:42:36.185Z</time></trkpt><trkpt lat="44.1649579" lon="10.3047713"><ele>621.0</ele><time>2026-03-25T10:42:38.182Z</time></trkpt><trkpt lat="44.1650212" lon="10.3047641"><ele>621.0</ele><time>2026-03-25T10:42:40.185Z</time></trkpt><trkpt lat="44.1650926" lon="10.3047747"><ele>620.9999999999999</ele><time>2026-03-25T10:42:43.18Z</time></trkpt><trkpt lat="44.1651552" lon="10.3047612"><ele>621.0</ele><time>2026-03-25T10:42:47.186Z</time></trkpt><trkpt lat="44.1652279" lon="10.3047476"><ele>621.4285714285713</ele><time>2026-03-25T10:42:52.18Z</time></trkpt><trkpt lat="44.1653002" lon="10.304754"><ele>621.8571428571429</ele><time>2026-03-25T10:42:57.186Z</time></trkpt><trkpt lat="44.1653723" lon="10.3047613"><ele>622.2857142857142</ele><time>2026-03-25T10:43:02.198Z</time></trkpt><trkpt lat="44.1654371" lon="10.3047568"><ele>622.7142857142857</ele><time>2026-03-25T10:43:06.182Z</time></trkpt><trkpt lat="44.1655026" lon="10.3047475"><ele>623.1428571428571</ele><time>2026-03-25T10:43:10.189Z</time></trkpt><trkpt lat="44.1655791" lon="10.30474"><ele>623.5714285714286</ele><time>2026-03-25T10:43:15.19Z</time></trkpt><trkpt lat="44.1656552" lon="10.304733"><ele>624.0</ele><time>2026-03-25T10:43:19.179Z</time></trkpt><trkpt lat="44.1657188" lon="10.3047261"><ele>624.5714285714286</ele><time>2026-03-25T10:43:23.181Z</time></trkpt><trkpt lat="44.1657913" lon="10.3047332"><ele>625.1428571428571</ele><time>2026-03-25T10:43:28.191Z</time></trkpt><trkpt lat="44.1658672" lon="10.3047391"><ele>625.7142857142857</ele><time>2026-03-25T10:43:33.173Z</time></trkpt><trkpt lat="44.1659321" lon="10.3047331"><ele>626.2857142857142</ele><time>2026-03-25T10:43:37.186Z</time></trkpt><trkpt lat="44.1660036" lon="10.3047275"><ele>626.8571428571429</ele><time>2026-03-25T10:43:42.177Z</time></trkpt><trkpt lat="44.1660699" lon="10.3047249"><ele>627.4285714285713</ele><time>2026-03-25T10:43:46.17Z</time></trkpt><trkpt lat="44.166141" lon="10.3046859"><ele>628.0</ele><time>2026-03-25T10:43:51.173Z</time></trkpt><trkpt lat="44.1662028" lon="10.3046658"><ele>627.9999999999999</ele><time>2026-03-25T10:43:55.18Z</time></trkpt><trkpt lat="44.166276" lon="10.3046211"><ele>628.0</ele><time>2026-03-25T10:44:00.172Z</time></trkpt><trkpt lat="44.1663365" lon="10.3045758"><ele>628.0</ele><time>2026-03-25T10:44:04.173Z</time></trkpt><trkpt lat="44.1663938" lon="10.3045294"><ele>628.0</ele><time>2026-03-25T10:44:08.173Z</time></trkpt><trkpt lat="44.1664591" lon="10.3045176"><ele>628.0</ele><time>2026-03-25T10:44:12.169Z</time></trkpt><trkpt lat="44.1665333" lon="10.3045303"><ele>627.9999999999999</ele><time>2026-03-25T10:44:17.182Z</time></trkpt><trkpt lat="44.1665821" lon="10.3045927"><ele>628.0</ele><time>2026-03-25T10:44:21.186Z</time></trkpt><trkpt lat="44.1666224" lon="10.3046877"><ele>628.2857142857142</ele><time>2026-03-25T10:44:26.181Z</time></trkpt><trkpt lat="44.1666464" lon="10.3047719"><ele>628.5714285714286</ele><time>2026-03-25T10:44:30.176Z</time></trkpt><trkpt lat="44.1666709" lon="10.3048566"><ele>628.8571428571429</ele><time>2026-03-25T10:44:34.179Z</time></trkpt><trkpt lat="44.1666851" lon="10.3049623"><ele>629.1428571428571</ele><time>2026-03-25T10:44:39.178Z</time></trkpt><trkpt lat="44.1667188" lon="10.3050473"><ele>629.4285714285714</ele><time>2026-03-25T10:44:44.177Z</time></trkpt><trkpt lat="44.1667603" lon="10.3051175"><ele>629.7142857142857</ele><time>2026-03-25T10:44:48.182Z</time></trkpt><trkpt lat="44.1668017" lon="10.3052096"><ele>630.0</ele><time>2026-03-25T10:44:53.179Z</time></trkpt><trkpt lat="44.166842" lon="10.3052887"><ele>630.0</ele><time>2026-03-25T10:44:57.186Z</time></trkpt><trkpt lat="44.1668881" lon="10.3053815"><ele>630.0</ele><time>2026-03-25T10:45:01.184Z</time></trkpt><trkpt lat="44.1669298" lon="10.3054603"><ele>630.0</ele><time>2026-03-25T10:45:04.186Z</time></trkpt><trkpt lat="44.1669741" lon="10.3055561"><ele>630.0</ele><time>2026-03-25T10:45:07.182Z</time></trkpt><trkpt lat="44.167014" lon="10.3056643"><ele>630.0</ele><time>2026-03-25T10:45:10.172Z</time></trkpt><trkpt lat="44.167042" lon="10.3057434"><ele>630.0</ele><time>2026-03-25T10:45:12.187Z</time></trkpt><trkpt lat="44.1670788" lon="10.3058404"><ele>628.5</ele><time>2026-03-25T10:45:14.192Z</time></trkpt><trkpt lat="44.1671065" lon="10.3059423"><ele>627.0</ele><time>2026-03-25T10:45:16.184Z</time></trkpt><trkpt lat="44.1671313" lon="10.3060459"><ele>625.5</ele><time>2026-03-25T10:45:18.194Z</time></trkpt><trkpt lat="44.1671502" lon="10.30615"><ele>624.0</ele><time>2026-03-25T10:45:20.176Z</time></trkpt><trkpt lat="44.1671698" lon="10.3062516"><ele>622.5</ele><time>2026-03-25T10:45:22.17Z</time></trkpt><trkpt lat="44.1671922" lon="10.3063534"><ele>621.0</ele><time>2026-03-25T10:45:24.182Z</time></trkpt><trkpt lat="44.1672326" lon="10.3064491"><ele>622.0</ele><time>2026-03-25T10:45:26.177Z</time></trkpt><trkpt lat="44.1672898" lon="10.3065332"><ele>623.0</ele><time>2026-03-25T10:45:28.179Z</time></trkpt><trkpt lat="44.1673538" lon="10.3066074"><ele>624.0</ele><time>2026-03-25T10:45:30.174Z</time></trkpt><trkpt lat="44.167422" lon="10.3066777"><ele>625.0</ele><time>2026-03-25T10:45:32.178Z</time></trkpt><trkpt lat="44.1674853" lon="10.3067443"><ele>626.0</ele><time>2026-03-25T10:45:34.173Z</time></trkpt><trkpt lat="44.1675431" lon="10.3067996"><ele>627.0</ele><time>2026-03-25T10:45:36.171Z</time></trkpt><trkpt lat="44.1676148" lon="10.3068497"><ele>627.0</ele><time>2026-03-25T10:45:39.172Z</time></trkpt><trkpt lat="44.1676799" lon="10.3068036"><ele>627.0</ele><time>2026-03-25T10:45:44.18Z</time></trkpt><trkpt lat="44.1676942" lon="10.3067108"><ele>627.0</ele><time>2026-03-25T10:45:48.175Z</time></trkpt><trkpt lat="44.1677142" lon="10.3066172"><ele>627.0</ele><time>2026-03-25T10:45:52.171Z</time></trkpt><trkpt lat="44.1677353" lon="10.306515"><ele>627.0</ele><time>2026-03-25T10:45:56.18Z</time></trkpt><trkpt lat="44.1677471" lon="10.3064277"><ele>627.0</ele><time>2026-03-25T10:45:59.169Z</time></trkpt><trkpt lat="44.1677614" lon="10.3063237"><ele>627.0</ele><time>2026-03-25T10:46:03.179Z</time></trkpt><trkpt lat="44.1677691" lon="10.3062205"><ele>628.1428571428571</ele><time>2026-03-25T10:46:07.182Z</time></trkpt><trkpt lat="44.1677864" lon="10.3061183"><ele>629.2857142857142</ele><time>2026-03-25T10:46:11.176Z</time></trkpt><trkpt lat="44.1678086" lon="10.3060283"><ele>630.4285714285713</ele><time>2026-03-25T10:46:15.186Z</time></trkpt><trkpt lat="44.1677998" lon="10.3059279"><ele>631.5714285714286</ele><time>2026-03-25T10:46:19.177Z</time></trkpt><trkpt lat="44.1677897" lon="10.3058244"><ele>632.7142857142857</ele><time>2026-03-25T10:46:23.182Z</time></trkpt><trkpt lat="44.1677743" lon="10.3057288"><ele>633.8571428571428</ele><time>2026-03-25T10:46:27.192Z</time></trkpt><trkpt lat="44.1677645" lon="10.3056279"><ele>635.0</ele><time>2026-03-25T10:46:31.175Z</time></trkpt><trkpt lat="44.1677643" lon="10.3055318"><ele>635.5</ele><time>2026-03-25T10:46:34.173Z</time></trkpt><trkpt lat="44.1677622" lon="10.3054415"><ele>636.0</ele><time>2026-03-25T10:46:36.194Z</time></trkpt><trkpt lat="44.1677545" lon="10.3053286"><ele>636.5</ele><time>2026-03-25T10:46:38.18Z</time></trkpt><trkpt lat="44.1677504" lon="10.3051826"><ele>637.0</ele><time>2026-03-25T10:46:40.181Z</time></trkpt><trkpt lat="44.1677497" lon="10.3050103"><ele>637.5</ele><time>2026-03-25T10:46:42.184Z</time></trkpt><trkpt lat="44.1677624" lon="10.3049163"><ele>638.0</ele><time>2026-03-25T10:46:43.182Z</time></trkpt><trkpt lat="44.1677801" lon="10.3048106"><ele>638.0</ele><time>2026-03-25T10:46:44.183Z</time></trkpt><trkpt lat="44.1677992" lon="10.3046984"><ele>638.0</ele><time>2026-03-25T10:46:45.188Z</time></trkpt><trkpt lat="44.1678192" lon="10.3045833"><ele>638.0</ele><time>2026-03-25T10:46:46.19Z</time></trkpt><trkpt lat="44.1678318" lon="10.3044601"><ele>638.0</ele><time>2026-03-25T10:46:47.186Z</time></trkpt><trkpt lat="44.1678437" lon="10.3043278"><ele>638.0</ele><time>2026-03-25T10:46:48.185Z</time></trkpt><trkpt lat="44.1678583" lon="10.3041922"><ele>638.0</ele><time>2026-03-25T10:46:49.183Z</time></trkpt><trkpt lat="44.1678714" lon="10.304048"><ele>638.0</ele><time>2026-03-25T10:46:50.185Z</time></trkpt><trkpt lat="44.167871" lon="10.3039021"><ele>638.0</ele><time>2026-03-25T10:46:51.186Z</time></trkpt><trkpt lat="44.1678597" lon="10.3037475"><ele>638.0</ele><time>2026-03-25T10:46:52.197Z</time></trkpt><trkpt lat="44.1678487" lon="10.3036001"><ele>638.0</ele><time>2026-03-25T10:46:53.181Z</time></trkpt><trkpt lat="44.1678457" lon="10.3034701"><ele>638.6666666666666</ele><time>2026-03-25T10:46:54.186Z</time></trkpt><trkpt lat="44.1678662" lon="10.3033543"><ele>639.3333333333333</ele><time>2026-03-25T10:46:55.19Z</time></trkpt><trkpt lat="44.1678931" lon="10.3032439"><ele>640.0</ele><time>2026-03-25T10:46:56.186Z</time></trkpt><trkpt lat="44.1679289" lon="10.3031402"><ele>640.6666666666666</ele><time>2026-03-25T10:46:57.19Z</time></trkpt><trkpt lat="44.1679547" lon="10.3030423"><ele>641.3333333333334</ele><time>2026-03-25T10:46:58.19Z</time></trkpt><trkpt lat="44.1680006" lon="10.3029664"><ele>642.0</ele><time>2026-03-25T10:46:59.197Z</time></trkpt><trkpt lat="44.1680504" lon="10.3029034"><ele>642.5</ele><time>2026-03-25T10:47:00.19Z</time></trkpt><trkpt lat="44.1681109" lon="10.302874"><ele>643.0</ele><time>2026-03-25T10:47:01.193Z</time></trkpt><trkpt lat="44.1682088" lon="10.3029027"><ele>643.5</ele><time>2026-03-25T10:47:03.188Z</time></trkpt><trkpt lat="44.1682489" lon="10.3029872"><ele>644.0</ele><time>2026-03-25T10:47:04.198Z</time></trkpt><trkpt lat="44.1682886" lon="10.303067"><ele>644.5</ele><time>2026-03-25T10:47:05.188Z</time></trkpt><trkpt lat="44.1683306" lon="10.3031507"><ele>645.0</ele><time>2026-03-25T10:47:06.195Z</time></trkpt><trkpt lat="44.1683777" lon="10.3032317"><ele>639.8333333333334</ele><time>2026-03-25T10:47:07.174Z</time></trkpt><trkpt lat="44.1684326" lon="10.3033025"><ele>634.6666666666666</ele><time>2026-03-25T10:47:08.181Z</time></trkpt><trkpt lat="44.1685067" lon="10.3033328"><ele>629.5</ele><time>2026-03-25T10:47:09.174Z</time></trkpt><trkpt lat="44.1686092" lon="10.3033306"><ele>624.3333333333333</ele><time>2026-03-25T10:47:10.184Z</time></trkpt><trkpt lat="44.1686991" lon="10.3033099"><ele>619.1666666666666</ele><time>2026-03-25T10:47:11.181Z</time></trkpt><trkpt lat="44.1688001" lon="10.3032826"><ele>614.0</ele><time>2026-03-25T10:47:12.185Z</time></trkpt><trkpt lat="44.1688995" lon="10.3032621"><ele>614.0</ele><time>2026-03-25T10:47:13.186Z</time></trkpt><trkpt lat="44.1690092" lon="10.3032374"><ele>614.0</ele><time>2026-03-25T10:47:14.184Z</time></trkpt><trkpt lat="44.1691205" lon="10.3032464"><ele>614.0</ele><time>2026-03-25T10:47:15.19Z</time></trkpt><trkpt lat="44.1692323" lon="10.3032866"><ele>614.0</ele><time>2026-03-25T10:47:16.193Z</time></trkpt><trkpt lat="44.1693354" lon="10.3033393"><ele>614.0</ele><time>2026-03-25T10:47:17.191Z</time></trkpt><trkpt lat="44.1694359" lon="10.303404"><ele>612.4</ele><time>2026-03-25T10:47:18.19Z</time></trkpt><trkpt lat="44.1695333" lon="10.3034872"><ele>610.8</ele><time>2026-03-25T10:47:19.199Z</time></trkpt><trkpt lat="44.1696249" lon="10.3035923"><ele>609.2</ele><time>2026-03-25T10:47:20.194Z</time></trkpt><trkpt lat="44.1697095" lon="10.3036918"><ele>607.6</ele><time>2026-03-25T10:47:21.193Z</time></trkpt><trkpt lat="44.1697833" lon="10.3037853"><ele>606.0</ele><time>2026-03-25T10:47:22.192Z</time></trkpt><trkpt lat="44.1698519" lon="10.3038744"><ele>603.6</ele><time>2026-03-25T10:47:23.184Z</time></trkpt><trkpt lat="44.1699219" lon="10.3039541"><ele>601.2</ele><time>2026-03-25T10:47:24.193Z</time></trkpt><trkpt lat="44.1699973" lon="10.3040161"><ele>598.8</ele><time>2026-03-25T10:47:25.182Z</time></trkpt><trkpt lat="44.1700953" lon="10.3040571"><ele>596.4</ele><time>2026-03-25T10:47:26.181Z</time></trkpt><trkpt lat="44.1701957" lon="10.3041054"><ele>594.0</ele><time>2026-03-25T10:47:27.183Z</time></trkpt><trkpt lat="44.1702998" lon="10.3041535"><ele>594.0</ele><time>2026-03-25T10:47:28.189Z</time></trkpt><trkpt lat="44.1704007" lon="10.3042085"><ele>594.0</ele><time>2026-03-25T10:47:29.18Z</time></trkpt><trkpt lat="44.1704992" lon="10.304276"><ele>594.0</ele><time>2026-03-25T10:47:30.192Z</time></trkpt><trkpt lat="44.1705895" lon="10.3043663"><ele>594.0</ele><time>2026-03-25T10:47:31.179Z</time></trkpt><trkpt lat="44.1706712" lon="10.3044678"><ele>594.0</ele><time>2026-03-25T10:47:32.192Z</time></trkpt><trkpt lat="44.170737" lon="10.3045896"><ele>593.6</ele><time>2026-03-25T10:47:33.182Z</time></trkpt><trkpt lat="44.1707854" lon="10.3047209"><ele>593.2</ele><time>2026-03-25T10:47:34.178Z</time></trkpt><trkpt lat="44.1708266" lon="10.3048535"><ele>592.8000000000001</ele><time>2026-03-25T10:47:35.177Z</time></trkpt><trkpt lat="44.1708617" lon="10.3049805"><ele>592.4</ele><time>2026-03-25T10:47:36.177Z</time></trkpt><trkpt lat="44.1708973" lon="10.3051053"><ele>592.0</ele><time>2026-03-25T10:47:37.193Z</time></trkpt><trkpt lat="44.1709501" lon="10.3052224"><ele>591.8000000000001</ele><time>2026-03-25T10:47:38.179Z</time></trkpt><trkpt lat="44.1710172" lon="10.3053141"><ele>591.6</ele><time>2026-03-25T10:47:39.177Z</time></trkpt><trkpt lat="44.1710962" lon="10.3053828"><ele>591.4000000000001</ele><time>2026-03-25T10:47:40.174Z</time></trkpt><trkpt lat="44.1711858" lon="10.3054225"><ele>591.2</ele><time>2026-03-25T10:47:41.183Z</time></trkpt><trkpt lat="44.1712777" lon="10.3054636"><ele>591.0</ele><time>2026-03-25T10:47:42.183Z</time></trkpt><trkpt lat="44.1713711" lon="10.3055046"><ele>591.0</ele><time>2026-03-25T10:47:43.182Z</time></trkpt><trkpt lat="44.1714581" lon="10.30553"><ele>591.0</ele><time>2026-03-25T10:47:44.186Z</time></trkpt><trkpt lat="44.1715375" lon="10.3055252"><ele>591.0</ele><time>2026-03-25T10:47:45.192Z</time></trkpt><trkpt lat="44.1716133" lon="10.3054903"><ele>591.0</ele><time>2026-03-25T10:47:46.192Z</time></trkpt><trkpt lat="44.171687" lon="10.3054256"><ele>591.0</ele><time>2026-03-25T10:47:47.197Z</time></trkpt><trkpt lat="44.1717531" lon="10.3053378"><ele>591.0</ele><time>2026-03-25T10:47:48.182Z</time></trkpt><trkpt lat="44.1718179" lon="10.3052462"><ele>590.4</ele><time>2026-03-25T10:47:49.19Z</time></trkpt><trkpt lat="44.1718893" lon="10.3051559"><ele>589.8</ele><time>2026-03-25T10:47:50.186Z</time></trkpt><trkpt lat="44.1719615" lon="10.305061"><ele>589.1999999999999</ele><time>2026-03-25T10:47:51.186Z</time></trkpt><trkpt lat="44.1720293" lon="10.3049602"><ele>588.6</ele><time>2026-03-25T10:47:52.188Z</time></trkpt><trkpt lat="44.1721039" lon="10.3048568"><ele>588.0</ele><time>2026-03-25T10:47:53.183Z</time></trkpt><trkpt lat="44.1721775" lon="10.3047551"><ele>588.4</ele><time>2026-03-25T10:47:54.202Z</time></trkpt><trkpt lat="44.1722502" lon="10.304656"><ele>588.8</ele><time>2026-03-25T10:47:55.188Z</time></trkpt><trkpt lat="44.1723176" lon="10.3045817"><ele>589.2</ele><time>2026-03-25T10:47:56.185Z</time></trkpt><trkpt lat="44.1723936" lon="10.304513"><ele>589.6</ele><time>2026-03-25T10:47:57.182Z</time></trkpt><trkpt lat="44.1724875" lon="10.3044906"><ele>590.0</ele><time>2026-03-25T10:47:58.189Z</time></trkpt><trkpt lat="44.1725743" lon="10.3044784"><ele>587.2</ele><time>2026-03-25T10:47:59.186Z</time></trkpt><trkpt lat="44.1726648" lon="10.3044919"><ele>584.4</ele><time>2026-03-25T10:48:00.182Z</time></trkpt><trkpt lat="44.1727477" lon="10.3045191"><ele>581.6</ele><time>2026-03-25T10:48:01.189Z</time></trkpt><trkpt lat="44.1728335" lon="10.3045627"><ele>578.8</ele><time>2026-03-25T10:48:02.185Z</time></trkpt><trkpt lat="44.1729216" lon="10.3046153"><ele>576.0</ele><time>2026-03-25T10:48:03.194Z</time></trkpt><trkpt lat="44.1730118" lon="10.3046701"><ele>576.0</ele><time>2026-03-25T10:48:04.191Z</time></trkpt><trkpt lat="44.1731048" lon="10.3047241"><ele>576.0</ele><time>2026-03-25T10:48:05.182Z</time></trkpt><trkpt lat="44.1731856" lon="10.3047755"><ele>576.0</ele><time>2026-03-25T10:48:06.18Z</time></trkpt><trkpt lat="44.1732631" lon="10.3048093"><ele>576.0</ele><time>2026-03-25T10:48:07.191Z</time></trkpt><trkpt lat="44.1733368" lon="10.3048197"><ele>576.0</ele><time>2026-03-25T10:48:08.18Z</time></trkpt><trkpt lat="44.1734064" lon="10.3047949"><ele>576.0</ele><time>2026-03-25T10:48:09.188Z</time></trkpt><trkpt lat="44.1734754" lon="10.3047551"><ele>574.8333333333334</ele><time>2026-03-25T10:48:10.185Z</time></trkpt><trkpt lat="44.1735493" lon="10.3047031"><ele>573.6666666666666</ele><time>2026-03-25T10:48:11.185Z</time></trkpt><trkpt lat="44.1736147" lon="10.3046454"><ele>572.5</ele><time>2026-03-25T10:48:12.174Z</time></trkpt><trkpt lat="44.1736869" lon="10.3045763"><ele>571.3333333333333</ele><time>2026-03-25T10:48:13.185Z</time></trkpt><trkpt lat="44.1737519" lon="10.3044896"><ele>570.1666666666666</ele><time>2026-03-25T10:48:14.185Z</time></trkpt><trkpt lat="44.1738124" lon="10.3043932"><ele>569.0</ele><time>2026-03-25T10:48:15.189Z</time></trkpt><trkpt lat="44.1738653" lon="10.3042927"><ele>569.0</ele><time>2026-03-25T10:48:16.201Z</time></trkpt><trkpt lat="44.1739156" lon="10.3041966"><ele>569.0</ele><time>2026-03-25T10:48:17.191Z</time></trkpt><trkpt lat="44.1739506" lon="10.3041019"><ele>569.0</ele><time>2026-03-25T10:48:18.193Z</time></trkpt><trkpt lat="44.1739833" lon="10.3040121"><ele>569.0</ele><time>2026-03-25T10:48:19.181Z</time></trkpt><trkpt lat="44.174012" lon="10.303915"><ele>569.0</ele><time>2026-03-25T10:48:20.187Z</time></trkpt><trkpt lat="44.1740421" lon="10.303819"><ele>569.0</ele><time>2026-03-25T10:48:21.177Z</time></trkpt><trkpt lat="44.1740726" lon="10.3037306"><ele>568.8333333333333</ele><time>2026-03-25T10:48:22.195Z</time></trkpt><trkpt lat="44.1741034" lon="10.3036428"><ele>568.6666666666666</ele><time>2026-03-25T10:48:23.19Z</time></trkpt><trkpt lat="44.1741348" lon="10.3035664"><ele>568.5</ele><time>2026-03-25T10:48:24.192Z</time></trkpt><trkpt lat="44.1742161" lon="10.3034353"><ele>568.3333333333334</ele><time>2026-03-25T10:48:26.198Z</time></trkpt><trkpt lat="44.1742765" lon="10.3033984"><ele>568.1666666666667</ele><time>2026-03-25T10:48:27.186Z</time></trkpt><trkpt lat="44.1743399" lon="10.3033797"><ele>568.0</ele><time>2026-03-25T10:48:28.196Z</time></trkpt><trkpt lat="44.1744039" lon="10.3033755"><ele>568.0</ele><time>2026-03-25T10:48:29.192Z</time></trkpt><trkpt lat="44.1744763" lon="10.3033633"><ele>568.0</ele><time>2026-03-25T10:48:30.194Z</time></trkpt><trkpt lat="44.1745427" lon="10.3033461"><ele>568.0</ele><time>2026-03-25T10:48:31.195Z</time></trkpt><trkpt lat="44.1746124" lon="10.303315"><ele>568.0</ele><time>2026-03-25T10:48:32.193Z</time></trkpt><trkpt lat="44.1746771" lon="10.3032719"><ele>568.0</ele><time>2026-03-25T10:48:33.192Z</time></trkpt><trkpt lat="44.1747372" lon="10.3032279"><ele>568.0</ele><time>2026-03-25T10:48:34.184Z</time></trkpt><trkpt lat="44.1747977" lon="10.3031905"><ele>568.0</ele><time>2026-03-25T10:48:35.186Z</time></trkpt><trkpt lat="44.1748577" lon="10.3031537"><ele>567.8</ele><time>2026-03-25T10:48:36.187Z</time></trkpt><trkpt lat="44.1749749" lon="10.3030823"><ele>567.5999999999999</ele><time>2026-03-25T10:48:38.187Z</time></trkpt><trkpt lat="44.1750938" lon="10.3030265"><ele>567.4000000000001</ele><time>2026-03-25T10:48:40.185Z</time></trkpt><trkpt lat="44.1752156" lon="10.3029864"><ele>567.2</ele><time>2026-03-25T10:48:42.186Z</time></trkpt><trkpt lat="44.1752797" lon="10.3029655"><ele>567.0</ele><time>2026-03-25T10:48:43.186Z</time></trkpt><trkpt lat="44.1754089" lon="10.3029219"><ele>567.0</ele><time>2026-03-25T10:48:45.186Z</time></trkpt><trkpt lat="44.1754765" lon="10.302889"><ele>567.0</ele><time>2026-03-25T10:48:46.186Z</time></trkpt><trkpt lat="44.1755399" lon="10.3028416"><ele>567.0</ele><time>2026-03-25T10:48:47.189Z</time></trkpt><trkpt lat="44.1755978" lon="10.3027769"><ele>567.0</ele><time>2026-03-25T10:48:48.193Z</time></trkpt><trkpt lat="44.1756571" lon="10.3026915"><ele>567.0</ele><time>2026-03-25T10:48:49.181Z</time></trkpt><trkpt lat="44.1757089" lon="10.3026064"><ele>567.0</ele><time>2026-03-25T10:48:50.187Z</time></trkpt><trkpt lat="44.1757625" lon="10.3025073"><ele>565.0</ele><time>2026-03-25T10:48:51.187Z</time></trkpt><trkpt lat="44.1758178" lon="10.3023981"><ele>563.0</ele><time>2026-03-25T10:48:52.184Z</time></trkpt><trkpt lat="44.1758638" lon="10.3022861"><ele>561.0</ele><time>2026-03-25T10:48:53.191Z</time></trkpt><trkpt lat="44.175922" lon="10.3021698"><ele>559.0</ele><time>2026-03-25T10:48:54.182Z</time></trkpt><trkpt lat="44.1759943" lon="10.3020611"><ele>557.0</ele><time>2026-03-25T10:48:55.188Z</time></trkpt><trkpt lat="44.176078" lon="10.3019525"><ele>557.0</ele><time>2026-03-25T10:48:56.189Z</time></trkpt><trkpt lat="44.1761589" lon="10.3018505"><ele>557.0</ele><time>2026-03-25T10:48:57.191Z</time></trkpt><trkpt lat="44.1762335" lon="10.3017496"><ele>557.0</ele><time>2026-03-25T10:48:58.189Z</time></trkpt><trkpt lat="44.1762989" lon="10.3016557"><ele>557.0</ele><time>2026-03-25T10:48:59.19Z</time></trkpt><trkpt lat="44.1763518" lon="10.3015681"><ele>557.0</ele><time>2026-03-25T10:49:00.19Z</time></trkpt><trkpt lat="44.1763992" lon="10.3014919"><ele>557.0</ele><time>2026-03-25T10:49:01.187Z</time></trkpt><trkpt lat="44.1764452" lon="10.3014243"><ele>557.0</ele><time>2026-03-25T10:49:02.183Z</time></trkpt><trkpt lat="44.1765598" lon="10.3013962"><ele>557.0</ele><time>2026-03-25T10:49:04.187Z</time></trkpt><trkpt lat="44.1766286" lon="10.3014295"><ele>557.0</ele><time>2026-03-25T10:49:05.193Z</time></trkpt><trkpt lat="44.1766908" lon="10.3014964"><ele>557.0</ele><time>2026-03-25T10:49:06.191Z</time></trkpt><trkpt lat="44.176736" lon="10.301572"><ele>557.0</ele><time>2026-03-25T10:49:07.187Z</time></trkpt><trkpt lat="44.1767677" lon="10.3016512"><ele>552.2</ele><time>2026-03-25T10:49:08.197Z</time></trkpt><trkpt lat="44.1768531" lon="10.3017629"><ele>547.4000000000001</ele><time>2026-03-25T10:49:10.183Z</time></trkpt><trkpt lat="44.1769646" lon="10.3017613"><ele>542.5999999999999</ele><time>2026-03-25T10:49:12.186Z</time></trkpt><trkpt lat="44.1770154" lon="10.3017048"><ele>537.8</ele><time>2026-03-25T10:49:13.186Z</time></trkpt><trkpt lat="44.1770575" lon="10.3016185"><ele>533.0</ele><time>2026-03-25T10:49:14.187Z</time></trkpt><trkpt lat="44.1770936" lon="10.3015157"><ele>533.0</ele><time>2026-03-25T10:49:15.198Z</time></trkpt><trkpt lat="44.1771334" lon="10.3014169"><ele>533.0</ele><time>2026-03-25T10:49:16.189Z</time></trkpt><trkpt lat="44.1771831" lon="10.3013301"><ele>533.0</ele><time>2026-03-25T10:49:17.177Z</time></trkpt><trkpt lat="44.1772464" lon="10.3012704"><ele>533.0</ele><time>2026-03-25T10:49:18.185Z</time></trkpt><trkpt lat="44.1773216" lon="10.3012433"><ele>533.0</ele><time>2026-03-25T10:49:19.18Z</time></trkpt><trkpt lat="44.1774081" lon="10.301233"><ele>533.0</ele><time>2026-03-25T10:49:20.179Z</time></trkpt><trkpt lat="44.1774986" lon="10.3012454"><ele>530.1666666666666</ele><time>2026-03-25T10:49:21.177Z</time></trkpt><trkpt lat="44.1775772" lon="10.3012759"><ele>527.3333333333333</ele><time>2026-03-25T10:49:22.174Z</time></trkpt><trkpt lat="44.1776443" lon="10.3013181"><ele>524.5</ele><time>2026-03-25T10:49:23.175Z</time></trkpt><trkpt lat="44.1776987" lon="10.3013752"><ele>521.6666666666666</ele><time>2026-03-25T10:49:24.212Z</time></trkpt><trkpt lat="44.17773" lon="10.3015424"><ele>518.8333333333334</ele><time>2026-03-25T10:49:26.179Z</time></trkpt><trkpt lat="44.1777154" lon="10.3016438"><ele>516.0</ele><time>2026-03-25T10:49:27.187Z</time></trkpt><trkpt lat="44.177695" lon="10.3017413"><ele>516.0</ele><time>2026-03-25T10:49:28.181Z</time></trkpt><trkpt lat="44.1776967" lon="10.3018863"><ele>516.0</ele><time>2026-03-25T10:49:30.186Z</time></trkpt><trkpt lat="44.1777827" lon="10.3019238"><ele>516.0</ele><time>2026-03-25T10:49:32.193Z</time></trkpt><trkpt lat="44.1778971" lon="10.3018444"><ele>516.0</ele><time>2026-03-25T10:49:34.176Z</time></trkpt><trkpt lat="44.177963" lon="10.3018021"><ele>516.0</ele><time>2026-03-25T10:49:35.18Z</time></trkpt><trkpt lat="44.1780316" lon="10.3017644"><ele>516.0</ele><time>2026-03-25T10:49:36.195Z</time></trkpt><trkpt lat="44.1781053" lon="10.3017366"><ele>516.0</ele><time>2026-03-25T10:49:37.209Z</time></trkpt><trkpt lat="44.1781757" lon="10.3017057"><ele>516.0</ele><time>2026-03-25T10:49:38.181Z</time></trkpt><trkpt lat="44.1782448" lon="10.3016629"><ele>516.0</ele><time>2026-03-25T10:49:39.179Z</time></trkpt><trkpt lat="44.1783062" lon="10.3015987"><ele>516.0</ele><time>2026-03-25T10:49:40.2Z</time></trkpt><trkpt lat="44.1783661" lon="10.3015149"><ele>516.0</ele><time>2026-03-25T10:49:41.182Z</time></trkpt><trkpt lat="44.1784231" lon="10.3014357"><ele>515.0</ele><time>2026-03-25T10:49:42.182Z</time></trkpt><trkpt lat="44.1784782" lon="10.3013538"><ele>514.0</ele><time>2026-03-25T10:49:43.182Z</time></trkpt><trkpt lat="44.1785419" lon="10.3012842"><ele>513.0</ele><time>2026-03-25T10:49:44.188Z</time></trkpt><trkpt lat="44.1785986" lon="10.3012116"><ele>512.0</ele><time>2026-03-25T10:49:45.182Z</time></trkpt><trkpt lat="44.1786691" lon="10.3011392"><ele>511.0</ele><time>2026-03-25T10:49:46.19Z</time></trkpt><trkpt lat="44.1787415" lon="10.3010757"><ele>510.0</ele><time>2026-03-25T10:49:47.183Z</time></trkpt><trkpt lat="44.1788285" lon="10.3010273"><ele>510.0</ele><time>2026-03-25T10:49:48.179Z</time></trkpt><trkpt lat="44.1789209" lon="10.3009804"><ele>510.0</ele><time>2026-03-25T10:49:49.183Z</time></trkpt><trkpt lat="44.1790148" lon="10.300942"><ele>510.0</ele><time>2026-03-25T10:49:50.188Z</time></trkpt><trkpt lat="44.1791099" lon="10.3009105"><ele>510.0</ele><time>2026-03-25T10:49:51.188Z</time></trkpt><trkpt lat="44.1792076" lon="10.3008711"><ele>510.0</ele><time>2026-03-25T10:49:52.182Z</time></trkpt><trkpt lat="44.179301" lon="10.3008286"><ele>509.0</ele><time>2026-03-25T10:49:53.199Z</time></trkpt><trkpt lat="44.1793974" lon="10.3007688"><ele>508.0</ele><time>2026-03-25T10:49:54.184Z</time></trkpt><trkpt lat="44.1794918" lon="10.3007053"><ele>507.0</ele><time>2026-03-25T10:49:55.181Z</time></trkpt><trkpt lat="44.1795763" lon="10.3006228"><ele>506.0</ele><time>2026-03-25T10:49:56.185Z</time></trkpt><trkpt lat="44.1796439" lon="10.300518"><ele>505.0</ele><time>2026-03-25T10:49:57.18Z</time></trkpt><trkpt lat="44.1797016" lon="10.3004129"><ele>505.0</ele><time>2026-03-25T10:49:58.183Z</time></trkpt><trkpt lat="44.1797519" lon="10.3002924"><ele>505.0</ele><time>2026-03-25T10:49:59.181Z</time></trkpt><trkpt lat="44.1798065" lon="10.300178"><ele>505.0</ele><time>2026-03-25T10:50:00.189Z</time></trkpt><trkpt lat="44.1798647" lon="10.300084"><ele>505.0</ele><time>2026-03-25T10:50:01.185Z</time></trkpt><trkpt lat="44.1799267" lon="10.2999929"><ele>505.0</ele><time>2026-03-25T10:50:02.182Z</time></trkpt><trkpt lat="44.1799942" lon="10.2999185"><ele>503.8</ele><time>2026-03-25T10:50:03.188Z</time></trkpt><trkpt lat="44.1800612" lon="10.2998646"><ele>502.6</ele><time>2026-03-25T10:50:04.182Z</time></trkpt><trkpt lat="44.1801178" lon="10.2997971"><ele>501.4</ele><time>2026-03-25T10:50:05.183Z</time></trkpt><trkpt lat="44.1801532" lon="10.2997128"><ele>500.2</ele><time>2026-03-25T10:50:06.182Z</time></trkpt><trkpt lat="44.1801987" lon="10.2995477"><ele>499.0</ele><time>2026-03-25T10:50:08.189Z</time></trkpt><trkpt lat="44.1802405" lon="10.2993803"><ele>499.00000000000006</ele><time>2026-03-25T10:50:10.184Z</time></trkpt><trkpt lat="44.1802567" lon="10.2992925"><ele>499.0</ele><time>2026-03-25T10:50:11.174Z</time></trkpt><trkpt lat="44.1802703" lon="10.2992057"><ele>499.0</ele><time>2026-03-25T10:50:12.187Z</time></trkpt><trkpt lat="44.1802792" lon="10.2991181"><ele>499.0</ele><time>2026-03-25T10:50:13.18Z</time></trkpt><trkpt lat="44.1802833" lon="10.2990274"><ele>499.00000000000006</ele><time>2026-03-25T10:50:14.189Z</time></trkpt><trkpt lat="44.1803039" lon="10.2988583"><ele>499.0</ele><time>2026-03-25T10:50:16.184Z</time></trkpt><trkpt lat="44.1803487" lon="10.2987212"><ele>499.6666666666667</ele><time>2026-03-25T10:50:18.199Z</time></trkpt><trkpt lat="44.180403" lon="10.2986025"><ele>500.33333333333337</ele><time>2026-03-25T10:50:20.185Z</time></trkpt><trkpt lat="44.1804767" lon="10.2984962"><ele>501.0</ele><time>2026-03-25T10:50:22.184Z</time></trkpt><trkpt lat="44.1805454" lon="10.2984555"><ele>501.66666666666663</ele><time>2026-03-25T10:50:23.195Z</time></trkpt><trkpt lat="44.1806094" lon="10.2984049"><ele>502.3333333333333</ele><time>2026-03-25T10:50:24.186Z</time></trkpt><trkpt lat="44.1806683" lon="10.2983315"><ele>503.0</ele><time>2026-03-25T10:50:25.19Z</time></trkpt><trkpt lat="44.1807262" lon="10.2982524"><ele>500.66666666666663</ele><time>2026-03-25T10:50:26.182Z</time></trkpt><trkpt lat="44.1807837" lon="10.2981741"><ele>498.3333333333333</ele><time>2026-03-25T10:50:27.188Z</time></trkpt><trkpt lat="44.1808439" lon="10.2981062"><ele>496.0</ele><time>2026-03-25T10:50:28.196Z</time></trkpt><trkpt lat="44.180898" lon="10.2980397"><ele>493.66666666666663</ele><time>2026-03-25T10:50:29.187Z</time></trkpt><trkpt lat="44.1809392" lon="10.2979507"><ele>491.3333333333333</ele><time>2026-03-25T10:50:30.194Z</time></trkpt><trkpt lat="44.1809656" lon="10.297853"><ele>489.0</ele><time>2026-03-25T10:50:31.202Z</time></trkpt><trkpt lat="44.180985" lon="10.2977451"><ele>489.0</ele><time>2026-03-25T10:50:32.188Z</time></trkpt><trkpt lat="44.1809923" lon="10.2976374"><ele>489.0</ele><time>2026-03-25T10:50:33.194Z</time></trkpt><trkpt lat="44.1809928" lon="10.2975237"><ele>489.0</ele><time>2026-03-25T10:50:34.192Z</time></trkpt><trkpt lat="44.1809886" lon="10.2974114"><ele>489.0</ele><time>2026-03-25T10:50:35.19Z</time></trkpt><trkpt lat="44.1809819" lon="10.2972896"><ele>489.0</ele><time>2026-03-25T10:50:36.193Z</time></trkpt><trkpt lat="44.1809788" lon="10.2971655"><ele>489.0</ele><time>2026-03-25T10:50:37.177Z</time></trkpt><trkpt lat="44.1809731" lon="10.2970517"><ele>488.79999999999995</ele><time>2026-03-25T10:50:38.184Z</time></trkpt><trkpt lat="44.1809552" lon="10.2969635"><ele>488.59999999999997</ele><time>2026-03-25T10:50:39.19Z</time></trkpt><trkpt lat="44.1809252" lon="10.2968056"><ele>488.4</ele><time>2026-03-25T10:50:41.178Z</time></trkpt><trkpt lat="44.1808966" lon="10.2966621"><ele>488.2</ele><time>2026-03-25T10:50:43.182Z</time></trkpt><trkpt lat="44.1808863" lon="10.2965329"><ele>488.0</ele><time>2026-03-25T10:50:45.181Z</time></trkpt><trkpt lat="44.1809157" lon="10.2964351"><ele>487.71428571428567</ele><time>2026-03-25T10:50:47.173Z</time></trkpt><trkpt lat="44.1809603" lon="10.2963592"><ele>487.42857142857144</ele><time>2026-03-25T10:50:49.213Z</time></trkpt><trkpt lat="44.1810047" lon="10.2962828"><ele>487.1428571428571</ele><time>2026-03-25T10:50:51.193Z</time></trkpt><trkpt lat="44.1810348" lon="10.2961804"><ele>486.85714285714283</ele><time>2026-03-25T10:50:53.174Z</time></trkpt><trkpt lat="44.181061" lon="10.2960893"><ele>486.57142857142856</ele><time>2026-03-25T10:50:55.18Z</time></trkpt><trkpt lat="44.1810942" lon="10.2959935"><ele>486.2857142857143</ele><time>2026-03-25T10:50:58.179Z</time></trkpt><trkpt lat="44.1811177" lon="10.2959085"><ele>486.0</ele><time>2026-03-25T10:51:02.2Z</time></trkpt><trkpt lat="44.1811389" lon="10.2958189"><ele>486.0</ele><time>2026-03-25T10:51:06.178Z</time></trkpt><trkpt lat="44.1811622" lon="10.2957299"><ele>486.0</ele><time>2026-03-25T10:51:10.184Z</time></trkpt><trkpt lat="44.1811861" lon="10.2956353"><ele>486.0</ele><time>2026-03-25T10:51:14.186Z</time></trkpt><trkpt lat="44.1812197" lon="10.295548"><ele>486.0</ele><time>2026-03-25T10:51:18.19Z</time></trkpt><trkpt lat="44.1812563" lon="10.2954673"><ele>486.0</ele><time>2026-03-25T10:51:23.19Z</time></trkpt><trkpt lat="44.1812331" lon="10.2953653"><ele>486.0</ele><time>2026-03-25T10:51:28.189Z</time></trkpt><trkpt lat="44.1812045" lon="10.2952666"><ele>486.0</ele><time>2026-03-25T10:51:33.185Z</time></trkpt><trkpt lat="44.1812167" lon="10.2951628"><ele>486.42857142857144</ele><time>2026-03-25T10:51:39.185Z</time></trkpt><trkpt lat="44.1812357" lon="10.2950654"><ele>486.8571428571429</ele><time>2026-03-25T10:51:45.195Z</time></trkpt><trkpt lat="44.1812281" lon="10.2949772"><ele>487.28571428571433</ele><time>2026-03-25T10:51:50.176Z</time></trkpt><trkpt lat="44.1812235" lon="10.2948836"><ele>487.7142857142857</ele><time>2026-03-25T10:51:55.183Z</time></trkpt><trkpt lat="44.1812637" lon="10.2948007"><ele>488.1428571428572</ele><time>2026-03-25T10:52:01.181Z</time></trkpt><trkpt lat="44.1813051" lon="10.29472"><ele>488.5714285714286</ele><time>2026-03-25T10:52:07.201Z</time></trkpt><trkpt lat="44.181326" lon="10.2946237"><ele>489.0</ele><time>2026-03-25T10:52:12.198Z</time></trkpt><trkpt lat="44.181335" lon="10.2945254"><ele>489.8571428571429</ele><time>2026-03-25T10:52:17.183Z</time></trkpt><trkpt lat="44.1813486" lon="10.2944268"><ele>490.7142857142858</ele><time>2026-03-25T10:52:23.175Z</time></trkpt><trkpt lat="44.1813625" lon="10.2943404"><ele>491.57142857142856</ele><time>2026-03-25T10:52:28.171Z</time></trkpt><trkpt lat="44.1813678" lon="10.2942507"><ele>492.42857142857144</ele><time>2026-03-25T10:52:34.18Z</time></trkpt><trkpt lat="44.1813768" lon="10.2941625"><ele>493.2857142857143</ele><time>2026-03-25T10:52:39.182Z</time></trkpt><trkpt lat="44.1813936" lon="10.2940682"><ele>494.1428571428571</ele><time>2026-03-25T10:52:45.185Z</time></trkpt><trkpt lat="44.1814133" lon="10.2939829"><ele>494.99999999999994</ele><time>2026-03-25T10:52:50.193Z</time></trkpt><trkpt lat="44.1814369" lon="10.2938811"><ele>495.1428571428571</ele><time>2026-03-25T10:52:55.172Z</time></trkpt><trkpt lat="44.1814594" lon="10.2937974"><ele>495.2857142857143</ele><time>2026-03-25T10:52:59.204Z</time></trkpt><trkpt lat="44.1814916" lon="10.293712"><ele>495.42857142857144</ele><time>2026-03-25T10:53:04.194Z</time></trkpt><trkpt lat="44.1815115" lon="10.2936258"><ele>495.57142857142856</ele><time>2026-03-25T10:53:10.182Z</time></trkpt><trkpt lat="44.1815413" lon="10.2935382"><ele>495.7142857142858</ele><time>2026-03-25T10:53:16.179Z</time></trkpt><trkpt lat="44.1815485" lon="10.2934461"><ele>495.8571428571429</ele><time>2026-03-25T10:53:20.176Z</time></trkpt><trkpt lat="44.1815506" lon="10.2933475"><ele>496.0</ele><time>2026-03-25T10:53:26.182Z</time></trkpt><trkpt lat="44.1815492" lon="10.2932596"><ele>496.0</ele><time>2026-03-25T10:53:31.177Z</time></trkpt><trkpt lat="44.181547" lon="10.2931675"><ele>496.00000000000006</ele><time>2026-03-25T10:53:36.184Z</time></trkpt><trkpt lat="44.181542" lon="10.293077"><ele>496.0</ele><time>2026-03-25T10:53:41.179Z</time></trkpt><trkpt lat="44.1815371" lon="10.2929809"><ele>496.0</ele><time>2026-03-25T10:53:45.19Z</time></trkpt><trkpt lat="44.1815205" lon="10.2928829"><ele>496.00000000000006</ele><time>2026-03-25T10:53:49.195Z</time></trkpt><trkpt lat="44.1815143" lon="10.2927878"><ele>496.0</ele><time>2026-03-25T10:53:53.187Z</time></trkpt><trkpt lat="44.1815054" lon="10.2926806"><ele>496.0</ele><time>2026-03-25T10:53:57.179Z</time></trkpt><trkpt lat="44.1814838" lon="10.2925928"><ele>498.42857142857144</ele><time>2026-03-25T10:54:00.18Z</time></trkpt><trkpt lat="44.1814662" lon="10.2924843"><ele>500.8571428571429</ele><time>2026-03-25T10:54:04.19Z</time></trkpt><trkpt lat="44.1814543" lon="10.292388"><ele>503.28571428571433</ele><time>2026-03-25T10:54:09.184Z</time></trkpt><trkpt lat="44.1814412" lon="10.2922938"><ele>505.7142857142858</ele><time>2026-03-25T10:54:13.179Z</time></trkpt><trkpt lat="44.1814027" lon="10.2922185"><ele>508.14285714285717</ele><time>2026-03-25T10:54:16.179Z</time></trkpt><trkpt lat="44.1813592" lon="10.2921458"><ele>510.57142857142867</ele><time>2026-03-25T10:54:20.173Z</time></trkpt><trkpt lat="44.1813054" lon="10.292085"><ele>513.0</ele><time>2026-03-25T10:54:25.183Z</time></trkpt><trkpt lat="44.1812647" lon="10.2920144"><ele>513.7142857142858</ele><time>2026-03-25T10:54:30.179Z</time></trkpt><trkpt lat="44.1812307" lon="10.2919295"><ele>514.4285714285714</ele><time>2026-03-25T10:54:36.19Z</time></trkpt><trkpt lat="44.1812048" lon="10.2918321"><ele>515.1428571428571</ele><time>2026-03-25T10:54:40.18Z</time></trkpt><trkpt lat="44.181246" lon="10.2917576"><ele>515.8571428571429</ele><time>2026-03-25T10:54:46.19Z</time></trkpt><trkpt lat="44.1813047" lon="10.2917199"><ele>516.5714285714286</ele><time>2026-03-25T10:54:52.183Z</time></trkpt><trkpt lat="44.1813558" lon="10.2916447"><ele>517.2857142857143</ele><time>2026-03-25T10:54:57.185Z</time></trkpt><trkpt lat="44.1813698" lon="10.2915555"><ele>518.0</ele><time>2026-03-25T10:55:02.172Z</time></trkpt><trkpt lat="44.1813654" lon="10.2914449"><ele>518.8571428571429</ele><time>2026-03-25T10:55:04.182Z</time></trkpt><trkpt lat="44.1813974" lon="10.2913241"><ele>519.7142857142858</ele><time>2026-03-25T10:55:06.19Z</time></trkpt><trkpt lat="44.1814488" lon="10.2912432"><ele>520.5714285714286</ele><time>2026-03-25T10:55:08.198Z</time></trkpt><trkpt lat="44.1814809" lon="10.291166"><ele>521.4285714285714</ele><time>2026-03-25T10:55:12.182Z</time></trkpt><trkpt lat="44.1815351" lon="10.2911106"><ele>522.2857142857143</ele><time>2026-03-25T10:55:17.172Z</time></trkpt><trkpt lat="44.1816019" lon="10.2910858"><ele>523.1428571428571</ele><time>2026-03-25T10:55:21.172Z</time></trkpt><trkpt lat="44.1816572" lon="10.2910298"><ele>524.0</ele><time>2026-03-25T10:55:26.178Z</time></trkpt><trkpt lat="44.1817163" lon="10.2909773"><ele>524.8</ele><time>2026-03-25T10:55:30.182Z</time></trkpt><trkpt lat="44.1817854" lon="10.2909307"><ele>525.5999999999999</ele><time>2026-03-25T10:55:34.179Z</time></trkpt><trkpt lat="44.181846" lon="10.290853"><ele>526.4</ele><time>2026-03-25T10:55:38.17Z</time></trkpt><trkpt lat="44.1818755" lon="10.2907609"><ele>527.1999999999999</ele><time>2026-03-25T10:55:40.19Z</time></trkpt><trkpt lat="44.1820133" lon="10.290658"><ele>528.0</ele><time>2026-03-25T10:55:42.199Z</time></trkpt><trkpt lat="44.1820961" lon="10.2905686"><ele>528.0</ele><time>2026-03-25T10:55:44.188Z</time></trkpt><trkpt lat="44.1821834" lon="10.2904891"><ele>528.0</ele><time>2026-03-25T10:55:46.176Z</time></trkpt><trkpt lat="44.1822566" lon="10.2904054"><ele>528.0</ele><time>2026-03-25T10:55:48.193Z</time></trkpt><trkpt lat="44.1823395" lon="10.2903754"><ele>528.0</ele><time>2026-03-25T10:55:51.193Z</time></trkpt><trkpt lat="44.1823969" lon="10.290322"><ele>528.0</ele><time>2026-03-25T10:55:57.178Z</time></trkpt><trkpt lat="44.1824644" lon="10.2902933"><ele>528.0</ele><time>2026-03-25T10:56:01.185Z</time></trkpt><trkpt lat="44.182535" lon="10.2902766"><ele>524.5714285714286</ele><time>2026-03-25T10:56:06.171Z</time></trkpt><trkpt lat="44.1825859" lon="10.2902083"><ele>521.1428571428571</ele><time>2026-03-25T10:56:10.203Z</time></trkpt><trkpt lat="44.1826435" lon="10.2901384"><ele>517.7142857142858</ele><time>2026-03-25T10:56:15.173Z</time></trkpt><trkpt lat="44.182701" lon="10.2900736"><ele>514.2857142857142</ele><time>2026-03-25T10:56:20.184Z</time></trkpt><trkpt lat="44.1827591" lon="10.2900233"><ele>510.8571428571429</ele><time>2026-03-25T10:56:25.177Z</time></trkpt><trkpt lat="44.1828106" lon="10.2899616"><ele>507.42857142857144</ele><time>2026-03-25T10:56:30.187Z</time></trkpt><trkpt lat="44.1827659" lon="10.2898812"><ele>504.0</ele><time>2026-03-25T10:56:37.171Z</time></trkpt><trkpt lat="44.1826999" lon="10.2898405"><ele>504.0</ele><time>2026-03-25T10:56:41.184Z</time></trkpt><trkpt lat="44.1826226" lon="10.2898529"><ele>504.0</ele><time>2026-03-25T10:56:45.175Z</time></trkpt><trkpt lat="44.1825671" lon="10.2899183"><ele>504.0</ele><time>2026-03-25T10:56:48.189Z</time></trkpt><trkpt lat="44.1825965" lon="10.2898396"><ele>504.0</ele><time>2026-03-25T10:56:56.172Z</time></trkpt><trkpt lat="44.1826721" lon="10.2897957"><ele>504.0</ele><time>2026-03-25T10:56:59.174Z</time></trkpt><trkpt lat="44.1827321" lon="10.2897308"><ele>504.0</ele><time>2026-03-25T10:57:02.181Z</time></trkpt><trkpt lat="44.1827411" lon="10.2896409"><ele>504.0</ele><time>2026-03-25T10:57:04.175Z</time></trkpt><trkpt lat="44.182755" lon="10.289521"><ele>503.2857142857143</ele><time>2026-03-25T10:57:07.195Z</time></trkpt><trkpt lat="44.1827693" lon="10.2894347"><ele>502.57142857142856</ele><time>2026-03-25T10:57:09.187Z</time></trkpt><trkpt lat="44.1827738" lon="10.2893384"><ele>501.8571428571429</ele><time>2026-03-25T10:57:12.197Z</time></trkpt><trkpt lat="44.1827598" lon="10.289248"><ele>501.14285714285717</ele><time>2026-03-25T10:57:19.182Z</time></trkpt><trkpt lat="44.182739" lon="10.289157"><ele>500.42857142857144</ele><time>2026-03-25T10:57:25.184Z</time></trkpt><trkpt lat="44.1827767" lon="10.2890781"><ele>499.7142857142858</ele><time>2026-03-25T10:57:30.179Z</time></trkpt><trkpt lat="44.1828263" lon="10.2890116"><ele>499.00000000000006</ele><time>2026-03-25T10:57:34.183Z</time></trkpt><trkpt lat="44.1828854" lon="10.2889639"><ele>498.50000000000006</ele><time>2026-03-25T10:57:38.185Z</time></trkpt><trkpt lat="44.1829445" lon="10.2889204"><ele>498.0</ele><time>2026-03-25T10:57:43.189Z</time></trkpt><trkpt lat="44.1830079" lon="10.2888583"><ele>497.5</ele><time>2026-03-25T10:57:51.175Z</time></trkpt><trkpt lat="44.1830812" lon="10.2887313"><ele>497.0</ele><time>2026-03-25T10:57:53.18Z</time></trkpt><trkpt lat="44.183115" lon="10.2886495"><ele>496.50000000000006</ele><time>2026-03-25T10:57:54.169Z</time></trkpt><trkpt lat="44.183172" lon="10.2885143"><ele>496.0</ele><time>2026-03-25T10:57:56.179Z</time></trkpt><trkpt lat="44.1832126" lon="10.288385"><ele>497.14285714285717</ele><time>2026-03-25T10:57:58.179Z</time></trkpt><trkpt lat="44.1832435" lon="10.2882787"><ele>498.28571428571433</ele><time>2026-03-25T10:58:00.174Z</time></trkpt><trkpt lat="44.1832713" lon="10.2881922"><ele>499.42857142857144</ele><time>2026-03-25T10:58:02.171Z</time></trkpt><trkpt lat="44.1832975" lon="10.2880942"><ele>500.57142857142856</ele><time>2026-03-25T10:58:05.188Z</time></trkpt><trkpt lat="44.1833227" lon="10.2879978"><ele>501.7142857142857</ele><time>2026-03-25T10:58:10.182Z</time></trkpt><trkpt lat="44.1833426" lon="10.2879001"><ele>502.8571428571429</ele><time>2026-03-25T10:58:15.187Z</time></trkpt><trkpt lat="44.1833805" lon="10.2878077"><ele>504.0</ele><time>2026-03-25T10:58:20.181Z</time></trkpt><trkpt lat="44.1834159" lon="10.2877145"><ele>504.0</ele><time>2026-03-25T10:58:25.181Z</time></trkpt><trkpt lat="44.183436" lon="10.2876217"><ele>504.0</ele><time>2026-03-25T10:58:30.185Z</time></trkpt><trkpt lat="44.1834709" lon="10.2875279"><ele>504.0</ele><time>2026-03-25T10:58:35.175Z</time></trkpt><trkpt lat="44.1834947" lon="10.2874276"><ele>504.0</ele><time>2026-03-25T10:58:40.191Z</time></trkpt><trkpt lat="44.1835104" lon="10.2873293"><ele>504.0</ele><time>2026-03-25T10:58:45.188Z</time></trkpt><trkpt lat="44.1835375" lon="10.2872366"><ele>504.0</ele><time>2026-03-25T10:59:13.179Z</time></trkpt><trkpt lat="44.1835744" lon="10.2871516"><ele>504.0</ele><time>2026-03-25T10:59:18.181Z</time></trkpt><trkpt lat="44.183607" lon="10.2870733"><ele>503.7142857142857</ele><time>2026-03-25T10:59:23.175Z</time></trkpt><trkpt lat="44.1836393" lon="10.2869821"><ele>503.42857142857144</ele><time>2026-03-25T10:59:28.178Z</time></trkpt><trkpt lat="44.1836463" lon="10.2868832"><ele>503.1428571428571</ele><time>2026-03-25T10:59:33.171Z</time></trkpt><trkpt lat="44.1836977" lon="10.2868025"><ele>502.85714285714283</ele><time>2026-03-25T10:59:38.173Z</time></trkpt><trkpt lat="44.183727" lon="10.286712"><ele>502.57142857142856</ele><time>2026-03-25T10:59:43.187Z</time></trkpt><trkpt lat="44.183741" lon="10.2866146"><ele>502.2857142857142</ele><time>2026-03-25T10:59:48.172Z</time></trkpt><trkpt lat="44.1837731" lon="10.2865171"><ele>501.99999999999994</ele><time>2026-03-25T10:59:53.177Z</time></trkpt><trkpt lat="44.1838009" lon="10.2864202"><ele>501.5714285714285</ele><time>2026-03-25T10:59:58.187Z</time></trkpt><trkpt lat="44.1838463" lon="10.286335"><ele>501.1428571428571</ele><time>2026-03-25T11:00:03.173Z</time></trkpt><trkpt lat="44.1838886" lon="10.2862452"><ele>500.7142857142857</ele><time>2026-03-25T11:00:08.181Z</time></trkpt><trkpt lat="44.1839373" lon="10.2861875"><ele>500.2857142857143</ele><time>2026-03-25T11:00:12.182Z</time></trkpt><trkpt lat="44.1839999" lon="10.2861175"><ele>499.8571428571429</ele><time>2026-03-25T11:00:17.174Z</time></trkpt><trkpt lat="44.1840519" lon="10.286056"><ele>499.4285714285715</ele><time>2026-03-25T11:00:21.173Z</time></trkpt><trkpt lat="44.1841074" lon="10.2859983"><ele>499.00000000000006</ele><time>2026-03-25T11:00:26.182Z</time></trkpt><trkpt lat="44.1841509" lon="10.2859345"><ele>499.4285714285715</ele><time>2026-03-25T11:00:30.175Z</time></trkpt><trkpt lat="44.1841931" lon="10.2858692"><ele>499.8571428571429</ele><time>2026-03-25T11:00:34.177Z</time></trkpt><trkpt lat="44.184259" lon="10.2858169"><ele>500.2857142857143</ele><time>2026-03-25T11:00:39.181Z</time></trkpt><trkpt lat="44.1843159" lon="10.2857507"><ele>500.7142857142857</ele><time>2026-03-25T11:00:44.174Z</time></trkpt><trkpt lat="44.1843794" lon="10.2856735"><ele>501.1428571428571</ele><time>2026-03-25T11:00:49.182Z</time></trkpt><trkpt lat="44.1844341" lon="10.2856197"><ele>501.5714285714285</ele><time>2026-03-25T11:00:53.18Z</time></trkpt><trkpt lat="44.1844872" lon="10.2855612"><ele>501.99999999999994</ele><time>2026-03-25T11:00:57.178Z</time></trkpt><trkpt lat="44.1845556" lon="10.2855197"><ele>501.99999999999994</ele><time>2026-03-25T11:01:02.185Z</time></trkpt><trkpt lat="44.1846206" lon="10.2854913"><ele>502.0</ele><time>2026-03-25T11:01:07.188Z</time></trkpt><trkpt lat="44.1846777" lon="10.2854486"><ele>501.99999999999994</ele><time>2026-03-25T11:01:11.174Z</time></trkpt><trkpt lat="44.1847454" lon="10.2854085"><ele>501.99999999999994</ele><time>2026-03-25T11:01:15.169Z</time></trkpt><trkpt lat="44.1848125" lon="10.2853718"><ele>502.0</ele><time>2026-03-25T11:01:19.177Z</time></trkpt><trkpt lat="44.1848732" lon="10.2853355"><ele>501.99999999999994</ele><time>2026-03-25T11:01:23.186Z</time></trkpt><trkpt lat="44.1849459" lon="10.2852943"><ele>501.99999999999994</ele><time>2026-03-25T11:01:28.178Z</time></trkpt><trkpt lat="44.1849972" lon="10.2852343"><ele>504.1428571428571</ele><time>2026-03-25T11:01:32.177Z</time></trkpt><trkpt lat="44.1850526" lon="10.2851853"><ele>506.2857142857143</ele><time>2026-03-25T11:01:36.182Z</time></trkpt><trkpt lat="44.1851049" lon="10.2851321"><ele>508.42857142857144</ele><time>2026-03-25T11:01:40.175Z</time></trkpt><trkpt lat="44.1851568" lon="10.285079"><ele>510.57142857142856</ele><time>2026-03-25T11:01:44.174Z</time></trkpt><trkpt lat="44.1852053" lon="10.2850216"><ele>512.7142857142858</ele><time>2026-03-25T11:01:48.184Z</time></trkpt><trkpt lat="44.1852605" lon="10.2849654"><ele>514.8571428571429</ele><time>2026-03-25T11:01:52.178Z</time></trkpt><trkpt lat="44.1853222" lon="10.2848974"><ele>517.0</ele><time>2026-03-25T11:01:57.178Z</time></trkpt><trkpt lat="44.185383" lon="10.2848237"><ele>517.0</ele><time>2026-03-25T11:02:02.182Z</time></trkpt><trkpt lat="44.1854375" lon="10.2847685"><ele>517.0</ele><time>2026-03-25T11:02:06.171Z</time></trkpt><trkpt lat="44.185492" lon="10.2847057"><ele>517.0</ele><time>2026-03-25T11:02:10.185Z</time></trkpt><trkpt lat="44.1855348" lon="10.2846191"><ele>517.0</ele><time>2026-03-25T11:02:14.178Z</time></trkpt><trkpt lat="44.185576" lon="10.2845362"><ele>517.0</ele><time>2026-03-25T11:02:18.181Z</time></trkpt><trkpt lat="44.1856055" lon="10.2844449"><ele>517.0</ele><time>2026-03-25T11:02:22.182Z</time></trkpt><trkpt lat="44.185631" lon="10.2843431"><ele>517.0</ele><time>2026-03-25T11:02:26.183Z</time></trkpt><trkpt lat="44.1856537" lon="10.284245"><ele>516.8571428571429</ele><time>2026-03-25T11:02:30.173Z</time></trkpt><trkpt lat="44.1856779" lon="10.2841456"><ele>516.7142857142858</ele><time>2026-03-25T11:02:34.183Z</time></trkpt><trkpt lat="44.1856902" lon="10.2840463"><ele>516.5714285714286</ele><time>2026-03-25T11:02:38.178Z</time></trkpt><trkpt lat="44.1857163" lon="10.2839533"><ele>516.4285714285714</ele><time>2026-03-25T11:02:42.188Z</time></trkpt><trkpt lat="44.1857366" lon="10.2838548"><ele>516.2857142857142</ele><time>2026-03-25T11:02:46.173Z</time></trkpt><trkpt lat="44.1857562" lon="10.2837543"><ele>516.1428571428571</ele><time>2026-03-25T11:02:50.174Z</time></trkpt><trkpt lat="44.185782" lon="10.2836595"><ele>516.0</ele><time>2026-03-25T11:02:54.18Z</time></trkpt><trkpt lat="44.1858144" lon="10.2835641"><ele>515.9999999999999</ele><time>2026-03-25T11:02:58.174Z</time></trkpt><trkpt lat="44.1858421" lon="10.2834742"><ele>516.0</ele><time>2026-03-25T11:03:02.175Z</time></trkpt><trkpt lat="44.1858721" lon="10.2833903"><ele>516.0</ele><time>2026-03-25T11:03:06.178Z</time></trkpt><trkpt lat="44.1859185" lon="10.2832986"><ele>516.0</ele><time>2026-03-25T11:03:10.173Z</time></trkpt><trkpt lat="44.1859561" lon="10.2832049"><ele>516.0</ele><time>2026-03-25T11:03:14.178Z</time></trkpt><trkpt lat="44.1859988" lon="10.2831214"><ele>515.9999999999999</ele><time>2026-03-25T11:03:18.174Z</time></trkpt><trkpt lat="44.1860474" lon="10.2830492"><ele>516.0</ele><time>2026-03-25T11:03:22.177Z</time></trkpt><trkpt lat="44.1860971" lon="10.2829753"><ele>515.5714285714286</ele><time>2026-03-25T11:03:26.183Z</time></trkpt><trkpt lat="44.1861565" lon="10.2829148"><ele>515.1428571428571</ele><time>2026-03-25T11:03:30.174Z</time></trkpt><trkpt lat="44.1862178" lon="10.2828557"><ele>514.7142857142858</ele><time>2026-03-25T11:03:34.182Z</time></trkpt><trkpt lat="44.1862775" lon="10.2827988"><ele>514.2857142857142</ele><time>2026-03-25T11:03:38.18Z</time></trkpt><trkpt lat="44.1863421" lon="10.2827505"><ele>513.8571428571429</ele><time>2026-03-25T11:03:42.184Z</time></trkpt><trkpt lat="44.1864013" lon="10.2826995"><ele>513.4285714285714</ele><time>2026-03-25T11:03:46.18Z</time></trkpt><trkpt lat="44.1864692" lon="10.2826638"><ele>513.0</ele><time>2026-03-25T11:03:50.177Z</time></trkpt><trkpt lat="44.1865405" lon="10.2826145"><ele>514.2857142857143</ele><time>2026-03-25T11:03:54.192Z</time></trkpt><trkpt lat="44.1866075" lon="10.2825748"><ele>515.5714285714286</ele><time>2026-03-25T11:03:58.18Z</time></trkpt><trkpt lat="44.1866647" lon="10.282529"><ele>516.8571428571429</ele><time>2026-03-25T11:04:02.176Z</time></trkpt><trkpt lat="44.1867233" lon="10.2824808"><ele>518.1428571428571</ele><time>2026-03-25T11:04:06.188Z</time></trkpt><trkpt lat="44.1867818" lon="10.2824188"><ele>519.4285714285714</ele><time>2026-03-25T11:04:12.178Z</time></trkpt><trkpt lat="44.1867724" lon="10.2825169"><ele>520.7142857142858</ele><time>2026-03-25T11:04:19.183Z</time></trkpt><trkpt lat="44.1867156" lon="10.282576"><ele>522.0</ele><time>2026-03-25T11:04:23.171Z</time></trkpt><trkpt lat="44.1866523" lon="10.2826298"><ele>522.0</ele><time>2026-03-25T11:04:27.19Z</time></trkpt><trkpt lat="44.1865942" lon="10.2826971"><ele>522.0</ele><time>2026-03-25T11:04:31.173Z</time></trkpt><trkpt lat="44.186532" lon="10.2827593"><ele>522.0</ele><time>2026-03-25T11:04:35.184Z</time></trkpt><trkpt lat="44.1864738" lon="10.2828313"><ele>522.0</ele><time>2026-03-25T11:04:39.189Z</time></trkpt><trkpt lat="44.1864142" lon="10.282908"><ele>522.0</ele><time>2026-03-25T11:04:43.175Z</time></trkpt><trkpt lat="44.1863707" lon="10.2829918"><ele>522.0</ele><time>2026-03-25T11:04:46.185Z</time></trkpt><trkpt lat="44.1863331" lon="10.283094"><ele>521.1428571428571</ele><time>2026-03-25T11:04:50.183Z</time></trkpt><trkpt lat="44.1863113" lon="10.2831809"><ele>520.2857142857142</ele><time>2026-03-25T11:04:53.192Z</time></trkpt><trkpt lat="44.1863059" lon="10.2832707"><ele>519.4285714285713</ele><time>2026-03-25T11:04:56.185Z</time></trkpt><trkpt lat="44.186302" lon="10.2833598"><ele>518.5714285714286</ele><time>2026-03-25T11:04:59.174Z</time></trkpt><trkpt lat="44.1863072" lon="10.2834492"><ele>517.7142857142857</ele><time>2026-03-25T11:05:02.174Z</time></trkpt><trkpt lat="44.1863192" lon="10.2835408"><ele>516.8571428571428</ele><time>2026-03-25T11:05:05.185Z</time></trkpt><trkpt lat="44.1863254" lon="10.2836345"><ele>516.0</ele><time>2026-03-25T11:05:08.174Z</time></trkpt><trkpt lat="44.1863321" lon="10.2837239"><ele>515.9999999999999</ele><time>2026-03-25T11:05:11.19Z</time></trkpt><trkpt lat="44.1863462" lon="10.2838396"><ele>516.0</ele><time>2026-03-25T11:05:15.175Z</time></trkpt><trkpt lat="44.186363" lon="10.2839272"><ele>516.0</ele><time>2026-03-25T11:05:18.189Z</time></trkpt><trkpt lat="44.1863763" lon="10.2840149"><ele>516.0</ele><time>2026-03-25T11:05:21.185Z</time></trkpt><trkpt lat="44.1863712" lon="10.2841305"><ele>516.0</ele><time>2026-03-25T11:05:25.18Z</time></trkpt><trkpt lat="44.1863449" lon="10.2842206"><ele>515.9999999999999</ele><time>2026-03-25T11:05:28.202Z</time></trkpt><trkpt lat="44.1863037" lon="10.2842874"><ele>516.0</ele><time>2026-03-25T11:05:31.171Z</time></trkpt><trkpt lat="44.1862524" lon="10.284348"><ele>516.7142857142857</ele><time>2026-03-25T11:05:34.174Z</time></trkpt><trkpt lat="44.1861975" lon="10.2844062"><ele>517.4285714285714</ele><time>2026-03-25T11:05:37.176Z</time></trkpt><trkpt lat="44.1861474" lon="10.2844753"><ele>518.1428571428571</ele><time>2026-03-25T11:05:40.189Z</time></trkpt><trkpt lat="44.1860899" lon="10.2845371"><ele>518.8571428571429</ele><time>2026-03-25T11:05:43.174Z</time></trkpt><trkpt lat="44.1860361" lon="10.2846034"><ele>519.5714285714286</ele><time>2026-03-25T11:05:46.177Z</time></trkpt><trkpt lat="44.1859805" lon="10.2846614"><ele>520.2857142857142</ele><time>2026-03-25T11:05:49.174Z</time></trkpt><trkpt lat="44.1859345" lon="10.284725"><ele>521.0</ele><time>2026-03-25T11:05:52.176Z</time></trkpt><trkpt lat="44.1858828" lon="10.2847782"><ele>520.4285714285714</ele><time>2026-03-25T11:05:55.181Z</time></trkpt><trkpt lat="44.1858274" lon="10.2848342"><ele>519.8571428571429</ele><time>2026-03-25T11:05:58.177Z</time></trkpt><trkpt lat="44.1857698" lon="10.2848914"><ele>519.2857142857143</ele><time>2026-03-25T11:06:01.185Z</time></trkpt><trkpt lat="44.1857125" lon="10.2849515"><ele>518.7142857142858</ele><time>2026-03-25T11:06:04.189Z</time></trkpt><trkpt lat="44.1856649" lon="10.2850225"><ele>518.1428571428572</ele><time>2026-03-25T11:06:07.193Z</time></trkpt><trkpt lat="44.1856134" lon="10.2850867"><ele>517.5714285714286</ele><time>2026-03-25T11:06:10.177Z</time></trkpt><trkpt lat="44.1855769" lon="10.2851672"><ele>517.0</ele><time>2026-03-25T11:06:13.18Z</time></trkpt><trkpt lat="44.1855604" lon="10.285265"><ele>517.0</ele><time>2026-03-25T11:06:16.183Z</time></trkpt><trkpt lat="44.1855729" lon="10.285366"><ele>517.0</ele><time>2026-03-25T11:06:19.174Z</time></trkpt><trkpt lat="44.185573" lon="10.2854591"><ele>517.0</ele><time>2026-03-25T11:06:22.183Z</time></trkpt><trkpt lat="44.1855705" lon="10.2855738"><ele>517.0</ele><time>2026-03-25T11:06:26.192Z</time></trkpt><trkpt lat="44.1855683" lon="10.2856669"><ele>517.0</ele><time>2026-03-25T11:06:29.189Z</time></trkpt><trkpt lat="44.185574" lon="10.2857621"><ele>517.0</ele><time>2026-03-25T11:06:32.183Z</time></trkpt><trkpt lat="44.1855803" lon="10.2858812"><ele>517.0</ele><time>2026-03-25T11:06:35.19Z</time></trkpt><trkpt lat="44.1855758" lon="10.2859739"><ele>517.8333333333334</ele><time>2026-03-25T11:06:38.175Z</time></trkpt><trkpt lat="44.1855476" lon="10.286075"><ele>518.6666666666667</ele><time>2026-03-25T11:06:41.187Z</time></trkpt><trkpt lat="44.1855116" lon="10.2861711"><ele>519.5</ele><time>2026-03-25T11:06:44.185Z</time></trkpt><trkpt lat="44.1854721" lon="10.2862588"><ele>520.3333333333334</ele><time>2026-03-25T11:06:47.185Z</time></trkpt><trkpt lat="44.1854304" lon="10.2863465"><ele>521.1666666666666</ele><time>2026-03-25T11:06:50.191Z</time></trkpt><trkpt lat="44.1853852" lon="10.2864336"><ele>522.0</ele><time>2026-03-25T11:06:53.188Z</time></trkpt><trkpt lat="44.1853483" lon="10.2865276"><ele>524.0</ele><time>2026-03-25T11:06:56.178Z</time></trkpt><trkpt lat="44.185315" lon="10.2866189"><ele>526.0</ele><time>2026-03-25T11:06:59.189Z</time></trkpt><trkpt lat="44.1852741" lon="10.2867145"><ele>528.0</ele><time>2026-03-25T11:07:02.178Z</time></trkpt><trkpt lat="44.1852358" lon="10.2868132"><ele>530.0</ele><time>2026-03-25T11:07:05.18Z</time></trkpt><trkpt lat="44.1852015" lon="10.2869202"><ele>532.0</ele><time>2026-03-25T11:07:08.207Z</time></trkpt><trkpt lat="44.1851708" lon="10.2870245"><ele>534.0</ele><time>2026-03-25T11:07:11.188Z</time></trkpt><trkpt lat="44.185143" lon="10.2871348"><ele>534.0</ele><time>2026-03-25T11:07:14.173Z</time></trkpt><trkpt lat="44.1851162" lon="10.2872442"><ele>534.0</ele><time>2026-03-25T11:07:17.184Z</time></trkpt><trkpt lat="44.1850936" lon="10.2873498"><ele>534.0</ele><time>2026-03-25T11:07:20.186Z</time></trkpt><trkpt lat="44.1850692" lon="10.2874581"><ele>534.0</ele><time>2026-03-25T11:07:23.202Z</time></trkpt><trkpt lat="44.185043" lon="10.2875632"><ele>534.0</ele><time>2026-03-25T11:07:26.182Z</time></trkpt><trkpt lat="44.1850182" lon="10.2876497"><ele>534.0</ele><time>2026-03-25T11:07:29.179Z</time></trkpt><trkpt lat="44.1849835" lon="10.2877592"><ele>535.2857142857143</ele><time>2026-03-25T11:07:32.188Z</time></trkpt><trkpt lat="44.1849581" lon="10.2878741"><ele>536.5714285714286</ele><time>2026-03-25T11:07:35.184Z</time></trkpt><trkpt lat="44.1849319" lon="10.2879757"><ele>537.8571428571429</ele><time>2026-03-25T11:07:38.178Z</time></trkpt><trkpt lat="44.1849178" lon="10.2880662"><ele>539.1428571428571</ele><time>2026-03-25T11:07:41.174Z</time></trkpt><trkpt lat="44.1849111" lon="10.2881626"><ele>540.4285714285714</ele><time>2026-03-25T11:07:44.178Z</time></trkpt><trkpt lat="44.1849135" lon="10.2882557"><ele>541.7142857142858</ele><time>2026-03-25T11:07:47.171Z</time></trkpt><trkpt lat="44.1849106" lon="10.2883559"><ele>543.0</ele><time>2026-03-25T11:07:52.17Z</time></trkpt><trkpt lat="44.1848936" lon="10.2884449"><ele>543.4285714285714</ele><time>2026-03-25T11:07:55.195Z</time></trkpt><trkpt lat="44.1848613" lon="10.2885536"><ele>543.8571428571429</ele><time>2026-03-25T11:07:58.186Z</time></trkpt><trkpt lat="44.1848326" lon="10.2886318"><ele>544.2857142857142</ele><time>2026-03-25T11:08:00.192Z</time></trkpt><trkpt lat="44.184798" lon="10.2887086"><ele>544.7142857142858</ele><time>2026-03-25T11:08:02.198Z</time></trkpt><trkpt lat="44.1847603" lon="10.2887868"><ele>545.1428571428571</ele><time>2026-03-25T11:08:04.181Z</time></trkpt><trkpt lat="44.1847245" lon="10.2888736"><ele>545.5714285714286</ele><time>2026-03-25T11:08:06.182Z</time></trkpt><trkpt lat="44.1846896" lon="10.2889687"><ele>546.0</ele><time>2026-03-25T11:08:08.179Z</time></trkpt><trkpt lat="44.1846578" lon="10.2890737"><ele>545.8333333333334</ele><time>2026-03-25T11:08:10.178Z</time></trkpt><trkpt lat="44.18466" lon="10.2891738"><ele>545.6666666666666</ele><time>2026-03-25T11:08:12.173Z</time></trkpt><trkpt lat="44.1847154" lon="10.2892567"><ele>545.5</ele><time>2026-03-25T11:08:14.182Z</time></trkpt><trkpt lat="44.1847936" lon="10.289304"><ele>545.3333333333333</ele><time>2026-03-25T11:08:16.175Z</time></trkpt><trkpt lat="44.184884" lon="10.2893273"><ele>545.1666666666666</ele><time>2026-03-25T11:08:18.179Z</time></trkpt><trkpt lat="44.1849672" lon="10.289354"><ele>545.0</ele><time>2026-03-25T11:08:20.174Z</time></trkpt><trkpt lat="44.185046" lon="10.2893785"><ele>545.0</ele><time>2026-03-25T11:08:22.176Z</time></trkpt><trkpt lat="44.1851235" lon="10.2894155"><ele>545.0</ele><time>2026-03-25T11:08:24.174Z</time></trkpt><trkpt lat="44.1851996" lon="10.2894638"><ele>545.0</ele><time>2026-03-25T11:08:26.185Z</time></trkpt><trkpt lat="44.1852632" lon="10.2895252"><ele>545.0</ele><time>2026-03-25T11:08:28.192Z</time></trkpt><trkpt lat="44.1853105" lon="10.289601"><ele>545.0</ele><time>2026-03-25T11:08:30.182Z</time></trkpt><trkpt lat="44.1853526" lon="10.2896816"><ele>545.0</ele><time>2026-03-25T11:08:32.172Z</time></trkpt><trkpt lat="44.1853812" lon="10.2897614"><ele>544.0</ele><time>2026-03-25T11:08:34.184Z</time></trkpt><trkpt lat="44.1854191" lon="10.2898639"><ele>543.0</ele><time>2026-03-25T11:08:37.182Z</time></trkpt><trkpt lat="44.1854457" lon="10.2899601"><ele>542.0</ele><time>2026-03-25T11:08:40.198Z</time></trkpt><trkpt lat="44.1854731" lon="10.2900602"><ele>541.0</ele><time>2026-03-25T11:08:43.175Z</time></trkpt><trkpt lat="44.1855052" lon="10.2901603"><ele>540.0</ele><time>2026-03-25T11:08:46.187Z</time></trkpt><trkpt lat="44.1855365" lon="10.2902662"><ele>539.0</ele><time>2026-03-25T11:08:49.187Z</time></trkpt><trkpt lat="44.1855683" lon="10.2903718"><ele>539.0</ele><time>2026-03-25T11:08:52.173Z</time></trkpt><trkpt lat="44.1855999" lon="10.2904808"><ele>539.0</ele><time>2026-03-25T11:08:55.181Z</time></trkpt><trkpt lat="44.1856326" lon="10.2905944"><ele>539.0</ele><time>2026-03-25T11:08:58.183Z</time></trkpt><trkpt lat="44.18567" lon="10.2907049"><ele>539.0</ele><time>2026-03-25T11:09:01.179Z</time></trkpt><trkpt lat="44.1857284" lon="10.2907953"><ele>539.0</ele><time>2026-03-25T11:09:04.176Z</time></trkpt><trkpt lat="44.1858029" lon="10.2908553"><ele>539.0</ele><time>2026-03-25T11:09:07.178Z</time></trkpt><trkpt lat="44.1858798" lon="10.2908953"><ele>539.5714285714286</ele><time>2026-03-25T11:09:10.177Z</time></trkpt><trkpt lat="44.1859622" lon="10.2909291"><ele>540.1428571428571</ele><time>2026-03-25T11:09:13.177Z</time></trkpt><trkpt lat="44.186048" lon="10.2909689"><ele>540.7142857142858</ele><time>2026-03-25T11:09:16.186Z</time></trkpt><trkpt lat="44.186109" lon="10.291"><ele>541.2857142857142</ele><time>2026-03-25T11:09:18.175Z</time></trkpt><trkpt lat="44.1861657" lon="10.2910387"><ele>541.8571428571429</ele><time>2026-03-25T11:09:20.179Z</time></trkpt><trkpt lat="44.1862227" lon="10.2910795"><ele>542.4285714285714</ele><time>2026-03-25T11:09:22.19Z</time></trkpt><trkpt lat="44.1862791" lon="10.2911275"><ele>543.0</ele><time>2026-03-25T11:09:24.179Z</time></trkpt><trkpt lat="44.1863329" lon="10.2911776"><ele>543.0</ele><time>2026-03-25T11:09:26.177Z</time></trkpt><trkpt lat="44.1863834" lon="10.2912306"><ele>543.0</ele><time>2026-03-25T11:09:28.175Z</time></trkpt><trkpt lat="44.1864598" lon="10.2912972"><ele>543.0</ele><time>2026-03-25T11:09:31.187Z</time></trkpt><trkpt lat="44.1865268" lon="10.291369"><ele>543.0</ele><time>2026-03-25T11:09:34.171Z</time></trkpt><trkpt lat="44.1865993" lon="10.2914417"><ele>543.0</ele><time>2026-03-25T11:09:37.182Z</time></trkpt><trkpt lat="44.1866798" lon="10.2915015"><ele>543.0</ele><time>2026-03-25T11:09:40.183Z</time></trkpt><trkpt lat="44.1867561" lon="10.2915713"><ele>543.1666666666666</ele><time>2026-03-25T11:09:43.185Z</time></trkpt><trkpt lat="44.1868353" lon="10.2916317"><ele>543.3333333333334</ele><time>2026-03-25T11:09:46.181Z</time></trkpt><trkpt lat="44.1869085" lon="10.2917078"><ele>543.5</ele><time>2026-03-25T11:09:49.19Z</time></trkpt><trkpt lat="44.1869591" lon="10.2918184"><ele>543.6666666666667</ele><time>2026-03-25T11:09:52.188Z</time></trkpt><trkpt lat="44.1869624" lon="10.2919359"><ele>543.8333333333334</ele><time>2026-03-25T11:09:55.182Z</time></trkpt><trkpt lat="44.186928" lon="10.2920422"><ele>544.0</ele><time>2026-03-25T11:09:58.186Z</time></trkpt><trkpt lat="44.1868951" lon="10.2921604"><ele>543.9999999999999</ele><time>2026-03-25T11:10:01.184Z</time></trkpt><trkpt lat="44.1868703" lon="10.2922414"><ele>544.0</ele><time>2026-03-25T11:10:03.172Z</time></trkpt><trkpt lat="44.1868447" lon="10.2923279"><ele>544.0</ele><time>2026-03-25T11:10:05.181Z</time></trkpt><trkpt lat="44.1868188" lon="10.292418"><ele>544.0</ele><time>2026-03-25T11:10:07.182Z</time></trkpt><trkpt lat="44.1867935" lon="10.2925064"><ele>544.0</ele><time>2026-03-25T11:10:09.186Z</time></trkpt><trkpt lat="44.1867611" lon="10.292593"><ele>543.9999999999999</ele><time>2026-03-25T11:10:11.178Z</time></trkpt><trkpt lat="44.1867276" lon="10.2926754"><ele>544.0</ele><time>2026-03-25T11:10:13.173Z</time></trkpt><trkpt lat="44.1867016" lon="10.2927611"><ele>543.8571428571428</ele><time>2026-03-25T11:10:15.195Z</time></trkpt><trkpt lat="44.1866743" lon="10.2928409"><ele>543.7142857142857</ele><time>2026-03-25T11:10:17.176Z</time></trkpt><trkpt lat="44.1866467" lon="10.2929237"><ele>543.5714285714286</ele><time>2026-03-25T11:10:19.182Z</time></trkpt><trkpt lat="44.186623" lon="10.2930154"><ele>543.4285714285713</ele><time>2026-03-25T11:10:21.179Z</time></trkpt><trkpt lat="44.1865998" lon="10.2931098"><ele>543.2857142857142</ele><time>2026-03-25T11:10:23.184Z</time></trkpt><trkpt lat="44.1865721" lon="10.2932044"><ele>543.1428571428571</ele><time>2026-03-25T11:10:25.199Z</time></trkpt><trkpt lat="44.1865458" lon="10.2933"><ele>543.0</ele><time>2026-03-25T11:10:27.191Z</time></trkpt><trkpt lat="44.1865215" lon="10.2933941"><ele>541.2857142857143</ele><time>2026-03-25T11:10:29.181Z</time></trkpt><trkpt lat="44.1864934" lon="10.2934819"><ele>539.5714285714286</ele><time>2026-03-25T11:10:31.195Z</time></trkpt><trkpt lat="44.1864703" lon="10.2935707"><ele>537.8571428571429</ele><time>2026-03-25T11:10:33.184Z</time></trkpt><trkpt lat="44.1864475" lon="10.2936567"><ele>536.1428571428571</ele><time>2026-03-25T11:10:35.175Z</time></trkpt><trkpt lat="44.1864249" lon="10.2937477"><ele>534.4285714285714</ele><time>2026-03-25T11:10:37.178Z</time></trkpt><trkpt lat="44.1863993" lon="10.2938449"><ele>532.7142857142858</ele><time>2026-03-25T11:10:39.186Z</time></trkpt><trkpt lat="44.1863753" lon="10.2939448"><ele>531.0</ele><time>2026-03-25T11:10:41.189Z</time></trkpt><trkpt lat="44.1863491" lon="10.2940459"><ele>531.0</ele><time>2026-03-25T11:10:43.187Z</time></trkpt><trkpt lat="44.1863192" lon="10.2941537"><ele>531.0</ele><time>2026-03-25T11:10:45.176Z</time></trkpt><trkpt lat="44.1862897" lon="10.2942666"><ele>531.0</ele><time>2026-03-25T11:10:47.182Z</time></trkpt><trkpt lat="44.1862567" lon="10.2943838"><ele>531.0</ele><time>2026-03-25T11:10:49.199Z</time></trkpt><trkpt lat="44.1862157" lon="10.2945086"><ele>531.0</ele><time>2026-03-25T11:10:51.189Z</time></trkpt><trkpt lat="44.1861812" lon="10.2946496"><ele>532.0</ele><time>2026-03-25T11:10:53.19Z</time></trkpt><trkpt lat="44.1861371" lon="10.2948001"><ele>533.0</ele><time>2026-03-25T11:10:55.186Z</time></trkpt><trkpt lat="44.1860981" lon="10.2949534"><ele>534.0</ele><time>2026-03-25T11:10:57.181Z</time></trkpt><trkpt lat="44.1860362" lon="10.2950975"><ele>535.0</ele><time>2026-03-25T11:10:59.198Z</time></trkpt><trkpt lat="44.1859543" lon="10.2952226"><ele>535.0</ele><time>2026-03-25T11:11:01.193Z</time></trkpt><trkpt lat="44.1858697" lon="10.2953519"><ele>535.0</ele><time>2026-03-25T11:11:03.191Z</time></trkpt><trkpt lat="44.1858027" lon="10.2954947"><ele>535.0</ele><time>2026-03-25T11:11:05.182Z</time></trkpt><trkpt lat="44.1857459" lon="10.295648"><ele>535.0</ele><time>2026-03-25T11:11:07.182Z</time></trkpt><trkpt lat="44.185693" lon="10.2958122"><ele>533.0</ele><time>2026-03-25T11:11:09.182Z</time></trkpt><trkpt lat="44.1856406" lon="10.295975"><ele>531.0</ele><time>2026-03-25T11:11:11.18Z</time></trkpt><trkpt lat="44.1856162" lon="10.2960597"><ele>529.0</ele><time>2026-03-25T11:11:12.187Z</time></trkpt><trkpt lat="44.1855865" lon="10.2961442"><ele>527.0</ele><time>2026-03-25T11:11:13.181Z</time></trkpt><trkpt lat="44.185549" lon="10.2962233"><ele>525.0</ele><time>2026-03-25T11:11:14.189Z</time></trkpt><trkpt lat="44.1854951" lon="10.296291"><ele>523.0</ele><time>2026-03-25T11:11:15.189Z</time></trkpt><trkpt lat="44.1854341" lon="10.296334"><ele>522.9999999999999</ele><time>2026-03-25T11:11:16.182Z</time></trkpt><trkpt lat="44.1853672" lon="10.2963604"><ele>523.0</ele><time>2026-03-25T11:11:17.181Z</time></trkpt><trkpt lat="44.1852993" lon="10.2963807"><ele>523.0</ele><time>2026-03-25T11:11:18.204Z</time></trkpt><trkpt lat="44.1852328" lon="10.2964031"><ele>523.0</ele><time>2026-03-25T11:11:19.195Z</time></trkpt><trkpt lat="44.1851685" lon="10.2964312"><ele>523.0</ele><time>2026-03-25T11:11:20.185Z</time></trkpt><trkpt lat="44.1851133" lon="10.2964837"><ele>522.9999999999999</ele><time>2026-03-25T11:11:21.203Z</time></trkpt><trkpt lat="44.1850728" lon="10.2965529"><ele>523.0</ele><time>2026-03-25T11:11:22.187Z</time></trkpt><trkpt lat="44.1850505" lon="10.2966409"><ele>523.9999999999999</ele><time>2026-03-25T11:11:23.198Z</time></trkpt><trkpt lat="44.1850336" lon="10.2967303"><ele>525.0</ele><time>2026-03-25T11:11:24.177Z</time></trkpt><trkpt lat="44.1850296" lon="10.2968375"><ele>526.0</ele><time>2026-03-25T11:11:25.181Z</time></trkpt><trkpt lat="44.1850294" lon="10.2969396"><ele>527.0</ele><time>2026-03-25T11:11:26.177Z</time></trkpt><trkpt lat="44.185025" lon="10.2970418"><ele>528.0</ele><time>2026-03-25T11:11:27.177Z</time></trkpt><trkpt lat="44.1850198" lon="10.2971455"><ele>528.9999999999999</ele><time>2026-03-25T11:11:28.189Z</time></trkpt><trkpt lat="44.1850176" lon="10.2972446"><ele>530.0</ele><time>2026-03-25T11:11:29.193Z</time></trkpt><trkpt lat="44.1850165" lon="10.297344"><ele>530.9999999999999</ele><time>2026-03-25T11:11:30.175Z</time></trkpt><trkpt lat="44.1850132" lon="10.2974458"><ele>532.0</ele><time>2026-03-25T11:11:31.187Z</time></trkpt><trkpt lat="44.1850057" lon="10.2975512"><ele>533.0</ele><time>2026-03-25T11:11:32.178Z</time></trkpt><trkpt lat="44.1849971" lon="10.2976496"><ele>534.0</ele><time>2026-03-25T11:11:33.19Z</time></trkpt><trkpt lat="44.1849905" lon="10.2977487"><ele>535.0</ele><time>2026-03-25T11:11:34.184Z</time></trkpt><trkpt lat="44.1849822" lon="10.297844"><ele>535.9999999999999</ele><time>2026-03-25T11:11:35.193Z</time></trkpt><trkpt lat="44.184966" lon="10.2979391"><ele>537.0</ele><time>2026-03-25T11:11:36.175Z</time></trkpt><trkpt lat="44.1849411" lon="10.298037"><ele>537.6666666666666</ele><time>2026-03-25T11:11:37.187Z</time></trkpt><trkpt lat="44.184901" lon="10.2981294"><ele>538.3333333333334</ele><time>2026-03-25T11:11:38.176Z</time></trkpt><trkpt lat="44.1848471" lon="10.298214"><ele>539.0</ele><time>2026-03-25T11:11:39.187Z</time></trkpt><trkpt lat="44.1847821" lon="10.2982904"><ele>539.6666666666667</ele><time>2026-03-25T11:11:40.183Z</time></trkpt><trkpt lat="44.1847172" lon="10.2983659"><ele>540.3333333333334</ele><time>2026-03-25T11:11:41.185Z</time></trkpt><trkpt lat="44.184648" lon="10.2984282"><ele>541.0</ele><time>2026-03-25T11:11:42.18Z</time></trkpt><trkpt lat="44.1845791" lon="10.2984867"><ele>538.8333333333334</ele><time>2026-03-25T11:11:43.193Z</time></trkpt><trkpt lat="44.1845124" lon="10.2985444"><ele>536.6666666666667</ele><time>2026-03-25T11:11:44.197Z</time></trkpt><trkpt lat="44.1844412" lon="10.2986065"><ele>534.5</ele><time>2026-03-25T11:11:45.185Z</time></trkpt><trkpt lat="44.1843691" lon="10.2986637"><ele>532.3333333333334</ele><time>2026-03-25T11:11:46.181Z</time></trkpt><trkpt lat="44.1843063" lon="10.2987287"><ele>530.1666666666666</ele><time>2026-03-25T11:11:47.188Z</time></trkpt><trkpt lat="44.1842492" lon="10.2988016"><ele>528.0</ele><time>2026-03-25T11:11:48.193Z</time></trkpt><trkpt lat="44.1841988" lon="10.2988837"><ele>529.0</ele><time>2026-03-25T11:11:49.19Z</time></trkpt><trkpt lat="44.1841585" lon="10.298973"><ele>530.0</ele><time>2026-03-25T11:11:50.189Z</time></trkpt><trkpt lat="44.1841227" lon="10.2990774"><ele>531.0</ele><time>2026-03-25T11:11:51.185Z</time></trkpt><trkpt lat="44.1840957" lon="10.2991854"><ele>532.0</ele><time>2026-03-25T11:11:52.193Z</time></trkpt><trkpt lat="44.1840726" lon="10.2992941"><ele>533.0</ele><time>2026-03-25T11:11:53.184Z</time></trkpt><trkpt lat="44.1840457" lon="10.2994137"><ele>534.0</ele><time>2026-03-25T11:11:54.197Z</time></trkpt><trkpt lat="44.184019" lon="10.2995306"><ele>531.6666666666666</ele><time>2026-03-25T11:11:55.195Z</time></trkpt><trkpt lat="44.1839903" lon="10.2996441"><ele>529.3333333333334</ele><time>2026-03-25T11:11:56.197Z</time></trkpt><trkpt lat="44.1839627" lon="10.2997587"><ele>527.0</ele><time>2026-03-25T11:11:57.186Z</time></trkpt><trkpt lat="44.1839389" lon="10.2998783"><ele>524.6666666666667</ele><time>2026-03-25T11:11:58.193Z</time></trkpt><trkpt lat="44.183911" lon="10.2999945"><ele>522.3333333333334</ele><time>2026-03-25T11:11:59.175Z</time></trkpt><trkpt lat="44.183873" lon="10.3001142"><ele>520.0</ele><time>2026-03-25T11:12:00.181Z</time></trkpt><trkpt lat="44.1838313" lon="10.3002315"><ele>520.0</ele><time>2026-03-25T11:12:01.19Z</time></trkpt><trkpt lat="44.1837924" lon="10.3003469"><ele>520.0</ele><time>2026-03-25T11:12:02.18Z</time></trkpt><trkpt lat="44.1837443" lon="10.3004531"><ele>520.0</ele><time>2026-03-25T11:12:03.178Z</time></trkpt><trkpt lat="44.1837013" lon="10.3005703"><ele>520.0</ele><time>2026-03-25T11:12:04.183Z</time></trkpt><trkpt lat="44.1836558" lon="10.3006841"><ele>520.0</ele><time>2026-03-25T11:12:05.182Z</time></trkpt><trkpt lat="44.1836102" lon="10.3008001"><ele>520.4</ele><time>2026-03-25T11:12:06.183Z</time></trkpt><trkpt lat="44.1835606" lon="10.3009149"><ele>520.8</ele><time>2026-03-25T11:12:07.182Z</time></trkpt><trkpt lat="44.1835133" lon="10.3010207"><ele>521.2</ele><time>2026-03-25T11:12:08.184Z</time></trkpt><trkpt lat="44.1834726" lon="10.3011295"><ele>521.6</ele><time>2026-03-25T11:12:09.187Z</time></trkpt><trkpt lat="44.1834247" lon="10.3012382"><ele>522.0</ele><time>2026-03-25T11:12:10.186Z</time></trkpt><trkpt lat="44.1833759" lon="10.301353"><ele>522.2</ele><time>2026-03-25T11:12:11.189Z</time></trkpt><trkpt lat="44.1833288" lon="10.3014628"><ele>522.4000000000001</ele><time>2026-03-25T11:12:12.185Z</time></trkpt><trkpt lat="44.1832819" lon="10.3015734"><ele>522.5999999999999</ele><time>2026-03-25T11:12:13.181Z</time></trkpt><trkpt lat="44.1832513" lon="10.3016968"><ele>522.8</ele><time>2026-03-25T11:12:14.188Z</time></trkpt><trkpt lat="44.1832474" lon="10.3018251"><ele>523.0</ele><time>2026-03-25T11:12:15.183Z</time></trkpt><trkpt lat="44.183248" lon="10.3019395"><ele>523.0</ele><time>2026-03-25T11:12:16.176Z</time></trkpt><trkpt lat="44.1832535" lon="10.3020352"><ele>523.0</ele><time>2026-03-25T11:12:17.172Z</time></trkpt><trkpt lat="44.1832771" lon="10.302195"><ele>523.0</ele><time>2026-03-25T11:12:19.188Z</time></trkpt><trkpt lat="44.1833037" lon="10.3023522"><ele>523.0</ele><time>2026-03-25T11:12:21.2Z</time></trkpt><trkpt lat="44.1833317" lon="10.3025018"><ele>523.0</ele><time>2026-03-25T11:12:23.188Z</time></trkpt><trkpt lat="44.1833656" lon="10.3026446"><ele>522.3333333333334</ele><time>2026-03-25T11:12:25.191Z</time></trkpt><trkpt lat="44.1833858" lon="10.3027851"><ele>521.6666666666667</ele><time>2026-03-25T11:12:27.187Z</time></trkpt><trkpt lat="44.1834222" lon="10.3029093"><ele>521.0</ele><time>2026-03-25T11:12:29.189Z</time></trkpt><trkpt lat="44.1834556" lon="10.3030202"><ele>520.3333333333334</ele><time>2026-03-25T11:12:31.191Z</time></trkpt><trkpt lat="44.1834948" lon="10.3031223"><ele>519.6666666666666</ele><time>2026-03-25T11:12:33.18Z</time></trkpt><trkpt lat="44.1835386" lon="10.3032085"><ele>519.0</ele><time>2026-03-25T11:12:35.177Z</time></trkpt><trkpt lat="44.1835788" lon="10.303282"><ele>518.3333333333334</ele><time>2026-03-25T11:12:37.19Z</time></trkpt><trkpt lat="44.1836175" lon="10.3033599"><ele>517.6666666666666</ele><time>2026-03-25T11:12:39.174Z</time></trkpt><trkpt lat="44.1836571" lon="10.3034464"><ele>517.0</ele><time>2026-03-25T11:12:41.196Z</time></trkpt><trkpt lat="44.1836986" lon="10.3035381"><ele>516.3333333333333</ele><time>2026-03-25T11:12:43.182Z</time></trkpt><trkpt lat="44.1837463" lon="10.3036276"><ele>515.6666666666666</ele><time>2026-03-25T11:12:45.183Z</time></trkpt><trkpt lat="44.1837932" lon="10.3037155"><ele>515.0</ele><time>2026-03-25T11:12:47.178Z</time></trkpt><trkpt lat="44.1838454" lon="10.3037947"><ele>515.0</ele><time>2026-03-25T11:12:49.182Z</time></trkpt><trkpt lat="44.1838988" lon="10.3038673"><ele>515.0</ele><time>2026-03-25T11:12:51.184Z</time></trkpt><trkpt lat="44.183951" lon="10.3039428"><ele>515.0</ele><time>2026-03-25T11:12:53.196Z</time></trkpt><trkpt lat="44.1839991" lon="10.3040316"><ele>515.0</ele><time>2026-03-25T11:12:55.177Z</time></trkpt><trkpt lat="44.1840434" lon="10.3041193"><ele>515.0</ele><time>2026-03-25T11:12:57.175Z</time></trkpt><trkpt lat="44.184087" lon="10.3042015"><ele>515.0</ele><time>2026-03-25T11:12:59.172Z</time></trkpt><trkpt lat="44.1841329" lon="10.3042797"><ele>515.4285714285714</ele><time>2026-03-25T11:13:01.179Z</time></trkpt><trkpt lat="44.184171" lon="10.3043614"><ele>515.8571428571429</ele><time>2026-03-25T11:13:03.175Z</time></trkpt><trkpt lat="44.1841732" lon="10.3044551"><ele>516.2857142857142</ele><time>2026-03-25T11:13:05.18Z</time></trkpt><trkpt lat="44.184154" lon="10.3045399"><ele>516.7142857142858</ele><time>2026-03-25T11:13:07.185Z</time></trkpt><trkpt lat="44.1841257" lon="10.3046201"><ele>517.1428571428571</ele><time>2026-03-25T11:13:09.179Z</time></trkpt><trkpt lat="44.1840799" lon="10.3047327"><ele>517.5714285714286</ele><time>2026-03-25T11:13:12.191Z</time></trkpt><trkpt lat="44.1840411" lon="10.3048415"><ele>518.0</ele><time>2026-03-25T11:13:15.18Z</time></trkpt><trkpt lat="44.184015" lon="10.304938"><ele>517.6666666666666</ele><time>2026-03-25T11:13:18.179Z</time></trkpt><trkpt lat="44.1839994" lon="10.3050417"><ele>517.3333333333333</ele><time>2026-03-25T11:13:21.189Z</time></trkpt><trkpt lat="44.1839984" lon="10.30515"><ele>517.0</ele><time>2026-03-25T11:13:24.186Z</time></trkpt><trkpt lat="44.1839999" lon="10.3052792"><ele>516.6666666666666</ele><time>2026-03-25T11:13:27.178Z</time></trkpt><trkpt lat="44.1839944" lon="10.3053762"><ele>516.3333333333334</ele><time>2026-03-25T11:13:29.2Z</time></trkpt><trkpt lat="44.1839911" lon="10.3054858"><ele>516.0</ele><time>2026-03-25T11:13:31.201Z</time></trkpt><trkpt lat="44.1839852" lon="10.3055997"><ele>513.6666666666666</ele><time>2026-03-25T11:13:33.174Z</time></trkpt><trkpt lat="44.1839824" lon="10.3057009"><ele>511.33333333333337</ele><time>2026-03-25T11:13:35.183Z</time></trkpt><trkpt lat="44.1839817" lon="10.3058086"><ele>509.0</ele><time>2026-03-25T11:13:37.178Z</time></trkpt><trkpt lat="44.18398" lon="10.3059276"><ele>506.6666666666667</ele><time>2026-03-25T11:13:39.188Z</time></trkpt><trkpt lat="44.1839778" lon="10.3060547"><ele>504.33333333333337</ele><time>2026-03-25T11:13:41.19Z</time></trkpt><trkpt lat="44.1839737" lon="10.3061853"><ele>502.0</ele><time>2026-03-25T11:13:43.179Z</time></trkpt><trkpt lat="44.1839632" lon="10.3063105"><ele>500.33333333333337</ele><time>2026-03-25T11:13:45.182Z</time></trkpt><trkpt lat="44.1839441" lon="10.3064268"><ele>498.6666666666667</ele><time>2026-03-25T11:13:47.175Z</time></trkpt><trkpt lat="44.1839239" lon="10.306529"><ele>497.0</ele><time>2026-03-25T11:13:49.179Z</time></trkpt><trkpt lat="44.1839078" lon="10.3066375"><ele>495.33333333333337</ele><time>2026-03-25T11:13:51.189Z</time></trkpt><trkpt lat="44.1838959" lon="10.306746"><ele>493.6666666666667</ele><time>2026-03-25T11:13:53.183Z</time></trkpt><trkpt lat="44.1838782" lon="10.3068572"><ele>492.0</ele><time>2026-03-25T11:13:55.172Z</time></trkpt><trkpt lat="44.1838665" lon="10.3069692"><ele>492.00000000000006</ele><time>2026-03-25T11:13:57.179Z</time></trkpt><trkpt lat="44.1838477" lon="10.3070757"><ele>492.0</ele><time>2026-03-25T11:13:59.179Z</time></trkpt><trkpt lat="44.1838254" lon="10.3071777"><ele>492.00000000000006</ele><time>2026-03-25T11:14:01.187Z</time></trkpt><trkpt lat="44.1838067" lon="10.3072689"><ele>492.00000000000006</ele><time>2026-03-25T11:14:03.189Z</time></trkpt><trkpt lat="44.1837835" lon="10.3073693"><ele>492.0</ele><time>2026-03-25T11:14:05.182Z</time></trkpt><trkpt lat="44.1837518" lon="10.3074641"><ele>492.00000000000006</ele><time>2026-03-25T11:14:07.183Z</time></trkpt><trkpt lat="44.183721" lon="10.3075576"><ele>492.00000000000006</ele><time>2026-03-25T11:14:09.174Z</time></trkpt><trkpt lat="44.1836849" lon="10.3076494"><ele>494.57142857142867</ele><time>2026-03-25T11:14:11.183Z</time></trkpt><trkpt lat="44.1836503" lon="10.307739"><ele>497.14285714285717</ele><time>2026-03-25T11:14:13.188Z</time></trkpt><trkpt lat="44.1836168" lon="10.3078241"><ele>499.7142857142858</ele><time>2026-03-25T11:14:15.182Z</time></trkpt><trkpt lat="44.1835759" lon="10.3079098"><ele>502.28571428571433</ele><time>2026-03-25T11:14:17.182Z</time></trkpt><trkpt lat="44.1835319" lon="10.3079908"><ele>504.8571428571429</ele><time>2026-03-25T11:14:19.179Z</time></trkpt><trkpt lat="44.1834844" lon="10.3080637"><ele>507.42857142857144</ele><time>2026-03-25T11:14:21.184Z</time></trkpt><trkpt lat="44.1834336" lon="10.3081344"><ele>510.0</ele><time>2026-03-25T11:14:23.184Z</time></trkpt><trkpt lat="44.183379" lon="10.3082035"><ele>508.8333333333333</ele><time>2026-03-25T11:14:25.183Z</time></trkpt><trkpt lat="44.1833246" lon="10.308267"><ele>507.66666666666663</ele><time>2026-03-25T11:14:27.19Z</time></trkpt><trkpt lat="44.183274" lon="10.3083201"><ele>506.5</ele><time>2026-03-25T11:14:29.181Z</time></trkpt><trkpt lat="44.1831928" lon="10.3083858"><ele>505.3333333333333</ele><time>2026-03-25T11:14:32.182Z</time></trkpt><trkpt lat="44.1831218" lon="10.3084202"><ele>504.16666666666663</ele><time>2026-03-25T11:14:34.185Z</time></trkpt><trkpt lat="44.1830471" lon="10.3084534"><ele>503.0</ele><time>2026-03-25T11:14:36.182Z</time></trkpt><trkpt lat="44.1829713" lon="10.3084836"><ele>502.99999999999994</ele><time>2026-03-25T11:14:38.182Z</time></trkpt><trkpt lat="44.1828926" lon="10.3085069"><ele>503.0</ele><time>2026-03-25T11:14:40.183Z</time></trkpt><trkpt lat="44.1828135" lon="10.3085241"><ele>503.0</ele><time>2026-03-25T11:14:42.182Z</time></trkpt><trkpt lat="44.1827303" lon="10.3085375"><ele>503.0</ele><time>2026-03-25T11:14:44.184Z</time></trkpt><trkpt lat="44.1826435" lon="10.3085499"><ele>502.99999999999994</ele><time>2026-03-25T11:14:46.182Z</time></trkpt><trkpt lat="44.1825543" lon="10.3085674"><ele>503.0</ele><time>2026-03-25T11:14:48.183Z</time></trkpt><trkpt lat="44.182461" lon="10.3085797"><ele>503.0</ele><time>2026-03-25T11:14:50.178Z</time></trkpt><trkpt lat="44.1823669" lon="10.3085929"><ele>502.99999999999994</ele><time>2026-03-25T11:14:52.183Z</time></trkpt><trkpt lat="44.1822645" lon="10.3086087"><ele>502.99999999999994</ele><time>2026-03-25T11:14:54.172Z</time></trkpt><trkpt lat="44.1821562" lon="10.3086286"><ele>503.0</ele><time>2026-03-25T11:14:56.173Z</time></trkpt><trkpt lat="44.1820482" lon="10.3086493"><ele>503.0</ele><time>2026-03-25T11:14:58.174Z</time></trkpt><trkpt lat="44.1819334" lon="10.308669"><ele>506.0</ele><time>2026-03-25T11:15:00.173Z</time></trkpt><trkpt lat="44.181811" lon="10.3086905"><ele>508.99999999999994</ele><time>2026-03-25T11:15:02.179Z</time></trkpt><trkpt lat="44.1816816" lon="10.3087049"><ele>511.99999999999994</ele><time>2026-03-25T11:15:04.172Z</time></trkpt><trkpt lat="44.1816191" lon="10.3087182"><ele>515.0</ele><time>2026-03-25T11:15:05.177Z</time></trkpt><trkpt lat="44.1815543" lon="10.3087324"><ele>518.0</ele><time>2026-03-25T11:15:06.179Z</time></trkpt><trkpt lat="44.1814162" lon="10.3087614"><ele>519.5</ele><time>2026-03-25T11:15:08.177Z</time></trkpt><trkpt lat="44.1813466" lon="10.3087798"><ele>521.0</ele><time>2026-03-25T11:15:09.174Z</time></trkpt><trkpt lat="44.1806599" lon="10.3092768"><ele>516.6</ele><time>2026-03-25T11:15:17.182Z</time></trkpt><trkpt lat="44.1805874" lon="10.3093806"><ele>512.2</ele><time>2026-03-25T11:15:18.176Z</time></trkpt><trkpt lat="44.1805231" lon="10.3094469"><ele>507.79999999999995</ele><time>2026-03-25T11:15:19.175Z</time></trkpt><trkpt lat="44.180443" lon="10.309525"><ele>503.4</ele><time>2026-03-25T11:15:20.181Z</time></trkpt><trkpt lat="44.1803502" lon="10.3096154"><ele>499.0</ele><time>2026-03-25T11:15:21.176Z</time></trkpt><trkpt lat="44.1802573" lon="10.3096997"><ele>499.0</ele><time>2026-03-25T11:15:22.176Z</time></trkpt><trkpt lat="44.1801573" lon="10.3097735"><ele>499.0</ele><time>2026-03-25T11:15:23.181Z</time></trkpt><trkpt lat="44.1800553" lon="10.3098327"><ele>499.0</ele><time>2026-03-25T11:15:24.179Z</time></trkpt><trkpt lat="44.1799517" lon="10.3098875"><ele>499.0</ele><time>2026-03-25T11:15:25.188Z</time></trkpt><trkpt lat="44.1798428" lon="10.3099363"><ele>499.0</ele><time>2026-03-25T11:15:26.189Z</time></trkpt><trkpt lat="44.1797223" lon="10.3099681"><ele>499.0</ele><time>2026-03-25T11:15:27.18Z</time></trkpt><trkpt lat="44.1796039" lon="10.3099897"><ele>499.0</ele><time>2026-03-25T11:15:28.187Z</time></trkpt><trkpt lat="44.1794854" lon="10.309994"><ele>499.0</ele><time>2026-03-25T11:15:29.178Z</time></trkpt><trkpt lat="44.1793631" lon="10.3099932"><ele>499.0</ele><time>2026-03-25T11:15:30.187Z</time></trkpt><trkpt lat="44.1792442" lon="10.3099915"><ele>499.0</ele><time>2026-03-25T11:15:31.185Z</time></trkpt><trkpt lat="44.179126" lon="10.3099891"><ele>499.0</ele><time>2026-03-25T11:15:32.196Z</time></trkpt><trkpt lat="44.179024" lon="10.3100082"><ele>499.0</ele><time>2026-03-25T11:15:33.188Z</time></trkpt><trkpt lat="44.1789169" lon="10.3100062"><ele>499.0</ele><time>2026-03-25T11:15:34.189Z</time></trkpt><trkpt lat="44.178799" lon="10.3099911"><ele>499.0</ele><time>2026-03-25T11:15:35.189Z</time></trkpt><trkpt lat="44.1786936" lon="10.3099834"><ele>496.4</ele><time>2026-03-25T11:15:36.187Z</time></trkpt><trkpt lat="44.1785948" lon="10.3099789"><ele>493.79999999999995</ele><time>2026-03-25T11:15:37.186Z</time></trkpt><trkpt lat="44.1784965" lon="10.3099806"><ele>491.20000000000005</ele><time>2026-03-25T11:15:38.179Z</time></trkpt><trkpt lat="44.1784014" lon="10.3099829"><ele>488.6</ele><time>2026-03-25T11:15:39.186Z</time></trkpt><trkpt lat="44.1783107" lon="10.3099844"><ele>486.0</ele><time>2026-03-25T11:15:40.177Z</time></trkpt><trkpt lat="44.1782259" lon="10.3099914"><ele>482.6666666666667</ele><time>2026-03-25T11:15:41.179Z</time></trkpt><trkpt lat="44.1781513" lon="10.3100194"><ele>479.33333333333337</ele><time>2026-03-25T11:15:42.187Z</time></trkpt><trkpt lat="44.1780884" lon="10.3100729"><ele>476.0</ele><time>2026-03-25T11:15:43.187Z</time></trkpt><trkpt lat="44.1780417" lon="10.3101657"><ele>472.6666666666667</ele><time>2026-03-25T11:15:44.183Z</time></trkpt><trkpt lat="44.1780187" lon="10.3102764"><ele>469.33333333333337</ele><time>2026-03-25T11:15:45.172Z</time></trkpt><trkpt lat="44.1780197" lon="10.3103977"><ele>466.0</ele><time>2026-03-25T11:15:46.186Z</time></trkpt><trkpt lat="44.1780299" lon="10.310509"><ele>468.33333333333337</ele><time>2026-03-25T11:15:47.193Z</time></trkpt><trkpt lat="44.1780404" lon="10.3106077"><ele>470.6666666666667</ele><time>2026-03-25T11:15:48.188Z</time></trkpt><trkpt lat="44.1780367" lon="10.3106987"><ele>473.0</ele><time>2026-03-25T11:15:49.191Z</time></trkpt><trkpt lat="44.1779993" lon="10.3108384"><ele>475.33333333333337</ele><time>2026-03-25T11:15:51.185Z</time></trkpt><trkpt lat="44.1779607" lon="10.3109289"><ele>477.6666666666667</ele><time>2026-03-25T11:15:53.197Z</time></trkpt><trkpt lat="44.1779272" lon="10.3110108"><ele>480.0</ele><time>2026-03-25T11:15:55.176Z</time></trkpt><trkpt lat="44.1778918" lon="10.3110919"><ele>480.0</ele><time>2026-03-25T11:15:57.184Z</time></trkpt><trkpt lat="44.177856" lon="10.3111726"><ele>480.0</ele><time>2026-03-25T11:15:59.179Z</time></trkpt><trkpt lat="44.1778173" lon="10.3112525"><ele>480.0</ele><time>2026-03-25T11:16:01.185Z</time></trkpt><trkpt lat="44.1777853" lon="10.3113434"><ele>480.0</ele><time>2026-03-25T11:16:03.205Z</time></trkpt><trkpt lat="44.1777552" lon="10.311434"><ele>480.0</ele><time>2026-03-25T11:16:05.178Z</time></trkpt><trkpt lat="44.1777278" lon="10.3115252"><ele>480.0</ele><time>2026-03-25T11:16:07.185Z</time></trkpt><trkpt lat="44.1777051" lon="10.3116214"><ele>480.0</ele><time>2026-03-25T11:16:09.181Z</time></trkpt><trkpt lat="44.1776877" lon="10.3117181"><ele>481.57142857142856</ele><time>2026-03-25T11:16:11.191Z</time></trkpt><trkpt lat="44.1776709" lon="10.3118126"><ele>483.1428571428571</ele><time>2026-03-25T11:16:13.179Z</time></trkpt><trkpt lat="44.1776585" lon="10.3119052"><ele>484.71428571428567</ele><time>2026-03-25T11:16:15.18Z</time></trkpt><trkpt lat="44.1776498" lon="10.3119951"><ele>486.2857142857143</ele><time>2026-03-25T11:16:17.186Z</time></trkpt><trkpt lat="44.1776399" lon="10.3120839"><ele>487.8571428571428</ele><time>2026-03-25T11:16:19.178Z</time></trkpt><trkpt lat="44.1776211" lon="10.3121692"><ele>489.4285714285714</ele><time>2026-03-25T11:16:21.176Z</time></trkpt><trkpt lat="44.1775855" lon="10.3122877"><ele>491.0</ele><time>2026-03-25T11:16:24.182Z</time></trkpt><trkpt lat="44.1775503" lon="10.3123643"><ele>492.2857142857143</ele><time>2026-03-25T11:16:26.185Z</time></trkpt><trkpt lat="44.1775087" lon="10.3124409"><ele>493.57142857142856</ele><time>2026-03-25T11:16:28.18Z</time></trkpt><trkpt lat="44.1774641" lon="10.3125178"><ele>494.85714285714283</ele><time>2026-03-25T11:16:30.174Z</time></trkpt><trkpt lat="44.1774206" lon="10.3125962"><ele>496.1428571428571</ele><time>2026-03-25T11:16:32.18Z</time></trkpt><trkpt lat="44.1773747" lon="10.3126692"><ele>497.42857142857144</ele><time>2026-03-25T11:16:34.18Z</time></trkpt><trkpt lat="44.1773275" lon="10.312749"><ele>498.71428571428567</ele><time>2026-03-25T11:16:36.175Z</time></trkpt><trkpt lat="44.1772813" lon="10.3128318"><ele>500.0</ele><time>2026-03-25T11:16:38.183Z</time></trkpt><trkpt lat="44.1772442" lon="10.3129147"><ele>498.71428571428567</ele><time>2026-03-25T11:16:40.183Z</time></trkpt><trkpt lat="44.1772154" lon="10.3129973"><ele>497.42857142857144</ele><time>2026-03-25T11:16:42.184Z</time></trkpt><trkpt lat="44.1771808" lon="10.3131209"><ele>496.1428571428571</ele><time>2026-03-25T11:16:45.182Z</time></trkpt><trkpt lat="44.1771686" lon="10.3132159"><ele>494.85714285714283</ele><time>2026-03-25T11:16:47.185Z</time></trkpt><trkpt lat="44.1771602" lon="10.3133109"><ele>493.57142857142856</ele><time>2026-03-25T11:16:49.186Z</time></trkpt><trkpt lat="44.1771586" lon="10.3134062"><ele>492.2857142857143</ele><time>2026-03-25T11:16:51.179Z</time></trkpt><trkpt lat="44.1771576" lon="10.3135123"><ele>491.0</ele><time>2026-03-25T11:16:53.187Z</time></trkpt><trkpt lat="44.177155" lon="10.3136224"><ele>491.0</ele><time>2026-03-25T11:16:55.181Z</time></trkpt><trkpt lat="44.1771451" lon="10.3137449"><ele>491.0</ele><time>2026-03-25T11:16:57.187Z</time></trkpt><trkpt lat="44.1770925" lon="10.3138888"><ele>491.0</ele><time>2026-03-25T11:16:59.197Z</time></trkpt><trkpt lat="44.1770052" lon="10.3139981"><ele>491.0</ele><time>2026-03-25T11:17:01.194Z</time></trkpt><trkpt lat="44.1768921" lon="10.3140423"><ele>491.0</ele><time>2026-03-25T11:17:03.189Z</time></trkpt><trkpt lat="44.176767" lon="10.3140022"><ele>491.0</ele><time>2026-03-25T11:17:05.175Z</time></trkpt><trkpt lat="44.1766658" lon="10.313875"><ele>491.0</ele><time>2026-03-25T11:17:07.185Z</time></trkpt><trkpt lat="44.176625" lon="10.313786"><ele>491.0</ele><time>2026-03-25T11:17:08.189Z</time></trkpt><trkpt lat="44.176581" lon="10.3136936"><ele>491.0</ele><time>2026-03-25T11:17:09.193Z</time></trkpt><trkpt lat="44.176524" lon="10.3136081"><ele>491.0</ele><time>2026-03-25T11:17:10.179Z</time></trkpt><trkpt lat="44.1764593" lon="10.3135344"><ele>489.20000000000005</ele><time>2026-03-25T11:17:11.181Z</time></trkpt><trkpt lat="44.1763744" lon="10.3134845"><ele>487.40000000000003</ele><time>2026-03-25T11:17:12.196Z</time></trkpt><trkpt lat="44.1762821" lon="10.3134569"><ele>485.6</ele><time>2026-03-25T11:17:13.182Z</time></trkpt><trkpt lat="44.1761827" lon="10.3134595"><ele>483.8</ele><time>2026-03-25T11:17:14.179Z</time></trkpt><trkpt lat="44.1760883" lon="10.3135038"><ele>482.0</ele><time>2026-03-25T11:17:15.189Z</time></trkpt><trkpt lat="44.1760033" lon="10.313557"><ele>482.0</ele><time>2026-03-25T11:17:16.185Z</time></trkpt><trkpt lat="44.1759149" lon="10.3136393"><ele>482.00000000000006</ele><time>2026-03-25T11:17:17.184Z</time></trkpt><trkpt lat="44.1758258" lon="10.3137165"><ele>482.00000000000006</ele><time>2026-03-25T11:17:18.175Z</time></trkpt><trkpt lat="44.1757392" lon="10.3138023"><ele>482.0</ele><time>2026-03-25T11:17:19.178Z</time></trkpt><trkpt lat="44.1756628" lon="10.3139092"><ele>482.0</ele><time>2026-03-25T11:17:20.193Z</time></trkpt><trkpt lat="44.1755979" lon="10.3140296"><ele>478.8</ele><time>2026-03-25T11:17:21.192Z</time></trkpt><trkpt lat="44.1755618" lon="10.314172"><ele>475.6</ele><time>2026-03-25T11:17:22.178Z</time></trkpt><trkpt lat="44.175537" lon="10.3143202"><ele>472.40000000000003</ele><time>2026-03-25T11:17:23.193Z</time></trkpt><trkpt lat="44.1755117" lon="10.314474"><ele>469.20000000000005</ele><time>2026-03-25T11:17:24.192Z</time></trkpt><trkpt lat="44.1754858" lon="10.3146326"><ele>466.0</ele><time>2026-03-25T11:17:25.186Z</time></trkpt><trkpt lat="44.1754629" lon="10.3147865"><ele>465.4</ele><time>2026-03-25T11:17:26.192Z</time></trkpt><trkpt lat="44.1754454" lon="10.3149412"><ele>464.8</ele><time>2026-03-25T11:17:27.192Z</time></trkpt><trkpt lat="44.1754322" lon="10.3151002"><ele>464.19999999999993</ele><time>2026-03-25T11:17:28.19Z</time></trkpt><trkpt lat="44.1754225" lon="10.3152546"><ele>463.59999999999997</ele><time>2026-03-25T11:17:29.197Z</time></trkpt><trkpt lat="44.1754148" lon="10.315408"><ele>463.0</ele><time>2026-03-25T11:17:30.185Z</time></trkpt><trkpt lat="44.1754109" lon="10.3155609"><ele>463.4</ele><time>2026-03-25T11:17:31.188Z</time></trkpt><trkpt lat="44.1754076" lon="10.3157096"><ele>463.79999999999995</ele><time>2026-03-25T11:17:32.187Z</time></trkpt><trkpt lat="44.1753933" lon="10.3158627"><ele>464.2</ele><time>2026-03-25T11:17:33.186Z</time></trkpt><trkpt lat="44.1753711" lon="10.3160181"><ele>464.6</ele><time>2026-03-25T11:17:34.183Z</time></trkpt><trkpt lat="44.1753455" lon="10.3161585"><ele>465.0</ele><time>2026-03-25T11:17:35.192Z</time></trkpt><trkpt lat="44.175313" lon="10.3162956"><ele>467.0</ele><time>2026-03-25T11:17:36.196Z</time></trkpt><trkpt lat="44.1752767" lon="10.3164266"><ele>469.0</ele><time>2026-03-25T11:17:37.191Z</time></trkpt><trkpt lat="44.1752413" lon="10.316554"><ele>471.0</ele><time>2026-03-25T11:17:38.192Z</time></trkpt><trkpt lat="44.1752063" lon="10.3166741"><ele>473.0</ele><time>2026-03-25T11:17:39.199Z</time></trkpt><trkpt lat="44.1751669" lon="10.3167927"><ele>475.0</ele><time>2026-03-25T11:17:40.188Z</time></trkpt><trkpt lat="44.1751267" lon="10.316902"><ele>475.0</ele><time>2026-03-25T11:17:41.192Z</time></trkpt><trkpt lat="44.175076" lon="10.317007"><ele>475.0</ele><time>2026-03-25T11:17:42.186Z</time></trkpt><trkpt lat="44.1750175" lon="10.3171051"><ele>475.0</ele><time>2026-03-25T11:17:43.189Z</time></trkpt><trkpt lat="44.1749474" lon="10.3171849"><ele>475.0</ele><time>2026-03-25T11:17:44.186Z</time></trkpt><trkpt lat="44.1748668" lon="10.3172463"><ele>475.0</ele><time>2026-03-25T11:17:45.203Z</time></trkpt><trkpt lat="44.1747803" lon="10.3172883"><ele>475.00000000000006</ele><time>2026-03-25T11:17:46.181Z</time></trkpt><trkpt lat="44.1746926" lon="10.3173132"><ele>475.0</ele><time>2026-03-25T11:17:47.183Z</time></trkpt><trkpt lat="44.174605" lon="10.3173354"><ele>475.0</ele><time>2026-03-25T11:17:48.178Z</time></trkpt><trkpt lat="44.174517" lon="10.3173621"><ele>475.0</ele><time>2026-03-25T11:17:49.189Z</time></trkpt><trkpt lat="44.1744276" lon="10.3173878"><ele>475.00000000000006</ele><time>2026-03-25T11:17:50.189Z</time></trkpt><trkpt lat="44.1743412" lon="10.3174157"><ele>475.0</ele><time>2026-03-25T11:17:51.183Z</time></trkpt><trkpt lat="44.174252" lon="10.3174457"><ele>475.00000000000006</ele><time>2026-03-25T11:17:52.192Z</time></trkpt><trkpt lat="44.1741687" lon="10.3174709"><ele>475.0</ele><time>2026-03-25T11:17:53.186Z</time></trkpt><trkpt lat="44.1740838" lon="10.3175031"><ele>475.0</ele><time>2026-03-25T11:17:54.19Z</time></trkpt><trkpt lat="44.1740002" lon="10.3175351"><ele>475.0</ele><time>2026-03-25T11:17:55.177Z</time></trkpt><trkpt lat="44.1739192" lon="10.3175731"><ele>475.00000000000006</ele><time>2026-03-25T11:17:56.195Z</time></trkpt><trkpt lat="44.1738437" lon="10.3176114"><ele>475.0</ele><time>2026-03-25T11:17:57.186Z</time></trkpt><trkpt lat="44.1737674" lon="10.3176535"><ele>472.00000000000006</ele><time>2026-03-25T11:17:58.177Z</time></trkpt><trkpt lat="44.1736914" lon="10.3176928"><ele>469.0</ele><time>2026-03-25T11:17:59.185Z</time></trkpt><trkpt lat="44.1736131" lon="10.3177327"><ele>466.0</ele><time>2026-03-25T11:18:00.181Z</time></trkpt><trkpt lat="44.173535" lon="10.3177691"><ele>463.0</ele><time>2026-03-25T11:18:01.206Z</time></trkpt><trkpt lat="44.1734603" lon="10.3178078"><ele>460.00000000000006</ele><time>2026-03-25T11:18:02.186Z</time></trkpt><trkpt lat="44.1733882" lon="10.317842"><ele>457.0</ele><time>2026-03-25T11:18:03.182Z</time></trkpt><trkpt lat="44.173315" lon="10.3178622"><ele>457.00000000000006</ele><time>2026-03-25T11:18:04.179Z</time></trkpt><trkpt lat="44.17324" lon="10.3178662"><ele>457.0</ele><time>2026-03-25T11:18:05.188Z</time></trkpt><trkpt lat="44.173167" lon="10.3178748"><ele>457.00000000000006</ele><time>2026-03-25T11:18:06.179Z</time></trkpt><trkpt lat="44.1730995" lon="10.3178794"><ele>457.00000000000006</ele><time>2026-03-25T11:18:07.184Z</time></trkpt><trkpt lat="44.173032" lon="10.3178829"><ele>457.0</ele><time>2026-03-25T11:18:08.178Z</time></trkpt><trkpt lat="44.1729682" lon="10.3178906"><ele>457.00000000000006</ele><time>2026-03-25T11:18:09.178Z</time></trkpt><trkpt lat="44.1729007" lon="10.3179031"><ele>457.00000000000006</ele><time>2026-03-25T11:18:10.181Z</time></trkpt><trkpt lat="44.172837" lon="10.3179209"><ele>455.75</ele><time>2026-03-25T11:18:11.198Z</time></trkpt><trkpt lat="44.172729" lon="10.3179953"><ele>454.5</ele><time>2026-03-25T11:18:13.177Z</time></trkpt><trkpt lat="44.1726488" lon="10.3181272"><ele>453.25</ele><time>2026-03-25T11:18:15.204Z</time></trkpt><trkpt lat="44.1726022" lon="10.3182737"><ele>452.0</ele><time>2026-03-25T11:18:17.186Z</time></trkpt><trkpt lat="44.1725679" lon="10.3184223"><ele>455.20000000000005</ele><time>2026-03-25T11:18:19.174Z</time></trkpt><trkpt lat="44.1725422" lon="10.3185859"><ele>458.40000000000003</ele><time>2026-03-25T11:18:21.187Z</time></trkpt><trkpt lat="44.1725205" lon="10.3187566"><ele>461.59999999999997</ele><time>2026-03-25T11:18:23.183Z</time></trkpt><trkpt lat="44.1725096" lon="10.3188432"><ele>464.79999999999995</ele><time>2026-03-25T11:18:24.203Z</time></trkpt><trkpt lat="44.1724877" lon="10.3190128"><ele>468.0</ele><time>2026-03-25T11:18:26.193Z</time></trkpt><trkpt lat="44.1724671" lon="10.3191812"><ele>468.0</ele><time>2026-03-25T11:18:28.177Z</time></trkpt><trkpt lat="44.1724578" lon="10.3192691"><ele>467.99999999999994</ele><time>2026-03-25T11:18:29.201Z</time></trkpt><trkpt lat="44.1724581" lon="10.3194251"><ele>467.99999999999994</ele><time>2026-03-25T11:18:31.193Z</time></trkpt><trkpt lat="44.1724879" lon="10.3195869"><ele>468.0</ele><time>2026-03-25T11:18:33.188Z</time></trkpt><trkpt lat="44.1725473" lon="10.3197346"><ele>468.0</ele><time>2026-03-25T11:18:35.197Z</time></trkpt><trkpt lat="44.1726339" lon="10.3198539"><ele>467.0</ele><time>2026-03-25T11:18:37.196Z</time></trkpt><trkpt lat="44.1726849" lon="10.3199062"><ele>466.0</ele><time>2026-03-25T11:18:38.186Z</time></trkpt><trkpt lat="44.1727911" lon="10.3200008"><ele>465.0</ele><time>2026-03-25T11:18:40.19Z</time></trkpt><trkpt lat="44.1728439" lon="10.3200502"><ele>464.0</ele><time>2026-03-25T11:18:41.203Z</time></trkpt><trkpt lat="44.1728921" lon="10.3201117"><ele>463.0</ele><time>2026-03-25T11:18:42.192Z</time></trkpt><trkpt lat="44.1729339" lon="10.3201816"><ele>462.0</ele><time>2026-03-25T11:18:43.195Z</time></trkpt><trkpt lat="44.1729865" lon="10.3203429"><ele>462.0</ele><time>2026-03-25T11:18:45.191Z</time></trkpt><trkpt lat="44.1729985" lon="10.3204331"><ele>462.00000000000006</ele><time>2026-03-25T11:18:46.2Z</time></trkpt><trkpt lat="44.1729876" lon="10.3206038"><ele>462.00000000000006</ele><time>2026-03-25T11:18:48.181Z</time></trkpt><trkpt lat="44.1729615" lon="10.3207714"><ele>462.0</ele><time>2026-03-25T11:18:50.179Z</time></trkpt><trkpt lat="44.1729453" lon="10.3208607"><ele>462.0</ele><time>2026-03-25T11:18:51.183Z</time></trkpt><trkpt lat="44.1729105" lon="10.3210311"><ele>461.7142857142857</ele><time>2026-03-25T11:18:53.192Z</time></trkpt><trkpt lat="44.1728955" lon="10.321117"><ele>461.42857142857144</ele><time>2026-03-25T11:18:54.191Z</time></trkpt><trkpt lat="44.1728787" lon="10.3212093"><ele>461.1428571428571</ele><time>2026-03-25T11:18:55.184Z</time></trkpt><trkpt lat="44.1728624" lon="10.3212998"><ele>460.85714285714283</ele><time>2026-03-25T11:18:56.202Z</time></trkpt><trkpt lat="44.1728473" lon="10.3213918"><ele>460.57142857142856</ele><time>2026-03-25T11:18:57.175Z</time></trkpt><trkpt lat="44.1728341" lon="10.3214798"><ele>460.2857142857142</ele><time>2026-03-25T11:18:58.194Z</time></trkpt><trkpt lat="44.1728167" lon="10.3215676"><ele>459.99999999999994</ele><time>2026-03-25T11:18:59.187Z</time></trkpt><trkpt lat="44.1727991" lon="10.3216623"><ele>459.99999999999994</ele><time>2026-03-25T11:19:00.184Z</time></trkpt><trkpt lat="44.1727873" lon="10.3217587"><ele>460.0</ele><time>2026-03-25T11:19:01.19Z</time></trkpt><trkpt lat="44.172768" lon="10.3218509"><ele>459.99999999999994</ele><time>2026-03-25T11:19:02.194Z</time></trkpt><trkpt lat="44.1727533" lon="10.3219446"><ele>459.99999999999994</ele><time>2026-03-25T11:19:03.187Z</time></trkpt><trkpt lat="44.1727364" lon="10.3220399"><ele>460.0</ele><time>2026-03-25T11:19:04.197Z</time></trkpt><trkpt lat="44.1727176" lon="10.3221308"><ele>459.99999999999994</ele><time>2026-03-25T11:19:05.194Z</time></trkpt><trkpt lat="44.1726966" lon="10.3222231"><ele>459.99999999999994</ele><time>2026-03-25T11:19:06.195Z</time></trkpt><trkpt lat="44.1726809" lon="10.3223133"><ele>460.0</ele><time>2026-03-25T11:19:07.188Z</time></trkpt><trkpt lat="44.172665" lon="10.3224059"><ele>460.0</ele><time>2026-03-25T11:19:08.186Z</time></trkpt><trkpt lat="44.1726543" lon="10.3224957"><ele>460.0</ele><time>2026-03-25T11:19:09.217Z</time></trkpt><trkpt lat="44.1726333" lon="10.3226586"><ele>460.0</ele><time>2026-03-25T11:19:11.202Z</time></trkpt><trkpt lat="44.1726136" lon="10.3228251"><ele>460.0</ele><time>2026-03-25T11:19:13.204Z</time></trkpt><trkpt lat="44.1726129" lon="10.3229925"><ele>460.0</ele><time>2026-03-25T11:19:15.193Z</time></trkpt><trkpt lat="44.1726127" lon="10.3231546"><ele>460.0</ele><time>2026-03-25T11:19:17.197Z</time></trkpt><trkpt lat="44.1726324" lon="10.3233113"><ele>460.0</ele><time>2026-03-25T11:19:19.198Z</time></trkpt><trkpt lat="44.1726428" lon="10.3233984"><ele>460.0</ele><time>2026-03-25T11:19:20.192Z</time></trkpt><trkpt lat="44.1726702" lon="10.3235539"><ele>460.0</ele><time>2026-03-25T11:19:22.188Z</time></trkpt><trkpt lat="44.1727122" lon="10.3237011"><ele>460.0</ele><time>2026-03-25T11:19:24.179Z</time></trkpt><trkpt lat="44.172758" lon="10.3238502"><ele>460.0</ele><time>2026-03-25T11:19:26.196Z</time></trkpt><trkpt lat="44.1728078" lon="10.3239934"><ele>460.0</ele><time>2026-03-25T11:19:28.188Z</time></trkpt><trkpt lat="44.1728653" lon="10.3241457"><ele>460.0</ele><time>2026-03-25T11:19:30.199Z</time></trkpt><trkpt lat="44.1729336" lon="10.3242794"><ele>461.6</ele><time>2026-03-25T11:19:32.192Z</time></trkpt><trkpt lat="44.1730014" lon="10.3244"><ele>463.2</ele><time>2026-03-25T11:19:34.186Z</time></trkpt><trkpt lat="44.1730722" lon="10.3245056"><ele>464.79999999999995</ele><time>2026-03-25T11:19:36.206Z</time></trkpt><trkpt lat="44.1731375" lon="10.3246101"><ele>466.4</ele><time>2026-03-25T11:19:38.191Z</time></trkpt><trkpt lat="44.173214" lon="10.3247127"><ele>468.0</ele><time>2026-03-25T11:19:40.186Z</time></trkpt><trkpt lat="44.1732886" lon="10.3248231"><ele>468.0</ele><time>2026-03-25T11:19:42.187Z</time></trkpt><trkpt lat="44.1733595" lon="10.3249468"><ele>467.99999999999994</ele><time>2026-03-25T11:19:44.183Z</time></trkpt><trkpt lat="44.1734051" lon="10.3250822"><ele>467.99999999999994</ele><time>2026-03-25T11:19:46.184Z</time></trkpt><trkpt lat="44.1734271" lon="10.3252185"><ele>468.0</ele><time>2026-03-25T11:19:48.184Z</time></trkpt><trkpt lat="44.1734144" lon="10.3253484"><ele>468.0</ele><time>2026-03-25T11:19:50.185Z</time></trkpt><trkpt lat="44.1733801" lon="10.3254497"><ele>468.0</ele><time>2026-03-25T11:19:52.19Z</time></trkpt><trkpt lat="44.1733408" lon="10.3255214"><ele>468.00000000000006</ele><time>2026-03-25T11:19:54.189Z</time></trkpt><trkpt lat="44.1732835" lon="10.3256042"><ele>468.0</ele><time>2026-03-25T11:19:57.201Z</time></trkpt><trkpt lat="44.1732286" lon="10.3256698"><ele>468.0</ele><time>2026-03-25T11:20:00.184Z</time></trkpt><trkpt lat="44.1731657" lon="10.3257312"><ele>468.00000000000006</ele><time>2026-03-25T11:20:03.18Z</time></trkpt><trkpt lat="44.1731111" lon="10.3257826"><ele>468.0</ele><time>2026-03-25T11:20:06.185Z</time></trkpt><trkpt lat="44.1730481" lon="10.3258534"><ele>468.0</ele><time>2026-03-25T11:20:09.201Z</time></trkpt><trkpt lat="44.1729874" lon="10.3259154"><ele>468.0</ele><time>2026-03-25T11:20:12.176Z</time></trkpt><trkpt lat="44.1729297" lon="10.3259726"><ele>468.0</ele><time>2026-03-25T11:20:15.194Z</time></trkpt><trkpt lat="44.1728656" lon="10.3260283"><ele>468.0</ele><time>2026-03-25T11:20:18.181Z</time></trkpt><trkpt lat="44.1727926" lon="10.3260794"><ele>468.0</ele><time>2026-03-25T11:20:21.182Z</time></trkpt><trkpt lat="44.1727228" lon="10.3261317"><ele>468.0</ele><time>2026-03-25T11:20:24.177Z</time></trkpt><trkpt lat="44.1726528" lon="10.3261734"><ele>468.0</ele><time>2026-03-25T11:20:27.187Z</time></trkpt><trkpt lat="44.1725871" lon="10.3262007"><ele>468.0</ele><time>2026-03-25T11:20:30.185Z</time></trkpt><trkpt lat="44.1725156" lon="10.3262023"><ele>468.0</ele><time>2026-03-25T11:20:33.193Z</time></trkpt><trkpt lat="44.1724453" lon="10.3261716"><ele>468.0</ele><time>2026-03-25T11:20:36.199Z</time></trkpt><trkpt lat="44.1723723" lon="10.3261156"><ele>468.0</ele><time>2026-03-25T11:20:39.21Z</time></trkpt><trkpt lat="44.1722978" lon="10.3260482"><ele>468.0</ele><time>2026-03-25T11:20:42.178Z</time></trkpt><trkpt lat="44.1722284" lon="10.3259957"><ele>468.0</ele><time>2026-03-25T11:20:45.19Z</time></trkpt><trkpt lat="44.1721577" lon="10.3259506"><ele>467.7142857142857</ele><time>2026-03-25T11:20:48.184Z</time></trkpt><trkpt lat="44.1720845" lon="10.3259248"><ele>467.42857142857144</ele><time>2026-03-25T11:20:51.173Z</time></trkpt><trkpt lat="44.1720165" lon="10.3259162"><ele>467.14285714285717</ele><time>2026-03-25T11:20:54.181Z</time></trkpt><trkpt lat="44.1719452" lon="10.3259196"><ele>466.8571428571429</ele><time>2026-03-25T11:20:57.185Z</time></trkpt><trkpt lat="44.1718709" lon="10.3259441"><ele>466.57142857142856</ele><time>2026-03-25T11:21:00.183Z</time></trkpt><trkpt lat="44.1718039" lon="10.3259929"><ele>466.28571428571433</ele><time>2026-03-25T11:21:03.191Z</time></trkpt><trkpt lat="44.1717484" lon="10.3260654"><ele>466.0</ele><time>2026-03-25T11:21:06.191Z</time></trkpt><trkpt lat="44.1717167" lon="10.3261567"><ele>466.00000000000006</ele><time>2026-03-25T11:21:09.181Z</time></trkpt><trkpt lat="44.1717072" lon="10.3262691"><ele>466.0</ele><time>2026-03-25T11:21:12.18Z</time></trkpt><trkpt lat="44.1717205" lon="10.3263748"><ele>466.0</ele><time>2026-03-25T11:21:15.189Z</time></trkpt><trkpt lat="44.1717328" lon="10.3264859"><ele>466.0</ele><time>2026-03-25T11:21:18.185Z</time></trkpt><trkpt lat="44.1717475" lon="10.3266061"><ele>466.00000000000006</ele><time>2026-03-25T11:21:21.184Z</time></trkpt><trkpt lat="44.1717621" lon="10.3267237"><ele>466.0</ele><time>2026-03-25T11:21:24.201Z</time></trkpt><trkpt lat="44.1717754" lon="10.3268345"><ele>467.33333333333337</ele><time>2026-03-25T11:21:27.187Z</time></trkpt><trkpt lat="44.1717779" lon="10.326947"><ele>468.6666666666667</ele><time>2026-03-25T11:21:30.196Z</time></trkpt><trkpt lat="44.1717867" lon="10.3270477"><ele>470.0</ele><time>2026-03-25T11:21:33.173Z</time></trkpt><trkpt lat="44.1717978" lon="10.3271472"><ele>471.33333333333337</ele><time>2026-03-25T11:21:36.191Z</time></trkpt><trkpt lat="44.1718121" lon="10.3272543"><ele>472.6666666666667</ele><time>2026-03-25T11:21:39.199Z</time></trkpt><trkpt lat="44.1718366" lon="10.327352"><ele>474.0</ele><time>2026-03-25T11:21:42.2Z</time></trkpt><trkpt lat="44.1718649" lon="10.3274455"><ele>474.8333333333333</ele><time>2026-03-25T11:21:45.175Z</time></trkpt><trkpt lat="44.1719091" lon="10.3275305"><ele>475.66666666666663</ele><time>2026-03-25T11:21:48.189Z</time></trkpt><trkpt lat="44.171956" lon="10.3276171"><ele>476.5</ele><time>2026-03-25T11:21:51.174Z</time></trkpt><trkpt lat="44.1720042" lon="10.3276969"><ele>477.3333333333333</ele><time>2026-03-25T11:21:54.179Z</time></trkpt><trkpt lat="44.1720615" lon="10.3277721"><ele>478.16666666666663</ele><time>2026-03-25T11:21:57.188Z</time></trkpt><trkpt lat="44.1721167" lon="10.3278469"><ele>479.0</ele><time>2026-03-25T11:22:00.19Z</time></trkpt><trkpt lat="44.1721737" lon="10.3279225"><ele>478.99999999999994</ele><time>2026-03-25T11:22:03.193Z</time></trkpt><trkpt lat="44.1722336" lon="10.3280021"><ele>479.0</ele><time>2026-03-25T11:22:06.186Z</time></trkpt><trkpt lat="44.1722836" lon="10.3280878"><ele>479.0</ele><time>2026-03-25T11:22:09.184Z</time></trkpt><trkpt lat="44.1723295" lon="10.3281746"><ele>479.0</ele><time>2026-03-25T11:22:12.193Z</time></trkpt><trkpt lat="44.1723619" lon="10.328265"><ele>478.99999999999994</ele><time>2026-03-25T11:22:15.184Z</time></trkpt><trkpt lat="44.1723874" lon="10.3283721"><ele>479.0</ele><time>2026-03-25T11:22:18.194Z</time></trkpt><trkpt lat="44.1724047" lon="10.3284841"><ele>482.16666666666663</ele><time>2026-03-25T11:22:21.187Z</time></trkpt><trkpt lat="44.1724151" lon="10.328592"><ele>485.3333333333333</ele><time>2026-03-25T11:22:24.2Z</time></trkpt><trkpt lat="44.1724337" lon="10.3286943"><ele>488.5</ele><time>2026-03-25T11:22:27.193Z</time></trkpt><trkpt lat="44.1724476" lon="10.3287968"><ele>491.66666666666663</ele><time>2026-03-25T11:22:30.184Z</time></trkpt><trkpt lat="44.1724569" lon="10.3289013"><ele>494.8333333333333</ele><time>2026-03-25T11:22:33.184Z</time></trkpt><trkpt lat="44.1724461" lon="10.329006"><ele>498.0</ele><time>2026-03-25T11:22:36.182Z</time></trkpt><trkpt lat="44.1724371" lon="10.3291125"><ele>498.0</ele><time>2026-03-25T11:22:39.196Z</time></trkpt><trkpt lat="44.1724201" lon="10.3292143"><ele>498.0</ele><time>2026-03-25T11:22:42.193Z</time></trkpt><trkpt lat="44.1723967" lon="10.3293095"><ele>498.0</ele><time>2026-03-25T11:22:45.189Z</time></trkpt><trkpt lat="44.1723797" lon="10.3294055"><ele>498.0</ele><time>2026-03-25T11:22:48.181Z</time></trkpt><trkpt lat="44.1723654" lon="10.329511"><ele>498.0</ele><time>2026-03-25T11:22:51.182Z</time></trkpt><trkpt lat="44.1723652" lon="10.3296233"><ele>498.0</ele><time>2026-03-25T11:22:54.182Z</time></trkpt><trkpt lat="44.1723927" lon="10.3297249"><ele>497.3333333333333</ele><time>2026-03-25T11:22:57.188Z</time></trkpt><trkpt lat="44.1724508" lon="10.3298017"><ele>496.66666666666663</ele><time>2026-03-25T11:23:00.182Z</time></trkpt><trkpt lat="44.1725185" lon="10.3298587"><ele>496.0</ele><time>2026-03-25T11:23:03.183Z</time></trkpt><trkpt lat="44.1725876" lon="10.3299082"><ele>495.3333333333333</ele><time>2026-03-25T11:23:06.195Z</time></trkpt><trkpt lat="44.1726595" lon="10.3299485"><ele>494.66666666666663</ele><time>2026-03-25T11:23:09.18Z</time></trkpt><trkpt lat="44.1727277" lon="10.329993"><ele>494.0</ele><time>2026-03-25T11:23:12.185Z</time></trkpt><trkpt lat="44.1727866" lon="10.330069"><ele>493.99999999999994</ele><time>2026-03-25T11:23:15.172Z</time></trkpt><trkpt lat="44.172825" lon="10.3301702"><ele>494.0</ele><time>2026-03-25T11:23:18.188Z</time></trkpt><trkpt lat="44.1728381" lon="10.3302837"><ele>494.0</ele><time>2026-03-25T11:23:21.188Z</time></trkpt><trkpt lat="44.1728674" lon="10.3303947"><ele>494.0</ele><time>2026-03-25T11:23:24.176Z</time></trkpt><trkpt lat="44.1728872" lon="10.3305003"><ele>493.99999999999994</ele><time>2026-03-25T11:23:27.179Z</time></trkpt><trkpt lat="44.1729033" lon="10.3305985"><ele>494.0</ele><time>2026-03-25T11:23:30.179Z</time></trkpt><trkpt lat="44.172919" lon="10.3306996"><ele>492.3333333333333</ele><time>2026-03-25T11:23:33.191Z</time></trkpt><trkpt lat="44.1729373" lon="10.3308065"><ele>490.66666666666663</ele><time>2026-03-25T11:23:36.187Z</time></trkpt><trkpt lat="44.1729517" lon="10.330909"><ele>489.0</ele><time>2026-03-25T11:23:39.194Z</time></trkpt><trkpt lat="44.1729679" lon="10.3310063"><ele>487.33333333333337</ele><time>2026-03-25T11:23:42.206Z</time></trkpt><trkpt lat="44.1729922" lon="10.3311149"><ele>485.6666666666667</ele><time>2026-03-25T11:23:45.19Z</time></trkpt><trkpt lat="44.1730161" lon="10.331227"><ele>484.0</ele><time>2026-03-25T11:23:48.182Z</time></trkpt><trkpt lat="44.1730324" lon="10.3313374"><ele>483.83333333333337</ele><time>2026-03-25T11:23:51.174Z</time></trkpt><trkpt lat="44.1730514" lon="10.3314476"><ele>483.6666666666667</ele><time>2026-03-25T11:23:54.174Z</time></trkpt><trkpt lat="44.1730683" lon="10.3315588"><ele>483.5</ele><time>2026-03-25T11:23:57.174Z</time></trkpt><trkpt lat="44.1730896" lon="10.3316681"><ele>483.33333333333337</ele><time>2026-03-25T11:24:00.184Z</time></trkpt><trkpt lat="44.1731147" lon="10.3317761"><ele>483.1666666666667</ele><time>2026-03-25T11:24:03.185Z</time></trkpt><trkpt lat="44.1731386" lon="10.3318813"><ele>483.0</ele><time>2026-03-25T11:24:06.182Z</time></trkpt><trkpt lat="44.1731653" lon="10.3319899"><ele>483.0</ele><time>2026-03-25T11:24:09.178Z</time></trkpt><trkpt lat="44.173188" lon="10.3321001"><ele>483.0</ele><time>2026-03-25T11:24:12.182Z</time></trkpt><trkpt lat="44.1732095" lon="10.3322062"><ele>483.0</ele><time>2026-03-25T11:24:15.188Z</time></trkpt><trkpt lat="44.1732251" lon="10.3323179"><ele>483.0</ele><time>2026-03-25T11:24:18.188Z</time></trkpt><trkpt lat="44.1732415" lon="10.332427"><ele>483.0</ele><time>2026-03-25T11:24:21.186Z</time></trkpt><trkpt lat="44.1732573" lon="10.3325341"><ele>483.0</ele><time>2026-03-25T11:24:24.18Z</time></trkpt><trkpt lat="44.173275" lon="10.3326529"><ele>486.5</ele><time>2026-03-25T11:24:27.19Z</time></trkpt><trkpt lat="44.173288" lon="10.3327688"><ele>490.0</ele><time>2026-03-25T11:24:30.182Z</time></trkpt><trkpt lat="44.1733004" lon="10.3328816"><ele>493.5</ele><time>2026-03-25T11:24:33.193Z</time></trkpt><trkpt lat="44.1733153" lon="10.332997"><ele>497.0</ele><time>2026-03-25T11:24:36.195Z</time></trkpt><trkpt lat="44.1733266" lon="10.3331117"><ele>500.5</ele><time>2026-03-25T11:24:39.186Z</time></trkpt><trkpt lat="44.1733407" lon="10.3332323"><ele>504.0</ele><time>2026-03-25T11:24:42.178Z</time></trkpt><trkpt lat="44.1733581" lon="10.3333539"><ele>504.0</ele><time>2026-03-25T11:24:45.176Z</time></trkpt><trkpt lat="44.1733682" lon="10.3334737"><ele>504.0</ele><time>2026-03-25T11:24:48.188Z</time></trkpt><trkpt lat="44.1733822" lon="10.3335884"><ele>504.0</ele><time>2026-03-25T11:24:51.19Z</time></trkpt><trkpt lat="44.1734093" lon="10.3337004"><ele>504.0</ele><time>2026-03-25T11:24:54.195Z</time></trkpt><trkpt lat="44.1734437" lon="10.3338075"><ele>504.0</ele><time>2026-03-25T11:24:57.19Z</time></trkpt><trkpt lat="44.1734882" lon="10.3339099"><ele>504.0</ele><time>2026-03-25T11:25:00.189Z</time></trkpt><trkpt lat="44.1735426" lon="10.3340017"><ele>502.3333333333333</ele><time>2026-03-25T11:25:03.195Z</time></trkpt><trkpt lat="44.1736087" lon="10.3340801"><ele>500.66666666666663</ele><time>2026-03-25T11:25:06.183Z</time></trkpt><trkpt lat="44.1736681" lon="10.3341637"><ele>499.0</ele><time>2026-03-25T11:25:09.184Z</time></trkpt><trkpt lat="44.173733" lon="10.3342426"><ele>497.3333333333333</ele><time>2026-03-25T11:25:12.191Z</time></trkpt><trkpt lat="44.1737972" lon="10.3343212"><ele>495.66666666666663</ele><time>2026-03-25T11:25:15.185Z</time></trkpt><trkpt lat="44.1738561" lon="10.3344096"><ele>494.0</ele><time>2026-03-25T11:25:18.192Z</time></trkpt><trkpt lat="44.1739047" lon="10.3345185"><ele>493.99999999999994</ele><time>2026-03-25T11:25:21.181Z</time></trkpt><trkpt lat="44.1739381" lon="10.3346372"><ele>494.0</ele><time>2026-03-25T11:25:24.182Z</time></trkpt><trkpt lat="44.173958" lon="10.3347498"><ele>494.0</ele><time>2026-03-25T11:25:27.182Z</time></trkpt><trkpt lat="44.1739762" lon="10.3348747"><ele>494.0</ele><time>2026-03-25T11:25:30.176Z</time></trkpt><trkpt lat="44.1739872" lon="10.3349928"><ele>493.99999999999994</ele><time>2026-03-25T11:25:33.187Z</time></trkpt><trkpt lat="44.1740066" lon="10.3351153"><ele>494.0</ele><time>2026-03-25T11:25:36.19Z</time></trkpt><trkpt lat="44.1740351" lon="10.3352312"><ele>496.66666666666663</ele><time>2026-03-25T11:25:39.193Z</time></trkpt><trkpt lat="44.1740783" lon="10.3353328"><ele>499.3333333333333</ele><time>2026-03-25T11:25:42.177Z</time></trkpt><trkpt lat="44.1741218" lon="10.335443"><ele>502.0</ele><time>2026-03-25T11:25:45.197Z</time></trkpt><trkpt lat="44.1741638" lon="10.3355528"><ele>504.66666666666663</ele><time>2026-03-25T11:25:48.19Z</time></trkpt><trkpt lat="44.1741935" lon="10.3356655"><ele>507.3333333333333</ele><time>2026-03-25T11:25:51.187Z</time></trkpt><trkpt lat="44.1742022" lon="10.3357814"><ele>510.0</ele><time>2026-03-25T11:25:54.19Z</time></trkpt><trkpt lat="44.1742002" lon="10.3358997"><ele>510.0</ele><time>2026-03-25T11:25:57.184Z</time></trkpt><trkpt lat="44.1741851" lon="10.3360128"><ele>510.0</ele><time>2026-03-25T11:26:00.182Z</time></trkpt><trkpt lat="44.1741547" lon="10.3361242"><ele>510.0</ele><time>2026-03-25T11:26:03.18Z</time></trkpt><trkpt lat="44.1741039" lon="10.3362303"><ele>510.0</ele><time>2026-03-25T11:26:06.195Z</time></trkpt><trkpt lat="44.1740376" lon="10.3363108"><ele>510.0</ele><time>2026-03-25T11:26:09.175Z</time></trkpt><trkpt lat="44.1739633" lon="10.3363698"><ele>510.0</ele><time>2026-03-25T11:26:12.187Z</time></trkpt><trkpt lat="44.1738856" lon="10.3364175"><ele>508.5</ele><time>2026-03-25T11:26:15.182Z</time></trkpt><trkpt lat="44.1738068" lon="10.336474"><ele>507.0</ele><time>2026-03-25T11:26:18.185Z</time></trkpt><trkpt lat="44.1737275" lon="10.3365268"><ele>505.5</ele><time>2026-03-25T11:26:21.197Z</time></trkpt><trkpt lat="44.1736507" lon="10.3365833"><ele>504.0</ele><time>2026-03-25T11:26:24.178Z</time></trkpt><trkpt lat="44.1735809" lon="10.3366443"><ele>502.5</ele><time>2026-03-25T11:26:27.199Z</time></trkpt><trkpt lat="44.1735269" lon="10.3366905"><ele>501.0</ele><time>2026-03-25T11:26:29.181Z</time></trkpt><trkpt lat="44.173455" lon="10.3367584"><ele>501.0</ele><time>2026-03-25T11:26:32.184Z</time></trkpt><trkpt lat="44.1733928" lon="10.3368335"><ele>501.0</ele><time>2026-03-25T11:26:35.175Z</time></trkpt><trkpt lat="44.1733165" lon="10.3369087"><ele>501.0</ele><time>2026-03-25T11:26:38.186Z</time></trkpt><trkpt lat="44.1732408" lon="10.3369822"><ele>501.0</ele><time>2026-03-25T11:26:41.173Z</time></trkpt><trkpt lat="44.1731636" lon="10.3370484"><ele>501.0</ele><time>2026-03-25T11:26:44.187Z</time></trkpt><trkpt lat="44.1730871" lon="10.3371012"><ele>501.0</ele><time>2026-03-25T11:26:47.2Z</time></trkpt><trkpt lat="44.1730087" lon="10.3371445"><ele>502.0</ele><time>2026-03-25T11:26:50.195Z</time></trkpt><trkpt lat="44.172929" lon="10.3371839"><ele>503.0</ele><time>2026-03-25T11:26:53.187Z</time></trkpt><trkpt lat="44.1728492" lon="10.3372228"><ele>504.0</ele><time>2026-03-25T11:26:56.184Z</time></trkpt><trkpt lat="44.1727663" lon="10.3372528"><ele>505.0</ele><time>2026-03-25T11:26:59.188Z</time></trkpt><trkpt lat="44.1726858" lon="10.3372914"><ele>506.0</ele><time>2026-03-25T11:27:02.18Z</time></trkpt><trkpt lat="44.1726049" lon="10.3373281"><ele>507.0</ele><time>2026-03-25T11:27:05.183Z</time></trkpt><trkpt lat="44.1725204" lon="10.3373625"><ele>507.0</ele><time>2026-03-25T11:27:08.185Z</time></trkpt><trkpt lat="44.1724412" lon="10.3373994"><ele>507.0</ele><time>2026-03-25T11:27:11.19Z</time></trkpt><trkpt lat="44.17236" lon="10.337432"><ele>507.0</ele><time>2026-03-25T11:27:14.193Z</time></trkpt><trkpt lat="44.1722797" lon="10.3374654"><ele>507.0</ele><time>2026-03-25T11:27:17.195Z</time></trkpt><trkpt lat="44.1721929" lon="10.3374917"><ele>507.0</ele><time>2026-03-25T11:27:20.175Z</time></trkpt><trkpt lat="44.1721157" lon="10.3375116"><ele>507.0</ele><time>2026-03-25T11:27:23.196Z</time></trkpt><trkpt lat="44.1720362" lon="10.3375395"><ele>505.5</ele><time>2026-03-25T11:27:26.191Z</time></trkpt><trkpt lat="44.1719568" lon="10.3375615"><ele>504.0</ele><time>2026-03-25T11:27:29.181Z</time></trkpt><trkpt lat="44.1718691" lon="10.3375899"><ele>502.5</ele><time>2026-03-25T11:27:32.179Z</time></trkpt><trkpt lat="44.1717825" lon="10.3376193"><ele>501.0</ele><time>2026-03-25T11:27:35.187Z</time></trkpt><trkpt lat="44.1717018" lon="10.3376587"><ele>499.5</ele><time>2026-03-25T11:27:38.185Z</time></trkpt><trkpt lat="44.1716218" lon="10.337708"><ele>498.0</ele><time>2026-03-25T11:27:41.194Z</time></trkpt><trkpt lat="44.1715493" lon="10.3377741"><ele>497.2857142857143</ele><time>2026-03-25T11:27:44.181Z</time></trkpt><trkpt lat="44.1714745" lon="10.3378492"><ele>496.57142857142856</ele><time>2026-03-25T11:27:47.193Z</time></trkpt><trkpt lat="44.1714343" lon="10.337922"><ele>495.85714285714283</ele><time>2026-03-25T11:27:49.191Z</time></trkpt><trkpt lat="44.1714157" lon="10.3380117"><ele>495.1428571428571</ele><time>2026-03-25T11:27:51.173Z</time></trkpt><trkpt lat="44.1714158" lon="10.3381058"><ele>494.42857142857144</ele><time>2026-03-25T11:27:53.193Z</time></trkpt><trkpt lat="44.1714272" lon="10.338195"><ele>493.71428571428567</ele><time>2026-03-25T11:27:55.185Z</time></trkpt><trkpt lat="44.1714555" lon="10.3382779"><ele>493.0</ele><time>2026-03-25T11:27:57.176Z</time></trkpt><trkpt lat="44.1714899" lon="10.3383559"><ele>495.71428571428567</ele><time>2026-03-25T11:27:59.179Z</time></trkpt><trkpt lat="44.1715275" lon="10.338435"><ele>498.42857142857144</ele><time>2026-03-25T11:28:01.181Z</time></trkpt><trkpt lat="44.1715607" lon="10.3385136"><ele>501.1428571428571</ele><time>2026-03-25T11:28:03.176Z</time></trkpt><trkpt lat="44.1715937" lon="10.3385904"><ele>503.85714285714283</ele><time>2026-03-25T11:28:05.176Z</time></trkpt><trkpt lat="44.1716247" lon="10.3386702"><ele>506.57142857142856</ele><time>2026-03-25T11:28:07.189Z</time></trkpt><trkpt lat="44.1716567" lon="10.3387518"><ele>509.2857142857143</ele><time>2026-03-25T11:28:09.184Z</time></trkpt><trkpt lat="44.1716899" lon="10.3388316"><ele>512.0</ele><time>2026-03-25T11:28:11.193Z</time></trkpt><trkpt lat="44.1717214" lon="10.3389142"><ele>512.1428571428571</ele><time>2026-03-25T11:28:13.184Z</time></trkpt><trkpt lat="44.1717532" lon="10.3389947"><ele>512.2857142857142</ele><time>2026-03-25T11:28:15.19Z</time></trkpt><trkpt lat="44.1717776" lon="10.3390768"><ele>512.4285714285714</ele><time>2026-03-25T11:28:17.19Z</time></trkpt><trkpt lat="44.1717914" lon="10.339166"><ele>512.5714285714286</ele><time>2026-03-25T11:28:19.185Z</time></trkpt><trkpt lat="44.171796" lon="10.3392583"><ele>512.7142857142858</ele><time>2026-03-25T11:28:21.18Z</time></trkpt><trkpt lat="44.1717853" lon="10.3393512"><ele>512.8571428571429</ele><time>2026-03-25T11:28:23.182Z</time></trkpt><trkpt lat="44.1717606" lon="10.3394395"><ele>513.0</ele><time>2026-03-25T11:28:25.182Z</time></trkpt><trkpt lat="44.1717297" lon="10.3395262"><ele>513.0000000000001</ele><time>2026-03-25T11:28:27.176Z</time></trkpt><trkpt lat="44.1716973" lon="10.3396132"><ele>513.0</ele><time>2026-03-25T11:28:29.179Z</time></trkpt><trkpt lat="44.1716652" lon="10.3397"><ele>513.0</ele><time>2026-03-25T11:28:31.18Z</time></trkpt><trkpt lat="44.1716354" lon="10.3397861"><ele>513.0</ele><time>2026-03-25T11:28:33.187Z</time></trkpt><trkpt lat="44.1716152" lon="10.3398728"><ele>513.0</ele><time>2026-03-25T11:28:35.179Z</time></trkpt><trkpt lat="44.1716033" lon="10.339961"><ele>513.0000000000001</ele><time>2026-03-25T11:28:37.18Z</time></trkpt><trkpt lat="44.1715934" lon="10.3400544"><ele>513.0</ele><time>2026-03-25T11:28:39.183Z</time></trkpt><trkpt lat="44.1715886" lon="10.3401507"><ele>514.0000000000001</ele><time>2026-03-25T11:28:41.196Z</time></trkpt><trkpt lat="44.171591" lon="10.340248"><ele>515.0</ele><time>2026-03-25T11:28:43.187Z</time></trkpt><trkpt lat="44.1715918" lon="10.3403379"><ele>516.0</ele><time>2026-03-25T11:28:45.186Z</time></trkpt><trkpt lat="44.1715956" lon="10.3404404"><ele>517.0</ele><time>2026-03-25T11:28:47.177Z</time></trkpt><trkpt lat="44.1716033" lon="10.3405431"><ele>518.0</ele><time>2026-03-25T11:28:49.18Z</time></trkpt><trkpt lat="44.171616" lon="10.3406415"><ele>519.0000000000001</ele><time>2026-03-25T11:28:51.178Z</time></trkpt><trkpt lat="44.1716371" lon="10.3407244"><ele>520.0</ele><time>2026-03-25T11:28:53.174Z</time></trkpt><trkpt lat="44.171674" lon="10.3408356"><ele>519.8333333333334</ele><time>2026-03-25T11:28:56.193Z</time></trkpt><trkpt lat="44.1717197" lon="10.3409438"><ele>519.6666666666667</ele><time>2026-03-25T11:28:59.189Z</time></trkpt><trkpt lat="44.1717624" lon="10.341049"><ele>519.5</ele><time>2026-03-25T11:29:02.19Z</time></trkpt><trkpt lat="44.171802" lon="10.3411409"><ele>519.3333333333334</ele><time>2026-03-25T11:29:05.187Z</time></trkpt><trkpt lat="44.1718351" lon="10.3412554"><ele>519.1666666666666</ele><time>2026-03-25T11:29:09.193Z</time></trkpt><trkpt lat="44.171857" lon="10.3413518"><ele>519.0</ele><time>2026-03-25T11:29:12.194Z</time></trkpt><trkpt lat="44.1718706" lon="10.3414576"><ele>519.0</ele><time>2026-03-25T11:29:15.181Z</time></trkpt><trkpt lat="44.1718763" lon="10.3415841"><ele>519.0</ele><time>2026-03-25T11:29:18.183Z</time></trkpt><trkpt lat="44.1718707" lon="10.3416781"><ele>519.0</ele><time>2026-03-25T11:29:20.195Z</time></trkpt><trkpt lat="44.171863" lon="10.3418032"><ele>519.0</ele><time>2026-03-25T11:29:23.188Z</time></trkpt><trkpt lat="44.1718408" lon="10.3419283"><ele>519.0</ele><time>2026-03-25T11:29:26.185Z</time></trkpt><trkpt lat="44.1718166" lon="10.3420172"><ele>519.0</ele><time>2026-03-25T11:29:28.183Z</time></trkpt><trkpt lat="44.1717727" lon="10.3421244"><ele>519.5</ele><time>2026-03-25T11:29:31.184Z</time></trkpt><trkpt lat="44.1717206" lon="10.342228"><ele>520.0</ele><time>2026-03-25T11:29:34.193Z</time></trkpt><trkpt lat="44.171681" lon="10.3423086"><ele>520.5</ele><time>2026-03-25T11:29:36.18Z</time></trkpt><trkpt lat="44.1716279" lon="10.3424186"><ele>521.0</ele><time>2026-03-25T11:29:39.19Z</time></trkpt><trkpt lat="44.1715696" lon="10.3425291"><ele>521.5</ele><time>2026-03-25T11:29:42.185Z</time></trkpt><trkpt lat="44.1715261" lon="10.342615"><ele>522.0</ele><time>2026-03-25T11:29:44.19Z</time></trkpt><trkpt lat="44.171484" lon="10.3426998"><ele>521.2857142857143</ele><time>2026-03-25T11:29:46.181Z</time></trkpt><trkpt lat="44.1714444" lon="10.3427824"><ele>520.5714285714286</ele><time>2026-03-25T11:29:48.199Z</time></trkpt><trkpt lat="44.1714081" lon="10.3428665"><ele>519.8571428571429</ele><time>2026-03-25T11:29:50.188Z</time></trkpt><trkpt lat="44.1713714" lon="10.3429422"><ele>519.1428571428571</ele><time>2026-03-25T11:29:52.201Z</time></trkpt><trkpt lat="44.1713339" lon="10.3430193"><ele>518.4285714285714</ele><time>2026-03-25T11:29:54.183Z</time></trkpt><trkpt lat="44.1712961" lon="10.3431006"><ele>517.7142857142858</ele><time>2026-03-25T11:29:56.194Z</time></trkpt><trkpt lat="44.1712542" lon="10.3431794"><ele>517.0</ele><time>2026-03-25T11:29:58.187Z</time></trkpt><trkpt lat="44.1712141" lon="10.3432545"><ele>517.0</ele><time>2026-03-25T11:30:00.188Z</time></trkpt><trkpt lat="44.1711714" lon="10.343326"><ele>517.0</ele><time>2026-03-25T11:30:02.174Z</time></trkpt><trkpt lat="44.1711288" lon="10.3434008"><ele>517.0</ele><time>2026-03-25T11:30:04.188Z</time></trkpt><trkpt lat="44.1710863" lon="10.3434694"><ele>517.0</ele><time>2026-03-25T11:30:06.189Z</time></trkpt><trkpt lat="44.1710354" lon="10.3435333"><ele>517.0</ele><time>2026-03-25T11:30:08.177Z</time></trkpt><trkpt lat="44.1709775" lon="10.3435992"><ele>517.0</ele><time>2026-03-25T11:30:10.177Z</time></trkpt><trkpt lat="44.170919" lon="10.3436599"><ele>517.0</ele><time>2026-03-25T11:30:12.178Z</time></trkpt><trkpt lat="44.1708568" lon="10.3437179"><ele>517.0</ele><time>2026-03-25T11:30:14.182Z</time></trkpt><trkpt lat="44.1707971" lon="10.3437798"><ele>517.0</ele><time>2026-03-25T11:30:16.192Z</time></trkpt><trkpt lat="44.1707411" lon="10.3438509"><ele>517.0</ele><time>2026-03-25T11:30:18.178Z</time></trkpt><trkpt lat="44.170692" lon="10.3439311"><ele>517.0</ele><time>2026-03-25T11:30:20.188Z</time></trkpt><trkpt lat="44.1706519" lon="10.3440232"><ele>517.0</ele><time>2026-03-25T11:30:22.189Z</time></trkpt><trkpt lat="44.1706256" lon="10.344125"><ele>517.0</ele><time>2026-03-25T11:30:24.183Z</time></trkpt><trkpt lat="44.1706059" lon="10.344233"><ele>516.6666666666667</ele><time>2026-03-25T11:30:26.192Z</time></trkpt><trkpt lat="44.1705878" lon="10.3443376"><ele>516.3333333333334</ele><time>2026-03-25T11:30:28.184Z</time></trkpt><trkpt lat="44.1705755" lon="10.344438"><ele>516.0</ele><time>2026-03-25T11:30:30.183Z</time></trkpt><trkpt lat="44.1705674" lon="10.3445463"><ele>515.6666666666666</ele><time>2026-03-25T11:30:32.194Z</time></trkpt><trkpt lat="44.1705581" lon="10.3446586"><ele>515.3333333333333</ele><time>2026-03-25T11:30:34.172Z</time></trkpt><trkpt lat="44.1705493" lon="10.3447584"><ele>515.0</ele><time>2026-03-25T11:30:36.197Z</time></trkpt><trkpt lat="44.1705348" lon="10.3448821"><ele>517.1666666666666</ele><time>2026-03-25T11:30:39.2Z</time></trkpt><trkpt lat="44.1705299" lon="10.3449958"><ele>519.3333333333333</ele><time>2026-03-25T11:30:42.198Z</time></trkpt><trkpt lat="44.170525" lon="10.3450844"><ele>521.5</ele><time>2026-03-25T11:30:44.193Z</time></trkpt><trkpt lat="44.1705178" lon="10.3451744"><ele>523.6666666666666</ele><time>2026-03-25T11:30:46.188Z</time></trkpt><trkpt lat="44.1705007" lon="10.3452996"><ele>525.8333333333334</ele><time>2026-03-25T11:30:49.204Z</time></trkpt><trkpt lat="44.1704869" lon="10.3454263"><ele>528.0</ele><time>2026-03-25T11:30:52.188Z</time></trkpt><trkpt lat="44.1704697" lon="10.3455135"><ele>529.4285714285714</ele><time>2026-03-25T11:30:54.181Z</time></trkpt><trkpt lat="44.1704294" lon="10.3456194"><ele>530.8571428571429</ele><time>2026-03-25T11:30:57.185Z</time></trkpt><trkpt lat="44.1703745" lon="10.3457054"><ele>532.2857142857143</ele><time>2026-03-25T11:31:00.186Z</time></trkpt><trkpt lat="44.1703211" lon="10.3457635"><ele>533.7142857142858</ele><time>2026-03-25T11:31:02.186Z</time></trkpt><trkpt lat="44.1702635" lon="10.3458154"><ele>535.1428571428572</ele><time>2026-03-25T11:31:04.187Z</time></trkpt><trkpt lat="44.1702047" lon="10.34586"><ele>536.5714285714286</ele><time>2026-03-25T11:31:06.18Z</time></trkpt><trkpt lat="44.1701451" lon="10.3458907"><ele>538.0</ele><time>2026-03-25T11:31:08.18Z</time></trkpt><trkpt lat="44.1700838" lon="10.3459173"><ele>538.0</ele><time>2026-03-25T11:31:10.193Z</time></trkpt><trkpt lat="44.1699908" lon="10.3459382"><ele>538.0</ele><time>2026-03-25T11:31:13.185Z</time></trkpt><trkpt lat="44.1699255" lon="10.3459367"><ele>538.0</ele><time>2026-03-25T11:31:15.194Z</time></trkpt><trkpt lat="44.1698609" lon="10.3459216"><ele>538.0</ele><time>2026-03-25T11:31:17.195Z</time></trkpt><trkpt lat="44.1697999" lon="10.3458992"><ele>538.0</ele><time>2026-03-25T11:31:19.189Z</time></trkpt><trkpt lat="44.1697363" lon="10.3458571"><ele>538.0</ele><time>2026-03-25T11:31:21.194Z</time></trkpt><trkpt lat="44.1696736" lon="10.3458154"><ele>538.0</ele><time>2026-03-25T11:31:23.18Z</time></trkpt><trkpt lat="44.1696145" lon="10.345777"><ele>538.4285714285714</ele><time>2026-03-25T11:31:25.193Z</time></trkpt><trkpt lat="44.1695579" lon="10.3457341"><ele>538.8571428571429</ele><time>2026-03-25T11:31:27.18Z</time></trkpt><trkpt lat="44.1694745" lon="10.3456755"><ele>539.2857142857143</ele><time>2026-03-25T11:31:30.193Z</time></trkpt><trkpt lat="44.1694167" lon="10.3456353"><ele>539.7142857142858</ele><time>2026-03-25T11:31:32.185Z</time></trkpt><trkpt lat="44.1693587" lon="10.3455978"><ele>540.1428571428571</ele><time>2026-03-25T11:31:34.179Z</time></trkpt><trkpt lat="44.1692987" lon="10.3455554"><ele>540.5714285714287</ele><time>2026-03-25T11:31:36.184Z</time></trkpt><trkpt lat="44.169236" lon="10.345527"><ele>541.0</ele><time>2026-03-25T11:31:38.203Z</time></trkpt><trkpt lat="44.16917" lon="10.3455091"><ele>539.1428571428572</ele><time>2026-03-25T11:31:40.192Z</time></trkpt><trkpt lat="44.1691062" lon="10.3455051"><ele>537.2857142857143</ele><time>2026-03-25T11:31:42.19Z</time></trkpt><trkpt lat="44.1690245" lon="10.3455128"><ele>535.4285714285714</ele><time>2026-03-25T11:31:45.195Z</time></trkpt><trkpt lat="44.1689539" lon="10.3455388"><ele>533.5714285714287</ele><time>2026-03-25T11:31:48.191Z</time></trkpt><trkpt lat="44.1688827" lon="10.3455889"><ele>531.7142857142858</ele><time>2026-03-25T11:31:51.181Z</time></trkpt><trkpt lat="44.168821" lon="10.3456668"><ele>529.8571428571429</ele><time>2026-03-25T11:31:54.204Z</time></trkpt><trkpt lat="44.1687832" lon="10.3457422"><ele>528.0</ele><time>2026-03-25T11:31:56.189Z</time></trkpt><trkpt lat="44.1687528" lon="10.3458494"><ele>528.0</ele><time>2026-03-25T11:31:58.192Z</time></trkpt><trkpt lat="44.1687491" lon="10.3459969"><ele>528.0</ele><time>2026-03-25T11:32:00.185Z</time></trkpt><trkpt lat="44.1687794" lon="10.3461427"><ele>528.0</ele><time>2026-03-25T11:32:02.182Z</time></trkpt><trkpt lat="44.1688117" lon="10.3463082"><ele>528.0</ele><time>2026-03-25T11:32:04.186Z</time></trkpt><trkpt lat="44.1688249" lon="10.3463972"><ele>528.0</ele><time>2026-03-25T11:32:05.192Z</time></trkpt><trkpt lat="44.1688348" lon="10.3464842"><ele>527.8571428571429</ele><time>2026-03-25T11:32:06.187Z</time></trkpt><trkpt lat="44.1688351" lon="10.3465805"><ele>527.7142857142858</ele><time>2026-03-25T11:32:07.194Z</time></trkpt><trkpt lat="44.1688008" lon="10.3466733"><ele>527.5714285714287</ele><time>2026-03-25T11:32:08.193Z</time></trkpt><trkpt lat="44.1687645" lon="10.3467639"><ele>527.4285714285714</ele><time>2026-03-25T11:32:09.184Z</time></trkpt><trkpt lat="44.1687139" lon="10.3468408"><ele>527.2857142857143</ele><time>2026-03-25T11:32:10.175Z</time></trkpt><trkpt lat="44.1686585" lon="10.3469188"><ele>527.1428571428572</ele><time>2026-03-25T11:32:11.194Z</time></trkpt><trkpt lat="44.1686112" lon="10.3469984"><ele>527.0</ele><time>2026-03-25T11:32:12.186Z</time></trkpt><trkpt lat="44.1685594" lon="10.3470839"><ele>527.0</ele><time>2026-03-25T11:32:13.194Z</time></trkpt><trkpt lat="44.1685022" lon="10.3471708"><ele>527.0</ele><time>2026-03-25T11:32:14.197Z</time></trkpt><trkpt lat="44.1684433" lon="10.3472549"><ele>527.0</ele><time>2026-03-25T11:32:15.194Z</time></trkpt><trkpt lat="44.1683954" lon="10.347344"><ele>527.0</ele><time>2026-03-25T11:32:16.197Z</time></trkpt><trkpt lat="44.1683614" lon="10.3474344"><ele>527.0</ele><time>2026-03-25T11:32:17.196Z</time></trkpt><trkpt lat="44.168402" lon="10.3475426"><ele>527.0</ele><time>2026-03-25T11:32:18.195Z</time></trkpt><trkpt lat="44.1684527" lon="10.3476342"><ele>527.0</ele><time>2026-03-25T11:32:19.182Z</time></trkpt><trkpt lat="44.168526" lon="10.3476937"><ele>527.0</ele><time>2026-03-25T11:32:20.198Z</time></trkpt><trkpt lat="44.1686158" lon="10.3477246"><ele>527.0</ele><time>2026-03-25T11:32:21.182Z</time></trkpt><trkpt lat="44.168701" lon="10.3477435"><ele>527.0</ele><time>2026-03-25T11:32:22.19Z</time></trkpt><trkpt lat="44.1688029" lon="10.3477658"><ele>527.0</ele><time>2026-03-25T11:32:23.193Z</time></trkpt><trkpt lat="44.1688797" lon="10.3478249"><ele>527.0</ele><time>2026-03-25T11:32:24.19Z</time></trkpt><trkpt lat="44.1689388" lon="10.3479211"><ele>527.0</ele><time>2026-03-25T11:32:25.186Z</time></trkpt><trkpt lat="44.1689781" lon="10.3480401"><ele>527.0</ele><time>2026-03-25T11:32:26.195Z</time></trkpt><trkpt lat="44.1689816" lon="10.3481761"><ele>527.0</ele><time>2026-03-25T11:32:27.184Z</time></trkpt><trkpt lat="44.1689565" lon="10.3483059"><ele>527.0</ele><time>2026-03-25T11:32:28.19Z</time></trkpt><trkpt lat="44.1689091" lon="10.3484219"><ele>524.0</ele><time>2026-03-25T11:32:29.177Z</time></trkpt><trkpt lat="44.1688546" lon="10.3485477"><ele>521.0</ele><time>2026-03-25T11:32:30.185Z</time></trkpt><trkpt lat="44.1688096" lon="10.3486812"><ele>518.0</ele><time>2026-03-25T11:32:31.188Z</time></trkpt><trkpt lat="44.1687679" lon="10.3488157"><ele>515.0</ele><time>2026-03-25T11:32:32.181Z</time></trkpt><trkpt lat="44.1687284" lon="10.3489593"><ele>512.0</ele><time>2026-03-25T11:32:33.188Z</time></trkpt><trkpt lat="44.1686835" lon="10.3491055"><ele>511.25</ele><time>2026-03-25T11:32:34.19Z</time></trkpt><trkpt lat="44.1686353" lon="10.3492522"><ele>510.5</ele><time>2026-03-25T11:32:35.176Z</time></trkpt><trkpt lat="44.168584" lon="10.3494015"><ele>509.75</ele><time>2026-03-25T11:32:36.198Z</time></trkpt><trkpt lat="44.1685308" lon="10.3495543"><ele>509.0</ele><time>2026-03-25T11:32:37.192Z</time></trkpt><trkpt lat="44.1684838" lon="10.3497144"><ele>508.79999999999995</ele><time>2026-03-25T11:32:38.192Z</time></trkpt><trkpt lat="44.1684506" lon="10.3498679"><ele>508.59999999999997</ele><time>2026-03-25T11:32:39.183Z</time></trkpt><trkpt lat="44.1684361" lon="10.3500191"><ele>508.4</ele><time>2026-03-25T11:32:40.182Z</time></trkpt><trkpt lat="44.1684651" lon="10.3501606"><ele>508.2</ele><time>2026-03-25T11:32:41.189Z</time></trkpt><trkpt lat="44.1685083" lon="10.3503085"><ele>508.0</ele><time>2026-03-25T11:32:42.194Z</time></trkpt><trkpt lat="44.1685659" lon="10.3504411"><ele>506.25</ele><time>2026-03-25T11:32:43.185Z</time></trkpt><trkpt lat="44.1686188" lon="10.3505907"><ele>504.5</ele><time>2026-03-25T11:32:44.194Z</time></trkpt><trkpt lat="44.1686525" lon="10.350745"><ele>502.75</ele><time>2026-03-25T11:32:45.19Z</time></trkpt><trkpt lat="44.1686623" lon="10.3509076"><ele>501.0</ele><time>2026-03-25T11:32:46.182Z</time></trkpt><trkpt lat="44.1686518" lon="10.3510589"><ele>501.0</ele><time>2026-03-25T11:32:47.186Z</time></trkpt><trkpt lat="44.1686296" lon="10.3512058"><ele>501.0</ele><time>2026-03-25T11:32:48.186Z</time></trkpt><trkpt lat="44.1686069" lon="10.3513481"><ele>501.0</ele><time>2026-03-25T11:32:49.195Z</time></trkpt><trkpt lat="44.1685818" lon="10.351487"><ele>501.0</ele><time>2026-03-25T11:32:50.182Z</time></trkpt><trkpt lat="44.1685288" lon="10.3516007"><ele>501.0</ele><time>2026-03-25T11:32:51.187Z</time></trkpt><trkpt lat="44.1684536" lon="10.3516895"><ele>503.0</ele><time>2026-03-25T11:32:52.18Z</time></trkpt><trkpt lat="44.1683632" lon="10.351739"><ele>505.0</ele><time>2026-03-25T11:32:53.189Z</time></trkpt><trkpt lat="44.1682672" lon="10.3517484"><ele>507.0</ele><time>2026-03-25T11:32:54.19Z</time></trkpt><trkpt lat="44.1681763" lon="10.3517219"><ele>509.0</ele><time>2026-03-25T11:32:55.178Z</time></trkpt><trkpt lat="44.1680889" lon="10.3516836"><ele>511.0</ele><time>2026-03-25T11:32:56.195Z</time></trkpt><trkpt lat="44.1680022" lon="10.3516493"><ele>511.0</ele><time>2026-03-25T11:32:57.192Z</time></trkpt><trkpt lat="44.167913" lon="10.3516241"><ele>511.0</ele><time>2026-03-25T11:32:58.189Z</time></trkpt><trkpt lat="44.1678233" lon="10.3516042"><ele>511.0</ele><time>2026-03-25T11:32:59.187Z</time></trkpt><trkpt lat="44.1677303" lon="10.3515955"><ele>511.0</ele><time>2026-03-25T11:33:00.176Z</time></trkpt><trkpt lat="44.1676386" lon="10.3515871"><ele>511.0</ele><time>2026-03-25T11:33:01.187Z</time></trkpt><trkpt lat="44.1675433" lon="10.3515895"><ele>511.00000000000006</ele><time>2026-03-25T11:33:02.201Z</time></trkpt><trkpt lat="44.1674542" lon="10.3516121"><ele>511.0</ele><time>2026-03-25T11:33:03.186Z</time></trkpt><trkpt lat="44.1673712" lon="10.3516559"><ele>511.0</ele><time>2026-03-25T11:33:04.191Z</time></trkpt><trkpt lat="44.1672974" lon="10.3517209"><ele>511.0</ele><time>2026-03-25T11:33:05.183Z</time></trkpt><trkpt lat="44.1672279" lon="10.3517962"><ele>511.00000000000006</ele><time>2026-03-25T11:33:06.182Z</time></trkpt><trkpt lat="44.1671608" lon="10.3518739"><ele>511.0</ele><time>2026-03-25T11:33:07.182Z</time></trkpt><trkpt lat="44.1670951" lon="10.3519501"><ele>511.00000000000006</ele><time>2026-03-25T11:33:08.204Z</time></trkpt><trkpt lat="44.1670333" lon="10.3520259"><ele>511.0</ele><time>2026-03-25T11:33:09.198Z</time></trkpt><trkpt lat="44.1669706" lon="10.3520996"><ele>511.0</ele><time>2026-03-25T11:33:10.179Z</time></trkpt><trkpt lat="44.1669121" lon="10.3521806"><ele>511.0</ele><time>2026-03-25T11:33:11.179Z</time></trkpt><trkpt lat="44.1668475" lon="10.3522536"><ele>511.00000000000006</ele><time>2026-03-25T11:33:12.194Z</time></trkpt><trkpt lat="44.1667828" lon="10.3523212"><ele>511.0</ele><time>2026-03-25T11:33:13.191Z</time></trkpt><trkpt lat="44.1667132" lon="10.3523814"><ele>511.0</ele><time>2026-03-25T11:33:14.196Z</time></trkpt><trkpt lat="44.1666452" lon="10.3524211"><ele>511.0</ele><time>2026-03-25T11:33:15.197Z</time></trkpt><trkpt lat="44.1665742" lon="10.3524556"><ele>511.0</ele><time>2026-03-25T11:33:16.193Z</time></trkpt><trkpt lat="44.1665001" lon="10.3524855"><ele>511.0</ele><time>2026-03-25T11:33:17.196Z</time></trkpt><trkpt lat="44.1664293" lon="10.3525114"><ele>511.0</ele><time>2026-03-25T11:33:18.2Z</time></trkpt><trkpt lat="44.1663578" lon="10.3525335"><ele>511.0</ele><time>2026-03-25T11:33:19.186Z</time></trkpt><trkpt lat="44.1662901" lon="10.3525564"><ele>511.0</ele><time>2026-03-25T11:33:20.192Z</time></trkpt><trkpt lat="44.1662223" lon="10.3525834"><ele>508.33333333333337</ele><time>2026-03-25T11:33:21.188Z</time></trkpt><trkpt lat="44.1661578" lon="10.3526127"><ele>505.6666666666667</ele><time>2026-03-25T11:33:22.189Z</time></trkpt><trkpt lat="44.1660957" lon="10.3526416"><ele>503.0</ele><time>2026-03-25T11:33:23.187Z</time></trkpt><trkpt lat="44.1660313" lon="10.3526689"><ele>500.33333333333337</ele><time>2026-03-25T11:33:24.179Z</time></trkpt><trkpt lat="44.1659155" lon="10.3527193"><ele>497.6666666666667</ele><time>2026-03-25T11:33:26.201Z</time></trkpt><trkpt lat="44.1658122" lon="10.3527661"><ele>495.0</ele><time>2026-03-25T11:33:28.187Z</time></trkpt><trkpt lat="44.165707" lon="10.3528043"><ele>493.8</ele><time>2026-03-25T11:33:30.193Z</time></trkpt><trkpt lat="44.165609" lon="10.3528541"><ele>492.6</ele><time>2026-03-25T11:33:32.183Z</time></trkpt><trkpt lat="44.1655151" lon="10.3528846"><ele>491.4</ele><time>2026-03-25T11:33:34.177Z</time></trkpt><trkpt lat="44.16542" lon="10.3529233"><ele>490.2</ele><time>2026-03-25T11:33:36.183Z</time></trkpt><trkpt lat="44.1653274" lon="10.3529602"><ele>489.0</ele><time>2026-03-25T11:33:38.194Z</time></trkpt><trkpt lat="44.1652353" lon="10.3529874"><ele>489.0</ele><time>2026-03-25T11:33:40.188Z</time></trkpt><trkpt lat="44.1651486" lon="10.3530305"><ele>489.0</ele><time>2026-03-25T11:33:42.183Z</time></trkpt><trkpt lat="44.1650706" lon="10.3530629"><ele>489.0</ele><time>2026-03-25T11:33:44.194Z</time></trkpt><trkpt lat="44.1649928" lon="10.3531087"><ele>489.0</ele><time>2026-03-25T11:33:46.194Z</time></trkpt><trkpt lat="44.1649207" lon="10.353162"><ele>489.0</ele><time>2026-03-25T11:33:48.176Z</time></trkpt><trkpt lat="44.1648549" lon="10.353225"><ele>489.0</ele><time>2026-03-25T11:33:50.188Z</time></trkpt><trkpt lat="44.1648013" lon="10.353293"><ele>488.42857142857144</ele><time>2026-03-25T11:33:52.2Z</time></trkpt><trkpt lat="44.1647546" lon="10.3533679"><ele>487.8571428571429</ele><time>2026-03-25T11:33:54.192Z</time></trkpt><trkpt lat="44.1647097" lon="10.3534397"><ele>487.28571428571433</ele><time>2026-03-25T11:33:56.183Z</time></trkpt><trkpt lat="44.1646635" lon="10.3535048"><ele>486.7142857142858</ele><time>2026-03-25T11:33:58.186Z</time></trkpt><trkpt lat="44.1646171" lon="10.3535675"><ele>486.14285714285717</ele><time>2026-03-25T11:34:00.189Z</time></trkpt><trkpt lat="44.1645513" lon="10.3536583"><ele>485.57142857142867</ele><time>2026-03-25T11:34:03.194Z</time></trkpt><trkpt lat="44.1644994" lon="10.3537499"><ele>485.00000000000006</ele><time>2026-03-25T11:34:06.189Z</time></trkpt><trkpt lat="44.164437" lon="10.3538348"><ele>486.57142857142867</ele><time>2026-03-25T11:34:09.177Z</time></trkpt><trkpt lat="44.164379" lon="10.3539183"><ele>488.14285714285717</ele><time>2026-03-25T11:34:12.192Z</time></trkpt><trkpt lat="44.1643206" lon="10.3539989"><ele>489.7142857142858</ele><time>2026-03-25T11:34:15.183Z</time></trkpt><trkpt lat="44.1642733" lon="10.3540586"><ele>491.28571428571433</ele><time>2026-03-25T11:34:17.187Z</time></trkpt><trkpt lat="44.1642202" lon="10.3541219"><ele>492.8571428571429</ele><time>2026-03-25T11:34:19.18Z</time></trkpt><trkpt lat="44.1641626" lon="10.3541818"><ele>494.42857142857144</ele><time>2026-03-25T11:34:21.192Z</time></trkpt><trkpt lat="44.1640985" lon="10.3542324"><ele>496.0</ele><time>2026-03-25T11:34:23.19Z</time></trkpt><trkpt lat="44.1640256" lon="10.3542812"><ele>496.0</ele><time>2026-03-25T11:34:25.19Z</time></trkpt><trkpt lat="44.1639471" lon="10.3543088"><ele>496.00000000000006</ele><time>2026-03-25T11:34:27.186Z</time></trkpt><trkpt lat="44.1638721" lon="10.354321"><ele>496.0</ele><time>2026-03-25T11:34:29.188Z</time></trkpt><trkpt lat="44.1637983" lon="10.3543379"><ele>496.0</ele><time>2026-03-25T11:34:31.187Z</time></trkpt><trkpt lat="44.1637313" lon="10.3543455"><ele>496.00000000000006</ele><time>2026-03-25T11:34:33.186Z</time></trkpt><trkpt lat="44.1636623" lon="10.3543526"><ele>496.0</ele><time>2026-03-25T11:34:35.19Z</time></trkpt><trkpt lat="44.1635978" lon="10.3543586"><ele>496.0</ele><time>2026-03-25T11:34:37.186Z</time></trkpt><trkpt lat="44.1635327" lon="10.3543676"><ele>496.0</ele><time>2026-03-25T11:34:39.197Z</time></trkpt><trkpt lat="44.1634652" lon="10.3543783"><ele>496.00000000000006</ele><time>2026-03-25T11:34:41.189Z</time></trkpt><trkpt lat="44.1633938" lon="10.3543918"><ele>496.0</ele><time>2026-03-25T11:34:43.191Z</time></trkpt><trkpt lat="44.1633236" lon="10.3544092"><ele>496.0</ele><time>2026-03-25T11:34:45.182Z</time></trkpt><trkpt lat="44.1632532" lon="10.3544239"><ele>496.00000000000006</ele><time>2026-03-25T11:34:47.182Z</time></trkpt><trkpt lat="44.1631874" lon="10.3544351"><ele>496.0</ele><time>2026-03-25T11:34:49.184Z</time></trkpt><trkpt lat="44.1631038" lon="10.3544501"><ele>496.0</ele><time>2026-03-25T11:34:52.191Z</time></trkpt><trkpt lat="44.163025" lon="10.3544643"><ele>495.8571428571429</ele><time>2026-03-25T11:34:55.19Z</time></trkpt><trkpt lat="44.1629592" lon="10.3544808"><ele>495.7142857142858</ele><time>2026-03-25T11:34:57.176Z</time></trkpt><trkpt lat="44.1628893" lon="10.3544859"><ele>495.57142857142856</ele><time>2026-03-25T11:34:59.196Z</time></trkpt><trkpt lat="44.162826" lon="10.3544968"><ele>495.42857142857144</ele><time>2026-03-25T11:35:01.194Z</time></trkpt><trkpt lat="44.162763" lon="10.3545066"><ele>495.2857142857143</ele><time>2026-03-25T11:35:03.191Z</time></trkpt><trkpt lat="44.1626967" lon="10.3545189"><ele>495.1428571428571</ele><time>2026-03-25T11:35:05.182Z</time></trkpt><trkpt lat="44.1626337" lon="10.3545243"><ele>494.99999999999994</ele><time>2026-03-25T11:35:07.178Z</time></trkpt><trkpt lat="44.1625655" lon="10.3545303"><ele>494.99999999999994</ele><time>2026-03-25T11:35:09.174Z</time></trkpt><trkpt lat="44.1624931" lon="10.3545314"><ele>495.0</ele><time>2026-03-25T11:35:11.191Z</time></trkpt><trkpt lat="44.1624214" lon="10.3545268"><ele>494.99999999999994</ele><time>2026-03-25T11:35:13.186Z</time></trkpt><trkpt lat="44.1623518" lon="10.3545136"><ele>494.99999999999994</ele><time>2026-03-25T11:35:15.201Z</time></trkpt><trkpt lat="44.1622891" lon="10.3544927"><ele>495.0</ele><time>2026-03-25T11:35:17.185Z</time></trkpt><trkpt lat="44.1622048" lon="10.3544432"><ele>494.99999999999994</ele><time>2026-03-25T11:35:20.184Z</time></trkpt><trkpt lat="44.1621422" lon="10.3543958"><ele>494.99999999999994</ele><time>2026-03-25T11:35:22.18Z</time></trkpt><trkpt lat="44.1620785" lon="10.3543401"><ele>496.3333333333333</ele><time>2026-03-25T11:35:24.196Z</time></trkpt><trkpt lat="44.1620142" lon="10.3542801"><ele>497.66666666666663</ele><time>2026-03-25T11:35:26.182Z</time></trkpt><trkpt lat="44.1619495" lon="10.354214"><ele>499.0</ele><time>2026-03-25T11:35:28.189Z</time></trkpt><trkpt lat="44.1618804" lon="10.3541463"><ele>500.3333333333333</ele><time>2026-03-25T11:35:30.186Z</time></trkpt><trkpt lat="44.1618075" lon="10.3540755"><ele>501.66666666666663</ele><time>2026-03-25T11:35:32.19Z</time></trkpt><trkpt lat="44.1617368" lon="10.353993"><ele>503.0</ele><time>2026-03-25T11:35:34.189Z</time></trkpt><trkpt lat="44.1616662" lon="10.3539064"><ele>500.49999999999994</ele><time>2026-03-25T11:35:36.192Z</time></trkpt><trkpt lat="44.1615947" lon="10.3538292"><ele>498.0</ele><time>2026-03-25T11:35:38.19Z</time></trkpt><trkpt lat="44.1615294" lon="10.3537553"><ele>495.5</ele><time>2026-03-25T11:35:40.185Z</time></trkpt><trkpt lat="44.1614598" lon="10.3536806"><ele>493.0</ele><time>2026-03-25T11:35:42.181Z</time></trkpt><trkpt lat="44.161389" lon="10.3536133"><ele>490.49999999999994</ele><time>2026-03-25T11:35:44.188Z</time></trkpt><trkpt lat="44.1613102" lon="10.3535639"><ele>488.0</ele><time>2026-03-25T11:35:46.179Z</time></trkpt><trkpt lat="44.161224" lon="10.3535365"><ele>487.99999999999994</ele><time>2026-03-25T11:35:48.198Z</time></trkpt><trkpt lat="44.1611369" lon="10.3535348"><ele>488.0</ele><time>2026-03-25T11:35:50.193Z</time></trkpt><trkpt lat="44.1610552" lon="10.3535681"><ele>488.0</ele><time>2026-03-25T11:35:52.194Z</time></trkpt><trkpt lat="44.1609879" lon="10.3536409"><ele>488.0</ele><time>2026-03-25T11:35:54.184Z</time></trkpt><trkpt lat="44.1609277" lon="10.3537273"><ele>487.99999999999994</ele><time>2026-03-25T11:35:56.19Z</time></trkpt><trkpt lat="44.1608663" lon="10.3538273"><ele>488.0</ele><time>2026-03-25T11:35:58.195Z</time></trkpt><trkpt lat="44.1608049" lon="10.3539409"><ele>486.8333333333333</ele><time>2026-03-25T11:36:00.197Z</time></trkpt><trkpt lat="44.160742" lon="10.3540712"><ele>485.66666666666663</ele><time>2026-03-25T11:36:02.199Z</time></trkpt><trkpt lat="44.160676" lon="10.354211"><ele>484.5</ele><time>2026-03-25T11:36:04.191Z</time></trkpt><trkpt lat="44.160639" lon="10.3542897"><ele>483.33333333333337</ele><time>2026-03-25T11:36:05.189Z</time></trkpt><trkpt lat="44.1606098" lon="10.3543727"><ele>482.1666666666667</ele><time>2026-03-25T11:36:06.187Z</time></trkpt><trkpt lat="44.1605953" lon="10.3544633"><ele>481.0</ele><time>2026-03-25T11:36:07.193Z</time></trkpt><trkpt lat="44.1605904" lon="10.3545558"><ele>480.99999999999994</ele><time>2026-03-25T11:36:08.185Z</time></trkpt><trkpt lat="44.1606015" lon="10.3546478"><ele>481.0</ele><time>2026-03-25T11:36:09.195Z</time></trkpt><trkpt lat="44.1606222" lon="10.3547446"><ele>480.99999999999994</ele><time>2026-03-25T11:36:10.182Z</time></trkpt><trkpt lat="44.1606578" lon="10.3548378"><ele>480.99999999999994</ele><time>2026-03-25T11:36:11.187Z</time></trkpt><trkpt lat="44.1607054" lon="10.3549173"><ele>481.0</ele><time>2026-03-25T11:36:12.174Z</time></trkpt><trkpt lat="44.1607598" lon="10.3549781"><ele>480.99999999999994</ele><time>2026-03-25T11:36:13.181Z</time></trkpt><trkpt lat="44.1608175" lon="10.3550425"><ele>480.99999999999994</ele><time>2026-03-25T11:36:14.183Z</time></trkpt><trkpt lat="44.1608702" lon="10.3551075"><ele>481.2857142857142</ele><time>2026-03-25T11:36:15.194Z</time></trkpt><trkpt lat="44.1609225" lon="10.3551762"><ele>481.57142857142856</ele><time>2026-03-25T11:36:16.197Z</time></trkpt><trkpt lat="44.1609762" lon="10.3552453"><ele>481.85714285714283</ele><time>2026-03-25T11:36:17.194Z</time></trkpt><trkpt lat="44.1610306" lon="10.3553117"><ele>482.1428571428571</ele><time>2026-03-25T11:36:18.2Z</time></trkpt><trkpt lat="44.161083" lon="10.355376"><ele>482.42857142857144</ele><time>2026-03-25T11:36:19.199Z</time></trkpt><trkpt lat="44.1611402" lon="10.3554473"><ele>482.7142857142857</ele><time>2026-03-25T11:36:20.197Z</time></trkpt><trkpt lat="44.1611974" lon="10.3555172"><ele>483.0</ele><time>2026-03-25T11:36:21.188Z</time></trkpt><trkpt lat="44.161257" lon="10.3555866"><ele>483.0</ele><time>2026-03-25T11:36:22.18Z</time></trkpt><trkpt lat="44.1613124" lon="10.3556548"><ele>483.0</ele><time>2026-03-25T11:36:23.194Z</time></trkpt><trkpt lat="44.1613662" lon="10.355729"><ele>483.0</ele><time>2026-03-25T11:36:24.198Z</time></trkpt><trkpt lat="44.1614053" lon="10.3558192"><ele>483.0</ele><time>2026-03-25T11:36:25.185Z</time></trkpt><trkpt lat="44.1614272" lon="10.3559248"><ele>483.0</ele><time>2026-03-25T11:36:26.194Z</time></trkpt><trkpt lat="44.1614221" lon="10.3560317"><ele>483.0</ele><time>2026-03-25T11:36:27.189Z</time></trkpt><trkpt lat="44.1613952" lon="10.3561353"><ele>483.0</ele><time>2026-03-25T11:36:28.203Z</time></trkpt><trkpt lat="44.1613661" lon="10.3562385"><ele>483.0</ele><time>2026-03-25T11:36:29.198Z</time></trkpt><trkpt lat="44.1613355" lon="10.3563378"><ele>483.0</ele><time>2026-03-25T11:36:30.193Z</time></trkpt><trkpt lat="44.1613062" lon="10.3564409"><ele>483.0</ele><time>2026-03-25T11:36:31.192Z</time></trkpt><trkpt lat="44.1612766" lon="10.356539"><ele>483.0</ele><time>2026-03-25T11:36:32.204Z</time></trkpt><trkpt lat="44.16125" lon="10.3566423"><ele>483.0</ele><time>2026-03-25T11:36:33.19Z</time></trkpt><trkpt lat="44.1612198" lon="10.3567415"><ele>483.0</ele><time>2026-03-25T11:36:34.191Z</time></trkpt><trkpt lat="44.1611892" lon="10.3568439"><ele>483.0</ele><time>2026-03-25T11:36:35.186Z</time></trkpt><trkpt lat="44.1611572" lon="10.3569473"><ele>483.0</ele><time>2026-03-25T11:36:36.189Z</time></trkpt><trkpt lat="44.1611284" lon="10.3570458"><ele>483.0</ele><time>2026-03-25T11:36:37.189Z</time></trkpt><trkpt lat="44.1611012" lon="10.3571441"><ele>483.0</ele><time>2026-03-25T11:36:38.189Z</time></trkpt><trkpt lat="44.1610739" lon="10.3572443"><ele>483.0</ele><time>2026-03-25T11:36:39.202Z</time></trkpt><trkpt lat="44.161045" lon="10.3573432"><ele>483.0</ele><time>2026-03-25T11:36:40.209Z</time></trkpt><trkpt lat="44.1610161" lon="10.3574415"><ele>483.0</ele><time>2026-03-25T11:36:41.192Z</time></trkpt><trkpt lat="44.1609846" lon="10.3575429"><ele>483.0</ele><time>2026-03-25T11:36:42.193Z</time></trkpt><trkpt lat="44.1609525" lon="10.3576477"><ele>483.0</ele><time>2026-03-25T11:36:43.195Z</time></trkpt><trkpt lat="44.1609201" lon="10.3577527"><ele>483.0</ele><time>2026-03-25T11:36:44.2Z</time></trkpt><trkpt lat="44.1608752" lon="10.3578552"><ele>483.0</ele><time>2026-03-25T11:36:45.185Z</time></trkpt><trkpt lat="44.1608269" lon="10.3579539"><ele>483.2</ele><time>2026-03-25T11:36:46.2Z</time></trkpt><trkpt lat="44.1607734" lon="10.3580535"><ele>483.4</ele><time>2026-03-25T11:36:47.189Z</time></trkpt><trkpt lat="44.1607147" lon="10.358152"><ele>483.59999999999997</ele><time>2026-03-25T11:36:48.181Z</time></trkpt><trkpt lat="44.1606601" lon="10.3582506"><ele>483.79999999999995</ele><time>2026-03-25T11:36:49.191Z</time></trkpt><trkpt lat="44.1605993" lon="10.3583471"><ele>484.0</ele><time>2026-03-25T11:36:50.194Z</time></trkpt><trkpt lat="44.1605401" lon="10.3584396"><ele>482.4</ele><time>2026-03-25T11:36:51.184Z</time></trkpt><trkpt lat="44.1604782" lon="10.3585336"><ele>480.79999999999995</ele><time>2026-03-25T11:36:52.188Z</time></trkpt><trkpt lat="44.1604169" lon="10.35863"><ele>479.20000000000005</ele><time>2026-03-25T11:36:53.19Z</time></trkpt><trkpt lat="44.160358" lon="10.3587281"><ele>477.6</ele><time>2026-03-25T11:36:54.186Z</time></trkpt><trkpt lat="44.1602967" lon="10.3588277"><ele>476.0</ele><time>2026-03-25T11:36:55.191Z</time></trkpt><trkpt lat="44.1602333" lon="10.3589303"><ele>476.0</ele><time>2026-03-25T11:36:56.189Z</time></trkpt><trkpt lat="44.1601682" lon="10.3590262"><ele>476.0</ele><time>2026-03-25T11:36:57.19Z</time></trkpt><trkpt lat="44.1601043" lon="10.35912"><ele>476.0</ele><time>2026-03-25T11:36:58.196Z</time></trkpt><trkpt lat="44.1600323" lon="10.35921"><ele>476.0</ele><time>2026-03-25T11:36:59.19Z</time></trkpt><trkpt lat="44.1599557" lon="10.3592947"><ele>476.0</ele><time>2026-03-25T11:37:00.189Z</time></trkpt><trkpt lat="44.1598699" lon="10.3593683"><ele>472.8</ele><time>2026-03-25T11:37:01.199Z</time></trkpt><trkpt lat="44.1597844" lon="10.3594242"><ele>469.6</ele><time>2026-03-25T11:37:02.191Z</time></trkpt><trkpt lat="44.1596944" lon="10.3594717"><ele>466.4</ele><time>2026-03-25T11:37:03.198Z</time></trkpt><trkpt lat="44.1596054" lon="10.3595122"><ele>463.2</ele><time>2026-03-25T11:37:04.188Z</time></trkpt><trkpt lat="44.1595153" lon="10.3595514"><ele>460.0</ele><time>2026-03-25T11:37:05.196Z</time></trkpt><trkpt lat="44.1594227" lon="10.3595849"><ele>460.0</ele><time>2026-03-25T11:37:06.194Z</time></trkpt><trkpt lat="44.1593325" lon="10.3596255"><ele>460.0</ele><time>2026-03-25T11:37:07.18Z</time></trkpt><trkpt lat="44.1592421" lon="10.3596624"><ele>460.0</ele><time>2026-03-25T11:37:08.187Z</time></trkpt><trkpt lat="44.1591502" lon="10.3596967"><ele>460.0</ele><time>2026-03-25T11:37:09.197Z</time></trkpt><trkpt lat="44.1590569" lon="10.3597307"><ele>460.0</ele><time>2026-03-25T11:37:10.199Z</time></trkpt><trkpt lat="44.1589645" lon="10.3597628"><ele>460.4</ele><time>2026-03-25T11:37:11.197Z</time></trkpt><trkpt lat="44.1588704" lon="10.3597957"><ele>460.8</ele><time>2026-03-25T11:37:12.188Z</time></trkpt><trkpt lat="44.1587717" lon="10.3598268"><ele>461.20000000000005</ele><time>2026-03-25T11:37:13.194Z</time></trkpt><trkpt lat="44.1586766" lon="10.3598615"><ele>461.6</ele><time>2026-03-25T11:37:14.187Z</time></trkpt><trkpt lat="44.1585811" lon="10.3598967"><ele>462.0</ele><time>2026-03-25T11:37:15.197Z</time></trkpt><trkpt lat="44.1584868" lon="10.3599323"><ele>462.0</ele><time>2026-03-25T11:37:16.184Z</time></trkpt><trkpt lat="44.1583951" lon="10.3599954"><ele>462.00000000000006</ele><time>2026-03-25T11:37:17.18Z</time></trkpt><trkpt lat="44.1583164" lon="10.3600833"><ele>462.00000000000006</ele><time>2026-03-25T11:37:18.186Z</time></trkpt><trkpt lat="44.1582558" lon="10.3601952"><ele>462.0</ele><time>2026-03-25T11:37:19.191Z</time></trkpt><trkpt lat="44.1582118" lon="10.3603239"><ele>462.0</ele><time>2026-03-25T11:37:20.195Z</time></trkpt><trkpt lat="44.1581844" lon="10.3604651"><ele>459.40000000000003</ele><time>2026-03-25T11:37:21.195Z</time></trkpt><trkpt lat="44.158162" lon="10.3606051"><ele>456.80000000000007</ele><time>2026-03-25T11:37:22.196Z</time></trkpt><trkpt lat="44.1581378" lon="10.3607449"><ele>454.2</ele><time>2026-03-25T11:37:23.193Z</time></trkpt><trkpt lat="44.1581141" lon="10.3608863"><ele>451.6</ele><time>2026-03-25T11:37:24.199Z</time></trkpt><trkpt lat="44.1580874" lon="10.3610215"><ele>449.0</ele><time>2026-03-25T11:37:25.193Z</time></trkpt><trkpt lat="44.1580509" lon="10.3611593"><ele>449.0</ele><time>2026-03-25T11:37:26.189Z</time></trkpt><trkpt lat="44.1580044" lon="10.3612937"><ele>449.0</ele><time>2026-03-25T11:37:27.192Z</time></trkpt><trkpt lat="44.15795" lon="10.3614152"><ele>449.0</ele><time>2026-03-25T11:37:28.196Z</time></trkpt><trkpt lat="44.1578894" lon="10.3615259"><ele>449.0</ele><time>2026-03-25T11:37:29.189Z</time></trkpt><trkpt lat="44.1578181" lon="10.3616291"><ele>449.0</ele><time>2026-03-25T11:37:30.189Z</time></trkpt><trkpt lat="44.1577429" lon="10.3617251"><ele>449.6</ele><time>2026-03-25T11:37:31.181Z</time></trkpt><trkpt lat="44.1576649" lon="10.3618211"><ele>450.2</ele><time>2026-03-25T11:37:32.207Z</time></trkpt><trkpt lat="44.1575875" lon="10.3619196"><ele>450.80000000000007</ele><time>2026-03-25T11:37:33.194Z</time></trkpt><trkpt lat="44.1575087" lon="10.3620187"><ele>451.40000000000003</ele><time>2026-03-25T11:37:34.197Z</time></trkpt><trkpt lat="44.1574303" lon="10.3621152"><ele>452.0</ele><time>2026-03-25T11:37:35.19Z</time></trkpt><trkpt lat="44.1573448" lon="10.3622043"><ele>452.0</ele><time>2026-03-25T11:37:36.185Z</time></trkpt><trkpt lat="44.1572475" lon="10.3622606"><ele>452.00000000000006</ele><time>2026-03-25T11:37:37.196Z</time></trkpt><trkpt lat="44.1571468" lon="10.3622852"><ele>452.00000000000006</ele><time>2026-03-25T11:37:38.192Z</time></trkpt><trkpt lat="44.157043" lon="10.3622829"><ele>452.0</ele><time>2026-03-25T11:37:39.193Z</time></trkpt><trkpt lat="44.1569372" lon="10.3622679"><ele>452.0</ele><time>2026-03-25T11:37:40.188Z</time></trkpt><trkpt lat="44.1568292" lon="10.3622729"><ele>452.0</ele><time>2026-03-25T11:37:41.191Z</time></trkpt><trkpt lat="44.156727" lon="10.362302"><ele>452.00000000000006</ele><time>2026-03-25T11:37:42.189Z</time></trkpt><trkpt lat="44.1566436" lon="10.3624039"><ele>452.00000000000006</ele><time>2026-03-25T11:37:43.193Z</time></trkpt><trkpt lat="44.1565783" lon="10.3625294"><ele>452.0</ele><time>2026-03-25T11:37:44.186Z</time></trkpt><trkpt lat="44.1565372" lon="10.3626672"><ele>452.0</ele><time>2026-03-25T11:37:45.19Z</time></trkpt><trkpt lat="44.1565006" lon="10.3628253"><ele>448.25</ele><time>2026-03-25T11:37:46.189Z</time></trkpt><trkpt lat="44.1564676" lon="10.3629907"><ele>444.5</ele><time>2026-03-25T11:37:47.186Z</time></trkpt><trkpt lat="44.1564315" lon="10.363154"><ele>440.75</ele><time>2026-03-25T11:37:48.183Z</time></trkpt><trkpt lat="44.1563964" lon="10.3633204"><ele>437.0</ele><time>2026-03-25T11:37:49.187Z</time></trkpt><trkpt lat="44.1563574" lon="10.3634825"><ele>437.0</ele><time>2026-03-25T11:37:50.185Z</time></trkpt><trkpt lat="44.1563242" lon="10.3636472"><ele>437.0</ele><time>2026-03-25T11:37:51.19Z</time></trkpt><trkpt lat="44.1562884" lon="10.363804"><ele>437.0</ele><time>2026-03-25T11:37:52.186Z</time></trkpt><trkpt lat="44.156262" lon="10.363965"><ele>437.0</ele><time>2026-03-25T11:37:53.18Z</time></trkpt><trkpt lat="44.156237" lon="10.3641171"><ele>436.6</ele><time>2026-03-25T11:37:54.195Z</time></trkpt><trkpt lat="44.1562135" lon="10.3642654"><ele>436.20000000000005</ele><time>2026-03-25T11:37:55.182Z</time></trkpt><trkpt lat="44.1561972" lon="10.3644083"><ele>435.8</ele><time>2026-03-25T11:37:56.176Z</time></trkpt><trkpt lat="44.1561844" lon="10.3645481"><ele>435.4</ele><time>2026-03-25T11:37:57.188Z</time></trkpt><trkpt lat="44.1562199" lon="10.36469"><ele>435.0</ele><time>2026-03-25T11:37:58.19Z</time></trkpt><trkpt lat="44.1562664" lon="10.3648096"><ele>435.0</ele><time>2026-03-25T11:37:59.182Z</time></trkpt><trkpt lat="44.156333" lon="10.3649085"><ele>435.0</ele><time>2026-03-25T11:38:00.194Z</time></trkpt><trkpt lat="44.1563948" lon="10.3650173"><ele>435.0</ele><time>2026-03-25T11:38:01.2Z</time></trkpt><trkpt lat="44.1564269" lon="10.3651467"><ele>435.0</ele><time>2026-03-25T11:38:02.19Z</time></trkpt><trkpt lat="44.1564417" lon="10.3652883"><ele>435.0</ele><time>2026-03-25T11:38:03.18Z</time></trkpt><trkpt lat="44.1564344" lon="10.3654236"><ele>435.5</ele><time>2026-03-25T11:38:04.188Z</time></trkpt><trkpt lat="44.1564041" lon="10.3655425"><ele>436.0</ele><time>2026-03-25T11:38:05.199Z</time></trkpt><trkpt lat="44.1563544" lon="10.3656457"><ele>436.5</ele><time>2026-03-25T11:38:06.185Z</time></trkpt><trkpt lat="44.1563052" lon="10.365742"><ele>437.0</ele><time>2026-03-25T11:38:07.192Z</time></trkpt><trkpt lat="44.1562615" lon="10.3658381"><ele>437.5</ele><time>2026-03-25T11:38:08.202Z</time></trkpt><trkpt lat="44.1562093" lon="10.365919"><ele>438.0</ele><time>2026-03-25T11:38:09.184Z</time></trkpt><trkpt lat="44.1561418" lon="10.3659768"><ele>438.0</ele><time>2026-03-25T11:38:10.187Z</time></trkpt><trkpt lat="44.1560778" lon="10.3660354"><ele>438.0</ele><time>2026-03-25T11:38:11.196Z</time></trkpt><trkpt lat="44.1559967" lon="10.3660313"><ele>438.0</ele><time>2026-03-25T11:38:12.197Z</time></trkpt><trkpt lat="44.155922" lon="10.3660266"><ele>438.0</ele><time>2026-03-25T11:38:13.182Z</time></trkpt><trkpt lat="44.155847" lon="10.3660162"><ele>438.0</ele><time>2026-03-25T11:38:14.193Z</time></trkpt><trkpt lat="44.1557624" lon="10.3660085"><ele>438.0</ele><time>2026-03-25T11:38:15.188Z</time></trkpt><trkpt lat="44.1556806" lon="10.3660099"><ele>438.3333333333333</ele><time>2026-03-25T11:38:16.179Z</time></trkpt><trkpt lat="44.1555994" lon="10.366035"><ele>438.66666666666663</ele><time>2026-03-25T11:38:17.189Z</time></trkpt><trkpt lat="44.1555221" lon="10.3660798"><ele>439.0</ele><time>2026-03-25T11:38:18.191Z</time></trkpt><trkpt lat="44.1554503" lon="10.366146"><ele>439.3333333333333</ele><time>2026-03-25T11:38:19.184Z</time></trkpt><trkpt lat="44.1553839" lon="10.3662332"><ele>439.66666666666663</ele><time>2026-03-25T11:38:20.192Z</time></trkpt><trkpt lat="44.155326" lon="10.3663318"><ele>440.0</ele><time>2026-03-25T11:38:21.188Z</time></trkpt><trkpt lat="44.155262" lon="10.366421"><ele>439.99999999999994</ele><time>2026-03-25T11:38:22.195Z</time></trkpt><trkpt lat="44.1552" lon="10.3665146"><ele>440.0</ele><time>2026-03-25T11:38:23.179Z</time></trkpt><trkpt lat="44.1551356" lon="10.3666016"><ele>440.0</ele><time>2026-03-25T11:38:24.193Z</time></trkpt><trkpt lat="44.1550631" lon="10.36668"><ele>440.0</ele><time>2026-03-25T11:38:25.191Z</time></trkpt><trkpt lat="44.1549861" lon="10.3667346"><ele>439.99999999999994</ele><time>2026-03-25T11:38:26.195Z</time></trkpt><trkpt lat="44.1548994" lon="10.3667652"><ele>440.0</ele><time>2026-03-25T11:38:27.195Z</time></trkpt><trkpt lat="44.1548111" lon="10.366768"><ele>440.49999999999994</ele><time>2026-03-25T11:38:28.195Z</time></trkpt><trkpt lat="44.1547185" lon="10.3667485"><ele>441.0</ele><time>2026-03-25T11:38:29.191Z</time></trkpt><trkpt lat="44.1546388" lon="10.3667108"><ele>441.5</ele><time>2026-03-25T11:38:30.198Z</time></trkpt><trkpt lat="44.1545588" lon="10.3666618"><ele>442.0</ele><time>2026-03-25T11:38:31.177Z</time></trkpt><trkpt lat="44.1544813" lon="10.3666145"><ele>442.49999999999994</ele><time>2026-03-25T11:38:32.194Z</time></trkpt><trkpt lat="44.1544063" lon="10.3665661"><ele>443.0</ele><time>2026-03-25T11:38:33.185Z</time></trkpt><trkpt lat="44.1543246" lon="10.3665248"><ele>442.99999999999994</ele><time>2026-03-25T11:38:34.191Z</time></trkpt><trkpt lat="44.1542442" lon="10.366489"><ele>443.0</ele><time>2026-03-25T11:38:35.186Z</time></trkpt><trkpt lat="44.1541649" lon="10.3664625"><ele>443.0</ele><time>2026-03-25T11:38:36.189Z</time></trkpt><trkpt lat="44.1540883" lon="10.3664393"><ele>443.0</ele><time>2026-03-25T11:38:37.175Z</time></trkpt><trkpt lat="44.1540109" lon="10.3664213"><ele>442.99999999999994</ele><time>2026-03-25T11:38:38.193Z</time></trkpt><trkpt lat="44.1539361" lon="10.3664034"><ele>443.0</ele><time>2026-03-25T11:38:39.188Z</time></trkpt><trkpt lat="44.1538609" lon="10.3663903"><ele>443.2857142857143</ele><time>2026-03-25T11:38:40.184Z</time></trkpt><trkpt lat="44.1537867" lon="10.3663815"><ele>443.57142857142856</ele><time>2026-03-25T11:38:41.188Z</time></trkpt><trkpt lat="44.1537167" lon="10.3663726"><ele>443.8571428571429</ele><time>2026-03-25T11:38:42.194Z</time></trkpt><trkpt lat="44.1536422" lon="10.3663618"><ele>444.1428571428571</ele><time>2026-03-25T11:38:43.186Z</time></trkpt><trkpt lat="44.153568" lon="10.3663554"><ele>444.4285714285714</ele><time>2026-03-25T11:38:44.183Z</time></trkpt><trkpt lat="44.1535042" lon="10.3663526"><ele>444.7142857142857</ele><time>2026-03-25T11:38:45.187Z</time></trkpt><trkpt lat="44.1534383" lon="10.3663508"><ele>445.0</ele><time>2026-03-25T11:38:46.186Z</time></trkpt><trkpt lat="44.1533703" lon="10.3663505"><ele>440.8571428571429</ele><time>2026-03-25T11:38:47.191Z</time></trkpt><trkpt lat="44.1533015" lon="10.3663449"><ele>436.71428571428567</ele><time>2026-03-25T11:38:48.184Z</time></trkpt><trkpt lat="44.1532327" lon="10.3663366"><ele>432.57142857142856</ele><time>2026-03-25T11:38:49.179Z</time></trkpt><trkpt lat="44.1531635" lon="10.3663302"><ele>428.42857142857144</ele><time>2026-03-25T11:38:50.186Z</time></trkpt><trkpt lat="44.1530924" lon="10.3663278"><ele>424.28571428571433</ele><time>2026-03-25T11:38:51.191Z</time></trkpt><trkpt lat="44.1530262" lon="10.3663173"><ele>420.1428571428571</ele><time>2026-03-25T11:38:52.19Z</time></trkpt><trkpt lat="44.1529541" lon="10.3663116"><ele>416.0</ele><time>2026-03-25T11:38:53.193Z</time></trkpt><trkpt lat="44.1528877" lon="10.366303"><ele>415.85714285714283</ele><time>2026-03-25T11:38:54.191Z</time></trkpt><trkpt lat="44.1528158" lon="10.3662955"><ele>415.7142857142857</ele><time>2026-03-25T11:38:55.195Z</time></trkpt><trkpt lat="44.1527462" lon="10.3662891"><ele>415.57142857142856</ele><time>2026-03-25T11:38:56.186Z</time></trkpt><trkpt lat="44.1526764" lon="10.3662883"><ele>415.42857142857144</ele><time>2026-03-25T11:38:57.182Z</time></trkpt><trkpt lat="44.1526067" lon="10.3662861"><ele>415.28571428571433</ele><time>2026-03-25T11:38:58.195Z</time></trkpt><trkpt lat="44.1525367" lon="10.3662919"><ele>415.14285714285717</ele><time>2026-03-25T11:38:59.185Z</time></trkpt><trkpt lat="44.1524716" lon="10.366301"><ele>415.0</ele><time>2026-03-25T11:39:00.196Z</time></trkpt><trkpt lat="44.1524098" lon="10.3663243"><ele>413.33333333333337</ele><time>2026-03-25T11:39:01.179Z</time></trkpt><trkpt lat="44.1523473" lon="10.3663605"><ele>411.6666666666667</ele><time>2026-03-25T11:39:02.19Z</time></trkpt><trkpt lat="44.1522877" lon="10.3664059"><ele>410.0</ele><time>2026-03-25T11:39:03.19Z</time></trkpt><trkpt lat="44.1522325" lon="10.3664578"><ele>408.33333333333337</ele><time>2026-03-25T11:39:04.193Z</time></trkpt><trkpt lat="44.1521801" lon="10.3665202"><ele>406.6666666666667</ele><time>2026-03-25T11:39:05.197Z</time></trkpt><trkpt lat="44.1521314" lon="10.3665918"><ele>405.0</ele><time>2026-03-25T11:39:06.195Z</time></trkpt><trkpt lat="44.152022" lon="10.3666955"><ele>406.99999999999994</ele><time>2026-03-25T11:39:08.195Z</time></trkpt><trkpt lat="44.151958" lon="10.3667294"><ele>409.0</ele><time>2026-03-25T11:39:09.188Z</time></trkpt><trkpt lat="44.1518806" lon="10.3667586"><ele>411.0</ele><time>2026-03-25T11:39:10.187Z</time></trkpt><trkpt lat="44.1518077" lon="10.3667655"><ele>413.0</ele><time>2026-03-25T11:39:11.187Z</time></trkpt><trkpt lat="44.1517347" lon="10.3667672"><ele>415.0</ele><time>2026-03-25T11:39:12.182Z</time></trkpt><trkpt lat="44.1516612" lon="10.3667752"><ele>416.99999999999994</ele><time>2026-03-25T11:39:13.176Z</time></trkpt><trkpt lat="44.1515928" lon="10.3667846"><ele>419.0</ele><time>2026-03-25T11:39:14.182Z</time></trkpt><trkpt lat="44.1515171" lon="10.366802"><ele>418.99999999999994</ele><time>2026-03-25T11:39:15.186Z</time></trkpt><trkpt lat="44.1514444" lon="10.3668209"><ele>419.0</ele><time>2026-03-25T11:39:16.179Z</time></trkpt><trkpt lat="44.1513681" lon="10.3668387"><ele>419.0</ele><time>2026-03-25T11:39:17.196Z</time></trkpt><trkpt lat="44.1512941" lon="10.3668648"><ele>419.0</ele><time>2026-03-25T11:39:18.183Z</time></trkpt><trkpt lat="44.1512198" lon="10.3668972"><ele>418.99999999999994</ele><time>2026-03-25T11:39:19.185Z</time></trkpt><trkpt lat="44.1511461" lon="10.3669373"><ele>419.0</ele><time>2026-03-25T11:39:20.194Z</time></trkpt><trkpt lat="44.151075" lon="10.3669869"><ele>418.99999999999994</ele><time>2026-03-25T11:39:21.191Z</time></trkpt><trkpt lat="44.151006" lon="10.3670407"><ele>419.0</ele><time>2026-03-25T11:39:22.193Z</time></trkpt><trkpt lat="44.1509354" lon="10.3670925"><ele>419.0</ele><time>2026-03-25T11:39:23.185Z</time></trkpt><trkpt lat="44.1508649" lon="10.3671349"><ele>419.0</ele><time>2026-03-25T11:39:24.189Z</time></trkpt><trkpt lat="44.1507932" lon="10.3671759"><ele>418.99999999999994</ele><time>2026-03-25T11:39:25.196Z</time></trkpt><trkpt lat="44.1507197" lon="10.3671965"><ele>419.0</ele><time>2026-03-25T11:39:26.198Z</time></trkpt><trkpt lat="44.1506345" lon="10.3671932"><ele>417.99999999999994</ele><time>2026-03-25T11:39:27.181Z</time></trkpt><trkpt lat="44.1505493" lon="10.3671849"><ele>417.0</ele><time>2026-03-25T11:39:28.186Z</time></trkpt><trkpt lat="44.150465" lon="10.3671708"><ele>416.0</ele><time>2026-03-25T11:39:29.19Z</time></trkpt><trkpt lat="44.1503835" lon="10.3671625"><ele>415.0</ele><time>2026-03-25T11:39:30.199Z</time></trkpt><trkpt lat="44.1503035" lon="10.3671756"><ele>413.99999999999994</ele><time>2026-03-25T11:39:31.184Z</time></trkpt><trkpt lat="44.1502274" lon="10.3671929"><ele>413.0</ele><time>2026-03-25T11:39:32.2Z</time></trkpt><trkpt lat="44.1501527" lon="10.3672424"><ele>415.57142857142856</ele><time>2026-03-25T11:39:33.197Z</time></trkpt><trkpt lat="44.1501" lon="10.3673145"><ele>418.1428571428571</ele><time>2026-03-25T11:39:34.188Z</time></trkpt><trkpt lat="44.1500611" lon="10.3673929"><ele>420.7142857142857</ele><time>2026-03-25T11:39:35.182Z</time></trkpt><trkpt lat="44.1500126" lon="10.3675096"><ele>423.2857142857143</ele><time>2026-03-25T11:39:37.18Z</time></trkpt><trkpt lat="44.1499754" lon="10.3675985"><ele>425.85714285714283</ele><time>2026-03-25T11:39:41.184Z</time></trkpt><trkpt lat="44.1499498" lon="10.3676863"><ele>428.42857142857144</ele><time>2026-03-25T11:39:45.176Z</time></trkpt><trkpt lat="44.1499195" lon="10.3677694"><ele>431.0</ele><time>2026-03-25T11:39:49.19Z</time></trkpt><trkpt lat="44.1498826" lon="10.3678494"><ele>431.42857142857144</ele><time>2026-03-25T11:39:53.185Z</time></trkpt><trkpt lat="44.149829" lon="10.3679074"><ele>431.85714285714283</ele><time>2026-03-25T11:39:57.199Z</time></trkpt><trkpt lat="44.1497777" lon="10.367973"><ele>432.2857142857143</ele><time>2026-03-25T11:40:01.18Z</time></trkpt><trkpt lat="44.1497258" lon="10.3680367"><ele>432.7142857142857</ele><time>2026-03-25T11:40:05.197Z</time></trkpt><trkpt lat="44.1496612" lon="10.3680632"><ele>433.1428571428571</ele><time>2026-03-25T11:40:09.189Z</time></trkpt><trkpt lat="44.1495987" lon="10.3680937"><ele>433.57142857142856</ele><time>2026-03-25T11:40:13.188Z</time></trkpt><trkpt lat="44.1495405" lon="10.3681295"><ele>434.0</ele><time>2026-03-25T11:40:17.186Z</time></trkpt><trkpt lat="44.1494858" lon="10.3681811"><ele>434.0</ele><time>2026-03-25T11:40:21.184Z</time></trkpt><trkpt lat="44.1494406" lon="10.3682501"><ele>434.0</ele><time>2026-03-25T11:40:25.182Z</time></trkpt><trkpt lat="44.1493939" lon="10.3683213"><ele>434.0</ele><time>2026-03-25T11:40:29.188Z</time></trkpt><trkpt lat="44.1493591" lon="10.368398"><ele>434.0</ele><time>2026-03-25T11:40:33.179Z</time></trkpt><trkpt lat="44.1493178" lon="10.3684757"><ele>434.0</ele><time>2026-03-25T11:40:39.186Z</time></trkpt><trkpt lat="44.1492707" lon="10.3685629"><ele>434.0</ele><time>2026-03-25T11:40:44.181Z</time></trkpt><trkpt lat="44.1492226" lon="10.3686664"><ele>434.0</ele><time>2026-03-25T11:40:48.181Z</time></trkpt><trkpt lat="44.1491813" lon="10.368766"><ele>434.7142857142857</ele><time>2026-03-25T11:40:51.176Z</time></trkpt><trkpt lat="44.149165" lon="10.3688775"><ele>435.42857142857144</ele><time>2026-03-25T11:40:54.187Z</time></trkpt><trkpt lat="44.1491704" lon="10.3689704"><ele>436.1428571428571</ele><time>2026-03-25T11:40:57.19Z</time></trkpt><trkpt lat="44.1491806" lon="10.3690722"><ele>436.8571428571429</ele><time>2026-03-25T11:41:01.186Z</time></trkpt><trkpt lat="44.1491802" lon="10.3691726"><ele>437.57142857142856</ele><time>2026-03-25T11:41:05.204Z</time></trkpt><trkpt lat="44.1491862" lon="10.3692679"><ele>438.2857142857143</ele><time>2026-03-25T11:41:09.182Z</time></trkpt><trkpt lat="44.1491964" lon="10.3693637"><ele>439.0</ele><time>2026-03-25T11:41:13.186Z</time></trkpt><trkpt lat="44.1492005" lon="10.3694624"><ele>439.0</ele><time>2026-03-25T11:41:17.18Z</time></trkpt><trkpt lat="44.1492116" lon="10.369552"><ele>439.0</ele><time>2026-03-25T11:41:21.184Z</time></trkpt><trkpt lat="44.149215" lon="10.36964"><ele>439.0</ele><time>2026-03-25T11:41:25.183Z</time></trkpt><trkpt lat="44.1492045" lon="10.36974"><ele>439.0</ele><time>2026-03-25T11:41:29.186Z</time></trkpt><trkpt lat="44.1491848" lon="10.3698448"><ele>439.0</ele><time>2026-03-25T11:41:33.184Z</time></trkpt><trkpt lat="44.1491743" lon="10.3699368"><ele>439.0</ele><time>2026-03-25T11:41:37.182Z</time></trkpt><trkpt lat="44.1491576" lon="10.3700362"><ele>439.0</ele><time>2026-03-25T11:41:41.183Z</time></trkpt><trkpt lat="44.1491998" lon="10.3701255"><ele>439.7142857142857</ele><time>2026-03-25T11:41:45.181Z</time></trkpt><trkpt lat="44.1492681" lon="10.3701152"><ele>440.42857142857144</ele><time>2026-03-25T11:41:49.183Z</time></trkpt><trkpt lat="44.1493319" lon="10.3701355"><ele>441.1428571428571</ele><time>2026-03-25T11:41:53.181Z</time></trkpt><trkpt lat="44.1493894" lon="10.3701758"><ele>441.8571428571429</ele><time>2026-03-25T11:41:57.174Z</time></trkpt><trkpt lat="44.1494477" lon="10.3702132"><ele>442.5714285714286</ele><time>2026-03-25T11:42:01.185Z</time></trkpt><trkpt lat="44.1494945" lon="10.3702793"><ele>443.2857142857143</ele><time>2026-03-25T11:42:05.179Z</time></trkpt><trkpt lat="44.149529" lon="10.3703684"><ele>444.0</ele><time>2026-03-25T11:42:09.187Z</time></trkpt><trkpt lat="44.1495692" lon="10.370462"><ele>446.1666666666667</ele><time>2026-03-25T11:42:13.191Z</time></trkpt><trkpt lat="44.1496166" lon="10.3705479"><ele>448.33333333333337</ele><time>2026-03-25T11:42:17.183Z</time></trkpt><trkpt lat="44.1496867" lon="10.3705987"><ele>450.5</ele><time>2026-03-25T11:42:21.189Z</time></trkpt><trkpt lat="44.1497565" lon="10.3706255"><ele>452.6666666666667</ele><time>2026-03-25T11:42:25.181Z</time></trkpt><trkpt lat="44.1498311" lon="10.3706107"><ele>454.83333333333337</ele><time>2026-03-25T11:42:29.192Z</time></trkpt><trkpt lat="44.1499049" lon="10.3705882"><ele>457.0</ele><time>2026-03-25T11:42:33.18Z</time></trkpt><trkpt lat="44.1499751" lon="10.3705567"><ele>456.57142857142867</ele><time>2026-03-25T11:42:37.178Z</time></trkpt><trkpt lat="44.1500387" lon="10.3705199"><ele>456.14285714285717</ele><time>2026-03-25T11:42:41.186Z</time></trkpt><trkpt lat="44.150109" lon="10.3704821"><ele>455.7142857142858</ele><time>2026-03-25T11:42:45.193Z</time></trkpt><trkpt lat="44.1501746" lon="10.3704305"><ele>455.28571428571433</ele><time>2026-03-25T11:42:49.19Z</time></trkpt><trkpt lat="44.1502414" lon="10.3703867"><ele>454.8571428571429</ele><time>2026-03-25T11:42:53.195Z</time></trkpt><trkpt lat="44.1503114" lon="10.3703893"><ele>454.42857142857144</ele><time>2026-03-25T11:42:57.19Z</time></trkpt><trkpt lat="44.1503229" lon="10.3704797"><ele>454.0</ele><time>2026-03-25T11:43:01.186Z</time></trkpt><trkpt lat="44.1502762" lon="10.3705597"><ele>454.50000000000006</ele><time>2026-03-25T11:43:05.179Z</time></trkpt><trkpt lat="44.1501998" lon="10.3706012"><ele>455.0</ele><time>2026-03-25T11:43:09.203Z</time></trkpt><trkpt lat="44.1501239" lon="10.3706287"><ele>455.5</ele><time>2026-03-25T11:43:13.189Z</time></trkpt><trkpt lat="44.1500511" lon="10.3706473"><ele>456.0</ele><time>2026-03-25T11:43:17.178Z</time></trkpt><trkpt lat="44.1499817" lon="10.3706813"><ele>456.50000000000006</ele><time>2026-03-25T11:43:21.184Z</time></trkpt><trkpt lat="44.1499135" lon="10.3707247"><ele>457.0</ele><time>2026-03-25T11:43:25.175Z</time></trkpt><trkpt lat="44.1498521" lon="10.3707805"><ele>457.00000000000006</ele><time>2026-03-25T11:43:29.189Z</time></trkpt><trkpt lat="44.1497859" lon="10.3708283"><ele>457.0</ele><time>2026-03-25T11:43:33.193Z</time></trkpt><trkpt lat="44.1497198" lon="10.37088"><ele>457.0</ele><time>2026-03-25T11:43:37.18Z</time></trkpt><trkpt lat="44.1496509" lon="10.3709387"><ele>457.0</ele><time>2026-03-25T11:43:41.183Z</time></trkpt><trkpt lat="44.1495869" lon="10.3709971"><ele>457.00000000000006</ele><time>2026-03-25T11:43:45.183Z</time></trkpt><trkpt lat="44.1495264" lon="10.3710502"><ele>457.0</ele><time>2026-03-25T11:43:49.194Z</time></trkpt><trkpt lat="44.1494671" lon="10.3711134"><ele>457.00000000000006</ele><time>2026-03-25T11:43:53.188Z</time></trkpt><trkpt lat="44.1494145" lon="10.371179"><ele>457.0</ele><time>2026-03-25T11:43:57.201Z</time></trkpt><trkpt lat="44.1493907" lon="10.3712744"><ele>457.00000000000006</ele><time>2026-03-25T11:44:01.186Z</time></trkpt><trkpt lat="44.1493843" lon="10.3713774"><ele>457.00000000000006</ele><time>2026-03-25T11:44:05.2Z</time></trkpt><trkpt lat="44.1493892" lon="10.3714777"><ele>457.0</ele><time>2026-03-25T11:44:09.195Z</time></trkpt><trkpt lat="44.1493769" lon="10.3715744"><ele>457.00000000000006</ele><time>2026-03-25T11:44:13.192Z</time></trkpt><trkpt lat="44.1493447" lon="10.3716565"><ele>457.00000000000006</ele><time>2026-03-25T11:44:17.186Z</time></trkpt><trkpt lat="44.1493035" lon="10.3717438"><ele>458.4285714285715</ele><time>2026-03-25T11:44:21.183Z</time></trkpt><trkpt lat="44.1492617" lon="10.3718292"><ele>459.8571428571429</ele><time>2026-03-25T11:44:25.183Z</time></trkpt><trkpt lat="44.1492302" lon="10.371915"><ele>461.2857142857143</ele><time>2026-03-25T11:44:29.202Z</time></trkpt><trkpt lat="44.1492148" lon="10.3720076"><ele>462.7142857142857</ele><time>2026-03-25T11:44:33.183Z</time></trkpt><trkpt lat="44.1492284" lon="10.3721155"><ele>464.1428571428571</ele><time>2026-03-25T11:44:38.188Z</time></trkpt><trkpt lat="44.149249" lon="10.3722149"><ele>465.5714285714285</ele><time>2026-03-25T11:44:43.183Z</time></trkpt><trkpt lat="44.1492503" lon="10.3723045"><ele>466.99999999999994</ele><time>2026-03-25T11:44:47.183Z</time></trkpt><trkpt lat="44.1492498" lon="10.372405"><ele>468.99999999999994</ele><time>2026-03-25T11:44:52.184Z</time></trkpt><trkpt lat="44.1492423" lon="10.3725164"><ele>471.0</ele><time>2026-03-25T11:44:56.189Z</time></trkpt><trkpt lat="44.1492227" lon="10.3726095"><ele>472.99999999999994</ele><time>2026-03-25T11:45:00.19Z</time></trkpt><trkpt lat="44.1492077" lon="10.3726991"><ele>474.99999999999994</ele><time>2026-03-25T11:45:04.195Z</time></trkpt><trkpt lat="44.1492018" lon="10.3727977"><ele>477.0</ele><time>2026-03-25T11:45:08.199Z</time></trkpt><trkpt lat="44.1492116" lon="10.3728922"><ele>478.99999999999994</ele><time>2026-03-25T11:45:12.19Z</time></trkpt><trkpt lat="44.1492427" lon="10.3729848"><ele>480.99999999999994</ele><time>2026-03-25T11:45:16.182Z</time></trkpt><trkpt lat="44.1492818" lon="10.3730557"><ele>481.8571428571428</ele><time>2026-03-25T11:45:20.203Z</time></trkpt><trkpt lat="44.1493224" lon="10.373132"><ele>482.71428571428567</ele><time>2026-03-25T11:45:24.177Z</time></trkpt><trkpt lat="44.1493622" lon="10.3732168"><ele>483.57142857142856</ele><time>2026-03-25T11:45:28.179Z</time></trkpt><trkpt lat="44.1494048" lon="10.3732854"><ele>484.4285714285714</ele><time>2026-03-25T11:45:32.186Z</time></trkpt><trkpt lat="44.1494408" lon="10.3733644"><ele>485.2857142857142</ele><time>2026-03-25T11:45:36.174Z</time></trkpt><trkpt lat="44.1494895" lon="10.3734373"><ele>486.14285714285717</ele><time>2026-03-25T11:45:40.184Z</time></trkpt><trkpt lat="44.1495304" lon="10.3735189"><ele>487.0</ele><time>2026-03-25T11:45:44.193Z</time></trkpt><trkpt lat="44.1495657" lon="10.3736007"><ele>487.0</ele><time>2026-03-25T11:45:48.178Z</time></trkpt><trkpt lat="44.1496045" lon="10.3736898"><ele>487.0</ele><time>2026-03-25T11:45:52.181Z</time></trkpt><trkpt lat="44.1496385" lon="10.3737905"><ele>487.0</ele><time>2026-03-25T11:45:57.178Z</time></trkpt><trkpt lat="44.149674" lon="10.3738683"><ele>487.0</ele><time>2026-03-25T11:46:01.192Z</time></trkpt><trkpt lat="44.149721" lon="10.3739557"><ele>487.0</ele><time>2026-03-25T11:46:06.186Z</time></trkpt><trkpt lat="44.1497649" lon="10.3740223"><ele>487.0</ele><time>2026-03-25T11:46:10.181Z</time></trkpt><trkpt lat="44.1498167" lon="10.3740906"><ele>487.0</ele><time>2026-03-25T11:46:14.184Z</time></trkpt><trkpt lat="44.1498654" lon="10.3741622"><ele>490.14285714285717</ele><time>2026-03-25T11:46:18.174Z</time></trkpt><trkpt lat="44.1499263" lon="10.3742287"><ele>493.2857142857142</ele><time>2026-03-25T11:46:23.19Z</time></trkpt><trkpt lat="44.149989" lon="10.3742475"><ele>496.4285714285714</ele><time>2026-03-25T11:46:27.183Z</time></trkpt><trkpt lat="44.1500572" lon="10.3742549"><ele>499.57142857142856</ele><time>2026-03-25T11:46:31.192Z</time></trkpt><trkpt lat="44.1501217" lon="10.3742535"><ele>502.71428571428567</ele><time>2026-03-25T11:46:35.192Z</time></trkpt><trkpt lat="44.1501866" lon="10.3742287"><ele>505.8571428571428</ele><time>2026-03-25T11:46:39.18Z</time></trkpt><trkpt lat="44.150261" lon="10.3742118"><ele>508.99999999999994</ele><time>2026-03-25T11:46:44.186Z</time></trkpt><trkpt lat="44.1503308" lon="10.3742356"><ele>508.99999999999994</ele><time>2026-03-25T11:46:48.194Z</time></trkpt><trkpt lat="44.1503937" lon="10.3742738"><ele>509.0</ele><time>2026-03-25T11:46:52.19Z</time></trkpt><trkpt lat="44.150456" lon="10.3743029"><ele>508.99999999999994</ele><time>2026-03-25T11:46:55.18Z</time></trkpt><trkpt lat="44.1505301" lon="10.3743312"><ele>508.99999999999994</ele><time>2026-03-25T11:46:59.183Z</time></trkpt><trkpt lat="44.1505956" lon="10.3743571"><ele>509.0</ele><time>2026-03-25T11:47:02.182Z</time></trkpt><trkpt lat="44.150669" lon="10.374398"><ele>508.99999999999994</ele><time>2026-03-25T11:47:06.197Z</time></trkpt><trkpt lat="44.1507344" lon="10.374456"><ele>508.99999999999994</ele><time>2026-03-25T11:47:10.187Z</time></trkpt><trkpt lat="44.150784" lon="10.3745266"><ele>509.49999999999994</ele><time>2026-03-25T11:47:14.189Z</time></trkpt><trkpt lat="44.1508188" lon="10.3746247"><ele>510.0</ele><time>2026-03-25T11:47:18.183Z</time></trkpt><trkpt lat="44.150864" lon="10.374711"><ele>510.5</ele><time>2026-03-25T11:47:22.199Z</time></trkpt><trkpt lat="44.1509137" lon="10.3748009"><ele>511.0</ele><time>2026-03-25T11:47:26.193Z</time></trkpt><trkpt lat="44.150962" lon="10.3748978"><ele>511.49999999999994</ele><time>2026-03-25T11:47:30.193Z</time></trkpt><trkpt lat="44.1510056" lon="10.3749627"><ele>512.0</ele><time>2026-03-25T11:47:33.182Z</time></trkpt><trkpt lat="44.1510772" lon="10.3750156"><ele>511.99999999999994</ele><time>2026-03-25T11:47:37.189Z</time></trkpt><trkpt lat="44.1511464" lon="10.3750621"><ele>512.0</ele><time>2026-03-25T11:47:41.178Z</time></trkpt><trkpt lat="44.1512161" lon="10.3751144"><ele>512.0</ele><time>2026-03-25T11:47:45.187Z</time></trkpt><trkpt lat="44.1512867" lon="10.3751667"><ele>512.0</ele><time>2026-03-25T11:47:49.19Z</time></trkpt><trkpt lat="44.1513583" lon="10.375215"><ele>511.99999999999994</ele><time>2026-03-25T11:47:53.185Z</time></trkpt><trkpt lat="44.1514316" lon="10.3752566"><ele>512.0</ele><time>2026-03-25T11:47:57.192Z</time></trkpt><trkpt lat="44.1515117" lon="10.3752855"><ele>511.3333333333333</ele><time>2026-03-25T11:48:01.194Z</time></trkpt><trkpt lat="44.1515734" lon="10.3753184"><ele>510.66666666666663</ele><time>2026-03-25T11:48:04.187Z</time></trkpt><trkpt lat="44.1516222" lon="10.3753959"><ele>510.0</ele><time>2026-03-25T11:48:08.196Z</time></trkpt><trkpt lat="44.1516149" lon="10.3754952"><ele>509.33333333333337</ele><time>2026-03-25T11:48:12.187Z</time></trkpt><trkpt lat="44.1515716" lon="10.3755888"><ele>508.6666666666667</ele><time>2026-03-25T11:48:16.185Z</time></trkpt><trkpt lat="44.1515283" lon="10.375688"><ele>508.0</ele><time>2026-03-25T11:48:21.182Z</time></trkpt><trkpt lat="44.1514908" lon="10.3757789"><ele>508.0</ele><time>2026-03-25T11:48:25.186Z</time></trkpt><trkpt lat="44.1514322" lon="10.3758565"><ele>508.0</ele><time>2026-03-25T11:48:29.183Z</time></trkpt><trkpt lat="44.1513854" lon="10.3759179"><ele>508.0</ele><time>2026-03-25T11:48:32.189Z</time></trkpt><trkpt lat="44.151354" lon="10.3759998"><ele>508.0</ele><time>2026-03-25T11:48:36.184Z</time></trkpt><trkpt lat="44.151346" lon="10.3760995"><ele>508.0</ele><time>2026-03-25T11:48:40.179Z</time></trkpt><trkpt lat="44.1513509" lon="10.376217"><ele>508.0</ele><time>2026-03-25T11:48:44.182Z</time></trkpt><trkpt lat="44.15138" lon="10.3763"><ele>508.0</ele><time>2026-03-25T11:48:47.199Z</time></trkpt><trkpt lat="44.151418" lon="10.3763849"><ele>508.28571428571433</ele><time>2026-03-25T11:48:50.193Z</time></trkpt><trkpt lat="44.1514583" lon="10.3764591"><ele>508.57142857142856</ele><time>2026-03-25T11:48:53.181Z</time></trkpt><trkpt lat="44.1514888" lon="10.3765374"><ele>508.8571428571429</ele><time>2026-03-25T11:48:56.182Z</time></trkpt><trkpt lat="44.1515147" lon="10.3766231"><ele>509.14285714285717</ele><time>2026-03-25T11:48:59.195Z</time></trkpt><trkpt lat="44.1515344" lon="10.3767094"><ele>509.42857142857144</ele><time>2026-03-25T11:49:02.203Z</time></trkpt><trkpt lat="44.1515506" lon="10.3768235"><ele>509.7142857142857</ele><time>2026-03-25T11:49:06.191Z</time></trkpt><trkpt lat="44.1515524" lon="10.3769315"><ele>510.0</ele><time>2026-03-25T11:49:10.186Z</time></trkpt><trkpt lat="44.1515414" lon="10.3770376"><ele>510.0</ele><time>2026-03-25T11:49:14.176Z</time></trkpt><trkpt lat="44.1515255" lon="10.3771396"><ele>510.0</ele><time>2026-03-25T11:49:18.189Z</time></trkpt><trkpt lat="44.1515026" lon="10.3772288"><ele>510.0</ele><time>2026-03-25T11:49:22.194Z</time></trkpt><trkpt lat="44.1514726" lon="10.3773212"><ele>510.0</ele><time>2026-03-25T11:49:26.192Z</time></trkpt><trkpt lat="44.1514519" lon="10.3774299"><ele>510.0</ele><time>2026-03-25T11:49:30.197Z</time></trkpt><trkpt lat="44.1514551" lon="10.3775431"><ele>510.0</ele><time>2026-03-25T11:49:34.191Z</time></trkpt><trkpt lat="44.1514847" lon="10.3776455"><ele>509.14285714285717</ele><time>2026-03-25T11:49:38.191Z</time></trkpt><trkpt lat="44.1515304" lon="10.3777103"><ele>508.28571428571433</ele><time>2026-03-25T11:49:41.185Z</time></trkpt><trkpt lat="44.1515914" lon="10.3777729"><ele>507.42857142857144</ele><time>2026-03-25T11:49:45.194Z</time></trkpt><trkpt lat="44.1516526" lon="10.3778222"><ele>506.57142857142856</ele><time>2026-03-25T11:49:49.196Z</time></trkpt><trkpt lat="44.1517234" lon="10.3778439"><ele>505.7142857142857</ele><time>2026-03-25T11:49:53.186Z</time></trkpt><trkpt lat="44.1517983" lon="10.3778318"><ele>504.8571428571429</ele><time>2026-03-25T11:49:58.193Z</time></trkpt><trkpt lat="44.1518696" lon="10.3777971"><ele>504.0</ele><time>2026-03-25T11:50:04.193Z</time></trkpt><trkpt lat="44.1519316" lon="10.3777483"><ele>506.2857142857143</ele><time>2026-03-25T11:50:08.192Z</time></trkpt><trkpt lat="44.151982" lon="10.3776727"><ele>508.57142857142856</ele><time>2026-03-25T11:50:12.182Z</time></trkpt><trkpt lat="44.1520376" lon="10.3775941"><ele>510.8571428571429</ele><time>2026-03-25T11:50:17.189Z</time></trkpt><trkpt lat="44.1521066" lon="10.37755"><ele>513.1428571428571</ele><time>2026-03-25T11:50:21.211Z</time></trkpt><trkpt lat="44.1521641" lon="10.3775116"><ele>515.4285714285714</ele><time>2026-03-25T11:50:24.177Z</time></trkpt><trkpt lat="44.1522311" lon="10.3774534"><ele>517.7142857142858</ele><time>2026-03-25T11:50:28.205Z</time></trkpt><trkpt lat="44.1522665" lon="10.3773717"><ele>520.0</ele><time>2026-03-25T11:50:32.199Z</time></trkpt><trkpt lat="44.1522478" lon="10.3772725"><ele>521.2857142857143</ele><time>2026-03-25T11:50:38.169Z</time></trkpt><trkpt lat="44.1522415" lon="10.3771791"><ele>522.5714285714286</ele><time>2026-03-25T11:50:42.07Z</time></trkpt><trkpt lat="44.1522726" lon="10.3770812"><ele>523.8571428571429</ele><time>2026-03-25T11:50:45.184Z</time></trkpt><trkpt lat="44.1522993" lon="10.3769916"><ele>525.1428571428571</ele><time>2026-03-25T11:50:48.199Z</time></trkpt><trkpt lat="44.1523414" lon="10.3769155"><ele>526.4285714285714</ele><time>2026-03-25T11:50:52.181Z</time></trkpt><trkpt lat="44.1523798" lon="10.3768336"><ele>527.7142857142858</ele><time>2026-03-25T11:50:57.189Z</time></trkpt><trkpt lat="44.1523967" lon="10.3767344"><ele>529.0</ele><time>2026-03-25T11:51:03.182Z</time></trkpt><trkpt lat="44.1523968" lon="10.3766329"><ele>530.2857142857143</ele><time>2026-03-25T11:51:08.192Z</time></trkpt><trkpt lat="44.1524004" lon="10.3765278"><ele>531.5714285714286</ele><time>2026-03-25T11:51:13.181Z</time></trkpt><trkpt lat="44.1523948" lon="10.3764244"><ele>532.8571428571429</ele><time>2026-03-25T11:51:18.183Z</time></trkpt><trkpt lat="44.152398" lon="10.376328"><ele>534.1428571428571</ele><time>2026-03-25T11:51:22.191Z</time></trkpt><trkpt lat="44.1523878" lon="10.3762297"><ele>535.4285714285714</ele><time>2026-03-25T11:51:27.182Z</time></trkpt><trkpt lat="44.1524078" lon="10.37613"><ele>536.7142857142858</ele><time>2026-03-25T11:51:32.198Z</time></trkpt><trkpt lat="44.1524339" lon="10.3760386"><ele>538.0</ele><time>2026-03-25T11:51:37.177Z</time></trkpt><trkpt lat="44.1524692" lon="10.3759533"><ele>539.4285714285714</ele><time>2026-03-25T11:51:41.193Z</time></trkpt><trkpt lat="44.152505" lon="10.3758555"><ele>540.8571428571429</ele><time>2026-03-25T11:51:46.185Z</time></trkpt><trkpt lat="44.1525427" lon="10.3757619"><ele>542.2857142857143</ele><time>2026-03-25T11:51:50.192Z</time></trkpt><trkpt lat="44.1525786" lon="10.3756702"><ele>543.7142857142858</ele><time>2026-03-25T11:51:55.18Z</time></trkpt><trkpt lat="44.1526032" lon="10.3755778"><ele>545.1428571428571</ele><time>2026-03-25T11:51:59.194Z</time></trkpt><trkpt lat="44.1526206" lon="10.3754908"><ele>546.5714285714287</ele><time>2026-03-25T11:52:03.182Z</time></trkpt><trkpt lat="44.1526309" lon="10.375388"><ele>548.0</ele><time>2026-03-25T11:52:08.18Z</time></trkpt><trkpt lat="44.1526424" lon="10.3752803"><ele>549.2857142857143</ele><time>2026-03-25T11:52:13.183Z</time></trkpt><trkpt lat="44.1526374" lon="10.3751701"><ele>550.5714285714286</ele><time>2026-03-25T11:52:17.185Z</time></trkpt><trkpt lat="44.1526263" lon="10.3750705"><ele>551.8571428571429</ele><time>2026-03-25T11:52:21.16Z</time></trkpt><trkpt lat="44.1526133" lon="10.374979"><ele>553.1428571428571</ele><time>2026-03-25T11:52:24.194Z</time></trkpt><trkpt lat="44.152604" lon="10.3748637"><ele>554.4285714285714</ele><time>2026-03-25T11:52:28.19Z</time></trkpt><trkpt lat="44.1525961" lon="10.3747555"><ele>555.7142857142858</ele><time>2026-03-25T11:52:32.152Z</time></trkpt><trkpt lat="44.152591" lon="10.3746627"><ele>557.0</ele><time>2026-03-25T11:52:35.187Z</time></trkpt><trkpt lat="44.1525786" lon="10.3745525"><ele>556.2857142857143</ele><time>2026-03-25T11:52:39.196Z</time></trkpt><trkpt lat="44.1525683" lon="10.3744632"><ele>555.5714285714286</ele><time>2026-03-25T11:52:43.195Z</time></trkpt><trkpt lat="44.1525291" lon="10.3743702"><ele>554.8571428571429</ele><time>2026-03-25T11:52:47.198Z</time></trkpt><trkpt lat="44.1524713" lon="10.3742928"><ele>554.1428571428571</ele><time>2026-03-25T11:52:51.185Z</time></trkpt><trkpt lat="44.152407" lon="10.3742452"><ele>553.4285714285714</ele><time>2026-03-25T11:52:55.187Z</time></trkpt><trkpt lat="44.1523428" lon="10.3741849"><ele>552.7142857142858</ele><time>2026-03-25T11:53:00.185Z</time></trkpt><trkpt lat="44.1523094" lon="10.3740958"><ele>552.0</ele><time>2026-03-25T11:53:04.184Z</time></trkpt><trkpt lat="44.1522697" lon="10.3740166"><ele>552.0</ele><time>2026-03-25T11:53:08.192Z</time></trkpt><trkpt lat="44.1522257" lon="10.3739412"><ele>552.0</ele><time>2026-03-25T11:53:12.175Z</time></trkpt><trkpt lat="44.1521674" lon="10.3738853"><ele>552.0</ele><time>2026-03-25T11:53:16.179Z</time></trkpt><trkpt lat="44.1520831" lon="10.3738551"><ele>552.0</ele><time>2026-03-25T11:53:19.189Z</time></trkpt><trkpt lat="44.1520041" lon="10.3738322"><ele>552.0</ele><time>2026-03-25T11:53:22.181Z</time></trkpt><trkpt lat="44.1519285" lon="10.3737846"><ele>552.0</ele><time>2026-03-25T11:53:25.178Z</time></trkpt><trkpt lat="44.1518763" lon="10.3737084"><ele>554.4285714285714</ele><time>2026-03-25T11:53:28.182Z</time></trkpt><trkpt lat="44.1518348" lon="10.373623"><ele>556.8571428571429</ele><time>2026-03-25T11:53:31.177Z</time></trkpt><trkpt lat="44.1517979" lon="10.3735285"><ele>559.2857142857143</ele><time>2026-03-25T11:53:34.201Z</time></trkpt><trkpt lat="44.1517809" lon="10.373433"><ele>561.7142857142858</ele><time>2026-03-25T11:53:38.194Z</time></trkpt><trkpt lat="44.1517541" lon="10.3733447"><ele>564.1428571428571</ele><time>2026-03-25T11:53:42.199Z</time></trkpt><trkpt lat="44.1517543" lon="10.3732534"><ele>566.5714285714287</ele><time>2026-03-25T11:53:46.189Z</time></trkpt><trkpt lat="44.1518216" lon="10.3732511"><ele>569.0</ele><time>2026-03-25T11:53:50.183Z</time></trkpt><trkpt lat="44.1518644" lon="10.3733267"><ele>569.0000000000001</ele><time>2026-03-25T11:53:54.186Z</time></trkpt><trkpt lat="44.1519091" lon="10.3733899"><ele>569.0</ele><time>2026-03-25T11:53:58.183Z</time></trkpt><trkpt lat="44.1519753" lon="10.3734188"><ele>569.0</ele><time>2026-03-25T11:54:03.189Z</time></trkpt><trkpt lat="44.1520546" lon="10.3734349"><ele>569.0</ele><time>2026-03-25T11:54:08.175Z</time></trkpt><trkpt lat="44.1521201" lon="10.3734042"><ele>569.0</ele><time>2026-03-25T11:54:12.192Z</time></trkpt><trkpt lat="44.1521827" lon="10.3733558"><ele>569.0000000000001</ele><time>2026-03-25T11:54:16.189Z</time></trkpt><trkpt lat="44.1522447" lon="10.3733333"><ele>569.0</ele><time>2026-03-25T11:54:19.189Z</time></trkpt><trkpt lat="44.1523238" lon="10.3733286"><ele>571.5</ele><time>2026-03-25T11:54:23.179Z</time></trkpt><trkpt lat="44.1523918" lon="10.3733924"><ele>574.0</ele><time>2026-03-25T11:54:27.194Z</time></trkpt><trkpt lat="44.1524409" lon="10.3734711"><ele>576.5</ele><time>2026-03-25T11:54:31.191Z</time></trkpt><trkpt lat="44.1525039" lon="10.3735417"><ele>579.0</ele><time>2026-03-25T11:54:35.186Z</time></trkpt><trkpt lat="44.1525797" lon="10.3735898"><ele>581.5</ele><time>2026-03-25T11:54:39.186Z</time></trkpt><trkpt lat="44.1526492" lon="10.3736048"><ele>584.0</ele><time>2026-03-25T11:54:44.182Z</time></trkpt><trkpt lat="44.1527251" lon="10.3736174"><ele>584.0</ele><time>2026-03-25T11:54:49.179Z</time></trkpt><trkpt lat="44.1527902" lon="10.373616"><ele>584.0</ele><time>2026-03-25T11:54:53.191Z</time></trkpt><trkpt lat="44.1528572" lon="10.3736012"><ele>584.0</ele><time>2026-03-25T11:54:58.182Z</time></trkpt><trkpt lat="44.1529222" lon="10.373574"><ele>584.0</ele><time>2026-03-25T11:55:02.182Z</time></trkpt><trkpt lat="44.1529886" lon="10.37353"><ele>584.0</ele><time>2026-03-25T11:55:06.19Z</time></trkpt><trkpt lat="44.1530659" lon="10.3735055"><ele>584.0</ele><time>2026-03-25T11:55:11.182Z</time></trkpt><trkpt lat="44.1531459" lon="10.37348"><ele>584.0</ele><time>2026-03-25T11:55:15.189Z</time></trkpt><trkpt lat="44.1532118" lon="10.3734655"><ele>585.1428571428571</ele><time>2026-03-25T11:55:18.177Z</time></trkpt><trkpt lat="44.1532807" lon="10.3734382"><ele>586.2857142857143</ele><time>2026-03-25T11:55:22.198Z</time></trkpt><trkpt lat="44.153343" lon="10.3734112"><ele>587.4285714285714</ele><time>2026-03-25T11:55:25.191Z</time></trkpt><trkpt lat="44.1534163" lon="10.3733814"><ele>588.5714285714286</ele><time>2026-03-25T11:55:29.183Z</time></trkpt><trkpt lat="44.1534845" lon="10.373348"><ele>589.7142857142857</ele><time>2026-03-25T11:55:33.178Z</time></trkpt><trkpt lat="44.1535434" lon="10.3732817"><ele>590.8571428571429</ele><time>2026-03-25T11:55:37.177Z</time></trkpt><trkpt lat="44.1536038" lon="10.3732365"><ele>592.0</ele><time>2026-03-25T11:55:41.181Z</time></trkpt><trkpt lat="44.1536547" lon="10.3731708"><ele>592.0</ele><time>2026-03-25T11:55:45.191Z</time></trkpt><trkpt lat="44.1536931" lon="10.373089"><ele>592.0</ele><time>2026-03-25T11:55:49.182Z</time></trkpt><trkpt lat="44.153737" lon="10.373023"><ele>592.0</ele><time>2026-03-25T11:55:53.194Z</time></trkpt><trkpt lat="44.1537936" lon="10.3729561"><ele>592.0</ele><time>2026-03-25T11:55:57.186Z</time></trkpt><trkpt lat="44.1538475" lon="10.3729063"><ele>592.0</ele><time>2026-03-25T11:56:01.188Z</time></trkpt><trkpt lat="44.1539169" lon="10.3728743"><ele>592.0</ele><time>2026-03-25T11:56:05.191Z</time></trkpt><trkpt lat="44.1539799" lon="10.3728357"><ele>592.0</ele><time>2026-03-25T11:56:09.182Z</time></trkpt><trkpt lat="44.1540428" lon="10.3727881"><ele>593.2857142857143</ele><time>2026-03-25T11:56:13.193Z</time></trkpt><trkpt lat="44.1541122" lon="10.3727364"><ele>594.5714285714286</ele><time>2026-03-25T11:56:18.181Z</time></trkpt><trkpt lat="44.1541677" lon="10.3726711"><ele>595.8571428571429</ele><time>2026-03-25T11:56:22.18Z</time></trkpt><trkpt lat="44.1542196" lon="10.3726085"><ele>597.1428571428571</ele><time>2026-03-25T11:56:26.179Z</time></trkpt><trkpt lat="44.1542593" lon="10.3725328"><ele>598.4285714285714</ele><time>2026-03-25T11:56:30.177Z</time></trkpt><trkpt lat="44.1543034" lon="10.3724528"><ele>599.7142857142857</ele><time>2026-03-25T11:56:34.193Z</time></trkpt><trkpt lat="44.1543311" lon="10.3723642"><ele>601.0</ele><time>2026-03-25T11:56:39.183Z</time></trkpt><trkpt lat="44.154361" lon="10.3722866"><ele>601.0</ele><time>2026-03-25T11:56:43.189Z</time></trkpt><trkpt lat="44.15438" lon="10.3722026"><ele>601.0</ele><time>2026-03-25T11:56:47.195Z</time></trkpt><trkpt lat="44.154409" lon="10.3721138"><ele>601.0</ele><time>2026-03-25T11:56:52.178Z</time></trkpt><trkpt lat="44.1544525" lon="10.3720284"><ele>601.0</ele><time>2026-03-25T11:56:56.184Z</time></trkpt><trkpt lat="44.1545106" lon="10.3719632"><ele>601.0</ele><time>2026-03-25T11:57:00.193Z</time></trkpt><trkpt lat="44.1545762" lon="10.3719403"><ele>601.0</ele><time>2026-03-25T11:57:04.202Z</time></trkpt><trkpt lat="44.1546419" lon="10.3719932"><ele>601.0</ele><time>2026-03-25T11:57:09.191Z</time></trkpt><trkpt lat="44.1546963" lon="10.3720518"><ele>601.0</ele><time>2026-03-25T11:57:14.186Z</time></trkpt><trkpt lat="44.15475" lon="10.3721147"><ele>601.0</ele><time>2026-03-25T11:57:19.197Z</time></trkpt><trkpt lat="44.1548016" lon="10.3721769"><ele>601.0</ele><time>2026-03-25T11:57:24.191Z</time></trkpt><trkpt lat="44.1548566" lon="10.3722376"><ele>601.0</ele><time>2026-03-25T11:57:29.196Z</time></trkpt><trkpt lat="44.1549152" lon="10.3722969"><ele>601.0</ele><time>2026-03-25T11:57:34.177Z</time></trkpt><trkpt lat="44.1549809" lon="10.3723454"><ele>601.0</ele><time>2026-03-25T11:57:39.188Z</time></trkpt><trkpt lat="44.1550525" lon="10.3723791"><ele>601.0</ele><time>2026-03-25T11:57:45.186Z</time></trkpt><trkpt lat="44.155116" lon="10.3724231"><ele>602.8571428571428</ele><time>2026-03-25T11:57:49.185Z</time></trkpt><trkpt lat="44.1551743" lon="10.3724622"><ele>604.7142857142858</ele><time>2026-03-25T11:57:53.194Z</time></trkpt><trkpt lat="44.1552345" lon="10.3725079"><ele>606.5714285714286</ele><time>2026-03-25T11:57:58.179Z</time></trkpt><trkpt lat="44.1552975" lon="10.3725591"><ele>608.4285714285713</ele><time>2026-03-25T11:58:03.181Z</time></trkpt><trkpt lat="44.155366" lon="10.3726088"><ele>610.2857142857142</ele><time>2026-03-25T11:58:07.189Z</time></trkpt><trkpt lat="44.1554311" lon="10.372646"><ele>612.1428571428571</ele><time>2026-03-25T11:58:10.175Z</time></trkpt><trkpt lat="44.1554967" lon="10.372704"><ele>614.0</ele><time>2026-03-25T11:58:15.196Z</time></trkpt><trkpt lat="44.1555484" lon="10.3727696"><ele>613.9999999999999</ele><time>2026-03-25T11:58:20.193Z</time></trkpt><trkpt lat="44.1555792" lon="10.3728482"><ele>614.0</ele><time>2026-03-25T11:58:25.185Z</time></trkpt><trkpt lat="44.1555826" lon="10.372944"><ele>614.0</ele><time>2026-03-25T11:58:31.19Z</time></trkpt><trkpt lat="44.1555909" lon="10.3730449"><ele>614.0</ele><time>2026-03-25T11:58:36.181Z</time></trkpt><trkpt lat="44.1556323" lon="10.3731283"><ele>614.0</ele><time>2026-03-25T11:58:40.18Z</time></trkpt><trkpt lat="44.1556742" lon="10.3731952"><ele>613.9999999999999</ele><time>2026-03-25T11:58:44.186Z</time></trkpt><trkpt lat="44.155719" lon="10.3732591"><ele>614.0</ele><time>2026-03-25T11:58:48.186Z</time></trkpt><trkpt lat="44.1557731" lon="10.3733314"><ele>614.4285714285713</ele><time>2026-03-25T11:58:53.186Z</time></trkpt><trkpt lat="44.155829" lon="10.3733798"><ele>614.8571428571429</ele><time>2026-03-25T11:58:58.181Z</time></trkpt><trkpt lat="44.1558999" lon="10.3734358"><ele>615.2857142857142</ele><time>2026-03-25T11:59:02.194Z</time></trkpt><trkpt lat="44.1559719" lon="10.3734604"><ele>615.7142857142857</ele><time>2026-03-25T11:59:07.181Z</time></trkpt><trkpt lat="44.1560354" lon="10.373465"><ele>616.1428571428571</ele><time>2026-03-25T11:59:12.192Z</time></trkpt><trkpt lat="44.1561044" lon="10.3734164"><ele>616.5714285714286</ele><time>2026-03-25T11:59:18.188Z</time></trkpt><trkpt lat="44.156157" lon="10.373348"><ele>617.0</ele><time>2026-03-25T11:59:22.191Z</time></trkpt><trkpt lat="44.1562056" lon="10.3732749"><ele>617.0</ele><time>2026-03-25T11:59:27.183Z</time></trkpt><trkpt lat="44.1562589" lon="10.3732256"><ele>617.0</ele><time>2026-03-25T11:59:31.188Z</time></trkpt><trkpt lat="44.1562932" lon="10.3731459"><ele>617.0</ele><time>2026-03-25T11:59:35.18Z</time></trkpt><trkpt lat="44.1563355" lon="10.3730532"><ele>617.0</ele><time>2026-03-25T11:59:40.187Z</time></trkpt><trkpt lat="44.1563901" lon="10.3729819"><ele>617.0</ele><time>2026-03-25T11:59:45.188Z</time></trkpt><trkpt lat="44.1564425" lon="10.3729118"><ele>617.0</ele><time>2026-03-25T11:59:50.185Z</time></trkpt><trkpt lat="44.1564996" lon="10.3728483"><ele>617.0</ele><time>2026-03-25T11:59:56.184Z</time></trkpt><trkpt lat="44.1565561" lon="10.3727964"><ele>618.5714285714286</ele><time>2026-03-25T12:00:00.189Z</time></trkpt><trkpt lat="44.1566192" lon="10.3727649"><ele>620.1428571428571</ele><time>2026-03-25T12:00:04.185Z</time></trkpt><trkpt lat="44.156691" lon="10.3727639"><ele>621.7142857142857</ele><time>2026-03-25T12:00:09.188Z</time></trkpt><trkpt lat="44.1567632" lon="10.3727711"><ele>623.2857142857142</ele><time>2026-03-25T12:00:14.195Z</time></trkpt><trkpt lat="44.1568333" lon="10.37278"><ele>624.8571428571429</ele><time>2026-03-25T12:00:18.2Z</time></trkpt><trkpt lat="44.1568974" lon="10.3727795"><ele>626.4285714285713</ele><time>2026-03-25T12:00:22.187Z</time></trkpt><trkpt lat="44.1569713" lon="10.3727667"><ele>628.0</ele><time>2026-03-25T12:00:27.179Z</time></trkpt><trkpt lat="44.1570418" lon="10.3727746"><ele>627.9999999999999</ele><time>2026-03-25T12:00:31.183Z</time></trkpt><trkpt lat="44.1571136" lon="10.372783"><ele>628.0</ele><time>2026-03-25T12:00:35.19Z</time></trkpt><trkpt lat="44.1571775" lon="10.372783"><ele>628.0</ele><time>2026-03-25T12:00:38.183Z</time></trkpt><trkpt lat="44.1572432" lon="10.372795"><ele>628.0</ele><time>2026-03-25T12:00:43.189Z</time></trkpt><trkpt lat="44.1573063" lon="10.3728037"><ele>628.0</ele><time>2026-03-25T12:00:48.189Z</time></trkpt><trkpt lat="44.1573704" lon="10.3728348"><ele>627.9999999999999</ele><time>2026-03-25T12:00:53.183Z</time></trkpt><trkpt lat="44.1574411" lon="10.3728656"><ele>628.0</ele><time>2026-03-25T12:00:56.179Z</time></trkpt><trkpt lat="44.1575204" lon="10.3729065"><ele>628.4285714285713</ele><time>2026-03-25T12:00:59.194Z</time></trkpt><trkpt lat="44.1575938" lon="10.3729647"><ele>628.8571428571429</ele><time>2026-03-25T12:01:04.188Z</time></trkpt><trkpt lat="44.1576685" lon="10.3729979"><ele>629.2857142857142</ele><time>2026-03-25T12:01:08.181Z</time></trkpt><trkpt lat="44.1577419" lon="10.3730123"><ele>629.7142857142857</ele><time>2026-03-25T12:01:12.186Z</time></trkpt><trkpt lat="44.1578074" lon="10.3730143"><ele>630.1428571428571</ele><time>2026-03-25T12:01:16.199Z</time></trkpt><trkpt lat="44.1578837" lon="10.3730285"><ele>630.5714285714286</ele><time>2026-03-25T12:01:21.187Z</time></trkpt><trkpt lat="44.1579515" lon="10.3730522"><ele>631.0</ele><time>2026-03-25T12:01:25.182Z</time></trkpt><trkpt lat="44.1580219" lon="10.3730957"><ele>631.8571428571429</ele><time>2026-03-25T12:01:29.187Z</time></trkpt><trkpt lat="44.1580805" lon="10.3731517"><ele>632.7142857142857</ele><time>2026-03-25T12:01:33.192Z</time></trkpt><trkpt lat="44.1581358" lon="10.3732211"><ele>633.5714285714286</ele><time>2026-03-25T12:01:37.181Z</time></trkpt><trkpt lat="44.1581868" lon="10.3732789"><ele>634.4285714285714</ele><time>2026-03-25T12:01:41.181Z</time></trkpt><trkpt lat="44.15823" lon="10.3733503"><ele>635.2857142857142</ele><time>2026-03-25T12:01:45.193Z</time></trkpt><trkpt lat="44.1582699" lon="10.3734296"><ele>636.1428571428571</ele><time>2026-03-25T12:01:50.184Z</time></trkpt><trkpt lat="44.1583051" lon="10.3735095"><ele>637.0</ele><time>2026-03-25T12:01:55.184Z</time></trkpt><trkpt lat="44.1583441" lon="10.3735935"><ele>637.0</ele><time>2026-03-25T12:01:59.185Z</time></trkpt><trkpt lat="44.1583897" lon="10.3736542"><ele>637.0</ele><time>2026-03-25T12:02:02.193Z</time></trkpt><trkpt lat="44.1584372" lon="10.3737144"><ele>637.0</ele><time>2026-03-25T12:02:07.191Z</time></trkpt><trkpt lat="44.1584959" lon="10.3737893"><ele>637.0</ele><time>2026-03-25T12:02:13.206Z</time></trkpt><trkpt lat="44.1585454" lon="10.3738494"><ele>637.0</ele><time>2026-03-25T12:02:16.188Z</time></trkpt><trkpt lat="44.1586079" lon="10.3739195"><ele>637.0</ele><time>2026-03-25T12:02:20.183Z</time></trkpt><trkpt lat="44.1586684" lon="10.3739842"><ele>637.0</ele><time>2026-03-25T12:02:24.189Z</time></trkpt><trkpt lat="44.1587343" lon="10.3740208"><ele>638.5714285714286</ele><time>2026-03-25T12:02:28.191Z</time></trkpt><trkpt lat="44.1588118" lon="10.3740368"><ele>640.1428571428571</ele><time>2026-03-25T12:02:32.18Z</time></trkpt><trkpt lat="44.1588735" lon="10.3740591"><ele>641.7142857142858</ele><time>2026-03-25T12:02:36.188Z</time></trkpt><trkpt lat="44.1589391" lon="10.3740613"><ele>643.2857142857142</ele><time>2026-03-25T12:02:39.181Z</time></trkpt><trkpt lat="44.1590031" lon="10.3740668"><ele>644.8571428571429</ele><time>2026-03-25T12:02:42.191Z</time></trkpt><trkpt lat="44.1590703" lon="10.3740633"><ele>646.4285714285714</ele><time>2026-03-25T12:02:46.188Z</time></trkpt><trkpt lat="44.1591359" lon="10.374039"><ele>648.0</ele><time>2026-03-25T12:02:49.194Z</time></trkpt><trkpt lat="44.1591998" lon="10.3740076"><ele>648.2857142857143</ele><time>2026-03-25T12:02:52.197Z</time></trkpt><trkpt lat="44.1592593" lon="10.3739742"><ele>648.5714285714286</ele><time>2026-03-25T12:02:56.192Z</time></trkpt><trkpt lat="44.1593203" lon="10.3739475"><ele>648.8571428571429</ele><time>2026-03-25T12:02:59.169Z</time></trkpt><trkpt lat="44.1593944" lon="10.37393"><ele>649.1428571428571</ele><time>2026-03-25T12:03:03.184Z</time></trkpt><trkpt lat="44.1594643" lon="10.3739084"><ele>649.4285714285714</ele><time>2026-03-25T12:03:07.184Z</time></trkpt><trkpt lat="44.1595367" lon="10.3738962"><ele>649.7142857142857</ele><time>2026-03-25T12:03:10.188Z</time></trkpt><trkpt lat="44.159598" lon="10.3738655"><ele>650.0</ele><time>2026-03-25T12:03:13.177Z</time></trkpt><trkpt lat="44.159671" lon="10.3738661"><ele>650.0</ele><time>2026-03-25T12:03:19.187Z</time></trkpt><trkpt lat="44.1597423" lon="10.3738857"><ele>650.0</ele><time>2026-03-25T12:03:23.18Z</time></trkpt><trkpt lat="44.1598136" lon="10.3738811"><ele>650.0</ele><time>2026-03-25T12:03:26.198Z</time></trkpt><trkpt lat="44.1598767" lon="10.3738776"><ele>650.0</ele><time>2026-03-25T12:03:29.194Z</time></trkpt><trkpt lat="44.1599526" lon="10.373869"><ele>650.0</ele><time>2026-03-25T12:03:33.186Z</time></trkpt><trkpt lat="44.1600214" lon="10.3738718"><ele>650.0</ele><time>2026-03-25T12:03:36.189Z</time></trkpt><trkpt lat="44.160108" lon="10.3738674"><ele>650.0</ele><time>2026-03-25T12:03:40.205Z</time></trkpt><trkpt lat="44.1601812" lon="10.3738707"><ele>650.0</ele><time>2026-03-25T12:03:43.195Z</time></trkpt><trkpt lat="44.1602515" lon="10.37388"><ele>650.0</ele><time>2026-03-25T12:03:46.201Z</time></trkpt><trkpt lat="44.1603308" lon="10.3738512"><ele>650.0</ele><time>2026-03-25T12:03:49.195Z</time></trkpt><trkpt lat="44.1604105" lon="10.3738191"><ele>650.0</ele><time>2026-03-25T12:03:52.204Z</time></trkpt><trkpt lat="44.1604676" lon="10.3737807"><ele>650.0</ele><time>2026-03-25T12:03:55.194Z</time></trkpt><trkpt lat="44.1605282" lon="10.3737492"><ele>650.0</ele><time>2026-03-25T12:03:59.181Z</time></trkpt><trkpt lat="44.1605824" lon="10.3736835"><ele>650.0</ele><time>2026-03-25T12:04:06.179Z</time></trkpt><trkpt lat="44.1606429" lon="10.3736179"><ele>650.5</ele><time>2026-03-25T12:04:11.175Z</time></trkpt><trkpt lat="44.16069" lon="10.3735581"><ele>651.0</ele><time>2026-03-25T12:04:14.178Z</time></trkpt><trkpt lat="44.16075" lon="10.3734927"><ele>651.5</ele><time>2026-03-25T12:04:19.179Z</time></trkpt><trkpt lat="44.1608143" lon="10.3734236"><ele>652.0</ele><time>2026-03-25T12:04:23.185Z</time></trkpt><trkpt lat="44.1608737" lon="10.3733637"><ele>652.5</ele><time>2026-03-25T12:04:26.181Z</time></trkpt><trkpt lat="44.1609308" lon="10.3732898"><ele>653.0</ele><time>2026-03-25T12:04:29.179Z</time></trkpt><trkpt lat="44.1609923" lon="10.373215"><ele>653.0000000000001</ele><time>2026-03-25T12:04:34.188Z</time></trkpt><trkpt lat="44.1610395" lon="10.3731369"><ele>653.0</ele><time>2026-03-25T12:04:37.186Z</time></trkpt><trkpt lat="44.1610795" lon="10.3730491"><ele>653.0</ele><time>2026-03-25T12:04:40.188Z</time></trkpt><trkpt lat="44.1611461" lon="10.3729619"><ele>653.0</ele><time>2026-03-25T12:04:43.179Z</time></trkpt><trkpt lat="44.1611923" lon="10.3729017"><ele>653.0</ele><time>2026-03-25T12:04:45.198Z</time></trkpt><trkpt lat="44.161243" lon="10.372845"><ele>653.0000000000001</ele><time>2026-03-25T12:04:47.179Z</time></trkpt><trkpt lat="44.1612975" lon="10.3727736"><ele>653.0</ele><time>2026-03-25T12:04:50.189Z</time></trkpt><trkpt lat="44.161356" lon="10.3726959"><ele>653.4285714285714</ele><time>2026-03-25T12:04:53.187Z</time></trkpt><trkpt lat="44.1614155" lon="10.3726181"><ele>653.8571428571429</ele><time>2026-03-25T12:04:56.191Z</time></trkpt><trkpt lat="44.1614723" lon="10.3725393"><ele>654.2857142857142</ele><time>2026-03-25T12:05:00.193Z</time></trkpt><trkpt lat="44.1615102" lon="10.3724661"><ele>654.7142857142858</ele><time>2026-03-25T12:05:02.194Z</time></trkpt><trkpt lat="44.1615599" lon="10.3723782"><ele>655.1428571428571</ele><time>2026-03-25T12:05:05.194Z</time></trkpt><trkpt lat="44.1616018" lon="10.3723064"><ele>655.5714285714286</ele><time>2026-03-25T12:05:08.208Z</time></trkpt><trkpt lat="44.1616483" lon="10.372235"><ele>656.0</ele><time>2026-03-25T12:05:11.193Z</time></trkpt><trkpt lat="44.1617073" lon="10.3721821"><ele>653.5714285714286</ele><time>2026-03-25T12:05:14.188Z</time></trkpt><trkpt lat="44.1617715" lon="10.3721434"><ele>651.1428571428571</ele><time>2026-03-25T12:05:17.186Z</time></trkpt><trkpt lat="44.1618417" lon="10.3720894"><ele>648.7142857142858</ele><time>2026-03-25T12:05:21.199Z</time></trkpt><trkpt lat="44.1619066" lon="10.3720826"><ele>646.2857142857142</ele><time>2026-03-25T12:05:24.2Z</time></trkpt><trkpt lat="44.1619787" lon="10.3720875"><ele>643.8571428571429</ele><time>2026-03-25T12:05:27.203Z</time></trkpt><trkpt lat="44.1620604" lon="10.3720948"><ele>641.4285714285714</ele><time>2026-03-25T12:05:30.183Z</time></trkpt><trkpt lat="44.1621255" lon="10.3720874"><ele>639.0</ele><time>2026-03-25T12:05:32.19Z</time></trkpt><trkpt lat="44.1621914" lon="10.3720771"><ele>639.0000000000001</ele><time>2026-03-25T12:05:34.183Z</time></trkpt><trkpt lat="44.1622597" lon="10.3720746"><ele>639.0</ele><time>2026-03-25T12:05:36.176Z</time></trkpt><trkpt lat="44.1623239" lon="10.3720803"><ele>639.0</ele><time>2026-03-25T12:05:38.188Z</time></trkpt><trkpt lat="44.1624049" lon="10.3720859"><ele>639.0</ele><time>2026-03-25T12:05:40.183Z</time></trkpt><trkpt lat="44.1624802" lon="10.3720971"><ele>639.0</ele><time>2026-03-25T12:05:42.186Z</time></trkpt><trkpt lat="44.162568" lon="10.3721126"><ele>639.0000000000001</ele><time>2026-03-25T12:05:45.183Z</time></trkpt><trkpt lat="44.1626344" lon="10.3721249"><ele>639.0</ele><time>2026-03-25T12:05:49.191Z</time></trkpt><trkpt lat="44.1627067" lon="10.3721317"><ele>639.4285714285714</ele><time>2026-03-25T12:05:53.184Z</time></trkpt><trkpt lat="44.1627875" lon="10.3721368"><ele>639.8571428571429</ele><time>2026-03-25T12:05:57.198Z</time></trkpt><trkpt lat="44.1628517" lon="10.3721164"><ele>640.2857142857142</ele><time>2026-03-25T12:06:00.197Z</time></trkpt><trkpt lat="44.1629268" lon="10.37208"><ele>640.7142857142858</ele><time>2026-03-25T12:06:04.2Z</time></trkpt><trkpt lat="44.163" lon="10.3720836"><ele>641.1428571428571</ele><time>2026-03-25T12:06:07.193Z</time></trkpt><trkpt lat="44.1630763" lon="10.3721165"><ele>641.5714285714286</ele><time>2026-03-25T12:06:10.186Z</time></trkpt><trkpt lat="44.1631322" lon="10.3721738"><ele>642.0</ele><time>2026-03-25T12:06:13.186Z</time></trkpt><trkpt lat="44.1631818" lon="10.3722301"><ele>642.8571428571428</ele><time>2026-03-25T12:06:16.181Z</time></trkpt><trkpt lat="44.1632295" lon="10.372291"><ele>643.7142857142857</ele><time>2026-03-25T12:06:19.184Z</time></trkpt><trkpt lat="44.1632808" lon="10.372343"><ele>644.5714285714286</ele><time>2026-03-25T12:06:22.183Z</time></trkpt><trkpt lat="44.1633425" lon="10.3723889"><ele>645.4285714285713</ele><time>2026-03-25T12:06:25.179Z</time></trkpt><trkpt lat="44.1634039" lon="10.3724387"><ele>646.2857142857142</ele><time>2026-03-25T12:06:28.198Z</time></trkpt><trkpt lat="44.1634657" lon="10.3724896"><ele>647.1428571428571</ele><time>2026-03-25T12:06:31.179Z</time></trkpt><trkpt lat="44.1635283" lon="10.3725404"><ele>648.0</ele><time>2026-03-25T12:06:34.193Z</time></trkpt><trkpt lat="44.1635833" lon="10.3725849"><ele>648.0</ele><time>2026-03-25T12:06:37.193Z</time></trkpt><trkpt lat="44.1636651" lon="10.3726186"><ele>648.0</ele><time>2026-03-25T12:06:41.206Z</time></trkpt><trkpt lat="44.1637258" lon="10.3726533"><ele>648.0</ele><time>2026-03-25T12:06:44.19Z</time></trkpt><trkpt lat="44.1637888" lon="10.37268"><ele>648.0</ele><time>2026-03-25T12:06:47.186Z</time></trkpt><trkpt lat="44.1638595" lon="10.3727162"><ele>648.0</ele><time>2026-03-25T12:06:50.187Z</time></trkpt><trkpt lat="44.1639364" lon="10.372748"><ele>648.0</ele><time>2026-03-25T12:06:53.187Z</time></trkpt><trkpt lat="44.164012" lon="10.3727883"><ele>649.5</ele><time>2026-03-25T12:06:56.183Z</time></trkpt><trkpt lat="44.1640779" lon="10.3728286"><ele>651.0</ele><time>2026-03-25T12:06:59.191Z</time></trkpt><trkpt lat="44.1641559" lon="10.3728726"><ele>652.5</ele><time>2026-03-25T12:07:02.189Z</time></trkpt><trkpt lat="44.164233" lon="10.3729063"><ele>654.0</ele><time>2026-03-25T12:07:05.178Z</time></trkpt><trkpt lat="44.1643203" lon="10.3729162"><ele>655.5</ele><time>2026-03-25T12:07:08.186Z</time></trkpt><trkpt lat="44.1644099" lon="10.3729023"><ele>657.0</ele><time>2026-03-25T12:07:11.195Z</time></trkpt><trkpt lat="44.1645036" lon="10.372893"><ele>657.0</ele><time>2026-03-25T12:07:14.189Z</time></trkpt><trkpt lat="44.1645734" lon="10.3728843"><ele>657.0</ele><time>2026-03-25T12:07:16.178Z</time></trkpt><trkpt lat="44.1646422" lon="10.3728776"><ele>657.0</ele><time>2026-03-25T12:07:18.192Z</time></trkpt><trkpt lat="44.1647187" lon="10.3728635"><ele>657.0</ele><time>2026-03-25T12:07:20.19Z</time></trkpt><trkpt lat="44.164804" lon="10.3728521"><ele>657.0</ele><time>2026-03-25T12:07:22.188Z</time></trkpt><trkpt lat="44.1648813" lon="10.3728317"><ele>657.0</ele><time>2026-03-25T12:07:24.187Z</time></trkpt><trkpt lat="44.1649617" lon="10.3728167"><ele>656.3333333333334</ele><time>2026-03-25T12:07:26.18Z</time></trkpt><trkpt lat="44.1650308" lon="10.3727998"><ele>655.6666666666666</ele><time>2026-03-25T12:07:27.181Z</time></trkpt><trkpt lat="44.1651575" lon="10.3727751"><ele>655.0</ele><time>2026-03-25T12:07:29.196Z</time></trkpt><trkpt lat="44.1652304" lon="10.3727918"><ele>654.3333333333333</ele><time>2026-03-25T12:07:30.178Z</time></trkpt><trkpt lat="44.1653049" lon="10.3728181"><ele>653.6666666666666</ele><time>2026-03-25T12:07:31.184Z</time></trkpt><trkpt lat="44.1653759" lon="10.372872"><ele>653.0</ele><time>2026-03-25T12:07:32.2Z</time></trkpt><trkpt lat="44.1654378" lon="10.3729463"><ele>650.5</ele><time>2026-03-25T12:07:33.187Z</time></trkpt><trkpt lat="44.1654933" lon="10.3730392"><ele>648.0</ele><time>2026-03-25T12:07:34.189Z</time></trkpt><trkpt lat="44.1655409" lon="10.3731457"><ele>645.5</ele><time>2026-03-25T12:07:35.193Z</time></trkpt><trkpt lat="44.1655784" lon="10.3732536"><ele>643.0</ele><time>2026-03-25T12:07:36.19Z</time></trkpt><trkpt lat="44.1656102" lon="10.3733472"><ele>640.5</ele><time>2026-03-25T12:07:37.194Z</time></trkpt><trkpt lat="44.1656315" lon="10.3734322"><ele>638.0</ele><time>2026-03-25T12:07:38.195Z</time></trkpt><trkpt lat="44.1656426" lon="10.3735218"><ele>638.0</ele><time>2026-03-25T12:07:39.186Z</time></trkpt><trkpt lat="44.1656395" lon="10.3736184"><ele>638.0</ele><time>2026-03-25T12:07:40.183Z</time></trkpt><trkpt lat="44.1656234" lon="10.373726"><ele>638.0</ele><time>2026-03-25T12:07:41.178Z</time></trkpt><trkpt lat="44.1656009" lon="10.3738396"><ele>638.0</ele><time>2026-03-25T12:07:42.178Z</time></trkpt><trkpt lat="44.1655828" lon="10.3739658"><ele>638.0</ele><time>2026-03-25T12:07:43.184Z</time></trkpt><trkpt lat="44.1655665" lon="10.3741047"><ele>638.0</ele><time>2026-03-25T12:07:44.182Z</time></trkpt><trkpt lat="44.165555" lon="10.3742545"><ele>636.4</ele><time>2026-03-25T12:07:45.179Z</time></trkpt><trkpt lat="44.1655485" lon="10.3744081"><ele>634.8</ele><time>2026-03-25T12:07:46.178Z</time></trkpt><trkpt lat="44.1655437" lon="10.3745564"><ele>633.2</ele><time>2026-03-25T12:07:47.179Z</time></trkpt><trkpt lat="44.1655408" lon="10.3746987"><ele>631.6</ele><time>2026-03-25T12:07:48.178Z</time></trkpt><trkpt lat="44.1655412" lon="10.3748142"><ele>630.0</ele><time>2026-03-25T12:07:49.182Z</time></trkpt><trkpt lat="44.1655458" lon="10.3749297"><ele>629.8333333333334</ele><time>2026-03-25T12:07:50.184Z</time></trkpt><trkpt lat="44.165555" lon="10.3750422"><ele>629.6666666666666</ele><time>2026-03-25T12:07:51.176Z</time></trkpt><trkpt lat="44.1655733" lon="10.3751516"><ele>629.5</ele><time>2026-03-25T12:07:52.18Z</time></trkpt><trkpt lat="44.1655883" lon="10.3752778"><ele>629.3333333333333</ele><time>2026-03-25T12:07:53.181Z</time></trkpt><trkpt lat="44.1656163" lon="10.3753989"><ele>629.1666666666666</ele><time>2026-03-25T12:07:54.178Z</time></trkpt><trkpt lat="44.1656469" lon="10.3755276"><ele>629.0</ele><time>2026-03-25T12:07:55.181Z</time></trkpt><trkpt lat="44.1656806" lon="10.3756448"><ele>627.5</ele><time>2026-03-25T12:07:56.192Z</time></trkpt><trkpt lat="44.1657291" lon="10.3757557"><ele>626.0</ele><time>2026-03-25T12:07:57.186Z</time></trkpt><trkpt lat="44.1657933" lon="10.3758603"><ele>624.5</ele><time>2026-03-25T12:07:58.186Z</time></trkpt><trkpt lat="44.1658556" lon="10.3759397"><ele>623.0</ele><time>2026-03-25T12:07:59.194Z</time></trkpt><trkpt lat="44.1659084" lon="10.3760116"><ele>621.5</ele><time>2026-03-25T12:08:00.182Z</time></trkpt><trkpt lat="44.1659528" lon="10.3760803"><ele>620.0</ele><time>2026-03-25T12:08:01.204Z</time></trkpt><trkpt lat="44.1660014" lon="10.3762144"><ele>617.8</ele><time>2026-03-25T12:08:03.194Z</time></trkpt><trkpt lat="44.1659398" lon="10.3763639"><ele>615.6</ele><time>2026-03-25T12:08:05.19Z</time></trkpt><trkpt lat="44.1658791" lon="10.3764192"><ele>613.4</ele><time>2026-03-25T12:08:06.194Z</time></trkpt><trkpt lat="44.1658108" lon="10.3764775"><ele>611.2</ele><time>2026-03-25T12:08:07.197Z</time></trkpt><trkpt lat="44.1657431" lon="10.3765469"><ele>609.0</ele><time>2026-03-25T12:08:08.201Z</time></trkpt><trkpt lat="44.1656796" lon="10.3766461"><ele>609.0</ele><time>2026-03-25T12:08:09.199Z</time></trkpt><trkpt lat="44.165613" lon="10.3767551"><ele>609.0</ele><time>2026-03-25T12:08:10.207Z</time></trkpt><trkpt lat="44.1655404" lon="10.3768647"><ele>609.0</ele><time>2026-03-25T12:08:11.195Z</time></trkpt><trkpt lat="44.1654635" lon="10.3769621"><ele>609.0</ele><time>2026-03-25T12:08:12.197Z</time></trkpt><trkpt lat="44.1653766" lon="10.3770519"><ele>609.0</ele><time>2026-03-25T12:08:13.212Z</time></trkpt><trkpt lat="44.1652881" lon="10.3771352"><ele>606.5</ele><time>2026-03-25T12:08:14.194Z</time></trkpt><trkpt lat="44.1652048" lon="10.3772226"><ele>604.0</ele><time>2026-03-25T12:08:15.182Z</time></trkpt><trkpt lat="44.1651171" lon="10.3773091"><ele>601.5</ele><time>2026-03-25T12:08:16.195Z</time></trkpt><trkpt lat="44.1650212" lon="10.3774123"><ele>599.0</ele><time>2026-03-25T12:08:17.195Z</time></trkpt><trkpt lat="44.1649285" lon="10.3775169"><ele>599.2</ele><time>2026-03-25T12:08:18.203Z</time></trkpt><trkpt lat="44.1648365" lon="10.3776136"><ele>599.4</ele><time>2026-03-25T12:08:19.186Z</time></trkpt><trkpt lat="44.1647523" lon="10.3777067"><ele>599.6</ele><time>2026-03-25T12:08:20.186Z</time></trkpt><trkpt lat="44.1646701" lon="10.3777988"><ele>599.8</ele><time>2026-03-25T12:08:21.182Z</time></trkpt><trkpt lat="44.1645951" lon="10.3778743"><ele>600.0</ele><time>2026-03-25T12:08:22.19Z</time></trkpt><trkpt lat="44.1645153" lon="10.3779588"><ele>598.0</ele><time>2026-03-25T12:08:23.198Z</time></trkpt><trkpt lat="44.1644373" lon="10.3780601"><ele>596.0</ele><time>2026-03-25T12:08:24.184Z</time></trkpt><trkpt lat="44.1643686" lon="10.3781818"><ele>594.0</ele><time>2026-03-25T12:08:25.183Z</time></trkpt><trkpt lat="44.164315" lon="10.3783192"><ele>592.0</ele><time>2026-03-25T12:08:26.188Z</time></trkpt><trkpt lat="44.1642733" lon="10.3784727"><ele>590.0</ele><time>2026-03-25T12:08:27.2Z</time></trkpt><trkpt lat="44.1642402" lon="10.3786403"><ele>590.0</ele><time>2026-03-25T12:08:28.192Z</time></trkpt><trkpt lat="44.164222" lon="10.3788107"><ele>590.0</ele><time>2026-03-25T12:08:29.192Z</time></trkpt><trkpt lat="44.1642255" lon="10.3789841"><ele>590.0</ele><time>2026-03-25T12:08:30.19Z</time></trkpt><trkpt lat="44.1642416" lon="10.3791498"><ele>590.0</ele><time>2026-03-25T12:08:31.193Z</time></trkpt><trkpt lat="44.1642617" lon="10.3793143"><ele>589.4</ele><time>2026-03-25T12:08:32.197Z</time></trkpt><trkpt lat="44.1642906" lon="10.3794645"><ele>588.8</ele><time>2026-03-25T12:08:33.193Z</time></trkpt><trkpt lat="44.164336" lon="10.3795937"><ele>588.2</ele><time>2026-03-25T12:08:34.192Z</time></trkpt><trkpt lat="44.164391" lon="10.3797182"><ele>587.6</ele><time>2026-03-25T12:08:35.198Z</time></trkpt><trkpt lat="44.164448" lon="10.3798366"><ele>587.0</ele><time>2026-03-25T12:08:36.189Z</time></trkpt><trkpt lat="44.1645039" lon="10.379953"><ele>586.1666666666666</ele><time>2026-03-25T12:08:37.18Z</time></trkpt><trkpt lat="44.164562" lon="10.3800669"><ele>585.3333333333333</ele><time>2026-03-25T12:08:38.204Z</time></trkpt><trkpt lat="44.1646202" lon="10.3801749"><ele>584.5</ele><time>2026-03-25T12:08:39.187Z</time></trkpt><trkpt lat="44.1646681" lon="10.3802778"><ele>583.6666666666666</ele><time>2026-03-25T12:08:40.196Z</time></trkpt><trkpt lat="44.1647112" lon="10.3803732"><ele>582.8333333333334</ele><time>2026-03-25T12:08:41.194Z</time></trkpt><trkpt lat="44.1647433" lon="10.3804781"><ele>582.0</ele><time>2026-03-25T12:08:42.194Z</time></trkpt><trkpt lat="44.1647629" lon="10.3806014"><ele>580.6666666666666</ele><time>2026-03-25T12:08:43.189Z</time></trkpt><trkpt lat="44.1647709" lon="10.3807319"><ele>579.3333333333334</ele><time>2026-03-25T12:08:44.192Z</time></trkpt><trkpt lat="44.1647751" lon="10.3808544"><ele>578.0</ele><time>2026-03-25T12:08:45.193Z</time></trkpt><trkpt lat="44.1647741" lon="10.3809665"><ele>576.6666666666667</ele><time>2026-03-25T12:08:46.191Z</time></trkpt><trkpt lat="44.1647575" lon="10.3810565"><ele>575.3333333333334</ele><time>2026-03-25T12:08:47.189Z</time></trkpt><trkpt lat="44.1646753" lon="10.3811657"><ele>574.0</ele><time>2026-03-25T12:08:49.202Z</time></trkpt><trkpt lat="44.1646138" lon="10.3811876"><ele>574.0</ele><time>2026-03-25T12:08:50.199Z</time></trkpt><trkpt lat="44.164541" lon="10.3812054"><ele>574.0</ele><time>2026-03-25T12:08:51.187Z</time></trkpt><trkpt lat="44.1644656" lon="10.3812218"><ele>574.0</ele><time>2026-03-25T12:08:52.193Z</time></trkpt><trkpt lat="44.1643972" lon="10.3812421"><ele>574.0</ele><time>2026-03-25T12:08:53.196Z</time></trkpt><trkpt lat="44.1643342" lon="10.3812629"><ele>574.0</ele><time>2026-03-25T12:08:54.192Z</time></trkpt><trkpt lat="44.1642724" lon="10.3812969"><ele>574.0</ele><time>2026-03-25T12:08:55.197Z</time></trkpt><trkpt lat="44.1642138" lon="10.3813601"><ele>574.0</ele><time>2026-03-25T12:08:56.189Z</time></trkpt><trkpt lat="44.1641636" lon="10.3814506"><ele>572.3333333333334</ele><time>2026-03-25T12:08:57.19Z</time></trkpt><trkpt lat="44.1641172" lon="10.3815456"><ele>570.6666666666667</ele><time>2026-03-25T12:08:58.189Z</time></trkpt><trkpt lat="44.1640807" lon="10.3816327"><ele>569.0</ele><time>2026-03-25T12:08:59.19Z</time></trkpt><trkpt lat="44.1640377" lon="10.3817822"><ele>567.3333333333334</ele><time>2026-03-25T12:09:01.193Z</time></trkpt><trkpt lat="44.1640534" lon="10.3818976"><ele>565.6666666666666</ele><time>2026-03-25T12:09:03.196Z</time></trkpt><trkpt lat="44.1641057" lon="10.3820005"><ele>564.0</ele><time>2026-03-25T12:09:05.197Z</time></trkpt><trkpt lat="44.1641681" lon="10.382116"><ele>562.8333333333334</ele><time>2026-03-25T12:09:07.189Z</time></trkpt><trkpt lat="44.1641655" lon="10.3822312"><ele>561.6666666666666</ele><time>2026-03-25T12:09:09.195Z</time></trkpt><trkpt lat="44.164089" lon="10.3822868"><ele>560.5</ele><time>2026-03-25T12:09:11.183Z</time></trkpt><trkpt lat="44.1640277" lon="10.38224"><ele>559.3333333333333</ele><time>2026-03-25T12:09:13.189Z</time></trkpt><trkpt lat="44.1640049" lon="10.3821412"><ele>558.1666666666666</ele><time>2026-03-25T12:09:16.186Z</time></trkpt><trkpt lat="44.1639727" lon="10.3820485"><ele>557.0</ele><time>2026-03-25T12:09:21.191Z</time></trkpt><trkpt lat="44.1639401" lon="10.3819702"><ele>557.0</ele><time>2026-03-25T12:09:25.2Z</time></trkpt><trkpt lat="44.1638524" lon="10.3818936"><ele>557.0</ele><time>2026-03-25T12:09:28.183Z</time></trkpt><trkpt lat="44.1637425" lon="10.3818847"><ele>557.0</ele><time>2026-03-25T12:09:30.177Z</time></trkpt><trkpt lat="44.1636266" lon="10.3819064"><ele>557.0</ele><time>2026-03-25T12:09:32.201Z</time></trkpt><trkpt lat="44.1635161" lon="10.3819493"><ele>557.0</ele><time>2026-03-25T12:09:34.198Z</time></trkpt><trkpt lat="44.1634348" lon="10.3820309"><ele>557.0</ele><time>2026-03-25T12:09:36.199Z</time></trkpt><trkpt lat="44.1634269" lon="10.3821718"><ele>557.0</ele><time>2026-03-25T12:09:38.195Z</time></trkpt><trkpt lat="44.1634467" lon="10.3822565"><ele>557.0</ele><time>2026-03-25T12:09:39.197Z</time></trkpt><trkpt lat="44.1634672" lon="10.3823622"><ele>557.0</ele><time>2026-03-25T12:09:40.185Z</time></trkpt><trkpt lat="44.1634983" lon="10.382467"><ele>557.0</ele><time>2026-03-25T12:09:41.197Z</time></trkpt><trkpt lat="44.1635274" lon="10.3825839"><ele>557.0</ele><time>2026-03-25T12:09:42.191Z</time></trkpt><trkpt lat="44.1635516" lon="10.3826989"><ele>555.5</ele><time>2026-03-25T12:09:43.188Z</time></trkpt><trkpt lat="44.1635689" lon="10.3828101"><ele>554.0</ele><time>2026-03-25T12:09:44.198Z</time></trkpt><trkpt lat="44.163587" lon="10.3829101"><ele>552.5</ele><time>2026-03-25T12:09:45.195Z</time></trkpt><trkpt lat="44.1635983" lon="10.3830108"><ele>551.0</ele><time>2026-03-25T12:09:46.187Z</time></trkpt><trkpt lat="44.1636073" lon="10.383098"><ele>549.5</ele><time>2026-03-25T12:09:47.197Z</time></trkpt><trkpt lat="44.1635914" lon="10.3832445"><ele>548.0</ele><time>2026-03-25T12:09:49.184Z</time></trkpt><trkpt lat="44.1635113" lon="10.3833439"><ele>548.3333333333333</ele><time>2026-03-25T12:09:51.193Z</time></trkpt><trkpt lat="44.1634039" lon="10.3834163"><ele>548.6666666666666</ele><time>2026-03-25T12:09:53.185Z</time></trkpt><trkpt lat="44.1632893" lon="10.3834893"><ele>549.0</ele><time>2026-03-25T12:09:55.181Z</time></trkpt><trkpt lat="44.1632289" lon="10.3835317"><ele>549.3333333333334</ele><time>2026-03-25T12:09:56.199Z</time></trkpt><trkpt lat="44.1631702" lon="10.3835721"><ele>549.6666666666667</ele><time>2026-03-25T12:09:57.18Z</time></trkpt><trkpt lat="44.1631127" lon="10.383624"><ele>550.0</ele><time>2026-03-25T12:09:58.186Z</time></trkpt><trkpt lat="44.1630595" lon="10.3836893"><ele>550.0</ele><time>2026-03-25T12:09:59.186Z</time></trkpt><trkpt lat="44.1630208" lon="10.3837694"><ele>550.0</ele><time>2026-03-25T12:10:00.195Z</time></trkpt><trkpt lat="44.1629928" lon="10.3838587"><ele>550.0</ele><time>2026-03-25T12:10:01.199Z</time></trkpt><trkpt lat="44.1629859" lon="10.383949"><ele>550.0</ele><time>2026-03-25T12:10:02.2Z</time></trkpt><trkpt lat="44.1629917" lon="10.3840548"><ele>550.0</ele><time>2026-03-25T12:10:03.2Z</time></trkpt><trkpt lat="44.1630108" lon="10.3841592"><ele>550.0</ele><time>2026-03-25T12:10:04.188Z</time></trkpt><trkpt lat="44.1630552" lon="10.3842554"><ele>550.0</ele><time>2026-03-25T12:10:05.182Z</time></trkpt><trkpt lat="44.1630984" lon="10.3843731"><ele>547.8</ele><time>2026-03-25T12:10:06.195Z</time></trkpt><trkpt lat="44.1631261" lon="10.3844995"><ele>545.6</ele><time>2026-03-25T12:10:07.187Z</time></trkpt><trkpt lat="44.1631452" lon="10.3846416"><ele>543.4</ele><time>2026-03-25T12:10:08.192Z</time></trkpt><trkpt lat="44.163138" lon="10.3848058"><ele>541.2</ele><time>2026-03-25T12:10:09.186Z</time></trkpt><trkpt lat="44.1631099" lon="10.3849702"><ele>539.0</ele><time>2026-03-25T12:10:10.185Z</time></trkpt><trkpt lat="44.1630651" lon="10.3851357"><ele>537.0</ele><time>2026-03-25T12:10:11.19Z</time></trkpt><trkpt lat="44.1630219" lon="10.3853012"><ele>535.0</ele><time>2026-03-25T12:10:12.196Z</time></trkpt><trkpt lat="44.1629837" lon="10.3854722"><ele>533.0</ele><time>2026-03-25T12:10:13.188Z</time></trkpt><trkpt lat="44.162952" lon="10.3856422"><ele>531.0</ele><time>2026-03-25T12:10:14.192Z</time></trkpt><trkpt lat="44.162926" lon="10.3857897"><ele>529.0</ele><time>2026-03-25T12:10:15.195Z</time></trkpt><trkpt lat="44.1629098" lon="10.3859224"><ele>527.0</ele><time>2026-03-25T12:10:16.205Z</time></trkpt><trkpt lat="44.1628918" lon="10.3860374"><ele>525.0</ele><time>2026-03-25T12:10:17.181Z</time></trkpt><trkpt lat="44.162863" lon="10.3861338"><ele>523.0</ele><time>2026-03-25T12:10:18.195Z</time></trkpt><trkpt lat="44.1628192" lon="10.3862226"><ele>521.0</ele><time>2026-03-25T12:10:19.195Z</time></trkpt><trkpt lat="44.1627616" lon="10.3863014"><ele>519.0</ele><time>2026-03-25T12:10:20.202Z</time></trkpt><trkpt lat="44.1627101" lon="10.3863698"><ele>517.8333333333334</ele><time>2026-03-25T12:10:21.191Z</time></trkpt><trkpt lat="44.1626726" lon="10.3864421"><ele>516.6666666666666</ele><time>2026-03-25T12:10:22.187Z</time></trkpt><trkpt lat="44.1626562" lon="10.3866067"><ele>515.5</ele><time>2026-03-25T12:10:24.191Z</time></trkpt><trkpt lat="44.1626735" lon="10.3866994"><ele>514.3333333333333</ele><time>2026-03-25T12:10:25.184Z</time></trkpt><trkpt lat="44.1626939" lon="10.3868007"><ele>513.1666666666666</ele><time>2026-03-25T12:10:26.194Z</time></trkpt><trkpt lat="44.1627174" lon="10.3869133"><ele>512.0</ele><time>2026-03-25T12:10:27.188Z</time></trkpt><trkpt lat="44.1627393" lon="10.3870311"><ele>511.99999999999994</ele><time>2026-03-25T12:10:28.186Z</time></trkpt><trkpt lat="44.1627711" lon="10.3871414"><ele>512.0</ele><time>2026-03-25T12:10:29.191Z</time></trkpt><trkpt lat="44.1628121" lon="10.3872227"><ele>512.0</ele><time>2026-03-25T12:10:30.189Z</time></trkpt><trkpt lat="44.1628732" lon="10.3872761"><ele>512.0</ele><time>2026-03-25T12:10:31.199Z</time></trkpt><trkpt lat="44.1629362" lon="10.3873069"><ele>511.99999999999994</ele><time>2026-03-25T12:10:32.197Z</time></trkpt><trkpt lat="44.1630182" lon="10.3873208"><ele>512.0</ele><time>2026-03-25T12:10:33.19Z</time></trkpt><trkpt lat="44.1630973" lon="10.3873331"><ele>510.8333333333333</ele><time>2026-03-25T12:10:34.198Z</time></trkpt><trkpt lat="44.163162" lon="10.3873513"><ele>509.66666666666663</ele><time>2026-03-25T12:10:35.198Z</time></trkpt><trkpt lat="44.1632269" lon="10.3873768"><ele>508.5</ele><time>2026-03-25T12:10:36.192Z</time></trkpt><trkpt lat="44.1633111" lon="10.3874958"><ele>507.33333333333337</ele><time>2026-03-25T12:10:38.202Z</time></trkpt><trkpt lat="44.1633083" lon="10.3875967"><ele>506.1666666666667</ele><time>2026-03-25T12:10:39.191Z</time></trkpt><trkpt lat="44.1632994" lon="10.3877673"><ele>505.0</ele><time>2026-03-25T12:10:41.203Z</time></trkpt><trkpt lat="44.1632957" lon="10.3879246"><ele>505.6666666666667</ele><time>2026-03-25T12:10:43.19Z</time></trkpt><trkpt lat="44.163298" lon="10.3880695"><ele>506.33333333333337</ele><time>2026-03-25T12:10:45.199Z</time></trkpt><trkpt lat="44.1632912" lon="10.3881869"><ele>507.0</ele><time>2026-03-25T12:10:47.196Z</time></trkpt><trkpt lat="44.1632623" lon="10.3882813"><ele>507.66666666666663</ele><time>2026-03-25T12:10:49.187Z</time></trkpt><trkpt lat="44.1632146" lon="10.3883618"><ele>508.3333333333333</ele><time>2026-03-25T12:10:53.2Z</time></trkpt><trkpt lat="44.1631698" lon="10.3884324"><ele>509.0</ele><time>2026-03-25T12:10:58.186Z</time></trkpt><trkpt lat="44.1631205" lon="10.3885057"><ele>510.71428571428567</ele><time>2026-03-25T12:11:03.191Z</time></trkpt><trkpt lat="44.163049" lon="10.3885321"><ele>512.4285714285714</ele><time>2026-03-25T12:11:08.202Z</time></trkpt><trkpt lat="44.1629766" lon="10.3885206"><ele>514.1428571428571</ele><time>2026-03-25T12:11:13.199Z</time></trkpt><trkpt lat="44.1629116" lon="10.3885192"><ele>515.8571428571429</ele><time>2026-03-25T12:11:17.182Z</time></trkpt><trkpt lat="44.1628439" lon="10.3885116"><ele>517.5714285714286</ele><time>2026-03-25T12:11:22.186Z</time></trkpt><trkpt lat="44.1627717" lon="10.3884924"><ele>519.2857142857142</ele><time>2026-03-25T12:11:27.191Z</time></trkpt><trkpt lat="44.1627071" lon="10.3884889"><ele>521.0</ele><time>2026-03-25T12:11:31.203Z</time></trkpt><trkpt lat="44.1626407" lon="10.3884809"><ele>521.0</ele><time>2026-03-25T12:11:35.2Z</time></trkpt><trkpt lat="44.1625632" lon="10.3884565"><ele>521.0</ele><time>2026-03-25T12:11:40.212Z</time></trkpt><trkpt lat="44.1625038" lon="10.3884197"><ele>521.0</ele><time>2026-03-25T12:11:44.182Z</time></trkpt><trkpt lat="44.162443" lon="10.3883765"><ele>521.0</ele><time>2026-03-25T12:11:48.184Z</time></trkpt><trkpt lat="44.1623802" lon="10.388336"><ele>521.0</ele><time>2026-03-25T12:11:52.182Z</time></trkpt><trkpt lat="44.1623234" lon="10.3882951"><ele>521.0</ele><time>2026-03-25T12:11:56.199Z</time></trkpt><trkpt lat="44.1622602" lon="10.3882609"><ele>521.0</ele><time>2026-03-25T12:12:00.197Z</time></trkpt><trkpt lat="44.1621987" lon="10.3882206"><ele>520.2857142857142</ele><time>2026-03-25T12:12:04.181Z</time></trkpt><trkpt lat="44.1621299" lon="10.3881707"><ele>519.5714285714286</ele><time>2026-03-25T12:12:09.191Z</time></trkpt><trkpt lat="44.1620711" lon="10.3881365"><ele>518.8571428571429</ele><time>2026-03-25T12:12:13.182Z</time></trkpt><trkpt lat="44.1620009" lon="10.3880909"><ele>518.1428571428571</ele><time>2026-03-25T12:12:18.2Z</time></trkpt><trkpt lat="44.1619465" lon="10.3880447"><ele>517.4285714285714</ele><time>2026-03-25T12:12:22.183Z</time></trkpt><trkpt lat="44.1618912" lon="10.3879978"><ele>516.7142857142857</ele><time>2026-03-25T12:12:26.19Z</time></trkpt><trkpt lat="44.1618395" lon="10.3879465"><ele>516.0</ele><time>2026-03-25T12:12:30.198Z</time></trkpt><trkpt lat="44.1617775" lon="10.3878805"><ele>515.9999999999999</ele><time>2026-03-25T12:12:35.186Z</time></trkpt><trkpt lat="44.1617129" lon="10.3878541"><ele>516.0</ele><time>2026-03-25T12:12:39.204Z</time></trkpt><trkpt lat="44.1616437" lon="10.3878435"><ele>516.0</ele><time>2026-03-25T12:12:43.198Z</time></trkpt><trkpt lat="44.1615752" lon="10.3878629"><ele>516.0</ele><time>2026-03-25T12:12:47.181Z</time></trkpt><trkpt lat="44.1615225" lon="10.3879156"><ele>516.0</ele><time>2026-03-25T12:12:51.199Z</time></trkpt><trkpt lat="44.1614795" lon="10.3879887"><ele>515.9999999999999</ele><time>2026-03-25T12:12:55.195Z</time></trkpt><trkpt lat="44.1614363" lon="10.3880529"><ele>516.0</ele><time>2026-03-25T12:12:59.209Z</time></trkpt><trkpt lat="44.161406" lon="10.3881364"><ele>517.6666666666666</ele><time>2026-03-25T12:13:03.186Z</time></trkpt><trkpt lat="44.1613753" lon="10.3882271"><ele>519.3333333333334</ele><time>2026-03-25T12:13:07.198Z</time></trkpt><trkpt lat="44.1613343" lon="10.3883105"><ele>521.0</ele><time>2026-03-25T12:13:11.197Z</time></trkpt><trkpt lat="44.1612667" lon="10.3883684"><ele>522.6666666666667</ele><time>2026-03-25T12:13:15.181Z</time></trkpt><trkpt lat="44.1611864" lon="10.3883866"><ele>524.3333333333334</ele><time>2026-03-25T12:13:19.194Z</time></trkpt><trkpt lat="44.1611069" lon="10.3884032"><ele>526.0</ele><time>2026-03-25T12:13:23.193Z</time></trkpt><trkpt lat="44.1610444" lon="10.3884268"><ele>526.0</ele><time>2026-03-25T12:13:26.188Z</time></trkpt><trkpt lat="44.16098" lon="10.3884481"><ele>526.0</ele><time>2026-03-25T12:13:29.186Z</time></trkpt><trkpt lat="44.1609084" lon="10.3884807"><ele>526.0</ele><time>2026-03-25T12:13:32.201Z</time></trkpt><trkpt lat="44.1608316" lon="10.3885058"><ele>526.0</ele><time>2026-03-25T12:13:35.196Z</time></trkpt><trkpt lat="44.160758" lon="10.3885316"><ele>526.0</ele><time>2026-03-25T12:13:38.189Z</time></trkpt><trkpt lat="44.1606838" lon="10.3885476"><ele>526.0</ele><time>2026-03-25T12:13:41.19Z</time></trkpt><trkpt lat="44.1606181" lon="10.3885705"><ele>526.0</ele><time>2026-03-25T12:13:44.194Z</time></trkpt><trkpt lat="44.1605551" lon="10.3885873"><ele>526.1428571428571</ele><time>2026-03-25T12:13:47.19Z</time></trkpt><trkpt lat="44.1604731" lon="10.3885822"><ele>526.2857142857142</ele><time>2026-03-25T12:13:51.198Z</time></trkpt><trkpt lat="44.1604085" lon="10.3885732"><ele>526.4285714285714</ele><time>2026-03-25T12:13:54.187Z</time></trkpt><trkpt lat="44.1603381" lon="10.3885596"><ele>526.5714285714286</ele><time>2026-03-25T12:13:57.177Z</time></trkpt><trkpt lat="44.1602749" lon="10.3885345"><ele>526.7142857142858</ele><time>2026-03-25T12:14:00.183Z</time></trkpt><trkpt lat="44.1602258" lon="10.3885942"><ele>526.8571428571429</ele><time>2026-03-25T12:14:05.184Z</time></trkpt><trkpt lat="44.1602315" lon="10.3886868"><ele>527.0</ele><time>2026-03-25T12:14:09.202Z</time></trkpt><trkpt lat="44.1602554" lon="10.3887898"><ele>527.1666666666666</ele><time>2026-03-25T12:14:13.194Z</time></trkpt><trkpt lat="44.160284" lon="10.3888828"><ele>527.3333333333333</ele><time>2026-03-25T12:14:16.208Z</time></trkpt><trkpt lat="44.1603147" lon="10.3889819"><ele>527.5</ele><time>2026-03-25T12:14:19.19Z</time></trkpt><trkpt lat="44.1603471" lon="10.3890824"><ele>527.6666666666666</ele><time>2026-03-25T12:14:22.189Z</time></trkpt><trkpt lat="44.1603705" lon="10.3891844"><ele>527.8333333333334</ele><time>2026-03-25T12:14:25.191Z</time></trkpt><trkpt lat="44.1603939" lon="10.3892914"><ele>528.0</ele><time>2026-03-25T12:14:28.187Z</time></trkpt><trkpt lat="44.1604158" lon="10.3893991"><ele>528.0</ele><time>2026-03-25T12:14:31.198Z</time></trkpt><trkpt lat="44.1604423" lon="10.3895029"><ele>528.0</ele><time>2026-03-25T12:14:34.191Z</time></trkpt><trkpt lat="44.160471" lon="10.3896072"><ele>528.0</ele><time>2026-03-25T12:14:37.193Z</time></trkpt><trkpt lat="44.1604986" lon="10.389719"><ele>528.0</ele><time>2026-03-25T12:14:40.191Z</time></trkpt><trkpt lat="44.160527" lon="10.3898363"><ele>528.0</ele><time>2026-03-25T12:14:43.191Z</time></trkpt><trkpt lat="44.1605584" lon="10.3899517"><ele>528.0</ele><time>2026-03-25T12:14:46.205Z</time></trkpt><trkpt lat="44.160591" lon="10.3900687"><ele>527.6</ele><time>2026-03-25T12:14:49.186Z</time></trkpt><trkpt lat="44.1606239" lon="10.3901862"><ele>527.1999999999999</ele><time>2026-03-25T12:14:52.196Z</time></trkpt><trkpt lat="44.1606534" lon="10.3903068"><ele>526.8</ele><time>2026-03-25T12:14:55.201Z</time></trkpt><trkpt lat="44.1606815" lon="10.390426"><ele>526.4</ele><time>2026-03-25T12:14:58.192Z</time></trkpt><trkpt lat="44.1607168" lon="10.3905402"><ele>526.0</ele><time>2026-03-25T12:15:01.202Z</time></trkpt><trkpt lat="44.1607484" lon="10.3906556"><ele>526.6666666666667</ele><time>2026-03-25T12:15:04.191Z</time></trkpt><trkpt lat="44.1607773" lon="10.3907549"><ele>527.3333333333334</ele><time>2026-03-25T12:15:07.181Z</time></trkpt><trkpt lat="44.1608094" lon="10.3908682"><ele>528.0</ele><time>2026-03-25T12:15:10.195Z</time></trkpt><trkpt lat="44.1608327" lon="10.3909505"><ele>528.6666666666666</ele><time>2026-03-25T12:15:12.198Z</time></trkpt><trkpt lat="44.1608633" lon="10.3910672"><ele>529.3333333333333</ele><time>2026-03-25T12:15:15.181Z</time></trkpt><trkpt lat="44.1608923" lon="10.3911901"><ele>530.0</ele><time>2026-03-25T12:15:18.192Z</time></trkpt><trkpt lat="44.1609273" lon="10.3913085"><ele>529.6666666666666</ele><time>2026-03-25T12:15:21.186Z</time></trkpt><trkpt lat="44.160957" lon="10.391427"><ele>529.3333333333333</ele><time>2026-03-25T12:15:24.184Z</time></trkpt><trkpt lat="44.1609886" lon="10.3915479"><ele>529.0</ele><time>2026-03-25T12:15:27.19Z</time></trkpt><trkpt lat="44.1610098" lon="10.3916309"><ele>528.6666666666666</ele><time>2026-03-25T12:15:29.183Z</time></trkpt><trkpt lat="44.1610386" lon="10.3917493"><ele>528.3333333333334</ele><time>2026-03-25T12:15:32.197Z</time></trkpt><trkpt lat="44.1610707" lon="10.3918699"><ele>528.0</ele><time>2026-03-25T12:15:35.191Z</time></trkpt><trkpt lat="44.1610929" lon="10.3919601"><ele>528.0</ele><time>2026-03-25T12:15:37.191Z</time></trkpt><trkpt lat="44.1611107" lon="10.3920457"><ele>528.0</ele><time>2026-03-25T12:15:39.197Z</time></trkpt><trkpt lat="44.1611446" lon="10.3921556"><ele>528.0</ele><time>2026-03-25T12:15:42.179Z</time></trkpt><trkpt lat="44.1611742" lon="10.3922621"><ele>528.0</ele><time>2026-03-25T12:15:45.194Z</time></trkpt><trkpt lat="44.1611987" lon="10.3923784"><ele>528.0</ele><time>2026-03-25T12:15:48.178Z</time></trkpt><trkpt lat="44.1612315" lon="10.3924989"><ele>528.0</ele><time>2026-03-25T12:15:51.177Z</time></trkpt><trkpt lat="44.1612459" lon="10.3925886"><ele>528.1666666666666</ele><time>2026-03-25T12:15:53.179Z</time></trkpt><trkpt lat="44.16126" lon="10.3926758"><ele>528.3333333333334</ele><time>2026-03-25T12:15:55.187Z</time></trkpt><trkpt lat="44.1612885" lon="10.3927946"><ele>528.5</ele><time>2026-03-25T12:15:58.18Z</time></trkpt><trkpt lat="44.1613196" lon="10.3929171"><ele>528.6666666666667</ele><time>2026-03-25T12:16:01.179Z</time></trkpt><trkpt lat="44.1613457" lon="10.3930374"><ele>528.8333333333334</ele><time>2026-03-25T12:16:04.179Z</time></trkpt><trkpt lat="44.1613778" lon="10.393158"><ele>529.0</ele><time>2026-03-25T12:16:07.192Z</time></trkpt><trkpt lat="44.1614047" lon="10.3932781"><ele>528.0</ele><time>2026-03-25T12:16:10.19Z</time></trkpt><trkpt lat="44.161436" lon="10.3933966"><ele>527.0</ele><time>2026-03-25T12:16:13.183Z</time></trkpt><trkpt lat="44.1614628" lon="10.3935174"><ele>526.0</ele><time>2026-03-25T12:16:16.185Z</time></trkpt><trkpt lat="44.1614878" lon="10.3936422"><ele>525.0</ele><time>2026-03-25T12:16:19.2Z</time></trkpt><trkpt lat="44.1615082" lon="10.3937268"><ele>524.0</ele><time>2026-03-25T12:16:21.184Z</time></trkpt><trkpt lat="44.1615305" lon="10.3938103"><ele>523.0</ele><time>2026-03-25T12:16:23.201Z</time></trkpt><trkpt lat="44.1615512" lon="10.3938948"><ele>525.1666666666667</ele><time>2026-03-25T12:16:25.188Z</time></trkpt><trkpt lat="44.1615805" lon="10.3940177"><ele>527.3333333333334</ele><time>2026-03-25T12:16:28.192Z</time></trkpt><trkpt lat="44.1616163" lon="10.3941336"><ele>529.5</ele><time>2026-03-25T12:16:31.192Z</time></trkpt><trkpt lat="44.1616428" lon="10.3942526"><ele>531.6666666666666</ele><time>2026-03-25T12:16:34.185Z</time></trkpt><trkpt lat="44.1616747" lon="10.3943646"><ele>533.8333333333333</ele><time>2026-03-25T12:16:37.186Z</time></trkpt><trkpt lat="44.1616949" lon="10.3944602"><ele>536.0</ele><time>2026-03-25T12:16:40.191Z</time></trkpt><trkpt lat="44.161722" lon="10.394564"><ele>536.0</ele><time>2026-03-25T12:16:43.187Z</time></trkpt><trkpt lat="44.1617545" lon="10.3946609"><ele>536.0</ele><time>2026-03-25T12:16:46.186Z</time></trkpt><trkpt lat="44.1617792" lon="10.3947514"><ele>536.0</ele><time>2026-03-25T12:16:49.19Z</time></trkpt><trkpt lat="44.1618007" lon="10.394852"><ele>536.0</ele><time>2026-03-25T12:16:52.196Z</time></trkpt><trkpt lat="44.1618287" lon="10.3949626"><ele>536.0</ele><time>2026-03-25T12:16:55.183Z</time></trkpt><trkpt lat="44.1618596" lon="10.3950783"><ele>536.0</ele><time>2026-03-25T12:16:58.197Z</time></trkpt><trkpt lat="44.1618886" lon="10.3952005"><ele>535.8571428571429</ele><time>2026-03-25T12:17:01.194Z</time></trkpt><trkpt lat="44.1619072" lon="10.395287"><ele>535.7142857142857</ele><time>2026-03-25T12:17:03.197Z</time></trkpt><trkpt lat="44.1619134" lon="10.3953855"><ele>535.5714285714286</ele><time>2026-03-25T12:17:05.183Z</time></trkpt><trkpt lat="44.1619106" lon="10.3954896"><ele>535.4285714285714</ele><time>2026-03-25T12:17:07.188Z</time></trkpt><trkpt lat="44.1618822" lon="10.3955891"><ele>535.2857142857143</ele><time>2026-03-25T12:17:09.201Z</time></trkpt><trkpt lat="44.161836" lon="10.3956742"><ele>535.1428571428571</ele><time>2026-03-25T12:17:11.189Z</time></trkpt><trkpt lat="44.1617825" lon="10.3957282"><ele>535.0</ele><time>2026-03-25T12:17:13.191Z</time></trkpt><trkpt lat="44.1617218" lon="10.3957641"><ele>534.8571428571429</ele><time>2026-03-25T12:17:15.2Z</time></trkpt><trkpt lat="44.1616409" lon="10.3958071"><ele>534.7142857142858</ele><time>2026-03-25T12:17:18.2Z</time></trkpt><trkpt lat="44.161577" lon="10.3958476"><ele>534.5714285714287</ele><time>2026-03-25T12:17:21.198Z</time></trkpt><trkpt lat="44.1615093" lon="10.395857"><ele>534.4285714285714</ele><time>2026-03-25T12:17:24.187Z</time></trkpt><trkpt lat="44.1614459" lon="10.3958408"><ele>534.2857142857143</ele><time>2026-03-25T12:17:27.194Z</time></trkpt><trkpt lat="44.1613742" lon="10.3958123"><ele>534.1428571428572</ele><time>2026-03-25T12:17:31.198Z</time></trkpt><trkpt lat="44.1613039" lon="10.3957788"><ele>534.0</ele><time>2026-03-25T12:17:35.187Z</time></trkpt><trkpt lat="44.1612428" lon="10.3957403"><ele>534.5714285714287</ele><time>2026-03-25T12:17:38.197Z</time></trkpt><trkpt lat="44.1611648" lon="10.3956983"><ele>535.1428571428571</ele><time>2026-03-25T12:17:42.192Z</time></trkpt><trkpt lat="44.1611012" lon="10.3956685"><ele>535.7142857142858</ele><time>2026-03-25T12:17:45.197Z</time></trkpt><trkpt lat="44.161023" lon="10.3956301"><ele>536.2857142857143</ele><time>2026-03-25T12:17:49.191Z</time></trkpt><trkpt lat="44.1609463" lon="10.395596"><ele>536.8571428571429</ele><time>2026-03-25T12:17:53.186Z</time></trkpt><trkpt lat="44.1608878" lon="10.3955577"><ele>537.4285714285714</ele><time>2026-03-25T12:17:56.183Z</time></trkpt><trkpt lat="44.1608249" lon="10.3955329"><ele>538.0</ele><time>2026-03-25T12:17:59.191Z</time></trkpt><trkpt lat="44.1607629" lon="10.3954948"><ele>538.0</ele><time>2026-03-25T12:18:02.207Z</time></trkpt><trkpt lat="44.1607001" lon="10.3954656"><ele>538.0</ele><time>2026-03-25T12:18:05.197Z</time></trkpt><trkpt lat="44.1606382" lon="10.3954376"><ele>538.0</ele><time>2026-03-25T12:18:08.197Z</time></trkpt><trkpt lat="44.1605599" lon="10.3954271"><ele>538.0</ele><time>2026-03-25T12:18:12.19Z</time></trkpt><trkpt lat="44.160478" lon="10.3954358"><ele>538.0</ele><time>2026-03-25T12:18:16.199Z</time></trkpt><trkpt lat="44.1604176" lon="10.3954608"><ele>538.0</ele><time>2026-03-25T12:18:19.197Z</time></trkpt><trkpt lat="44.1603576" lon="10.395499"><ele>538.0</ele><time>2026-03-25T12:18:22.197Z</time></trkpt><trkpt lat="44.1603002" lon="10.3955543"><ele>538.0</ele><time>2026-03-25T12:18:25.201Z</time></trkpt><trkpt lat="44.160254" lon="10.3956196"><ele>538.0</ele><time>2026-03-25T12:18:28.193Z</time></trkpt><trkpt lat="44.1602184" lon="10.3956922"><ele>538.0</ele><time>2026-03-25T12:18:31.185Z</time></trkpt><trkpt lat="44.1601765" lon="10.3957925"><ele>538.0</ele><time>2026-03-25T12:18:35.196Z</time></trkpt><trkpt lat="44.16014" lon="10.3958643"><ele>538.0</ele><time>2026-03-25T12:18:38.198Z</time></trkpt><trkpt lat="44.1601105" lon="10.395949"><ele>538.0</ele><time>2026-03-25T12:18:41.195Z</time></trkpt><trkpt lat="44.1600761" lon="10.3960331"><ele>538.0</ele><time>2026-03-25T12:18:44.196Z</time></trkpt><trkpt lat="44.1600484" lon="10.3961217"><ele>538.0</ele><time>2026-03-25T12:18:47.193Z</time></trkpt><trkpt lat="44.1600184" lon="10.3962026"><ele>538.0</ele><time>2026-03-25T12:18:50.194Z</time></trkpt><trkpt lat="44.1599802" lon="10.3962804"><ele>538.0</ele><time>2026-03-25T12:18:53.196Z</time></trkpt><trkpt lat="44.1599574" lon="10.396364"><ele>538.0</ele><time>2026-03-25T12:18:56.203Z</time></trkpt><trkpt lat="44.1599225" lon="10.3964651"><ele>538.0</ele><time>2026-03-25T12:19:00.189Z</time></trkpt><trkpt lat="44.1598961" lon="10.3965506"><ele>538.0</ele><time>2026-03-25T12:19:03.182Z</time></trkpt><trkpt lat="44.159873" lon="10.3966356"><ele>538.0</ele><time>2026-03-25T12:19:06.202Z</time></trkpt><trkpt lat="44.1598384" lon="10.3967187"><ele>538.5714285714286</ele><time>2026-03-25T12:19:09.198Z</time></trkpt><trkpt lat="44.1598033" lon="10.3968009"><ele>539.1428571428572</ele><time>2026-03-25T12:19:12.2Z</time></trkpt><trkpt lat="44.1597644" lon="10.3968774"><ele>539.7142857142858</ele><time>2026-03-25T12:19:15.187Z</time></trkpt><trkpt lat="44.1597293" lon="10.3969576"><ele>540.2857142857143</ele><time>2026-03-25T12:19:18.182Z</time></trkpt><trkpt lat="44.1597037" lon="10.397038"><ele>540.8571428571429</ele><time>2026-03-25T12:19:21.189Z</time></trkpt><trkpt lat="44.1596779" lon="10.3971223"><ele>541.4285714285714</ele><time>2026-03-25T12:19:24.194Z</time></trkpt><trkpt lat="44.1596451" lon="10.3971977"><ele>542.0</ele><time>2026-03-25T12:19:27.189Z</time></trkpt><trkpt lat="44.1596181" lon="10.3972869"><ele>542.4285714285714</ele><time>2026-03-25T12:19:30.198Z</time></trkpt><trkpt lat="44.1595966" lon="10.3973777"><ele>542.8571428571429</ele><time>2026-03-25T12:19:33.19Z</time></trkpt><trkpt lat="44.1595653" lon="10.3974635"><ele>543.2857142857143</ele><time>2026-03-25T12:19:36.201Z</time></trkpt><trkpt lat="44.1595366" lon="10.3975499"><ele>543.7142857142858</ele><time>2026-03-25T12:19:39.198Z</time></trkpt><trkpt lat="44.159526" lon="10.3976471"><ele>544.1428571428572</ele><time>2026-03-25T12:19:43.195Z</time></trkpt><trkpt lat="44.159523" lon="10.3977589"><ele>544.5714285714286</ele><time>2026-03-25T12:19:47.198Z</time></trkpt><trkpt lat="44.159532" lon="10.3978488"><ele>545.0</ele><time>2026-03-25T12:19:50.192Z</time></trkpt><trkpt lat="44.1595503" lon="10.397941"><ele>545.1428571428571</ele><time>2026-03-25T12:19:53.198Z</time></trkpt><trkpt lat="44.1595572" lon="10.3980324"><ele>545.2857142857143</ele><time>2026-03-25T12:19:56.187Z</time></trkpt><trkpt lat="44.1595629" lon="10.3981418"><ele>545.4285714285714</ele><time>2026-03-25T12:20:00.188Z</time></trkpt><trkpt lat="44.1595701" lon="10.3982293"><ele>545.5714285714286</ele><time>2026-03-25T12:20:03.194Z</time></trkpt><trkpt lat="44.1595873" lon="10.3983241"><ele>545.7142857142858</ele><time>2026-03-25T12:20:06.2Z</time></trkpt><trkpt lat="44.1596178" lon="10.3984244"><ele>545.8571428571429</ele><time>2026-03-25T12:20:09.191Z</time></trkpt><trkpt lat="44.1596513" lon="10.3985133"><ele>546.0</ele><time>2026-03-25T12:20:12.186Z</time></trkpt><trkpt lat="44.1596862" lon="10.3985889"><ele>546.0</ele><time>2026-03-25T12:20:15.193Z</time></trkpt><trkpt lat="44.1597212" lon="10.3986763"><ele>546.0</ele><time>2026-03-25T12:20:19.208Z</time></trkpt><trkpt lat="44.1597618" lon="10.3987538"><ele>546.0</ele><time>2026-03-25T12:20:22.184Z</time></trkpt><trkpt lat="44.1598065" lon="10.398841"><ele>546.0</ele><time>2026-03-25T12:20:25.195Z</time></trkpt><trkpt lat="44.1598455" lon="10.398927"><ele>546.0</ele><time>2026-03-25T12:20:28.185Z</time></trkpt><trkpt lat="44.1598854" lon="10.399014"><ele>546.0</ele><time>2026-03-25T12:20:31.178Z</time></trkpt><trkpt lat="44.159934" lon="10.3991108"><ele>546.0</ele><time>2026-03-25T12:20:34.185Z</time></trkpt><trkpt lat="44.1599807" lon="10.3992022"><ele>546.0</ele><time>2026-03-25T12:20:37.19Z</time></trkpt><trkpt lat="44.1600285" lon="10.3992899"><ele>546.0</ele><time>2026-03-25T12:20:40.203Z</time></trkpt><trkpt lat="44.1600763" lon="10.39938"><ele>546.0</ele><time>2026-03-25T12:20:43.196Z</time></trkpt><trkpt lat="44.1601345" lon="10.3994635"><ele>546.0</ele><time>2026-03-25T12:20:46.189Z</time></trkpt><trkpt lat="44.1602026" lon="10.3995282"><ele>546.0</ele><time>2026-03-25T12:20:49.189Z</time></trkpt><trkpt lat="44.1602734" lon="10.3995685"><ele>546.0</ele><time>2026-03-25T12:20:52.196Z</time></trkpt><trkpt lat="44.1603432" lon="10.3995998"><ele>546.0</ele><time>2026-03-25T12:20:55.189Z</time></trkpt><trkpt lat="44.160418" lon="10.3996294"><ele>546.0</ele><time>2026-03-25T12:20:58.202Z</time></trkpt><trkpt lat="44.1604843" lon="10.3996677"><ele>546.0</ele><time>2026-03-25T12:21:01.199Z</time></trkpt><trkpt lat="44.1605578" lon="10.3996891"><ele>546.0</ele><time>2026-03-25T12:21:04.186Z</time></trkpt><trkpt lat="44.1606328" lon="10.399709"><ele>546.0</ele><time>2026-03-25T12:21:07.2Z</time></trkpt><trkpt lat="44.160707" lon="10.3997197"><ele>546.0</ele><time>2026-03-25T12:21:10.19Z</time></trkpt><trkpt lat="44.1607812" lon="10.3997213"><ele>546.3333333333334</ele><time>2026-03-25T12:21:13.191Z</time></trkpt><trkpt lat="44.1608639" lon="10.3997131"><ele>546.6666666666666</ele><time>2026-03-25T12:21:16.178Z</time></trkpt><trkpt lat="44.1609535" lon="10.3997037"><ele>547.0</ele><time>2026-03-25T12:21:19.195Z</time></trkpt><trkpt lat="44.1610369" lon="10.3996796"><ele>547.3333333333333</ele><time>2026-03-25T12:21:22.188Z</time></trkpt><trkpt lat="44.1611051" lon="10.3996554"><ele>547.6666666666666</ele><time>2026-03-25T12:21:25.194Z</time></trkpt><trkpt lat="44.161173" lon="10.3996509"><ele>548.0</ele><time>2026-03-25T12:21:28.19Z</time></trkpt><trkpt lat="44.161244" lon="10.3996283"><ele>549.4285714285714</ele><time>2026-03-25T12:21:31.183Z</time></trkpt><trkpt lat="44.1613148" lon="10.3996155"><ele>550.8571428571429</ele><time>2026-03-25T12:21:34.194Z</time></trkpt><trkpt lat="44.1613837" lon="10.3996043"><ele>552.2857142857142</ele><time>2026-03-25T12:21:37.185Z</time></trkpt><trkpt lat="44.16145" lon="10.3996001"><ele>553.7142857142858</ele><time>2026-03-25T12:21:40.186Z</time></trkpt><trkpt lat="44.1615269" lon="10.3995714"><ele>555.1428571428571</ele><time>2026-03-25T12:21:43.199Z</time></trkpt><trkpt lat="44.1616018" lon="10.3995695"><ele>556.5714285714286</ele><time>2026-03-25T12:21:46.187Z</time></trkpt><trkpt lat="44.1616801" lon="10.3995609"><ele>558.0</ele><time>2026-03-25T12:21:49.191Z</time></trkpt><trkpt lat="44.1617526" lon="10.3995658"><ele>559.0</ele><time>2026-03-25T12:21:52.19Z</time></trkpt><trkpt lat="44.161834" lon="10.399588"><ele>560.0</ele><time>2026-03-25T12:21:55.182Z</time></trkpt><trkpt lat="44.1618998" lon="10.3996377"><ele>561.0</ele><time>2026-03-25T12:21:58.194Z</time></trkpt><trkpt lat="44.1619698" lon="10.3997035"><ele>562.0</ele><time>2026-03-25T12:22:02.188Z</time></trkpt><trkpt lat="44.1620302" lon="10.3997828"><ele>563.0</ele><time>2026-03-25T12:22:05.186Z</time></trkpt><trkpt lat="44.1620722" lon="10.399861"><ele>564.0</ele><time>2026-03-25T12:22:08.188Z</time></trkpt><trkpt lat="44.1621315" lon="10.3999404"><ele>565.0</ele><time>2026-03-25T12:22:12.194Z</time></trkpt><trkpt lat="44.1621843" lon="10.4000184"><ele>566.0</ele><time>2026-03-25T12:22:15.199Z</time></trkpt><trkpt lat="44.1622354" lon="10.4000898"><ele>567.0</ele><time>2026-03-25T12:22:18.186Z</time></trkpt><trkpt lat="44.1622873" lon="10.4001619"><ele>568.0</ele><time>2026-03-25T12:22:21.184Z</time></trkpt><trkpt lat="44.162331" lon="10.4002458"><ele>569.0</ele><time>2026-03-25T12:22:24.194Z</time></trkpt><trkpt lat="44.1623705" lon="10.4003261"><ele>570.0</ele><time>2026-03-25T12:22:27.188Z</time></trkpt><trkpt lat="44.1623961" lon="10.4004222"><ele>571.0</ele><time>2026-03-25T12:22:30.181Z</time></trkpt><trkpt lat="44.1623952" lon="10.4005205"><ele>571.0</ele><time>2026-03-25T12:22:33.188Z</time></trkpt><trkpt lat="44.1623688" lon="10.4006128"><ele>571.0</ele><time>2026-03-25T12:22:36.197Z</time></trkpt><trkpt lat="44.1623242" lon="10.4006952"><ele>571.0</ele><time>2026-03-25T12:22:39.189Z</time></trkpt><trkpt lat="44.1622567" lon="10.4007468"><ele>571.0</ele><time>2026-03-25T12:22:42.198Z</time></trkpt><trkpt lat="44.1621874" lon="10.4007817"><ele>571.0</ele><time>2026-03-25T12:22:45.182Z</time></trkpt><trkpt lat="44.1621206" lon="10.4008188"><ele>571.0</ele><time>2026-03-25T12:22:48.183Z</time></trkpt><trkpt lat="44.16205" lon="10.4008525"><ele>571.0</ele><time>2026-03-25T12:22:51.197Z</time></trkpt><trkpt lat="44.1619782" lon="10.4008887"><ele>568.3333333333334</ele><time>2026-03-25T12:22:54.199Z</time></trkpt><trkpt lat="44.1619034" lon="10.4009321"><ele>565.6666666666667</ele><time>2026-03-25T12:22:57.196Z</time></trkpt><trkpt lat="44.1618367" lon="10.4009846"><ele>563.0</ele><time>2026-03-25T12:23:00.187Z</time></trkpt><trkpt lat="44.1617718" lon="10.4010554"><ele>560.3333333333334</ele><time>2026-03-25T12:23:03.187Z</time></trkpt><trkpt lat="44.1617167" lon="10.4011346"><ele>557.6666666666666</ele><time>2026-03-25T12:23:06.195Z</time></trkpt><trkpt lat="44.1616707" lon="10.401227"><ele>555.0</ele><time>2026-03-25T12:23:09.197Z</time></trkpt><trkpt lat="44.1616297" lon="10.4013272"><ele>553.8333333333334</ele><time>2026-03-25T12:23:12.184Z</time></trkpt><trkpt lat="44.1615913" lon="10.4014287"><ele>552.6666666666666</ele><time>2026-03-25T12:23:15.185Z</time></trkpt><trkpt lat="44.1615569" lon="10.4015327"><ele>551.5</ele><time>2026-03-25T12:23:18.195Z</time></trkpt><trkpt lat="44.1615172" lon="10.4016346"><ele>550.3333333333333</ele><time>2026-03-25T12:23:21.187Z</time></trkpt><trkpt lat="44.1614781" lon="10.4017345"><ele>549.1666666666666</ele><time>2026-03-25T12:23:24.197Z</time></trkpt><trkpt lat="44.1614301" lon="10.4018375"><ele>548.0</ele><time>2026-03-25T12:23:27.188Z</time></trkpt><trkpt lat="44.1613819" lon="10.4019281"><ele>548.0</ele><time>2026-03-25T12:23:30.196Z</time></trkpt><trkpt lat="44.1613302" lon="10.4020077"><ele>548.0</ele><time>2026-03-25T12:23:33.194Z</time></trkpt><trkpt lat="44.1612704" lon="10.4020827"><ele>548.0</ele><time>2026-03-25T12:23:36.188Z</time></trkpt><trkpt lat="44.1612179" lon="10.4021594"><ele>548.0</ele><time>2026-03-25T12:23:39.195Z</time></trkpt><trkpt lat="44.1611567" lon="10.4022381"><ele>548.0</ele><time>2026-03-25T12:23:42.193Z</time></trkpt><trkpt lat="44.1610981" lon="10.402314"><ele>548.0</ele><time>2026-03-25T12:23:45.186Z</time></trkpt><trkpt lat="44.1610391" lon="10.4023788"><ele>547.5</ele><time>2026-03-25T12:23:48.201Z</time></trkpt><trkpt lat="44.1609786" lon="10.4024496"><ele>547.0</ele><time>2026-03-25T12:23:51.194Z</time></trkpt><trkpt lat="44.1609209" lon="10.4025256"><ele>546.5</ele><time>2026-03-25T12:23:54.187Z</time></trkpt><trkpt lat="44.1608651" lon="10.4026039"><ele>546.0</ele><time>2026-03-25T12:23:57.197Z</time></trkpt><trkpt lat="44.160804" lon="10.4026723"><ele>545.5</ele><time>2026-03-25T12:24:00.191Z</time></trkpt><trkpt lat="44.1607438" lon="10.4027461"><ele>545.0</ele><time>2026-03-25T12:24:03.196Z</time></trkpt><trkpt lat="44.1606839" lon="10.402828"><ele>545.0</ele><time>2026-03-25T12:24:06.197Z</time></trkpt><trkpt lat="44.1606258" lon="10.4029052"><ele>545.0</ele><time>2026-03-25T12:24:09.187Z</time></trkpt><trkpt lat="44.1605713" lon="10.4029875"><ele>545.0</ele><time>2026-03-25T12:24:12.19Z</time></trkpt><trkpt lat="44.1605198" lon="10.4030657"><ele>545.0</ele><time>2026-03-25T12:24:15.203Z</time></trkpt><trkpt lat="44.1604747" lon="10.403158"><ele>545.0</ele><time>2026-03-25T12:24:18.188Z</time></trkpt><trkpt lat="44.1604339" lon="10.4032369"><ele>545.0</ele><time>2026-03-25T12:24:21.194Z</time></trkpt><trkpt lat="44.1603745" lon="10.4033014"><ele>548.3333333333333</ele><time>2026-03-25T12:24:24.18Z</time></trkpt><trkpt lat="44.1603017" lon="10.4033616"><ele>551.6666666666666</ele><time>2026-03-25T12:24:27.197Z</time></trkpt><trkpt lat="44.1602228" lon="10.4034071"><ele>555.0</ele><time>2026-03-25T12:24:30.186Z</time></trkpt><trkpt lat="44.1601391" lon="10.4034322"><ele>558.3333333333334</ele><time>2026-03-25T12:24:33.197Z</time></trkpt><trkpt lat="44.1600571" lon="10.4034373"><ele>561.6666666666667</ele><time>2026-03-25T12:24:36.182Z</time></trkpt><trkpt lat="44.1599765" lon="10.4034493"><ele>565.0</ele><time>2026-03-25T12:24:39.193Z</time></trkpt><trkpt lat="44.1598943" lon="10.4034699"><ele>562.5</ele><time>2026-03-25T12:24:42.199Z</time></trkpt><trkpt lat="44.1598106" lon="10.4034871"><ele>560.0</ele><time>2026-03-25T12:24:45.19Z</time></trkpt><trkpt lat="44.1597287" lon="10.4035001"><ele>557.5</ele><time>2026-03-25T12:24:48.197Z</time></trkpt><trkpt lat="44.1596528" lon="10.4035298"><ele>555.0</ele><time>2026-03-25T12:24:51.196Z</time></trkpt><trkpt lat="44.1595718" lon="10.4035633"><ele>552.5</ele><time>2026-03-25T12:24:54.19Z</time></trkpt><trkpt lat="44.1594931" lon="10.403607"><ele>550.0</ele><time>2026-03-25T12:24:57.195Z</time></trkpt><trkpt lat="44.1594254" lon="10.4036577"><ele>550.0</ele><time>2026-03-25T12:25:00.197Z</time></trkpt><trkpt lat="44.1593626" lon="10.4037257"><ele>550.0</ele><time>2026-03-25T12:25:03.184Z</time></trkpt><trkpt lat="44.1593063" lon="10.4038229"><ele>550.0</ele><time>2026-03-25T12:25:06.189Z</time></trkpt><trkpt lat="44.1592464" lon="10.4039039"><ele>550.0</ele><time>2026-03-25T12:25:09.194Z</time></trkpt><trkpt lat="44.1592003" lon="10.4039911"><ele>550.0</ele><time>2026-03-25T12:25:12.183Z</time></trkpt><trkpt lat="44.1591588" lon="10.4040778"><ele>550.0</ele><time>2026-03-25T12:25:15.199Z</time></trkpt><trkpt lat="44.15911" lon="10.4041773"><ele>550.0</ele><time>2026-03-25T12:25:18.181Z</time></trkpt><trkpt lat="44.159051" lon="10.4042756"><ele>550.0</ele><time>2026-03-25T12:25:21.183Z</time></trkpt><trkpt lat="44.1589962" lon="10.4043675"><ele>550.0</ele><time>2026-03-25T12:25:24.192Z</time></trkpt><trkpt lat="44.1589425" lon="10.4044558"><ele>550.0</ele><time>2026-03-25T12:25:27.189Z</time></trkpt><trkpt lat="44.1588961" lon="10.4045309"><ele>550.0</ele><time>2026-03-25T12:25:30.196Z</time></trkpt><trkpt lat="44.1588547" lon="10.4045997"><ele>550.0</ele><time>2026-03-25T12:25:33.197Z</time></trkpt><trkpt lat="44.1588127" lon="10.4046707"><ele>550.5</ele><time>2026-03-25T12:25:36.188Z</time></trkpt><trkpt lat="44.158759" lon="10.4047609"><ele>551.0</ele><time>2026-03-25T12:25:39.198Z</time></trkpt><trkpt lat="44.1587071" lon="10.4048608"><ele>551.5</ele><time>2026-03-25T12:25:42.189Z</time></trkpt><trkpt lat="44.1586587" lon="10.4049633"><ele>552.0</ele><time>2026-03-25T12:25:45.187Z</time></trkpt><trkpt lat="44.1586024" lon="10.4050573"><ele>552.5</ele><time>2026-03-25T12:25:48.193Z</time></trkpt><trkpt lat="44.1585492" lon="10.4051506"><ele>553.0</ele><time>2026-03-25T12:25:51.193Z</time></trkpt><trkpt lat="44.1584974" lon="10.4052487"><ele>553.0</ele><time>2026-03-25T12:25:54.191Z</time></trkpt><trkpt lat="44.1584466" lon="10.4053448"><ele>553.0</ele><time>2026-03-25T12:25:57.193Z</time></trkpt><trkpt lat="44.1583992" lon="10.4054493"><ele>553.0</ele><time>2026-03-25T12:26:00.198Z</time></trkpt><trkpt lat="44.1583667" lon="10.4055562"><ele>553.0</ele><time>2026-03-25T12:26:03.196Z</time></trkpt><trkpt lat="44.1583407" lon="10.4056687"><ele>553.0</ele><time>2026-03-25T12:26:06.188Z</time></trkpt><trkpt lat="44.1583246" lon="10.4057917"><ele>553.0</ele><time>2026-03-25T12:26:09.192Z</time></trkpt><trkpt lat="44.1583232" lon="10.4059027"><ele>553.3333333333334</ele><time>2026-03-25T12:26:12.192Z</time></trkpt><trkpt lat="44.1583315" lon="10.4060158"><ele>553.6666666666667</ele><time>2026-03-25T12:26:15.194Z</time></trkpt><trkpt lat="44.1583568" lon="10.4061373"><ele>554.0</ele><time>2026-03-25T12:26:18.194Z</time></trkpt><trkpt lat="44.1583805" lon="10.4062189"><ele>554.3333333333334</ele><time>2026-03-25T12:26:20.194Z</time></trkpt><trkpt lat="44.1584206" lon="10.4063358"><ele>554.6666666666666</ele><time>2026-03-25T12:26:23.194Z</time></trkpt><trkpt lat="44.158462" lon="10.4064502"><ele>555.0</ele><time>2026-03-25T12:26:26.195Z</time></trkpt><trkpt lat="44.1584904" lon="10.4065295"><ele>555.0</ele><time>2026-03-25T12:26:28.189Z</time></trkpt><trkpt lat="44.1585376" lon="10.4066399"><ele>555.0</ele><time>2026-03-25T12:26:31.191Z</time></trkpt><trkpt lat="44.158581" lon="10.4067514"><ele>555.0</ele><time>2026-03-25T12:26:34.193Z</time></trkpt><trkpt lat="44.1586239" lon="10.4068634"><ele>555.0</ele><time>2026-03-25T12:26:37.201Z</time></trkpt><trkpt lat="44.1586738" lon="10.4069727"><ele>555.0</ele><time>2026-03-25T12:26:40.19Z</time></trkpt><trkpt lat="44.1587164" lon="10.4070858"><ele>553.6</ele><time>2026-03-25T12:26:43.201Z</time></trkpt><trkpt lat="44.1587607" lon="10.4071939"><ele>552.2</ele><time>2026-03-25T12:26:46.2Z</time></trkpt><trkpt lat="44.1588136" lon="10.4073005"><ele>550.8</ele><time>2026-03-25T12:26:49.202Z</time></trkpt><trkpt lat="44.1588593" lon="10.407412"><ele>549.4</ele><time>2026-03-25T12:26:52.199Z</time></trkpt><trkpt lat="44.1589077" lon="10.4075216"><ele>548.0</ele><time>2026-03-25T12:26:55.219Z</time></trkpt><trkpt lat="44.1589643" lon="10.4076208"><ele>548.0</ele><time>2026-03-25T12:26:58.184Z</time></trkpt><trkpt lat="44.1590216" lon="10.4077243"><ele>548.0</ele><time>2026-03-25T12:27:01.189Z</time></trkpt><trkpt lat="44.1590759" lon="10.4078278"><ele>548.0</ele><time>2026-03-25T12:27:04.192Z</time></trkpt><trkpt lat="44.1591352" lon="10.4079246"><ele>548.0</ele><time>2026-03-25T12:27:07.192Z</time></trkpt><trkpt lat="44.159204" lon="10.4080147"><ele>548.0</ele><time>2026-03-25T12:27:10.182Z</time></trkpt><trkpt lat="44.1592511" lon="10.4080749"><ele>548.0</ele><time>2026-03-25T12:27:12.193Z</time></trkpt><trkpt lat="44.1592959" lon="10.4081376"><ele>551.3333333333333</ele><time>2026-03-25T12:27:14.182Z</time></trkpt><trkpt lat="44.1593628" lon="10.4082262"><ele>554.6666666666666</ele><time>2026-03-25T12:27:17.185Z</time></trkpt><trkpt lat="44.1594003" lon="10.408297"><ele>558.0</ele><time>2026-03-25T12:27:19.199Z</time></trkpt><trkpt lat="44.1594344" lon="10.4083766"><ele>561.3333333333334</ele><time>2026-03-25T12:27:21.199Z</time></trkpt><trkpt lat="44.1594564" lon="10.4084931"><ele>564.6666666666667</ele><time>2026-03-25T12:27:24.188Z</time></trkpt><trkpt lat="44.1594263" lon="10.4086088"><ele>568.0</ele><time>2026-03-25T12:27:27.186Z</time></trkpt><trkpt lat="44.159371" lon="10.4086785"><ele>568.0</ele><time>2026-03-25T12:27:30.191Z</time></trkpt><trkpt lat="44.1593027" lon="10.4087246"><ele>568.0</ele><time>2026-03-25T12:27:33.191Z</time></trkpt><trkpt lat="44.1592337" lon="10.4087567"><ele>568.0</ele><time>2026-03-25T12:27:36.197Z</time></trkpt><trkpt lat="44.1591697" lon="10.4087567"><ele>568.0</ele><time>2026-03-25T12:27:39.193Z</time></trkpt><trkpt lat="44.1590885" lon="10.4087447"><ele>568.0</ele><time>2026-03-25T12:27:43.193Z</time></trkpt><trkpt lat="44.1590228" lon="10.4087354"><ele>568.0</ele><time>2026-03-25T12:27:46.201Z</time></trkpt><trkpt lat="44.1589575" lon="10.4087259"><ele>568.0</ele><time>2026-03-25T12:27:49.2Z</time></trkpt><trkpt lat="44.1588755" lon="10.4087101"><ele>568.0</ele><time>2026-03-25T12:27:53.185Z</time></trkpt><trkpt lat="44.1588116" lon="10.4086987"><ele>568.0</ele><time>2026-03-25T12:27:56.193Z</time></trkpt><trkpt lat="44.1587332" lon="10.4086752"><ele>568.0</ele><time>2026-03-25T12:28:00.198Z</time></trkpt><trkpt lat="44.1586734" lon="10.4086415"><ele>568.0</ele><time>2026-03-25T12:28:03.19Z</time></trkpt><trkpt lat="44.1586134" lon="10.4086096"><ele>568.0</ele><time>2026-03-25T12:28:06.193Z</time></trkpt><trkpt lat="44.1585374" lon="10.4085641"><ele>568.0</ele><time>2026-03-25T12:28:10.198Z</time></trkpt><trkpt lat="44.1584779" lon="10.408529"><ele>568.0</ele><time>2026-03-25T12:28:13.201Z</time></trkpt><trkpt lat="44.1584148" lon="10.4084903"><ele>568.0</ele><time>2026-03-25T12:28:16.192Z</time></trkpt><trkpt lat="44.1583536" lon="10.4084564"><ele>568.0</ele><time>2026-03-25T12:28:19.198Z</time></trkpt><trkpt lat="44.1582963" lon="10.4084189"><ele>568.0</ele><time>2026-03-25T12:28:22.182Z</time></trkpt><trkpt lat="44.158216" lon="10.4083792"><ele>568.0</ele><time>2026-03-25T12:28:26.193Z</time></trkpt><trkpt lat="44.158146" lon="10.40836"><ele>568.0</ele><time>2026-03-25T12:28:29.187Z</time></trkpt><trkpt lat="44.1580778" lon="10.4083426"><ele>568.0</ele><time>2026-03-25T12:28:32.192Z</time></trkpt><trkpt lat="44.1580117" lon="10.4083388"><ele>568.0</ele><time>2026-03-25T12:28:35.205Z</time></trkpt><trkpt lat="44.1579446" lon="10.4083544"><ele>566.7142857142857</ele><time>2026-03-25T12:28:38.201Z</time></trkpt><trkpt lat="44.1578775" lon="10.4083757"><ele>565.4285714285713</ele><time>2026-03-25T12:28:41.191Z</time></trkpt><trkpt lat="44.1578129" lon="10.4084168"><ele>564.1428571428571</ele><time>2026-03-25T12:28:44.192Z</time></trkpt><trkpt lat="44.1577502" lon="10.4084582"><ele>562.8571428571429</ele><time>2026-03-25T12:28:47.203Z</time></trkpt><trkpt lat="44.1576922" lon="10.4085045"><ele>561.5714285714287</ele><time>2026-03-25T12:28:50.187Z</time></trkpt><trkpt lat="44.1576264" lon="10.4085718"><ele>560.2857142857143</ele><time>2026-03-25T12:28:54.186Z</time></trkpt><trkpt lat="44.1575684" lon="10.4086428"><ele>559.0</ele><time>2026-03-25T12:28:57.201Z</time></trkpt><trkpt lat="44.1575241" lon="10.4087301"><ele>559.0</ele><time>2026-03-25T12:29:00.198Z</time></trkpt><trkpt lat="44.1574904" lon="10.4088196"><ele>559.0</ele><time>2026-03-25T12:29:03.184Z</time></trkpt><trkpt lat="44.1574623" lon="10.4089079"><ele>559.0</ele><time>2026-03-25T12:29:06.197Z</time></trkpt><trkpt lat="44.1574428" lon="10.409"><ele>559.0</ele><time>2026-03-25T12:29:09.192Z</time></trkpt><trkpt lat="44.1574165" lon="10.4090886"><ele>559.0</ele><time>2026-03-25T12:29:12.193Z</time></trkpt><trkpt lat="44.1573865" lon="10.4091767"><ele>559.0</ele><time>2026-03-25T12:29:15.191Z</time></trkpt><trkpt lat="44.1573629" lon="10.4092696"><ele>559.0</ele><time>2026-03-25T12:29:18.199Z</time></trkpt><trkpt lat="44.1573508" lon="10.4093702"><ele>558.8571428571429</ele><time>2026-03-25T12:29:21.195Z</time></trkpt><trkpt lat="44.1573296" lon="10.4094626"><ele>558.7142857142858</ele><time>2026-03-25T12:29:24.187Z</time></trkpt><trkpt lat="44.1573037" lon="10.4095532"><ele>558.5714285714286</ele><time>2026-03-25T12:29:27.198Z</time></trkpt><trkpt lat="44.1572863" lon="10.409645"><ele>558.4285714285714</ele><time>2026-03-25T12:29:30.2Z</time></trkpt><trkpt lat="44.1572676" lon="10.4097323"><ele>558.2857142857142</ele><time>2026-03-25T12:29:33.185Z</time></trkpt><trkpt lat="44.1572434" lon="10.4098178"><ele>558.1428571428571</ele><time>2026-03-25T12:29:36.185Z</time></trkpt><trkpt lat="44.1572156" lon="10.4099073"><ele>558.0</ele><time>2026-03-25T12:29:39.198Z</time></trkpt><trkpt lat="44.1571887" lon="10.4099979"><ele>559.9999999999999</ele><time>2026-03-25T12:29:42.19Z</time></trkpt><trkpt lat="44.1571679" lon="10.4100843"><ele>562.0</ele><time>2026-03-25T12:29:45.192Z</time></trkpt><trkpt lat="44.1571391" lon="10.4101886"><ele>564.0</ele><time>2026-03-25T12:29:49.194Z</time></trkpt><trkpt lat="44.1571062" lon="10.4102737"><ele>566.0</ele><time>2026-03-25T12:29:52.193Z</time></trkpt><trkpt lat="44.1570648" lon="10.4103482"><ele>568.0</ele><time>2026-03-25T12:29:55.185Z</time></trkpt><trkpt lat="44.1570183" lon="10.4104176"><ele>569.9999999999999</ele><time>2026-03-25T12:29:58.195Z</time></trkpt><trkpt lat="44.1569645" lon="10.4104744"><ele>572.0</ele><time>2026-03-25T12:30:01.195Z</time></trkpt><trkpt lat="44.1569074" lon="10.410524"><ele>572.3333333333333</ele><time>2026-03-25T12:30:04.194Z</time></trkpt><trkpt lat="44.1568386" lon="10.4105548"><ele>572.6666666666666</ele><time>2026-03-25T12:30:08.198Z</time></trkpt><trkpt lat="44.1567631" lon="10.4105982"><ele>573.0</ele><time>2026-03-25T12:30:12.195Z</time></trkpt><trkpt lat="44.1566997" lon="10.4106267"><ele>573.3333333333334</ele><time>2026-03-25T12:30:14.191Z</time></trkpt><trkpt lat="44.1566146" lon="10.4106488"><ele>573.6666666666667</ele><time>2026-03-25T12:30:16.196Z</time></trkpt><trkpt lat="44.1565129" lon="10.4106831"><ele>574.0</ele><time>2026-03-25T12:30:18.193Z</time></trkpt><trkpt lat="44.1564007" lon="10.4107401"><ele>574.0</ele><time>2026-03-25T12:30:20.192Z</time></trkpt><trkpt lat="44.1563378" lon="10.4107661"><ele>574.0</ele><time>2026-03-25T12:30:21.195Z</time></trkpt><trkpt lat="44.1562751" lon="10.4107955"><ele>574.0</ele><time>2026-03-25T12:30:22.201Z</time></trkpt><trkpt lat="44.156208" lon="10.4108287"><ele>574.0</ele><time>2026-03-25T12:30:23.195Z</time></trkpt><trkpt lat="44.1561465" lon="10.4108592"><ele>574.0</ele><time>2026-03-25T12:30:24.199Z</time></trkpt><trkpt lat="44.1560669" lon="10.4108924"><ele>574.0</ele><time>2026-03-25T12:30:25.199Z</time></trkpt><trkpt lat="44.1559852" lon="10.4109136"><ele>574.0</ele><time>2026-03-25T12:30:26.194Z</time></trkpt><trkpt lat="44.1559019" lon="10.4109354"><ele>574.0</ele><time>2026-03-25T12:30:27.195Z</time></trkpt><trkpt lat="44.1558105" lon="10.4109554"><ele>574.0</ele><time>2026-03-25T12:30:28.197Z</time></trkpt><trkpt lat="44.1557218" lon="10.4109764"><ele>574.0</ele><time>2026-03-25T12:30:29.195Z</time></trkpt><trkpt lat="44.1556304" lon="10.4110007"><ele>574.0</ele><time>2026-03-25T12:30:30.199Z</time></trkpt><trkpt lat="44.1555383" lon="10.411032"><ele>574.0</ele><time>2026-03-25T12:30:31.201Z</time></trkpt><trkpt lat="44.1554452" lon="10.4110536"><ele>572.6</ele><time>2026-03-25T12:30:32.193Z</time></trkpt><trkpt lat="44.155348" lon="10.4110802"><ele>571.2</ele><time>2026-03-25T12:30:33.206Z</time></trkpt><trkpt lat="44.1552472" lon="10.411096"><ele>569.8000000000001</ele><time>2026-03-25T12:30:34.189Z</time></trkpt><trkpt lat="44.1551468" lon="10.411105"><ele>568.4</ele><time>2026-03-25T12:30:35.193Z</time></trkpt><trkpt lat="44.1550489" lon="10.411116"><ele>567.0</ele><time>2026-03-25T12:30:36.193Z</time></trkpt><trkpt lat="44.1549395" lon="10.4111246"><ele>566.0</ele><time>2026-03-25T12:30:37.198Z</time></trkpt><trkpt lat="44.1548325" lon="10.411132"><ele>565.0</ele><time>2026-03-25T12:30:38.193Z</time></trkpt><trkpt lat="44.154725" lon="10.4111375"><ele>564.0</ele><time>2026-03-25T12:30:39.196Z</time></trkpt><trkpt lat="44.1546155" lon="10.4111474"><ele>563.0</ele><time>2026-03-25T12:30:40.194Z</time></trkpt><trkpt lat="44.1545066" lon="10.4111578"><ele>562.0</ele><time>2026-03-25T12:30:41.183Z</time></trkpt><trkpt lat="44.1543984" lon="10.4111695"><ele>562.0</ele><time>2026-03-25T12:30:42.199Z</time></trkpt><trkpt lat="44.1542908" lon="10.4111808"><ele>562.0</ele><time>2026-03-25T12:30:43.185Z</time></trkpt><trkpt lat="44.1541799" lon="10.4112072"><ele>562.0</ele><time>2026-03-25T12:30:44.192Z</time></trkpt><trkpt lat="44.1540681" lon="10.4112302"><ele>562.0</ele><time>2026-03-25T12:30:45.202Z</time></trkpt><trkpt lat="44.1539543" lon="10.4112552"><ele>562.0</ele><time>2026-03-25T12:30:46.189Z</time></trkpt><trkpt lat="44.1538373" lon="10.4112844"><ele>558.75</ele><time>2026-03-25T12:30:47.195Z</time></trkpt><trkpt lat="44.1537175" lon="10.4113054"><ele>555.5</ele><time>2026-03-25T12:30:48.193Z</time></trkpt><trkpt lat="44.1535964" lon="10.411311"><ele>552.25</ele><time>2026-03-25T12:30:49.2Z</time></trkpt><trkpt lat="44.1534773" lon="10.411291"><ele>549.0</ele><time>2026-03-25T12:30:50.2Z</time></trkpt><trkpt lat="44.1533587" lon="10.4112512"><ele>549.0</ele><time>2026-03-25T12:30:51.193Z</time></trkpt><trkpt lat="44.1532366" lon="10.4112048"><ele>549.0</ele><time>2026-03-25T12:30:52.205Z</time></trkpt><trkpt lat="44.1531194" lon="10.411152"><ele>549.0</ele><time>2026-03-25T12:30:53.195Z</time></trkpt><trkpt lat="44.1530158" lon="10.4110954"><ele>549.0</ele><time>2026-03-25T12:30:54.195Z</time></trkpt><trkpt lat="44.1529169" lon="10.4110494"><ele>547.4</ele><time>2026-03-25T12:30:55.197Z</time></trkpt><trkpt lat="44.1528249" lon="10.4110154"><ele>545.8</ele><time>2026-03-25T12:30:56.197Z</time></trkpt><trkpt lat="44.1527339" lon="10.4110166"><ele>544.2</ele><time>2026-03-25T12:30:57.195Z</time></trkpt><trkpt lat="44.1526418" lon="10.4110465"><ele>542.6</ele><time>2026-03-25T12:30:58.198Z</time></trkpt><trkpt lat="44.152551" lon="10.4110953"><ele>541.0</ele><time>2026-03-25T12:30:59.199Z</time></trkpt><trkpt lat="44.1524626" lon="10.4111528"><ele>541.0</ele><time>2026-03-25T12:31:00.197Z</time></trkpt><trkpt lat="44.1523759" lon="10.4112088"><ele>541.0</ele><time>2026-03-25T12:31:01.191Z</time></trkpt><trkpt lat="44.1522828" lon="10.4112683"><ele>541.0</ele><time>2026-03-25T12:31:02.189Z</time></trkpt><trkpt lat="44.15219" lon="10.4113301"><ele>541.0</ele><time>2026-03-25T12:31:03.198Z</time></trkpt><trkpt lat="44.1520943" lon="10.411393"><ele>541.0</ele><time>2026-03-25T12:31:04.201Z</time></trkpt><trkpt lat="44.1520013" lon="10.4114515"><ele>540.8</ele><time>2026-03-25T12:31:05.199Z</time></trkpt><trkpt lat="44.1519083" lon="10.4115178"><ele>540.6</ele><time>2026-03-25T12:31:06.196Z</time></trkpt><trkpt lat="44.1518115" lon="10.4115764"><ele>540.4</ele><time>2026-03-25T12:31:07.193Z</time></trkpt><trkpt lat="44.151717" lon="10.411621"><ele>540.2</ele><time>2026-03-25T12:31:08.201Z</time></trkpt><trkpt lat="44.1516261" lon="10.4116471"><ele>540.0</ele><time>2026-03-25T12:31:09.197Z</time></trkpt><trkpt lat="44.1515405" lon="10.4116573"><ele>538.5</ele><time>2026-03-25T12:31:10.183Z</time></trkpt><trkpt lat="44.1514594" lon="10.4116656"><ele>537.0</ele><time>2026-03-25T12:31:11.193Z</time></trkpt><trkpt lat="44.1513896" lon="10.4116718"><ele>535.5</ele><time>2026-03-25T12:31:12.193Z</time></trkpt><trkpt lat="44.1513237" lon="10.4116856"><ele>534.0</ele><time>2026-03-25T12:31:13.196Z</time></trkpt><trkpt lat="44.151214" lon="10.4117006"><ele>532.5</ele><time>2026-03-25T12:31:15.194Z</time></trkpt><trkpt lat="44.1511241" lon="10.4117181"><ele>531.0</ele><time>2026-03-25T12:31:17.19Z</time></trkpt><trkpt lat="44.1510448" lon="10.411737"><ele>531.0</ele><time>2026-03-25T12:31:19.187Z</time></trkpt><trkpt lat="44.1509765" lon="10.4117542"><ele>531.0</ele><time>2026-03-25T12:31:21.198Z</time></trkpt><trkpt lat="44.1509123" lon="10.4118246"><ele>531.0</ele><time>2026-03-25T12:31:24.181Z</time></trkpt><trkpt lat="44.1509365" lon="10.4119232"><ele>531.0</ele><time>2026-03-25T12:31:28.181Z</time></trkpt><trkpt lat="44.1510117" lon="10.4119438"><ele>531.0</ele><time>2026-03-25T12:31:32.183Z</time></trkpt><trkpt lat="44.1510834" lon="10.4119633"><ele>531.0</ele><time>2026-03-25T12:31:36.19Z</time></trkpt><trkpt lat="44.1510831" lon="10.4120623"><ele>531.0</ele><time>2026-03-25T12:31:41.181Z</time></trkpt><trkpt lat="44.1510194" lon="10.4121102"><ele>531.0</ele><time>2026-03-25T12:31:45.181Z</time></trkpt><trkpt lat="44.1509497" lon="10.4121194"><ele>531.0</ele><time>2026-03-25T12:31:49.196Z</time></trkpt><trkpt lat="44.1508847" lon="10.412133"><ele>531.0</ele><time>2026-03-25T12:31:53.188Z</time></trkpt><trkpt lat="44.150832" lon="10.4121832"><ele>531.0</ele><time>2026-03-25T12:31:57.192Z</time></trkpt><trkpt lat="44.1508127" lon="10.4122825"><ele>531.0</ele><time>2026-03-25T12:32:01.198Z</time></trkpt><trkpt lat="44.1507869" lon="10.4123837"><ele>531.0</ele><time>2026-03-25T12:32:05.197Z</time></trkpt><trkpt lat="44.1507704" lon="10.4124738"><ele>531.0</ele><time>2026-03-25T12:32:07.187Z</time></trkpt><trkpt lat="44.1507518" lon="10.4125689"><ele>546.0</ele><time>2026-03-25T12:32:10.194Z</time></trkpt></trkseg></trk></gpx>